<?xml version="1.0" encoding="UTF-8" standalone="no" ?>
<gpx xmlns="http://www.topografix.com/GPX/1/1" xmlns:xsi="http://www.w3.org/2001/XMLSchema-instance" xsi:schemaLocation="http://www.topografix.com/GPX/1/1 http://www.topografix.com/GPX/1/1/gpx.xsd" version="1.1" creator="VisuGPX - https://www.visugpx.com">
  <metadata>
    <name>Tour du Lac Grand Lieu   Vignoble</name>
    <desc><![CDATA[Tour du Lac Grand Lieu   Vignoble]]></desc>
  </metadata>
  <trk>
    <name><![CDATA[2015-03-07 12:28]]></name>
    <desc><![CDATA[<h1>OruxMaps</h1><br /><hr align="center" width="480" style="height: 2px; width: 517px"/><h2>Nom: 2015-03-07 12:28</h2><br /><p>Temps de départ: 03/07/2015 12:33</p><p>Temps d'arrivée: 03/07/2015 16:43</p><p>Distance: 83,8km (04:10)</p><p>Temps déplacement: 03:56</p><p>Vitesse moyenne: 20,1km/h</p><p>Vitesse moyenne: 21,2km/h</p><p>Vitess Max.: 41,3km/h</p><p>Altitude minimale: -67m</p><p>Altitude maximale: 51m</p><p>Vitesse d'élévation: 728,8m/h</p><p>Vitesse de descente: -846,1m/h</p><p>Gain Altitude: 967m</p><p>Perte Altitude: -1009m</p><p>Temps d'élévation: 01:19</p><p>Temps de descente: 01:11</p><hr align="center" width="480" style="height: 2px; width: 517px"/>]]></desc>
    <trkseg>
      <trkpt lat="47.16664" lon="-1.63852">
        <ele>51.23</ele>
        <time>2015-03-07T11:33:50Z</time>
      </trkpt>
      <trkpt lat="47.16665" lon="-1.63882">
        <ele>50.93</ele>
        <time>2015-03-07T11:33:52Z</time>
      </trkpt>
      <trkpt lat="47.16666" lon="-1.63914">
        <ele>50.03</ele>
        <time>2015-03-07T11:33:54Z</time>
      </trkpt>
      <trkpt lat="47.16662" lon="-1.63944">
        <ele>49.04</ele>
        <time>2015-03-07T11:33:57Z</time>
      </trkpt>
      <trkpt lat="47.16656" lon="-1.63976">
        <ele>47.87</ele>
        <time>2015-03-07T11:34:01Z</time>
      </trkpt>
      <trkpt lat="47.16646" lon="-1.64003">
        <ele>46.72</ele>
        <time>2015-03-07T11:34:05Z</time>
      </trkpt>
      <trkpt lat="47.16636" lon="-1.64028">
        <ele>45.76</ele>
        <time>2015-03-07T11:34:09Z</time>
      </trkpt>
      <trkpt lat="47.16626" lon="-1.64055">
        <ele>44.97</ele>
        <time>2015-03-07T11:34:13Z</time>
      </trkpt>
      <trkpt lat="47.16614" lon="-1.64079">
        <ele>43.82</ele>
        <time>2015-03-07T11:34:17Z</time>
      </trkpt>
      <trkpt lat="47.16603" lon="-1.64104">
        <ele>42.58</ele>
        <time>2015-03-07T11:34:21Z</time>
      </trkpt>
      <trkpt lat="47.16592" lon="-1.64129">
        <ele>41.12</ele>
        <time>2015-03-07T11:34:25Z</time>
      </trkpt>
      <trkpt lat="47.16578" lon="-1.64156">
        <ele>39.16</ele>
        <time>2015-03-07T11:34:29Z</time>
      </trkpt>
      <trkpt lat="47.16565" lon="-1.64177">
        <ele>37.36</ele>
        <time>2015-03-07T11:34:32Z</time>
      </trkpt>
      <trkpt lat="47.16553" lon="-1.64199">
        <ele>35.18</ele>
        <time>2015-03-07T11:34:35Z</time>
      </trkpt>
      <trkpt lat="47.1654" lon="-1.64221">
        <ele>32.66</ele>
        <time>2015-03-07T11:34:38Z</time>
      </trkpt>
      <trkpt lat="47.16525" lon="-1.64238">
        <ele>30</ele>
        <time>2015-03-07T11:34:41Z</time>
      </trkpt>
      <trkpt lat="47.16511" lon="-1.64256">
        <ele>27.6</ele>
        <time>2015-03-07T11:34:44Z</time>
      </trkpt>
      <trkpt lat="47.16492" lon="-1.64277">
        <ele>24.87</ele>
        <time>2015-03-07T11:34:48Z</time>
      </trkpt>
      <trkpt lat="47.16475" lon="-1.64299">
        <ele>22.08</ele>
        <time>2015-03-07T11:34:52Z</time>
      </trkpt>
      <trkpt lat="47.16456" lon="-1.64319">
        <ele>19.35</ele>
        <time>2015-03-07T11:34:56Z</time>
      </trkpt>
      <trkpt lat="47.16438" lon="-1.64342">
        <ele>16.74</ele>
        <time>2015-03-07T11:35:00Z</time>
      </trkpt>
      <trkpt lat="47.16422" lon="-1.64365">
        <ele>13.2</ele>
        <time>2015-03-07T11:35:04Z</time>
      </trkpt>
      <trkpt lat="47.1641" lon="-1.64392">
        <ele>7.14</ele>
        <time>2015-03-07T11:35:08Z</time>
      </trkpt>
      <trkpt lat="47.16399" lon="-1.64413">
        <ele>-0.13</ele>
        <time>2015-03-07T11:35:11Z</time>
      </trkpt>
      <trkpt lat="47.16389" lon="-1.64436">
        <ele>-5.61</ele>
        <time>2015-03-07T11:35:14Z</time>
      </trkpt>
      <trkpt lat="47.16377" lon="-1.64459">
        <ele>-9.43</ele>
        <time>2015-03-07T11:35:17Z</time>
      </trkpt>
      <trkpt lat="47.16365" lon="-1.64483">
        <ele>-12.73</ele>
        <time>2015-03-07T11:35:20Z</time>
      </trkpt>
      <trkpt lat="47.16352" lon="-1.64509">
        <ele>-17.39</ele>
        <time>2015-03-07T11:35:23Z</time>
      </trkpt>
      <trkpt lat="47.1634" lon="-1.64534">
        <ele>-21.89</ele>
        <time>2015-03-07T11:35:26Z</time>
      </trkpt>
      <trkpt lat="47.16327" lon="-1.64559">
        <ele>-25.63</ele>
        <time>2015-03-07T11:35:29Z</time>
      </trkpt>
      <trkpt lat="47.16315" lon="-1.64584">
        <ele>-28.53</ele>
        <time>2015-03-07T11:35:32Z</time>
      </trkpt>
      <trkpt lat="47.16302" lon="-1.64607">
        <ele>-31.73</ele>
        <time>2015-03-07T11:35:35Z</time>
      </trkpt>
      <trkpt lat="47.1629" lon="-1.6463">
        <ele>-34.72</ele>
        <time>2015-03-07T11:35:38Z</time>
      </trkpt>
      <trkpt lat="47.16277" lon="-1.64653">
        <ele>-37.47</ele>
        <time>2015-03-07T11:35:41Z</time>
      </trkpt>
      <trkpt lat="47.16266" lon="-1.64675">
        <ele>-39.99</ele>
        <time>2015-03-07T11:35:44Z</time>
      </trkpt>
      <trkpt lat="47.16254" lon="-1.64697">
        <ele>-43.03</ele>
        <time>2015-03-07T11:35:47Z</time>
      </trkpt>
      <trkpt lat="47.16243" lon="-1.64718">
        <ele>-46.37</ele>
        <time>2015-03-07T11:35:50Z</time>
      </trkpt>
      <trkpt lat="47.16233" lon="-1.64741">
        <ele>-49.59</ele>
        <time>2015-03-07T11:35:53Z</time>
      </trkpt>
      <trkpt lat="47.16222" lon="-1.64762">
        <ele>-52.49</ele>
        <time>2015-03-07T11:35:56Z</time>
      </trkpt>
      <trkpt lat="47.16208" lon="-1.6479">
        <ele>-55.41</ele>
        <time>2015-03-07T11:36:00Z</time>
      </trkpt>
      <trkpt lat="47.16197" lon="-1.64812">
        <ele>-57.07</ele>
        <time>2015-03-07T11:36:03Z</time>
      </trkpt>
      <trkpt lat="47.16187" lon="-1.64834">
        <ele>-58.04</ele>
        <time>2015-03-07T11:36:06Z</time>
      </trkpt>
      <trkpt lat="47.16173" lon="-1.64862">
        <ele>-59.97</ele>
        <time>2015-03-07T11:36:10Z</time>
      </trkpt>
      <trkpt lat="47.16161" lon="-1.64884">
        <ele>-60.51</ele>
        <time>2015-03-07T11:36:13Z</time>
      </trkpt>
      <trkpt lat="47.1615" lon="-1.64906">
        <ele>-60.73</ele>
        <time>2015-03-07T11:36:16Z</time>
      </trkpt>
      <trkpt lat="47.16139" lon="-1.64928">
        <ele>-61.19</ele>
        <time>2015-03-07T11:36:19Z</time>
      </trkpt>
      <trkpt lat="47.16127" lon="-1.64949">
        <ele>-62.14</ele>
        <time>2015-03-07T11:36:22Z</time>
      </trkpt>
      <trkpt lat="47.16113" lon="-1.64978">
        <ele>-61.94</ele>
        <time>2015-03-07T11:36:26Z</time>
      </trkpt>
      <trkpt lat="47.16101" lon="-1.65">
        <ele>-62.04</ele>
        <time>2015-03-07T11:36:29Z</time>
      </trkpt>
      <trkpt lat="47.16087" lon="-1.65024">
        <ele>-63</ele>
        <time>2015-03-07T11:36:33Z</time>
      </trkpt>
      <trkpt lat="47.16073" lon="-1.65051">
        <ele>-63.68</ele>
        <time>2015-03-07T11:36:37Z</time>
      </trkpt>
      <trkpt lat="47.16059" lon="-1.65079">
        <ele>-64.51</ele>
        <time>2015-03-07T11:36:41Z</time>
      </trkpt>
      <trkpt lat="47.16048" lon="-1.651">
        <ele>-63.93</ele>
        <time>2015-03-07T11:36:44Z</time>
      </trkpt>
      <trkpt lat="47.16033" lon="-1.65128">
        <ele>-63.45</ele>
        <time>2015-03-07T11:36:48Z</time>
      </trkpt>
      <trkpt lat="47.16022" lon="-1.6515">
        <ele>-62.67</ele>
        <time>2015-03-07T11:36:51Z</time>
      </trkpt>
      <trkpt lat="47.16012" lon="-1.65171">
        <ele>-62.09</ele>
        <time>2015-03-07T11:36:54Z</time>
      </trkpt>
      <trkpt lat="47.16001" lon="-1.65193">
        <ele>-60.59</ele>
        <time>2015-03-07T11:36:57Z</time>
      </trkpt>
      <trkpt lat="47.15989" lon="-1.65215">
        <ele>-58.46</ele>
        <time>2015-03-07T11:37:00Z</time>
      </trkpt>
      <trkpt lat="47.15976" lon="-1.65243">
        <ele>-56.19</ele>
        <time>2015-03-07T11:37:04Z</time>
      </trkpt>
      <trkpt lat="47.15964" lon="-1.65272">
        <ele>-54.39</ele>
        <time>2015-03-07T11:37:08Z</time>
      </trkpt>
      <trkpt lat="47.15952" lon="-1.653">
        <ele>-53.62</ele>
        <time>2015-03-07T11:37:12Z</time>
      </trkpt>
      <trkpt lat="47.1594" lon="-1.65327">
        <ele>-53.81</ele>
        <time>2015-03-07T11:37:16Z</time>
      </trkpt>
      <trkpt lat="47.15928" lon="-1.65353">
        <ele>-53.22</ele>
        <time>2015-03-07T11:37:20Z</time>
      </trkpt>
      <trkpt lat="47.15916" lon="-1.65381">
        <ele>-48.11</ele>
        <time>2015-03-07T11:37:24Z</time>
      </trkpt>
      <trkpt lat="47.15903" lon="-1.65409">
        <ele>-46.18</ele>
        <time>2015-03-07T11:37:28Z</time>
      </trkpt>
      <trkpt lat="47.15891" lon="-1.65437">
        <ele>-45.52</ele>
        <time>2015-03-07T11:37:32Z</time>
      </trkpt>
      <trkpt lat="47.1588" lon="-1.65464">
        <ele>-46.23</ele>
        <time>2015-03-07T11:37:36Z</time>
      </trkpt>
      <trkpt lat="47.15868" lon="-1.65491">
        <ele>-46.51</ele>
        <time>2015-03-07T11:37:40Z</time>
      </trkpt>
      <trkpt lat="47.15854" lon="-1.6552">
        <ele>-43.92</ele>
        <time>2015-03-07T11:37:44Z</time>
      </trkpt>
      <trkpt lat="47.15843" lon="-1.65548">
        <ele>-43.91</ele>
        <time>2015-03-07T11:37:48Z</time>
      </trkpt>
      <trkpt lat="47.15832" lon="-1.65574">
        <ele>-46.09</ele>
        <time>2015-03-07T11:37:52Z</time>
      </trkpt>
      <trkpt lat="47.15822" lon="-1.65598">
        <ele>-45.92</ele>
        <time>2015-03-07T11:37:56Z</time>
      </trkpt>
      <trkpt lat="47.15809" lon="-1.65626">
        <ele>-43.71</ele>
        <time>2015-03-07T11:38:00Z</time>
      </trkpt>
      <trkpt lat="47.15796" lon="-1.65654">
        <ele>-41.49</ele>
        <time>2015-03-07T11:38:04Z</time>
      </trkpt>
      <trkpt lat="47.15783" lon="-1.6568">
        <ele>-39.31</ele>
        <time>2015-03-07T11:38:08Z</time>
      </trkpt>
      <trkpt lat="47.15769" lon="-1.65705">
        <ele>-38.28</ele>
        <time>2015-03-07T11:38:12Z</time>
      </trkpt>
      <trkpt lat="47.15751" lon="-1.65726">
        <ele>-37.47</ele>
        <time>2015-03-07T11:38:16Z</time>
      </trkpt>
      <trkpt lat="47.15737" lon="-1.65744">
        <ele>-38.99</ele>
        <time>2015-03-07T11:38:19Z</time>
      </trkpt>
      <trkpt lat="47.15722" lon="-1.65759">
        <ele>-39.31</ele>
        <time>2015-03-07T11:38:22Z</time>
      </trkpt>
      <trkpt lat="47.15707" lon="-1.65775">
        <ele>-39.6</ele>
        <time>2015-03-07T11:38:25Z</time>
      </trkpt>
      <trkpt lat="47.15688" lon="-1.65795">
        <ele>-39.07</ele>
        <time>2015-03-07T11:38:29Z</time>
      </trkpt>
      <trkpt lat="47.15669" lon="-1.65815">
        <ele>-38.64</ele>
        <time>2015-03-07T11:38:33Z</time>
      </trkpt>
      <trkpt lat="47.15651" lon="-1.65834">
        <ele>-37.95</ele>
        <time>2015-03-07T11:38:37Z</time>
      </trkpt>
      <trkpt lat="47.15633" lon="-1.65854">
        <ele>-36.49</ele>
        <time>2015-03-07T11:38:41Z</time>
      </trkpt>
      <trkpt lat="47.15615" lon="-1.65875">
        <ele>-35.75</ele>
        <time>2015-03-07T11:38:45Z</time>
      </trkpt>
      <trkpt lat="47.15596" lon="-1.65898">
        <ele>-34.51</ele>
        <time>2015-03-07T11:38:49Z</time>
      </trkpt>
      <trkpt lat="47.15576" lon="-1.65918">
        <ele>-33.36</ele>
        <time>2015-03-07T11:38:53Z</time>
      </trkpt>
      <trkpt lat="47.15563" lon="-1.65936">
        <ele>-33.09</ele>
        <time>2015-03-07T11:38:56Z</time>
      </trkpt>
      <trkpt lat="47.15548" lon="-1.65954">
        <ele>-32.48</ele>
        <time>2015-03-07T11:38:59Z</time>
      </trkpt>
      <trkpt lat="47.15532" lon="-1.65974">
        <ele>-32.81</ele>
        <time>2015-03-07T11:39:03Z</time>
      </trkpt>
      <trkpt lat="47.15514" lon="-1.65996">
        <ele>-34.72</ele>
        <time>2015-03-07T11:39:07Z</time>
      </trkpt>
      <trkpt lat="47.15495" lon="-1.66017">
        <ele>-36.31</ele>
        <time>2015-03-07T11:39:11Z</time>
      </trkpt>
      <trkpt lat="47.15478" lon="-1.66038">
        <ele>-37.81</ele>
        <time>2015-03-07T11:39:15Z</time>
      </trkpt>
      <trkpt lat="47.15461" lon="-1.66057">
        <ele>-38.93</ele>
        <time>2015-03-07T11:39:19Z</time>
      </trkpt>
      <trkpt lat="47.15443" lon="-1.66078">
        <ele>-38.46</ele>
        <time>2015-03-07T11:39:23Z</time>
      </trkpt>
      <trkpt lat="47.15425" lon="-1.66099">
        <ele>-38.34</ele>
        <time>2015-03-07T11:39:27Z</time>
      </trkpt>
      <trkpt lat="47.1541" lon="-1.66116">
        <ele>-38.68</ele>
        <time>2015-03-07T11:39:30Z</time>
      </trkpt>
      <trkpt lat="47.15395" lon="-1.66132">
        <ele>-39.97</ele>
        <time>2015-03-07T11:39:33Z</time>
      </trkpt>
      <trkpt lat="47.15377" lon="-1.66153">
        <ele>-41.26</ele>
        <time>2015-03-07T11:39:37Z</time>
      </trkpt>
      <trkpt lat="47.15359" lon="-1.66173">
        <ele>-41.3</ele>
        <time>2015-03-07T11:39:41Z</time>
      </trkpt>
      <trkpt lat="47.15342" lon="-1.66196">
        <ele>-40.94</ele>
        <time>2015-03-07T11:39:45Z</time>
      </trkpt>
      <trkpt lat="47.1533" lon="-1.66219">
        <ele>-41.08</ele>
        <time>2015-03-07T11:39:49Z</time>
      </trkpt>
      <trkpt lat="47.15319" lon="-1.66241">
        <ele>-41.18</ele>
        <time>2015-03-07T11:39:54Z</time>
      </trkpt>
      <trkpt lat="47.15307" lon="-1.66263">
        <ele>-40.41</ele>
        <time>2015-03-07T11:39:58Z</time>
      </trkpt>
      <trkpt lat="47.15292" lon="-1.6629">
        <ele>-41.27</ele>
        <time>2015-03-07T11:40:02Z</time>
      </trkpt>
      <trkpt lat="47.15281" lon="-1.66311">
        <ele>-41.04</ele>
        <time>2015-03-07T11:40:05Z</time>
      </trkpt>
      <trkpt lat="47.15267" lon="-1.66338">
        <ele>-42.2</ele>
        <time>2015-03-07T11:40:09Z</time>
      </trkpt>
      <trkpt lat="47.15253" lon="-1.66368">
        <ele>-42.13</ele>
        <time>2015-03-07T11:40:13Z</time>
      </trkpt>
      <trkpt lat="47.15243" lon="-1.66392">
        <ele>-42.49</ele>
        <time>2015-03-07T11:40:16Z</time>
      </trkpt>
      <trkpt lat="47.15232" lon="-1.66413">
        <ele>-42.56</ele>
        <time>2015-03-07T11:40:19Z</time>
      </trkpt>
      <trkpt lat="47.15222" lon="-1.66436">
        <ele>-42.37</ele>
        <time>2015-03-07T11:40:22Z</time>
      </trkpt>
      <trkpt lat="47.15207" lon="-1.66462">
        <ele>-43.47</ele>
        <time>2015-03-07T11:40:26Z</time>
      </trkpt>
      <trkpt lat="47.15195" lon="-1.66482">
        <ele>-43.65</ele>
        <time>2015-03-07T11:40:29Z</time>
      </trkpt>
      <trkpt lat="47.15184" lon="-1.66502">
        <ele>-43.48</ele>
        <time>2015-03-07T11:40:32Z</time>
      </trkpt>
      <trkpt lat="47.15171" lon="-1.66531">
        <ele>-47.12</ele>
        <time>2015-03-07T11:40:36Z</time>
      </trkpt>
      <trkpt lat="47.15152" lon="-1.66546">
        <ele>-50.12</ele>
        <time>2015-03-07T11:40:40Z</time>
      </trkpt>
      <trkpt lat="47.15133" lon="-1.66549">
        <ele>-49.32</ele>
        <time>2015-03-07T11:40:43Z</time>
      </trkpt>
      <trkpt lat="47.15111" lon="-1.66556">
        <ele>-49.28</ele>
        <time>2015-03-07T11:40:47Z</time>
      </trkpt>
      <trkpt lat="47.15093" lon="-1.66564">
        <ele>-51.92</ele>
        <time>2015-03-07T11:40:50Z</time>
      </trkpt>
      <trkpt lat="47.15075" lon="-1.66572">
        <ele>-52.82</ele>
        <time>2015-03-07T11:40:53Z</time>
      </trkpt>
      <trkpt lat="47.15058" lon="-1.66581">
        <ele>-52.4</ele>
        <time>2015-03-07T11:40:56Z</time>
      </trkpt>
      <trkpt lat="47.1504" lon="-1.66592">
        <ele>-51.48</ele>
        <time>2015-03-07T11:40:59Z</time>
      </trkpt>
      <trkpt lat="47.15022" lon="-1.66602">
        <ele>-51.27</ele>
        <time>2015-03-07T11:41:02Z</time>
      </trkpt>
      <trkpt lat="47.15001" lon="-1.66612">
        <ele>-55.04</ele>
        <time>2015-03-07T11:41:06Z</time>
      </trkpt>
      <trkpt lat="47.14979" lon="-1.66627">
        <ele>-57.79</ele>
        <time>2015-03-07T11:41:10Z</time>
      </trkpt>
      <trkpt lat="47.14961" lon="-1.66647">
        <ele>-60.31</ele>
        <time>2015-03-07T11:41:14Z</time>
      </trkpt>
      <trkpt lat="47.14948" lon="-1.66664">
        <ele>-60.83</ele>
        <time>2015-03-07T11:41:17Z</time>
      </trkpt>
      <trkpt lat="47.14934" lon="-1.66682">
        <ele>-61.34</ele>
        <time>2015-03-07T11:41:20Z</time>
      </trkpt>
      <trkpt lat="47.14915" lon="-1.66704">
        <ele>-63.39</ele>
        <time>2015-03-07T11:41:24Z</time>
      </trkpt>
      <trkpt lat="47.149" lon="-1.66722">
        <ele>-64.7</ele>
        <time>2015-03-07T11:41:27Z</time>
      </trkpt>
      <trkpt lat="47.14885" lon="-1.66741">
        <ele>-65.26</ele>
        <time>2015-03-07T11:41:30Z</time>
      </trkpt>
      <trkpt lat="47.1487" lon="-1.66759">
        <ele>-64.82</ele>
        <time>2015-03-07T11:41:33Z</time>
      </trkpt>
      <trkpt lat="47.14856" lon="-1.66776">
        <ele>-64.62</ele>
        <time>2015-03-07T11:41:36Z</time>
      </trkpt>
      <trkpt lat="47.14842" lon="-1.66793">
        <ele>-67.19</ele>
        <time>2015-03-07T11:41:39Z</time>
      </trkpt>
      <trkpt lat="47.14827" lon="-1.66807">
        <ele>-67.93</ele>
        <time>2015-03-07T11:41:42Z</time>
      </trkpt>
      <trkpt lat="47.14809" lon="-1.66818">
        <ele>-63.37</ele>
        <time>2015-03-07T11:41:45Z</time>
      </trkpt>
      <trkpt lat="47.14793" lon="-1.6683">
        <ele>-56.65</ele>
        <time>2015-03-07T11:41:48Z</time>
      </trkpt>
      <trkpt lat="47.14775" lon="-1.66839">
        <ele>-47.18</ele>
        <time>2015-03-07T11:41:51Z</time>
      </trkpt>
      <trkpt lat="47.14752" lon="-1.66852">
        <ele>-34.74</ele>
        <time>2015-03-07T11:41:55Z</time>
      </trkpt>
      <trkpt lat="47.14729" lon="-1.66863">
        <ele>-32.86</ele>
        <time>2015-03-07T11:41:59Z</time>
      </trkpt>
      <trkpt lat="47.14711" lon="-1.6687">
        <ele>-34.83</ele>
        <time>2015-03-07T11:42:02Z</time>
      </trkpt>
      <trkpt lat="47.14693" lon="-1.66876">
        <ele>-35.76</ele>
        <time>2015-03-07T11:42:05Z</time>
      </trkpt>
      <trkpt lat="47.14674" lon="-1.66882">
        <ele>-34.52</ele>
        <time>2015-03-07T11:42:08Z</time>
      </trkpt>
      <trkpt lat="47.14655" lon="-1.66888">
        <ele>-32.67</ele>
        <time>2015-03-07T11:42:11Z</time>
      </trkpt>
      <trkpt lat="47.14638" lon="-1.66895">
        <ele>-32.55</ele>
        <time>2015-03-07T11:42:14Z</time>
      </trkpt>
      <trkpt lat="47.14615" lon="-1.66904">
        <ele>-33.12</ele>
        <time>2015-03-07T11:42:18Z</time>
      </trkpt>
      <trkpt lat="47.14595" lon="-1.66911">
        <ele>-31.68</ele>
        <time>2015-03-07T11:42:21Z</time>
      </trkpt>
      <trkpt lat="47.14577" lon="-1.66919">
        <ele>-29.79</ele>
        <time>2015-03-07T11:42:24Z</time>
      </trkpt>
      <trkpt lat="47.1456" lon="-1.66928">
        <ele>-30.39</ele>
        <time>2015-03-07T11:42:27Z</time>
      </trkpt>
      <trkpt lat="47.14542" lon="-1.66939">
        <ele>-30.73</ele>
        <time>2015-03-07T11:42:30Z</time>
      </trkpt>
      <trkpt lat="47.14525" lon="-1.66954">
        <ele>-31.01</ele>
        <time>2015-03-07T11:42:33Z</time>
      </trkpt>
      <trkpt lat="47.14511" lon="-1.66974">
        <ele>-34.43</ele>
        <time>2015-03-07T11:42:36Z</time>
      </trkpt>
      <trkpt lat="47.14501" lon="-1.66997">
        <ele>-36.61</ele>
        <time>2015-03-07T11:42:39Z</time>
      </trkpt>
      <trkpt lat="47.14488" lon="-1.67026">
        <ele>-38.96</ele>
        <time>2015-03-07T11:42:43Z</time>
      </trkpt>
      <trkpt lat="47.14476" lon="-1.67047">
        <ele>-39.57</ele>
        <time>2015-03-07T11:42:46Z</time>
      </trkpt>
      <trkpt lat="47.14456" lon="-1.67067">
        <ele>-40.14</ele>
        <time>2015-03-07T11:42:50Z</time>
      </trkpt>
      <trkpt lat="47.14439" lon="-1.6708">
        <ele>-41.12</ele>
        <time>2015-03-07T11:42:53Z</time>
      </trkpt>
      <trkpt lat="47.14423" lon="-1.67092">
        <ele>-41.89</ele>
        <time>2015-03-07T11:42:56Z</time>
      </trkpt>
      <trkpt lat="47.14407" lon="-1.67105">
        <ele>-42.18</ele>
        <time>2015-03-07T11:42:59Z</time>
      </trkpt>
      <trkpt lat="47.14386" lon="-1.67121">
        <ele>-42.81</ele>
        <time>2015-03-07T11:43:03Z</time>
      </trkpt>
      <trkpt lat="47.1437" lon="-1.67133">
        <ele>-43.04</ele>
        <time>2015-03-07T11:43:06Z</time>
      </trkpt>
      <trkpt lat="47.14353" lon="-1.67144">
        <ele>-43.87</ele>
        <time>2015-03-07T11:43:09Z</time>
      </trkpt>
      <trkpt lat="47.14334" lon="-1.67154">
        <ele>-43.76</ele>
        <time>2015-03-07T11:43:12Z</time>
      </trkpt>
      <trkpt lat="47.14312" lon="-1.67167">
        <ele>-44.48</ele>
        <time>2015-03-07T11:43:16Z</time>
      </trkpt>
      <trkpt lat="47.14296" lon="-1.67178">
        <ele>-45.16</ele>
        <time>2015-03-07T11:43:19Z</time>
      </trkpt>
      <trkpt lat="47.14275" lon="-1.67194">
        <ele>-44.06</ele>
        <time>2015-03-07T11:43:23Z</time>
      </trkpt>
      <trkpt lat="47.14255" lon="-1.67208">
        <ele>-42.86</ele>
        <time>2015-03-07T11:43:27Z</time>
      </trkpt>
      <trkpt lat="47.14237" lon="-1.67221">
        <ele>-43.19</ele>
        <time>2015-03-07T11:43:31Z</time>
      </trkpt>
      <trkpt lat="47.14221" lon="-1.67232">
        <ele>-43.94</ele>
        <time>2015-03-07T11:43:37Z</time>
      </trkpt>
      <trkpt lat="47.14202" lon="-1.67244">
        <ele>-43.33</ele>
        <time>2015-03-07T11:44:07Z</time>
      </trkpt>
      <trkpt lat="47.14183" lon="-1.67247">
        <ele>-43.38</ele>
        <time>2015-03-07T11:44:10Z</time>
      </trkpt>
      <trkpt lat="47.14163" lon="-1.6725">
        <ele>-43.3</ele>
        <time>2015-03-07T11:44:13Z</time>
      </trkpt>
      <trkpt lat="47.14142" lon="-1.67255">
        <ele>-43.11</ele>
        <time>2015-03-07T11:44:16Z</time>
      </trkpt>
      <trkpt lat="47.14123" lon="-1.67257">
        <ele>-43.07</ele>
        <time>2015-03-07T11:44:19Z</time>
      </trkpt>
      <trkpt lat="47.14104" lon="-1.6726">
        <ele>-43.36</ele>
        <time>2015-03-07T11:44:22Z</time>
      </trkpt>
      <trkpt lat="47.14085" lon="-1.67263">
        <ele>-43.35</ele>
        <time>2015-03-07T11:44:25Z</time>
      </trkpt>
      <trkpt lat="47.14065" lon="-1.67266">
        <ele>-43.77</ele>
        <time>2015-03-07T11:44:28Z</time>
      </trkpt>
      <trkpt lat="47.14044" lon="-1.67268">
        <ele>-44.4</ele>
        <time>2015-03-07T11:44:31Z</time>
      </trkpt>
      <trkpt lat="47.14024" lon="-1.67271">
        <ele>-45.11</ele>
        <time>2015-03-07T11:44:34Z</time>
      </trkpt>
      <trkpt lat="47.14002" lon="-1.67275">
        <ele>-45.44</ele>
        <time>2015-03-07T11:44:37Z</time>
      </trkpt>
      <trkpt lat="47.13982" lon="-1.67278">
        <ele>-45.74</ele>
        <time>2015-03-07T11:44:40Z</time>
      </trkpt>
      <trkpt lat="47.13964" lon="-1.67281">
        <ele>-45.65</ele>
        <time>2015-03-07T11:44:43Z</time>
      </trkpt>
      <trkpt lat="47.13945" lon="-1.67283">
        <ele>-45.71</ele>
        <time>2015-03-07T11:44:46Z</time>
      </trkpt>
      <trkpt lat="47.13925" lon="-1.67287">
        <ele>-45.92</ele>
        <time>2015-03-07T11:44:49Z</time>
      </trkpt>
      <trkpt lat="47.13906" lon="-1.67293">
        <ele>-46.38</ele>
        <time>2015-03-07T11:44:52Z</time>
      </trkpt>
      <trkpt lat="47.13888" lon="-1.67299">
        <ele>-46.65</ele>
        <time>2015-03-07T11:44:55Z</time>
      </trkpt>
      <trkpt lat="47.13865" lon="-1.67306">
        <ele>-47.33</ele>
        <time>2015-03-07T11:44:59Z</time>
      </trkpt>
      <trkpt lat="47.13847" lon="-1.67311">
        <ele>-47.46</ele>
        <time>2015-03-07T11:45:02Z</time>
      </trkpt>
      <trkpt lat="47.13829" lon="-1.67317">
        <ele>-47.15</ele>
        <time>2015-03-07T11:45:05Z</time>
      </trkpt>
      <trkpt lat="47.1381" lon="-1.67322">
        <ele>-47.18</ele>
        <time>2015-03-07T11:45:08Z</time>
      </trkpt>
      <trkpt lat="47.138" lon="-1.67348">
        <ele>-47.43</ele>
        <time>2015-03-07T11:45:12Z</time>
      </trkpt>
      <trkpt lat="47.13793" lon="-1.67382">
        <ele>-49.67</ele>
        <time>2015-03-07T11:45:16Z</time>
      </trkpt>
      <trkpt lat="47.13788" lon="-1.67408">
        <ele>-50.89</ele>
        <time>2015-03-07T11:45:19Z</time>
      </trkpt>
      <trkpt lat="47.13785" lon="-1.67435">
        <ele>-51.55</ele>
        <time>2015-03-07T11:45:22Z</time>
      </trkpt>
      <trkpt lat="47.13784" lon="-1.67462">
        <ele>-53.41</ele>
        <time>2015-03-07T11:45:25Z</time>
      </trkpt>
      <trkpt lat="47.13784" lon="-1.67494">
        <ele>-55.33</ele>
        <time>2015-03-07T11:45:29Z</time>
      </trkpt>
      <trkpt lat="47.13786" lon="-1.67527">
        <ele>-56.24</ele>
        <time>2015-03-07T11:45:33Z</time>
      </trkpt>
      <trkpt lat="47.13787" lon="-1.6756">
        <ele>-54.45</ele>
        <time>2015-03-07T11:45:37Z</time>
      </trkpt>
      <trkpt lat="47.1379" lon="-1.67589">
        <ele>-53.21</ele>
        <time>2015-03-07T11:45:40Z</time>
      </trkpt>
      <trkpt lat="47.1379" lon="-1.67616">
        <ele>-52.8</ele>
        <time>2015-03-07T11:45:43Z</time>
      </trkpt>
      <trkpt lat="47.13792" lon="-1.6765">
        <ele>-51.34</ele>
        <time>2015-03-07T11:45:47Z</time>
      </trkpt>
      <trkpt lat="47.13794" lon="-1.67677">
        <ele>-51.43</ele>
        <time>2015-03-07T11:45:50Z</time>
      </trkpt>
      <trkpt lat="47.13796" lon="-1.67709">
        <ele>-50.88</ele>
        <time>2015-03-07T11:45:54Z</time>
      </trkpt>
      <trkpt lat="47.13798" lon="-1.67742">
        <ele>-49.87</ele>
        <time>2015-03-07T11:45:58Z</time>
      </trkpt>
      <trkpt lat="47.13799" lon="-1.67776">
        <ele>-49.89</ele>
        <time>2015-03-07T11:46:02Z</time>
      </trkpt>
      <trkpt lat="47.13801" lon="-1.67803">
        <ele>-51.01</ele>
        <time>2015-03-07T11:46:05Z</time>
      </trkpt>
      <trkpt lat="47.13803" lon="-1.67838">
        <ele>-51.64</ele>
        <time>2015-03-07T11:46:09Z</time>
      </trkpt>
      <trkpt lat="47.13805" lon="-1.67873">
        <ele>-52.93</ele>
        <time>2015-03-07T11:46:13Z</time>
      </trkpt>
      <trkpt lat="47.13807" lon="-1.67902">
        <ele>-53.04</ele>
        <time>2015-03-07T11:46:16Z</time>
      </trkpt>
      <trkpt lat="47.1381" lon="-1.67932">
        <ele>-52.62</ele>
        <time>2015-03-07T11:46:19Z</time>
      </trkpt>
      <trkpt lat="47.13814" lon="-1.67962">
        <ele>-53.2</ele>
        <time>2015-03-07T11:46:22Z</time>
      </trkpt>
      <trkpt lat="47.13817" lon="-1.67991">
        <ele>-53.19</ele>
        <time>2015-03-07T11:46:25Z</time>
      </trkpt>
      <trkpt lat="47.13821" lon="-1.68017">
        <ele>-53.23</ele>
        <time>2015-03-07T11:46:28Z</time>
      </trkpt>
      <trkpt lat="47.13831" lon="-1.68047">
        <ele>-53.4</ele>
        <time>2015-03-07T11:46:32Z</time>
      </trkpt>
      <trkpt lat="47.13843" lon="-1.68074">
        <ele>-54.32</ele>
        <time>2015-03-07T11:46:36Z</time>
      </trkpt>
      <trkpt lat="47.13856" lon="-1.68102">
        <ele>-56.21</ele>
        <time>2015-03-07T11:46:40Z</time>
      </trkpt>
      <trkpt lat="47.13866" lon="-1.68125">
        <ele>-56.93</ele>
        <time>2015-03-07T11:46:43Z</time>
      </trkpt>
      <trkpt lat="47.13877" lon="-1.68156">
        <ele>-57.31</ele>
        <time>2015-03-07T11:46:47Z</time>
      </trkpt>
      <trkpt lat="47.13886" lon="-1.68181">
        <ele>-56.63</ele>
        <time>2015-03-07T11:46:50Z</time>
      </trkpt>
      <trkpt lat="47.13895" lon="-1.68204">
        <ele>-56.06</ele>
        <time>2015-03-07T11:46:53Z</time>
      </trkpt>
      <trkpt lat="47.13905" lon="-1.68227">
        <ele>-55.15</ele>
        <time>2015-03-07T11:46:56Z</time>
      </trkpt>
      <trkpt lat="47.13917" lon="-1.68257">
        <ele>-55.76</ele>
        <time>2015-03-07T11:47:00Z</time>
      </trkpt>
      <trkpt lat="47.13928" lon="-1.68278">
        <ele>-57.81</ele>
        <time>2015-03-07T11:47:03Z</time>
      </trkpt>
      <trkpt lat="47.13938" lon="-1.68302">
        <ele>-59.08</ele>
        <time>2015-03-07T11:47:06Z</time>
      </trkpt>
      <trkpt lat="47.13948" lon="-1.68326">
        <ele>-59.34</ele>
        <time>2015-03-07T11:47:09Z</time>
      </trkpt>
      <trkpt lat="47.1396" lon="-1.68352">
        <ele>-58.97</ele>
        <time>2015-03-07T11:47:12Z</time>
      </trkpt>
      <trkpt lat="47.13971" lon="-1.68377">
        <ele>-58.22</ele>
        <time>2015-03-07T11:47:15Z</time>
      </trkpt>
      <trkpt lat="47.13983" lon="-1.68399">
        <ele>-57.43</ele>
        <time>2015-03-07T11:47:18Z</time>
      </trkpt>
      <trkpt lat="47.13996" lon="-1.6842">
        <ele>-57.82</ele>
        <time>2015-03-07T11:47:21Z</time>
      </trkpt>
      <trkpt lat="47.14008" lon="-1.6844">
        <ele>-57.28</ele>
        <time>2015-03-07T11:47:24Z</time>
      </trkpt>
      <trkpt lat="47.14023" lon="-1.68465">
        <ele>-55.94</ele>
        <time>2015-03-07T11:47:28Z</time>
      </trkpt>
      <trkpt lat="47.14038" lon="-1.68487">
        <ele>-55.05</ele>
        <time>2015-03-07T11:47:32Z</time>
      </trkpt>
      <trkpt lat="47.14054" lon="-1.68512">
        <ele>-54.83</ele>
        <time>2015-03-07T11:47:36Z</time>
      </trkpt>
      <trkpt lat="47.14067" lon="-1.68532">
        <ele>-53.99</ele>
        <time>2015-03-07T11:47:39Z</time>
      </trkpt>
      <trkpt lat="47.1408" lon="-1.68552">
        <ele>-53.83</ele>
        <time>2015-03-07T11:47:42Z</time>
      </trkpt>
      <trkpt lat="47.14092" lon="-1.68573">
        <ele>-53.61</ele>
        <time>2015-03-07T11:47:45Z</time>
      </trkpt>
      <trkpt lat="47.14106" lon="-1.68594">
        <ele>-53.72</ele>
        <time>2015-03-07T11:47:48Z</time>
      </trkpt>
      <trkpt lat="47.14122" lon="-1.68619">
        <ele>-54.11</ele>
        <time>2015-03-07T11:47:52Z</time>
      </trkpt>
      <trkpt lat="47.14139" lon="-1.68643">
        <ele>-54.9</ele>
        <time>2015-03-07T11:47:56Z</time>
      </trkpt>
      <trkpt lat="47.14152" lon="-1.68663">
        <ele>-54.93</ele>
        <time>2015-03-07T11:47:59Z</time>
      </trkpt>
      <trkpt lat="47.14164" lon="-1.68684">
        <ele>-53.88</ele>
        <time>2015-03-07T11:48:02Z</time>
      </trkpt>
      <trkpt lat="47.14175" lon="-1.68707">
        <ele>-53.35</ele>
        <time>2015-03-07T11:48:05Z</time>
      </trkpt>
      <trkpt lat="47.14184" lon="-1.6873">
        <ele>-53.5</ele>
        <time>2015-03-07T11:48:08Z</time>
      </trkpt>
      <trkpt lat="47.14192" lon="-1.68755">
        <ele>-53.75</ele>
        <time>2015-03-07T11:48:11Z</time>
      </trkpt>
      <trkpt lat="47.14202" lon="-1.68785">
        <ele>-53.7</ele>
        <time>2015-03-07T11:48:15Z</time>
      </trkpt>
      <trkpt lat="47.1421" lon="-1.68818">
        <ele>-53.48</ele>
        <time>2015-03-07T11:48:19Z</time>
      </trkpt>
      <trkpt lat="47.14217" lon="-1.6885">
        <ele>-54.51</ele>
        <time>2015-03-07T11:48:23Z</time>
      </trkpt>
      <trkpt lat="47.14223" lon="-1.68882">
        <ele>-55.46</ele>
        <time>2015-03-07T11:48:27Z</time>
      </trkpt>
      <trkpt lat="47.14225" lon="-1.68915">
        <ele>-55.25</ele>
        <time>2015-03-07T11:48:31Z</time>
      </trkpt>
      <trkpt lat="47.14212" lon="-1.68943">
        <ele>-53.78</ele>
        <time>2015-03-07T11:48:35Z</time>
      </trkpt>
      <trkpt lat="47.14198" lon="-1.68968">
        <ele>-53.19</ele>
        <time>2015-03-07T11:48:39Z</time>
      </trkpt>
      <trkpt lat="47.14185" lon="-1.68996">
        <ele>-52.96</ele>
        <time>2015-03-07T11:48:43Z</time>
      </trkpt>
      <trkpt lat="47.14172" lon="-1.69025">
        <ele>-51.65</ele>
        <time>2015-03-07T11:48:47Z</time>
      </trkpt>
      <trkpt lat="47.14166" lon="-1.69054">
        <ele>-50.09</ele>
        <time>2015-03-07T11:48:51Z</time>
      </trkpt>
      <trkpt lat="47.14162" lon="-1.69085">
        <ele>-47.51</ele>
        <time>2015-03-07T11:48:55Z</time>
      </trkpt>
      <trkpt lat="47.14158" lon="-1.69115">
        <ele>-45.34</ele>
        <time>2015-03-07T11:48:59Z</time>
      </trkpt>
      <trkpt lat="47.14154" lon="-1.69144">
        <ele>-43.21</ele>
        <time>2015-03-07T11:49:03Z</time>
      </trkpt>
      <trkpt lat="47.14148" lon="-1.69172">
        <ele>-41.66</ele>
        <time>2015-03-07T11:49:07Z</time>
      </trkpt>
      <trkpt lat="47.14144" lon="-1.692">
        <ele>-40.74</ele>
        <time>2015-03-07T11:49:11Z</time>
      </trkpt>
      <trkpt lat="47.1414" lon="-1.69229">
        <ele>-40.18</ele>
        <time>2015-03-07T11:49:15Z</time>
      </trkpt>
      <trkpt lat="47.14135" lon="-1.69257">
        <ele>-39.7</ele>
        <time>2015-03-07T11:49:19Z</time>
      </trkpt>
      <trkpt lat="47.14129" lon="-1.69289">
        <ele>-38.82</ele>
        <time>2015-03-07T11:49:23Z</time>
      </trkpt>
      <trkpt lat="47.14125" lon="-1.6932">
        <ele>-38.29</ele>
        <time>2015-03-07T11:49:27Z</time>
      </trkpt>
      <trkpt lat="47.14121" lon="-1.69351">
        <ele>-37.66</ele>
        <time>2015-03-07T11:49:31Z</time>
      </trkpt>
      <trkpt lat="47.14118" lon="-1.69384">
        <ele>-37.48</ele>
        <time>2015-03-07T11:49:35Z</time>
      </trkpt>
      <trkpt lat="47.14114" lon="-1.69417">
        <ele>-37.55</ele>
        <time>2015-03-07T11:49:39Z</time>
      </trkpt>
      <trkpt lat="47.1411" lon="-1.69449">
        <ele>-38</ele>
        <time>2015-03-07T11:49:43Z</time>
      </trkpt>
      <trkpt lat="47.14107" lon="-1.69482">
        <ele>-38.36</ele>
        <time>2015-03-07T11:49:47Z</time>
      </trkpt>
      <trkpt lat="47.14104" lon="-1.69508">
        <ele>-38.1</ele>
        <time>2015-03-07T11:49:50Z</time>
      </trkpt>
      <trkpt lat="47.14101" lon="-1.69534">
        <ele>-38.65</ele>
        <time>2015-03-07T11:49:53Z</time>
      </trkpt>
      <trkpt lat="47.14099" lon="-1.69564">
        <ele>-39.33</ele>
        <time>2015-03-07T11:49:56Z</time>
      </trkpt>
      <trkpt lat="47.14096" lon="-1.69592">
        <ele>-40.48</ele>
        <time>2015-03-07T11:49:59Z</time>
      </trkpt>
      <trkpt lat="47.14096" lon="-1.69621">
        <ele>-41.35</ele>
        <time>2015-03-07T11:50:02Z</time>
      </trkpt>
      <trkpt lat="47.14099" lon="-1.69651">
        <ele>-41.97</ele>
        <time>2015-03-07T11:50:05Z</time>
      </trkpt>
      <trkpt lat="47.14102" lon="-1.69683">
        <ele>-42.41</ele>
        <time>2015-03-07T11:50:08Z</time>
      </trkpt>
      <trkpt lat="47.14107" lon="-1.69713">
        <ele>-43.24</ele>
        <time>2015-03-07T11:50:12Z</time>
      </trkpt>
      <trkpt lat="47.14091" lon="-1.69735">
        <ele>-44.2</ele>
        <time>2015-03-07T11:50:18Z</time>
      </trkpt>
      <trkpt lat="47.14069" lon="-1.69736">
        <ele>-45.07</ele>
        <time>2015-03-07T11:50:22Z</time>
      </trkpt>
      <trkpt lat="47.14047" lon="-1.69732">
        <ele>-45.95</ele>
        <time>2015-03-07T11:50:26Z</time>
      </trkpt>
      <trkpt lat="47.14028" lon="-1.69731">
        <ele>-46.57</ele>
        <time>2015-03-07T11:50:29Z</time>
      </trkpt>
      <trkpt lat="47.14006" lon="-1.69728">
        <ele>-46.52</ele>
        <time>2015-03-07T11:50:33Z</time>
      </trkpt>
      <trkpt lat="47.13982" lon="-1.69725">
        <ele>-46.68</ele>
        <time>2015-03-07T11:50:37Z</time>
      </trkpt>
      <trkpt lat="47.13963" lon="-1.69724">
        <ele>-47.4</ele>
        <time>2015-03-07T11:50:40Z</time>
      </trkpt>
      <trkpt lat="47.13945" lon="-1.69723">
        <ele>-47.71</ele>
        <time>2015-03-07T11:50:43Z</time>
      </trkpt>
      <trkpt lat="47.13926" lon="-1.69723">
        <ele>-47.34</ele>
        <time>2015-03-07T11:50:46Z</time>
      </trkpt>
      <trkpt lat="47.13906" lon="-1.69724">
        <ele>-47.24</ele>
        <time>2015-03-07T11:50:49Z</time>
      </trkpt>
      <trkpt lat="47.13886" lon="-1.69728">
        <ele>-47.61</ele>
        <time>2015-03-07T11:50:52Z</time>
      </trkpt>
      <trkpt lat="47.13866" lon="-1.69731">
        <ele>-48.14</ele>
        <time>2015-03-07T11:50:55Z</time>
      </trkpt>
      <trkpt lat="47.13843" lon="-1.69733">
        <ele>-48.46</ele>
        <time>2015-03-07T11:50:59Z</time>
      </trkpt>
      <trkpt lat="47.13819" lon="-1.69731">
        <ele>-48.67</ele>
        <time>2015-03-07T11:51:03Z</time>
      </trkpt>
      <trkpt lat="47.138" lon="-1.69731">
        <ele>-49.07</ele>
        <time>2015-03-07T11:51:06Z</time>
      </trkpt>
      <trkpt lat="47.1378" lon="-1.69731">
        <ele>-49.46</ele>
        <time>2015-03-07T11:51:09Z</time>
      </trkpt>
      <trkpt lat="47.13759" lon="-1.69734">
        <ele>-49.92</ele>
        <time>2015-03-07T11:51:12Z</time>
      </trkpt>
      <trkpt lat="47.1374" lon="-1.69739">
        <ele>-50.13</ele>
        <time>2015-03-07T11:51:15Z</time>
      </trkpt>
      <trkpt lat="47.13716" lon="-1.69743">
        <ele>-50.53</ele>
        <time>2015-03-07T11:51:19Z</time>
      </trkpt>
      <trkpt lat="47.13693" lon="-1.69745">
        <ele>-51.06</ele>
        <time>2015-03-07T11:51:23Z</time>
      </trkpt>
      <trkpt lat="47.13674" lon="-1.69742">
        <ele>-51.47</ele>
        <time>2015-03-07T11:51:26Z</time>
      </trkpt>
      <trkpt lat="47.13655" lon="-1.69741">
        <ele>-52.16</ele>
        <time>2015-03-07T11:51:29Z</time>
      </trkpt>
      <trkpt lat="47.13632" lon="-1.69743">
        <ele>-53.24</ele>
        <time>2015-03-07T11:51:33Z</time>
      </trkpt>
      <trkpt lat="47.13609" lon="-1.69743">
        <ele>-53.29</ele>
        <time>2015-03-07T11:51:37Z</time>
      </trkpt>
      <trkpt lat="47.13586" lon="-1.69744">
        <ele>-53.11</ele>
        <time>2015-03-07T11:51:41Z</time>
      </trkpt>
      <trkpt lat="47.13568" lon="-1.69744">
        <ele>-52.9</ele>
        <time>2015-03-07T11:51:44Z</time>
      </trkpt>
      <trkpt lat="47.13548" lon="-1.69744">
        <ele>-52.83</ele>
        <time>2015-03-07T11:51:47Z</time>
      </trkpt>
      <trkpt lat="47.13528" lon="-1.69744">
        <ele>-52.72</ele>
        <time>2015-03-07T11:51:50Z</time>
      </trkpt>
      <trkpt lat="47.13508" lon="-1.69746">
        <ele>-52.59</ele>
        <time>2015-03-07T11:51:53Z</time>
      </trkpt>
      <trkpt lat="47.13487" lon="-1.69748">
        <ele>-52.41</ele>
        <time>2015-03-07T11:51:56Z</time>
      </trkpt>
      <trkpt lat="47.13468" lon="-1.69752">
        <ele>-52.53</ele>
        <time>2015-03-07T11:51:59Z</time>
      </trkpt>
      <trkpt lat="47.13449" lon="-1.69762">
        <ele>-53.44</ele>
        <time>2015-03-07T11:52:03Z</time>
      </trkpt>
      <trkpt lat="47.13431" lon="-1.69771">
        <ele>-54.22</ele>
        <time>2015-03-07T11:52:07Z</time>
      </trkpt>
      <trkpt lat="47.13411" lon="-1.69782">
        <ele>-54.71</ele>
        <time>2015-03-07T11:52:11Z</time>
      </trkpt>
      <trkpt lat="47.13389" lon="-1.6979">
        <ele>-55.53</ele>
        <time>2015-03-07T11:52:15Z</time>
      </trkpt>
      <trkpt lat="47.13371" lon="-1.69799">
        <ele>-55.59</ele>
        <time>2015-03-07T11:52:18Z</time>
      </trkpt>
      <trkpt lat="47.13352" lon="-1.69809">
        <ele>-55.34</ele>
        <time>2015-03-07T11:52:21Z</time>
      </trkpt>
      <trkpt lat="47.13334" lon="-1.69817">
        <ele>-54.19</ele>
        <time>2015-03-07T11:52:24Z</time>
      </trkpt>
      <trkpt lat="47.13315" lon="-1.69828">
        <ele>-53.11</ele>
        <time>2015-03-07T11:52:27Z</time>
      </trkpt>
      <trkpt lat="47.13297" lon="-1.69838">
        <ele>-51.94</ele>
        <time>2015-03-07T11:52:30Z</time>
      </trkpt>
      <trkpt lat="47.13279" lon="-1.69845">
        <ele>-50.42</ele>
        <time>2015-03-07T11:52:33Z</time>
      </trkpt>
      <trkpt lat="47.13257" lon="-1.69857">
        <ele>-49.16</ele>
        <time>2015-03-07T11:52:37Z</time>
      </trkpt>
      <trkpt lat="47.13239" lon="-1.69867">
        <ele>-48.92</ele>
        <time>2015-03-07T11:52:40Z</time>
      </trkpt>
      <trkpt lat="47.13218" lon="-1.69877">
        <ele>-48.86</ele>
        <time>2015-03-07T11:52:43Z</time>
      </trkpt>
      <trkpt lat="47.13198" lon="-1.69887">
        <ele>-48.68</ele>
        <time>2015-03-07T11:52:46Z</time>
      </trkpt>
      <trkpt lat="47.13178" lon="-1.69897">
        <ele>-48.99</ele>
        <time>2015-03-07T11:52:49Z</time>
      </trkpt>
      <trkpt lat="47.13159" lon="-1.69907">
        <ele>-49.44</ele>
        <time>2015-03-07T11:52:52Z</time>
      </trkpt>
      <trkpt lat="47.13141" lon="-1.69917">
        <ele>-49.94</ele>
        <time>2015-03-07T11:52:55Z</time>
      </trkpt>
      <trkpt lat="47.13124" lon="-1.69927">
        <ele>-50.6</ele>
        <time>2015-03-07T11:52:58Z</time>
      </trkpt>
      <trkpt lat="47.13104" lon="-1.69937">
        <ele>-51.58</ele>
        <time>2015-03-07T11:53:01Z</time>
      </trkpt>
      <trkpt lat="47.13085" lon="-1.69946">
        <ele>-52.27</ele>
        <time>2015-03-07T11:53:04Z</time>
      </trkpt>
      <trkpt lat="47.13067" lon="-1.69955">
        <ele>-53.27</ele>
        <time>2015-03-07T11:53:07Z</time>
      </trkpt>
      <trkpt lat="47.13048" lon="-1.69964">
        <ele>-54.5</ele>
        <time>2015-03-07T11:53:10Z</time>
      </trkpt>
      <trkpt lat="47.1303" lon="-1.69974">
        <ele>-55.19</ele>
        <time>2015-03-07T11:53:13Z</time>
      </trkpt>
      <trkpt lat="47.13007" lon="-1.69986">
        <ele>-56.32</ele>
        <time>2015-03-07T11:53:17Z</time>
      </trkpt>
      <trkpt lat="47.12986" lon="-1.69997">
        <ele>-56.46</ele>
        <time>2015-03-07T11:53:21Z</time>
      </trkpt>
      <trkpt lat="47.12964" lon="-1.70008">
        <ele>-56.62</ele>
        <time>2015-03-07T11:53:25Z</time>
      </trkpt>
      <trkpt lat="47.12947" lon="-1.70017">
        <ele>-56.98</ele>
        <time>2015-03-07T11:53:28Z</time>
      </trkpt>
      <trkpt lat="47.12926" lon="-1.70027">
        <ele>-57.39</ele>
        <time>2015-03-07T11:53:32Z</time>
      </trkpt>
      <trkpt lat="47.12909" lon="-1.70037">
        <ele>-57.55</ele>
        <time>2015-03-07T11:53:35Z</time>
      </trkpt>
      <trkpt lat="47.12891" lon="-1.70046">
        <ele>-58</ele>
        <time>2015-03-07T11:53:38Z</time>
      </trkpt>
      <trkpt lat="47.12873" lon="-1.70056">
        <ele>-58.69</ele>
        <time>2015-03-07T11:53:41Z</time>
      </trkpt>
      <trkpt lat="47.12856" lon="-1.70065">
        <ele>-59.09</ele>
        <time>2015-03-07T11:53:44Z</time>
      </trkpt>
      <trkpt lat="47.12834" lon="-1.70076">
        <ele>-59.97</ele>
        <time>2015-03-07T11:53:48Z</time>
      </trkpt>
      <trkpt lat="47.12813" lon="-1.70089">
        <ele>-60.31</ele>
        <time>2015-03-07T11:53:52Z</time>
      </trkpt>
      <trkpt lat="47.12791" lon="-1.70101">
        <ele>-60.14</ele>
        <time>2015-03-07T11:53:56Z</time>
      </trkpt>
      <trkpt lat="47.12769" lon="-1.70114">
        <ele>-59.44</ele>
        <time>2015-03-07T11:54:00Z</time>
      </trkpt>
      <trkpt lat="47.12751" lon="-1.70124">
        <ele>-59.62</ele>
        <time>2015-03-07T11:54:03Z</time>
      </trkpt>
      <trkpt lat="47.12729" lon="-1.70136">
        <ele>-59.93</ele>
        <time>2015-03-07T11:54:07Z</time>
      </trkpt>
      <trkpt lat="47.12708" lon="-1.70148">
        <ele>-60.5</ele>
        <time>2015-03-07T11:54:11Z</time>
      </trkpt>
      <trkpt lat="47.1269" lon="-1.70158">
        <ele>-61.2</ele>
        <time>2015-03-07T11:54:14Z</time>
      </trkpt>
      <trkpt lat="47.12672" lon="-1.70167">
        <ele>-61.16</ele>
        <time>2015-03-07T11:54:17Z</time>
      </trkpt>
      <trkpt lat="47.12654" lon="-1.70176">
        <ele>-60.75</ele>
        <time>2015-03-07T11:54:20Z</time>
      </trkpt>
      <trkpt lat="47.12638" lon="-1.70186">
        <ele>-60.31</ele>
        <time>2015-03-07T11:54:23Z</time>
      </trkpt>
      <trkpt lat="47.12615" lon="-1.70197">
        <ele>-59.99</ele>
        <time>2015-03-07T11:54:27Z</time>
      </trkpt>
      <trkpt lat="47.12597" lon="-1.70205">
        <ele>-60.2</ele>
        <time>2015-03-07T11:54:30Z</time>
      </trkpt>
      <trkpt lat="47.12577" lon="-1.70213">
        <ele>-60.18</ele>
        <time>2015-03-07T11:54:33Z</time>
      </trkpt>
      <trkpt lat="47.12559" lon="-1.70223">
        <ele>-59.95</ele>
        <time>2015-03-07T11:54:36Z</time>
      </trkpt>
      <trkpt lat="47.12538" lon="-1.70236">
        <ele>-59.22</ele>
        <time>2015-03-07T11:54:40Z</time>
      </trkpt>
      <trkpt lat="47.12518" lon="-1.70246">
        <ele>-58.78</ele>
        <time>2015-03-07T11:54:44Z</time>
      </trkpt>
      <trkpt lat="47.12495" lon="-1.70258">
        <ele>-57.49</ele>
        <time>2015-03-07T11:54:48Z</time>
      </trkpt>
      <trkpt lat="47.12476" lon="-1.70269">
        <ele>-56.76</ele>
        <time>2015-03-07T11:54:51Z</time>
      </trkpt>
      <trkpt lat="47.1246" lon="-1.70283">
        <ele>-56.39</ele>
        <time>2015-03-07T11:54:54Z</time>
      </trkpt>
      <trkpt lat="47.12446" lon="-1.70302">
        <ele>-55.83</ele>
        <time>2015-03-07T11:54:57Z</time>
      </trkpt>
      <trkpt lat="47.12434" lon="-1.70323">
        <ele>-54.87</ele>
        <time>2015-03-07T11:55:00Z</time>
      </trkpt>
      <trkpt lat="47.12423" lon="-1.70351">
        <ele>-54.17</ele>
        <time>2015-03-07T11:55:04Z</time>
      </trkpt>
      <trkpt lat="47.12413" lon="-1.70379">
        <ele>-53.74</ele>
        <time>2015-03-07T11:55:08Z</time>
      </trkpt>
      <trkpt lat="47.12405" lon="-1.70408">
        <ele>-53.25</ele>
        <time>2015-03-07T11:55:12Z</time>
      </trkpt>
      <trkpt lat="47.12398" lon="-1.70436">
        <ele>-51.85</ele>
        <time>2015-03-07T11:55:16Z</time>
      </trkpt>
      <trkpt lat="47.12391" lon="-1.70464">
        <ele>-50.21</ele>
        <time>2015-03-07T11:55:19Z</time>
      </trkpt>
      <trkpt lat="47.12383" lon="-1.70493">
        <ele>-49.35</ele>
        <time>2015-03-07T11:55:22Z</time>
      </trkpt>
      <trkpt lat="47.12374" lon="-1.70518">
        <ele>-48.6</ele>
        <time>2015-03-07T11:55:25Z</time>
      </trkpt>
      <trkpt lat="47.12364" lon="-1.70542">
        <ele>-49.14</ele>
        <time>2015-03-07T11:55:28Z</time>
      </trkpt>
      <trkpt lat="47.12353" lon="-1.70565">
        <ele>-50.83</ele>
        <time>2015-03-07T11:55:31Z</time>
      </trkpt>
      <trkpt lat="47.1234" lon="-1.7059">
        <ele>-51.53</ele>
        <time>2015-03-07T11:55:34Z</time>
      </trkpt>
      <trkpt lat="47.12325" lon="-1.70616">
        <ele>-52.12</ele>
        <time>2015-03-07T11:55:38Z</time>
      </trkpt>
      <trkpt lat="47.12308" lon="-1.7064">
        <ele>-52.93</ele>
        <time>2015-03-07T11:55:42Z</time>
      </trkpt>
      <trkpt lat="47.12291" lon="-1.70664">
        <ele>-53.85</ele>
        <time>2015-03-07T11:55:46Z</time>
      </trkpt>
      <trkpt lat="47.12278" lon="-1.70683">
        <ele>-54.48</ele>
        <time>2015-03-07T11:55:49Z</time>
      </trkpt>
      <trkpt lat="47.12261" lon="-1.70707">
        <ele>-55.36</ele>
        <time>2015-03-07T11:55:53Z</time>
      </trkpt>
      <trkpt lat="47.12244" lon="-1.70729">
        <ele>-57.05</ele>
        <time>2015-03-07T11:55:57Z</time>
      </trkpt>
      <trkpt lat="47.12225" lon="-1.70748">
        <ele>-57.86</ele>
        <time>2015-03-07T11:56:01Z</time>
      </trkpt>
      <trkpt lat="47.12206" lon="-1.70763">
        <ele>-57.81</ele>
        <time>2015-03-07T11:56:05Z</time>
      </trkpt>
      <trkpt lat="47.12188" lon="-1.70777">
        <ele>-57.18</ele>
        <time>2015-03-07T11:56:09Z</time>
      </trkpt>
      <trkpt lat="47.1217" lon="-1.7079">
        <ele>-56.95</ele>
        <time>2015-03-07T11:56:13Z</time>
      </trkpt>
      <trkpt lat="47.1215" lon="-1.70803">
        <ele>-56.32</ele>
        <time>2015-03-07T11:56:17Z</time>
      </trkpt>
      <trkpt lat="47.1213" lon="-1.70815">
        <ele>-55.84</ele>
        <time>2015-03-07T11:56:21Z</time>
      </trkpt>
      <trkpt lat="47.1211" lon="-1.70827">
        <ele>-56.45</ele>
        <time>2015-03-07T11:56:25Z</time>
      </trkpt>
      <trkpt lat="47.12091" lon="-1.7084">
        <ele>-56.89</ele>
        <time>2015-03-07T11:56:29Z</time>
      </trkpt>
      <trkpt lat="47.12071" lon="-1.70853">
        <ele>-57.09</ele>
        <time>2015-03-07T11:56:33Z</time>
      </trkpt>
      <trkpt lat="47.12051" lon="-1.70866">
        <ele>-55.44</ele>
        <time>2015-03-07T11:56:37Z</time>
      </trkpt>
      <trkpt lat="47.12032" lon="-1.70879">
        <ele>-54.4</ele>
        <time>2015-03-07T11:56:41Z</time>
      </trkpt>
      <trkpt lat="47.12011" lon="-1.70892">
        <ele>-53.88</ele>
        <time>2015-03-07T11:56:45Z</time>
      </trkpt>
      <trkpt lat="47.1199" lon="-1.70905">
        <ele>-54.01</ele>
        <time>2015-03-07T11:56:49Z</time>
      </trkpt>
      <trkpt lat="47.11969" lon="-1.70919">
        <ele>-54.88</ele>
        <time>2015-03-07T11:56:53Z</time>
      </trkpt>
      <trkpt lat="47.11947" lon="-1.70934">
        <ele>-54.6</ele>
        <time>2015-03-07T11:56:57Z</time>
      </trkpt>
      <trkpt lat="47.1193" lon="-1.70945">
        <ele>-54.58</ele>
        <time>2015-03-07T11:57:00Z</time>
      </trkpt>
      <trkpt lat="47.11909" lon="-1.70958">
        <ele>-54.48</ele>
        <time>2015-03-07T11:57:04Z</time>
      </trkpt>
      <trkpt lat="47.11887" lon="-1.70973">
        <ele>-55.13</ele>
        <time>2015-03-07T11:57:08Z</time>
      </trkpt>
      <trkpt lat="47.1187" lon="-1.70984">
        <ele>-54.88</ele>
        <time>2015-03-07T11:57:11Z</time>
      </trkpt>
      <trkpt lat="47.11849" lon="-1.70998">
        <ele>-54.53</ele>
        <time>2015-03-07T11:57:15Z</time>
      </trkpt>
      <trkpt lat="47.11827" lon="-1.71012">
        <ele>-54.49</ele>
        <time>2015-03-07T11:57:19Z</time>
      </trkpt>
      <trkpt lat="47.11805" lon="-1.71026">
        <ele>-53.62</ele>
        <time>2015-03-07T11:57:23Z</time>
      </trkpt>
      <trkpt lat="47.11785" lon="-1.71039">
        <ele>-52.82</ele>
        <time>2015-03-07T11:57:27Z</time>
      </trkpt>
      <trkpt lat="47.11764" lon="-1.71053">
        <ele>-51.97</ele>
        <time>2015-03-07T11:57:31Z</time>
      </trkpt>
      <trkpt lat="47.11744" lon="-1.71066">
        <ele>-51.71</ele>
        <time>2015-03-07T11:57:35Z</time>
      </trkpt>
      <trkpt lat="47.11724" lon="-1.71081">
        <ele>-51.57</ele>
        <time>2015-03-07T11:57:39Z</time>
      </trkpt>
      <trkpt lat="47.11703" lon="-1.71095">
        <ele>-51.2</ele>
        <time>2015-03-07T11:57:43Z</time>
      </trkpt>
      <trkpt lat="47.11682" lon="-1.71109">
        <ele>-51.14</ele>
        <time>2015-03-07T11:57:47Z</time>
      </trkpt>
      <trkpt lat="47.1166" lon="-1.71122">
        <ele>-50.21</ele>
        <time>2015-03-07T11:57:51Z</time>
      </trkpt>
      <trkpt lat="47.11644" lon="-1.71136">
        <ele>-50.18</ele>
        <time>2015-03-07T11:57:54Z</time>
      </trkpt>
      <trkpt lat="47.11624" lon="-1.71154">
        <ele>-50.95</ele>
        <time>2015-03-07T11:57:58Z</time>
      </trkpt>
      <trkpt lat="47.11606" lon="-1.71174">
        <ele>-50.93</ele>
        <time>2015-03-07T11:58:02Z</time>
      </trkpt>
      <trkpt lat="47.11588" lon="-1.71196">
        <ele>-50.21</ele>
        <time>2015-03-07T11:58:06Z</time>
      </trkpt>
      <trkpt lat="47.11574" lon="-1.71216">
        <ele>-50.18</ele>
        <time>2015-03-07T11:58:09Z</time>
      </trkpt>
      <trkpt lat="47.11562" lon="-1.71235">
        <ele>-50.74</ele>
        <time>2015-03-07T11:58:12Z</time>
      </trkpt>
      <trkpt lat="47.1155" lon="-1.71255">
        <ele>-51.03</ele>
        <time>2015-03-07T11:58:15Z</time>
      </trkpt>
      <trkpt lat="47.11538" lon="-1.71276">
        <ele>-52.06</ele>
        <time>2015-03-07T11:58:18Z</time>
      </trkpt>
      <trkpt lat="47.11526" lon="-1.71297">
        <ele>-52.36</ele>
        <time>2015-03-07T11:58:21Z</time>
      </trkpt>
      <trkpt lat="47.11512" lon="-1.71325">
        <ele>-53.24</ele>
        <time>2015-03-07T11:58:25Z</time>
      </trkpt>
      <trkpt lat="47.11498" lon="-1.71353">
        <ele>-54.98</ele>
        <time>2015-03-07T11:58:29Z</time>
      </trkpt>
      <trkpt lat="47.11484" lon="-1.71381">
        <ele>-55.67</ele>
        <time>2015-03-07T11:58:33Z</time>
      </trkpt>
      <trkpt lat="47.11469" lon="-1.71408">
        <ele>-55.98</ele>
        <time>2015-03-07T11:58:37Z</time>
      </trkpt>
      <trkpt lat="47.11458" lon="-1.71429">
        <ele>-56.6</ele>
        <time>2015-03-07T11:58:40Z</time>
      </trkpt>
      <trkpt lat="47.11447" lon="-1.71451">
        <ele>-56.33</ele>
        <time>2015-03-07T11:58:43Z</time>
      </trkpt>
      <trkpt lat="47.11436" lon="-1.71472">
        <ele>-56.26</ele>
        <time>2015-03-07T11:58:46Z</time>
      </trkpt>
      <trkpt lat="47.11426" lon="-1.71495">
        <ele>-55.92</ele>
        <time>2015-03-07T11:58:49Z</time>
      </trkpt>
      <trkpt lat="47.11412" lon="-1.71523">
        <ele>-55.47</ele>
        <time>2015-03-07T11:58:53Z</time>
      </trkpt>
      <trkpt lat="47.11398" lon="-1.71551">
        <ele>-55.96</ele>
        <time>2015-03-07T11:58:57Z</time>
      </trkpt>
      <trkpt lat="47.11384" lon="-1.71578">
        <ele>-55.88</ele>
        <time>2015-03-07T11:59:01Z</time>
      </trkpt>
      <trkpt lat="47.11371" lon="-1.71605">
        <ele>-56.57</ele>
        <time>2015-03-07T11:59:05Z</time>
      </trkpt>
      <trkpt lat="47.11358" lon="-1.71633">
        <ele>-56.9</ele>
        <time>2015-03-07T11:59:09Z</time>
      </trkpt>
      <trkpt lat="47.11344" lon="-1.71659">
        <ele>-56.59</ele>
        <time>2015-03-07T11:59:13Z</time>
      </trkpt>
      <trkpt lat="47.11329" lon="-1.71686">
        <ele>-56.76</ele>
        <time>2015-03-07T11:59:17Z</time>
      </trkpt>
      <trkpt lat="47.11314" lon="-1.71714">
        <ele>-57.54</ele>
        <time>2015-03-07T11:59:21Z</time>
      </trkpt>
      <trkpt lat="47.113" lon="-1.71741">
        <ele>-58.41</ele>
        <time>2015-03-07T11:59:25Z</time>
      </trkpt>
      <trkpt lat="47.11287" lon="-1.71768">
        <ele>-59.11</ele>
        <time>2015-03-07T11:59:29Z</time>
      </trkpt>
      <trkpt lat="47.11274" lon="-1.71794">
        <ele>-58.79</ele>
        <time>2015-03-07T11:59:33Z</time>
      </trkpt>
      <trkpt lat="47.11261" lon="-1.7182">
        <ele>-58.82</ele>
        <time>2015-03-07T11:59:37Z</time>
      </trkpt>
      <trkpt lat="47.11251" lon="-1.71846">
        <ele>-58.73</ele>
        <time>2015-03-07T11:59:41Z</time>
      </trkpt>
      <trkpt lat="47.11244" lon="-1.71874">
        <ele>-58.11</ele>
        <time>2015-03-07T11:59:45Z</time>
      </trkpt>
      <trkpt lat="47.11238" lon="-1.71899">
        <ele>-58.21</ele>
        <time>2015-03-07T11:59:49Z</time>
      </trkpt>
      <trkpt lat="47.11232" lon="-1.71927">
        <ele>-57.85</ele>
        <time>2015-03-07T11:59:53Z</time>
      </trkpt>
      <trkpt lat="47.11225" lon="-1.71954">
        <ele>-54.88</ele>
        <time>2015-03-07T11:59:57Z</time>
      </trkpt>
      <trkpt lat="47.11217" lon="-1.71982">
        <ele>-53.65</ele>
        <time>2015-03-07T12:00:01Z</time>
      </trkpt>
      <trkpt lat="47.11211" lon="-1.7201">
        <ele>-52.38</ele>
        <time>2015-03-07T12:00:05Z</time>
      </trkpt>
      <trkpt lat="47.11204" lon="-1.72039">
        <ele>-51.62</ele>
        <time>2015-03-07T12:00:09Z</time>
      </trkpt>
      <trkpt lat="47.11196" lon="-1.72068">
        <ele>-51.65</ele>
        <time>2015-03-07T12:00:13Z</time>
      </trkpt>
      <trkpt lat="47.11188" lon="-1.72097">
        <ele>-52.4</ele>
        <time>2015-03-07T12:00:17Z</time>
      </trkpt>
      <trkpt lat="47.11179" lon="-1.72127">
        <ele>-52.48</ele>
        <time>2015-03-07T12:00:21Z</time>
      </trkpt>
      <trkpt lat="47.11172" lon="-1.72159">
        <ele>-53.11</ele>
        <time>2015-03-07T12:00:25Z</time>
      </trkpt>
      <trkpt lat="47.11166" lon="-1.72191">
        <ele>-53.2</ele>
        <time>2015-03-07T12:00:29Z</time>
      </trkpt>
      <trkpt lat="47.11157" lon="-1.72223">
        <ele>-53.1</ele>
        <time>2015-03-07T12:00:33Z</time>
      </trkpt>
      <trkpt lat="47.11149" lon="-1.72254">
        <ele>-53.01</ele>
        <time>2015-03-07T12:00:37Z</time>
      </trkpt>
      <trkpt lat="47.1114" lon="-1.72285">
        <ele>-53.01</ele>
        <time>2015-03-07T12:00:41Z</time>
      </trkpt>
      <trkpt lat="47.11133" lon="-1.72315">
        <ele>-52.86</ele>
        <time>2015-03-07T12:00:45Z</time>
      </trkpt>
      <trkpt lat="47.11124" lon="-1.72349">
        <ele>-52.9</ele>
        <time>2015-03-07T12:00:49Z</time>
      </trkpt>
      <trkpt lat="47.11119" lon="-1.72375">
        <ele>-53.23</ele>
        <time>2015-03-07T12:00:52Z</time>
      </trkpt>
      <trkpt lat="47.11111" lon="-1.72407">
        <ele>-52.87</ele>
        <time>2015-03-07T12:00:56Z</time>
      </trkpt>
      <trkpt lat="47.11104" lon="-1.72439">
        <ele>-53.61</ele>
        <time>2015-03-07T12:01:00Z</time>
      </trkpt>
      <trkpt lat="47.11096" lon="-1.7247">
        <ele>-54</ele>
        <time>2015-03-07T12:01:04Z</time>
      </trkpt>
      <trkpt lat="47.11092" lon="-1.72496">
        <ele>-54.51</ele>
        <time>2015-03-07T12:01:07Z</time>
      </trkpt>
      <trkpt lat="47.11088" lon="-1.72528">
        <ele>-56.4</ele>
        <time>2015-03-07T12:01:11Z</time>
      </trkpt>
      <trkpt lat="47.11088" lon="-1.72561">
        <ele>-57.15</ele>
        <time>2015-03-07T12:01:15Z</time>
      </trkpt>
      <trkpt lat="47.11094" lon="-1.72595">
        <ele>-55.21</ele>
        <time>2015-03-07T12:01:19Z</time>
      </trkpt>
      <trkpt lat="47.11101" lon="-1.72621">
        <ele>-54.69</ele>
        <time>2015-03-07T12:01:22Z</time>
      </trkpt>
      <trkpt lat="47.11107" lon="-1.72647">
        <ele>-53.81</ele>
        <time>2015-03-07T12:01:25Z</time>
      </trkpt>
      <trkpt lat="47.11114" lon="-1.7268">
        <ele>-52.7</ele>
        <time>2015-03-07T12:01:29Z</time>
      </trkpt>
      <trkpt lat="47.11122" lon="-1.72708">
        <ele>-50.71</ele>
        <time>2015-03-07T12:01:33Z</time>
      </trkpt>
      <trkpt lat="47.1113" lon="-1.72738">
        <ele>-49.88</ele>
        <time>2015-03-07T12:01:37Z</time>
      </trkpt>
      <trkpt lat="47.11136" lon="-1.72769">
        <ele>-48.76</ele>
        <time>2015-03-07T12:01:41Z</time>
      </trkpt>
      <trkpt lat="47.11143" lon="-1.72801">
        <ele>-47.19</ele>
        <time>2015-03-07T12:01:45Z</time>
      </trkpt>
      <trkpt lat="47.11151" lon="-1.72832">
        <ele>-45.46</ele>
        <time>2015-03-07T12:01:49Z</time>
      </trkpt>
      <trkpt lat="47.11155" lon="-1.72863">
        <ele>-44.78</ele>
        <time>2015-03-07T12:01:53Z</time>
      </trkpt>
      <trkpt lat="47.11161" lon="-1.72888">
        <ele>-44.46</ele>
        <time>2015-03-07T12:01:56Z</time>
      </trkpt>
      <trkpt lat="47.11167" lon="-1.72917">
        <ele>-44.52</ele>
        <time>2015-03-07T12:02:00Z</time>
      </trkpt>
      <trkpt lat="47.11174" lon="-1.72948">
        <ele>-44.83</ele>
        <time>2015-03-07T12:02:04Z</time>
      </trkpt>
      <trkpt lat="47.11181" lon="-1.72978">
        <ele>-44.6</ele>
        <time>2015-03-07T12:02:08Z</time>
      </trkpt>
      <trkpt lat="47.11188" lon="-1.73003">
        <ele>-44.05</ele>
        <time>2015-03-07T12:02:11Z</time>
      </trkpt>
      <trkpt lat="47.11196" lon="-1.73035">
        <ele>-43.77</ele>
        <time>2015-03-07T12:02:15Z</time>
      </trkpt>
      <trkpt lat="47.11204" lon="-1.73068">
        <ele>-43.71</ele>
        <time>2015-03-07T12:02:19Z</time>
      </trkpt>
      <trkpt lat="47.11211" lon="-1.73094">
        <ele>-44.13</ele>
        <time>2015-03-07T12:02:22Z</time>
      </trkpt>
      <trkpt lat="47.11216" lon="-1.7312">
        <ele>-44.24</ele>
        <time>2015-03-07T12:02:25Z</time>
      </trkpt>
      <trkpt lat="47.11223" lon="-1.73145">
        <ele>-44.56</ele>
        <time>2015-03-07T12:02:28Z</time>
      </trkpt>
      <trkpt lat="47.11229" lon="-1.73172">
        <ele>-45.07</ele>
        <time>2015-03-07T12:02:31Z</time>
      </trkpt>
      <trkpt lat="47.11235" lon="-1.73198">
        <ele>-45.25</ele>
        <time>2015-03-07T12:02:34Z</time>
      </trkpt>
      <trkpt lat="47.11242" lon="-1.73224">
        <ele>-44.75</ele>
        <time>2015-03-07T12:02:37Z</time>
      </trkpt>
      <trkpt lat="47.11248" lon="-1.7325">
        <ele>-43.76</ele>
        <time>2015-03-07T12:02:40Z</time>
      </trkpt>
      <trkpt lat="47.11253" lon="-1.73278">
        <ele>-43.62</ele>
        <time>2015-03-07T12:02:43Z</time>
      </trkpt>
      <trkpt lat="47.11258" lon="-1.73306">
        <ele>-44.18</ele>
        <time>2015-03-07T12:02:46Z</time>
      </trkpt>
      <trkpt lat="47.1126" lon="-1.73334">
        <ele>-44.57</ele>
        <time>2015-03-07T12:02:49Z</time>
      </trkpt>
      <trkpt lat="47.11262" lon="-1.73362">
        <ele>-44.2</ele>
        <time>2015-03-07T12:02:52Z</time>
      </trkpt>
      <trkpt lat="47.11264" lon="-1.7339">
        <ele>-44.31</ele>
        <time>2015-03-07T12:02:55Z</time>
      </trkpt>
      <trkpt lat="47.11265" lon="-1.7342">
        <ele>-44.38</ele>
        <time>2015-03-07T12:02:58Z</time>
      </trkpt>
      <trkpt lat="47.11267" lon="-1.73451">
        <ele>-44.72</ele>
        <time>2015-03-07T12:03:01Z</time>
      </trkpt>
      <trkpt lat="47.1127" lon="-1.73479">
        <ele>-44.77</ele>
        <time>2015-03-07T12:03:04Z</time>
      </trkpt>
      <trkpt lat="47.11272" lon="-1.73508">
        <ele>-45.47</ele>
        <time>2015-03-07T12:03:07Z</time>
      </trkpt>
      <trkpt lat="47.11274" lon="-1.73543">
        <ele>-46.22</ele>
        <time>2015-03-07T12:03:11Z</time>
      </trkpt>
      <trkpt lat="47.11263" lon="-1.73566">
        <ele>-46.75</ele>
        <time>2015-03-07T12:03:15Z</time>
      </trkpt>
      <trkpt lat="47.11245" lon="-1.73569">
        <ele>-47.27</ele>
        <time>2015-03-07T12:03:18Z</time>
      </trkpt>
      <trkpt lat="47.11226" lon="-1.73568">
        <ele>-47.62</ele>
        <time>2015-03-07T12:03:21Z</time>
      </trkpt>
      <trkpt lat="47.11207" lon="-1.73567">
        <ele>-47.91</ele>
        <time>2015-03-07T12:03:24Z</time>
      </trkpt>
      <trkpt lat="47.11185" lon="-1.73564">
        <ele>-47.64</ele>
        <time>2015-03-07T12:03:27Z</time>
      </trkpt>
      <trkpt lat="47.11166" lon="-1.73562">
        <ele>-47.67</ele>
        <time>2015-03-07T12:03:30Z</time>
      </trkpt>
      <trkpt lat="47.11146" lon="-1.73561">
        <ele>-48.04</ele>
        <time>2015-03-07T12:03:33Z</time>
      </trkpt>
      <trkpt lat="47.11126" lon="-1.73559">
        <ele>-48.51</ele>
        <time>2015-03-07T12:03:36Z</time>
      </trkpt>
      <trkpt lat="47.11106" lon="-1.73555">
        <ele>-49.49</ele>
        <time>2015-03-07T12:03:39Z</time>
      </trkpt>
      <trkpt lat="47.11084" lon="-1.73546">
        <ele>-50.28</ele>
        <time>2015-03-07T12:03:43Z</time>
      </trkpt>
      <trkpt lat="47.11063" lon="-1.73535">
        <ele>-51.01</ele>
        <time>2015-03-07T12:03:47Z</time>
      </trkpt>
      <trkpt lat="47.11042" lon="-1.73525">
        <ele>-51.06</ele>
        <time>2015-03-07T12:03:51Z</time>
      </trkpt>
      <trkpt lat="47.1102" lon="-1.73514">
        <ele>-51.17</ele>
        <time>2015-03-07T12:03:55Z</time>
      </trkpt>
      <trkpt lat="47.10999" lon="-1.73503">
        <ele>-51.96</ele>
        <time>2015-03-07T12:03:59Z</time>
      </trkpt>
      <trkpt lat="47.10977" lon="-1.73497">
        <ele>-52.18</ele>
        <time>2015-03-07T12:04:03Z</time>
      </trkpt>
      <trkpt lat="47.10954" lon="-1.73499">
        <ele>-52.15</ele>
        <time>2015-03-07T12:04:07Z</time>
      </trkpt>
      <trkpt lat="47.10932" lon="-1.73505">
        <ele>-51.58</ele>
        <time>2015-03-07T12:04:11Z</time>
      </trkpt>
      <trkpt lat="47.10911" lon="-1.73513">
        <ele>-51.52</ele>
        <time>2015-03-07T12:04:15Z</time>
      </trkpt>
      <trkpt lat="47.1089" lon="-1.7352">
        <ele>-51.45</ele>
        <time>2015-03-07T12:04:19Z</time>
      </trkpt>
      <trkpt lat="47.10869" lon="-1.73528">
        <ele>-50.54</ele>
        <time>2015-03-07T12:04:23Z</time>
      </trkpt>
      <trkpt lat="47.10847" lon="-1.73534">
        <ele>-49.33</ele>
        <time>2015-03-07T12:04:27Z</time>
      </trkpt>
      <trkpt lat="47.1083" lon="-1.73542">
        <ele>-48.56</ele>
        <time>2015-03-07T12:04:30Z</time>
      </trkpt>
      <trkpt lat="47.1081" lon="-1.73555">
        <ele>-47.5</ele>
        <time>2015-03-07T12:04:34Z</time>
      </trkpt>
      <trkpt lat="47.10793" lon="-1.73568">
        <ele>-47.22</ele>
        <time>2015-03-07T12:04:38Z</time>
      </trkpt>
      <trkpt lat="47.10777" lon="-1.73583">
        <ele>-48.02</ele>
        <time>2015-03-07T12:04:42Z</time>
      </trkpt>
      <trkpt lat="47.1076" lon="-1.73598">
        <ele>-47.65</ele>
        <time>2015-03-07T12:04:46Z</time>
      </trkpt>
      <trkpt lat="47.10744" lon="-1.73612">
        <ele>-47.21</ele>
        <time>2015-03-07T12:04:50Z</time>
      </trkpt>
      <trkpt lat="47.10729" lon="-1.73626">
        <ele>-46.22</ele>
        <time>2015-03-07T12:04:54Z</time>
      </trkpt>
      <trkpt lat="47.10712" lon="-1.7364">
        <ele>-45.35</ele>
        <time>2015-03-07T12:04:58Z</time>
      </trkpt>
      <trkpt lat="47.10696" lon="-1.73653">
        <ele>-44.34</ele>
        <time>2015-03-07T12:05:02Z</time>
      </trkpt>
      <trkpt lat="47.10678" lon="-1.73665">
        <ele>-43.65</ele>
        <time>2015-03-07T12:05:06Z</time>
      </trkpt>
      <trkpt lat="47.1066" lon="-1.73674">
        <ele>-42.88</ele>
        <time>2015-03-07T12:05:10Z</time>
      </trkpt>
      <trkpt lat="47.10642" lon="-1.73686">
        <ele>-42.66</ele>
        <time>2015-03-07T12:05:14Z</time>
      </trkpt>
      <trkpt lat="47.10623" lon="-1.73696">
        <ele>-42.22</ele>
        <time>2015-03-07T12:05:18Z</time>
      </trkpt>
      <trkpt lat="47.10603" lon="-1.7369">
        <ele>-42.14</ele>
        <time>2015-03-07T12:05:22Z</time>
      </trkpt>
      <trkpt lat="47.10583" lon="-1.73688">
        <ele>-41.38</ele>
        <time>2015-03-07T12:05:26Z</time>
      </trkpt>
      <trkpt lat="47.10561" lon="-1.73688">
        <ele>-40.36</ele>
        <time>2015-03-07T12:05:30Z</time>
      </trkpt>
      <trkpt lat="47.10539" lon="-1.73688">
        <ele>-39.42</ele>
        <time>2015-03-07T12:05:34Z</time>
      </trkpt>
      <trkpt lat="47.10518" lon="-1.73687">
        <ele>-39.2</ele>
        <time>2015-03-07T12:05:38Z</time>
      </trkpt>
      <trkpt lat="47.10496" lon="-1.73687">
        <ele>-38.61</ele>
        <time>2015-03-07T12:05:42Z</time>
      </trkpt>
      <trkpt lat="47.10475" lon="-1.73688">
        <ele>-37.4</ele>
        <time>2015-03-07T12:05:46Z</time>
      </trkpt>
      <trkpt lat="47.10453" lon="-1.73691">
        <ele>-36.89</ele>
        <time>2015-03-07T12:05:50Z</time>
      </trkpt>
      <trkpt lat="47.10432" lon="-1.73696">
        <ele>-36.97</ele>
        <time>2015-03-07T12:05:54Z</time>
      </trkpt>
      <trkpt lat="47.10409" lon="-1.73704">
        <ele>-37</ele>
        <time>2015-03-07T12:05:58Z</time>
      </trkpt>
      <trkpt lat="47.10388" lon="-1.73713">
        <ele>-37.69</ele>
        <time>2015-03-07T12:06:02Z</time>
      </trkpt>
      <trkpt lat="47.10368" lon="-1.73722">
        <ele>-39.18</ele>
        <time>2015-03-07T12:06:06Z</time>
      </trkpt>
      <trkpt lat="47.10347" lon="-1.73731">
        <ele>-41.36</ele>
        <time>2015-03-07T12:06:10Z</time>
      </trkpt>
      <trkpt lat="47.10326" lon="-1.73739">
        <ele>-42.92</ele>
        <time>2015-03-07T12:06:14Z</time>
      </trkpt>
      <trkpt lat="47.10304" lon="-1.73749">
        <ele>-43.09</ele>
        <time>2015-03-07T12:06:18Z</time>
      </trkpt>
      <trkpt lat="47.10283" lon="-1.73758">
        <ele>-42.69</ele>
        <time>2015-03-07T12:06:22Z</time>
      </trkpt>
      <trkpt lat="47.10261" lon="-1.73767">
        <ele>-41.86</ele>
        <time>2015-03-07T12:06:26Z</time>
      </trkpt>
      <trkpt lat="47.10237" lon="-1.73771">
        <ele>-41.13</ele>
        <time>2015-03-07T12:06:30Z</time>
      </trkpt>
      <trkpt lat="47.10219" lon="-1.73773">
        <ele>-41.77</ele>
        <time>2015-03-07T12:06:33Z</time>
      </trkpt>
      <trkpt lat="47.10196" lon="-1.73775">
        <ele>-42.53</ele>
        <time>2015-03-07T12:06:37Z</time>
      </trkpt>
      <trkpt lat="47.10174" lon="-1.73778">
        <ele>-42.43</ele>
        <time>2015-03-07T12:06:41Z</time>
      </trkpt>
      <trkpt lat="47.10152" lon="-1.73787">
        <ele>-42.48</ele>
        <time>2015-03-07T12:06:45Z</time>
      </trkpt>
      <trkpt lat="47.10131" lon="-1.73802">
        <ele>-42.22</ele>
        <time>2015-03-07T12:06:49Z</time>
      </trkpt>
      <trkpt lat="47.10112" lon="-1.73819">
        <ele>-42.53</ele>
        <time>2015-03-07T12:06:53Z</time>
      </trkpt>
      <trkpt lat="47.10093" lon="-1.73838">
        <ele>-42.76</ele>
        <time>2015-03-07T12:06:57Z</time>
      </trkpt>
      <trkpt lat="47.10079" lon="-1.73854">
        <ele>-43.16</ele>
        <time>2015-03-07T12:07:00Z</time>
      </trkpt>
      <trkpt lat="47.10061" lon="-1.73874">
        <ele>-44.1</ele>
        <time>2015-03-07T12:07:04Z</time>
      </trkpt>
      <trkpt lat="47.10046" lon="-1.73891">
        <ele>-43.49</ele>
        <time>2015-03-07T12:07:07Z</time>
      </trkpt>
      <trkpt lat="47.10031" lon="-1.73907">
        <ele>-43.08</ele>
        <time>2015-03-07T12:07:10Z</time>
      </trkpt>
      <trkpt lat="47.10014" lon="-1.7393">
        <ele>-43.19</ele>
        <time>2015-03-07T12:07:14Z</time>
      </trkpt>
      <trkpt lat="47.09995" lon="-1.73951">
        <ele>-43.52</ele>
        <time>2015-03-07T12:07:18Z</time>
      </trkpt>
      <trkpt lat="47.09977" lon="-1.73972">
        <ele>-44.7</ele>
        <time>2015-03-07T12:07:22Z</time>
      </trkpt>
      <trkpt lat="47.09959" lon="-1.73992">
        <ele>-45.98</ele>
        <time>2015-03-07T12:07:26Z</time>
      </trkpt>
      <trkpt lat="47.09941" lon="-1.7401">
        <ele>-46</ele>
        <time>2015-03-07T12:07:30Z</time>
      </trkpt>
      <trkpt lat="47.09922" lon="-1.74027">
        <ele>-45.99</ele>
        <time>2015-03-07T12:07:34Z</time>
      </trkpt>
      <trkpt lat="47.09903" lon="-1.74042">
        <ele>-45.11</ele>
        <time>2015-03-07T12:07:38Z</time>
      </trkpt>
      <trkpt lat="47.09886" lon="-1.74061">
        <ele>-44.72</ele>
        <time>2015-03-07T12:07:42Z</time>
      </trkpt>
      <trkpt lat="47.09871" lon="-1.74084">
        <ele>-44.38</ele>
        <time>2015-03-07T12:07:46Z</time>
      </trkpt>
      <trkpt lat="47.09856" lon="-1.7411">
        <ele>-44.04</ele>
        <time>2015-03-07T12:07:50Z</time>
      </trkpt>
      <trkpt lat="47.0984" lon="-1.74134">
        <ele>-44.1</ele>
        <time>2015-03-07T12:07:54Z</time>
      </trkpt>
      <trkpt lat="47.09823" lon="-1.74155">
        <ele>-44.27</ele>
        <time>2015-03-07T12:07:58Z</time>
      </trkpt>
      <trkpt lat="47.09805" lon="-1.74175">
        <ele>-44.09</ele>
        <time>2015-03-07T12:08:02Z</time>
      </trkpt>
      <trkpt lat="47.09789" lon="-1.74192">
        <ele>-43.97</ele>
        <time>2015-03-07T12:08:06Z</time>
      </trkpt>
      <trkpt lat="47.09772" lon="-1.74208">
        <ele>-44.09</ele>
        <time>2015-03-07T12:08:10Z</time>
      </trkpt>
      <trkpt lat="47.09754" lon="-1.74225">
        <ele>-44.59</ele>
        <time>2015-03-07T12:08:14Z</time>
      </trkpt>
      <trkpt lat="47.09736" lon="-1.74243">
        <ele>-44.59</ele>
        <time>2015-03-07T12:08:18Z</time>
      </trkpt>
      <trkpt lat="47.09716" lon="-1.7426">
        <ele>-45.54</ele>
        <time>2015-03-07T12:08:22Z</time>
      </trkpt>
      <trkpt lat="47.09697" lon="-1.74279">
        <ele>-46.54</ele>
        <time>2015-03-07T12:08:26Z</time>
      </trkpt>
      <trkpt lat="47.09678" lon="-1.74297">
        <ele>-47.23</ele>
        <time>2015-03-07T12:08:30Z</time>
      </trkpt>
      <trkpt lat="47.09658" lon="-1.74313">
        <ele>-46.93</ele>
        <time>2015-03-07T12:08:34Z</time>
      </trkpt>
      <trkpt lat="47.09638" lon="-1.74328">
        <ele>-45.96</ele>
        <time>2015-03-07T12:08:38Z</time>
      </trkpt>
      <trkpt lat="47.09615" lon="-1.74336">
        <ele>-45.82</ele>
        <time>2015-03-07T12:08:42Z</time>
      </trkpt>
      <trkpt lat="47.09597" lon="-1.74341">
        <ele>-46.06</ele>
        <time>2015-03-07T12:08:45Z</time>
      </trkpt>
      <trkpt lat="47.09579" lon="-1.74346">
        <ele>-46.32</ele>
        <time>2015-03-07T12:08:48Z</time>
      </trkpt>
      <trkpt lat="47.09556" lon="-1.74356">
        <ele>-46.07</ele>
        <time>2015-03-07T12:08:52Z</time>
      </trkpt>
      <trkpt lat="47.09538" lon="-1.74366">
        <ele>-45.82</ele>
        <time>2015-03-07T12:08:55Z</time>
      </trkpt>
      <trkpt lat="47.09521" lon="-1.74376">
        <ele>-45.61</ele>
        <time>2015-03-07T12:08:58Z</time>
      </trkpt>
      <trkpt lat="47.09504" lon="-1.74387">
        <ele>-45.29</ele>
        <time>2015-03-07T12:09:01Z</time>
      </trkpt>
      <trkpt lat="47.09486" lon="-1.74398">
        <ele>-45.15</ele>
        <time>2015-03-07T12:09:04Z</time>
      </trkpt>
      <trkpt lat="47.09468" lon="-1.7441">
        <ele>-45.32</ele>
        <time>2015-03-07T12:09:07Z</time>
      </trkpt>
      <trkpt lat="47.09449" lon="-1.74429">
        <ele>-45.32</ele>
        <time>2015-03-07T12:09:11Z</time>
      </trkpt>
      <trkpt lat="47.09432" lon="-1.74452">
        <ele>-45</ele>
        <time>2015-03-07T12:09:15Z</time>
      </trkpt>
      <trkpt lat="47.09416" lon="-1.74476">
        <ele>-44.73</ele>
        <time>2015-03-07T12:09:19Z</time>
      </trkpt>
      <trkpt lat="47.094" lon="-1.745">
        <ele>-44.99</ele>
        <time>2015-03-07T12:09:23Z</time>
      </trkpt>
      <trkpt lat="47.09385" lon="-1.74524">
        <ele>-45.56</ele>
        <time>2015-03-07T12:09:27Z</time>
      </trkpt>
      <trkpt lat="47.0937" lon="-1.74549">
        <ele>-45.25</ele>
        <time>2015-03-07T12:09:31Z</time>
      </trkpt>
      <trkpt lat="47.09354" lon="-1.74573">
        <ele>-44.97</ele>
        <time>2015-03-07T12:09:35Z</time>
      </trkpt>
      <trkpt lat="47.09339" lon="-1.74599">
        <ele>-44.67</ele>
        <time>2015-03-07T12:09:39Z</time>
      </trkpt>
      <trkpt lat="47.09323" lon="-1.74624">
        <ele>-44.15</ele>
        <time>2015-03-07T12:09:43Z</time>
      </trkpt>
      <trkpt lat="47.0931" lon="-1.74644">
        <ele>-43.81</ele>
        <time>2015-03-07T12:09:46Z</time>
      </trkpt>
      <trkpt lat="47.09295" lon="-1.74669">
        <ele>-44.09</ele>
        <time>2015-03-07T12:09:50Z</time>
      </trkpt>
      <trkpt lat="47.09278" lon="-1.74692">
        <ele>-43.98</ele>
        <time>2015-03-07T12:09:54Z</time>
      </trkpt>
      <trkpt lat="47.09262" lon="-1.74715">
        <ele>-44.51</ele>
        <time>2015-03-07T12:09:58Z</time>
      </trkpt>
      <trkpt lat="47.09244" lon="-1.74737">
        <ele>-45.19</ele>
        <time>2015-03-07T12:10:02Z</time>
      </trkpt>
      <trkpt lat="47.09227" lon="-1.7476">
        <ele>-45.02</ele>
        <time>2015-03-07T12:10:06Z</time>
      </trkpt>
      <trkpt lat="47.09211" lon="-1.74782">
        <ele>-44.99</ele>
        <time>2015-03-07T12:10:10Z</time>
      </trkpt>
      <trkpt lat="47.09193" lon="-1.74805">
        <ele>-45.25</ele>
        <time>2015-03-07T12:10:14Z</time>
      </trkpt>
      <trkpt lat="47.09176" lon="-1.74826">
        <ele>-45.33</ele>
        <time>2015-03-07T12:10:18Z</time>
      </trkpt>
      <trkpt lat="47.09159" lon="-1.74845">
        <ele>-45.69</ele>
        <time>2015-03-07T12:10:22Z</time>
      </trkpt>
      <trkpt lat="47.0914" lon="-1.74865">
        <ele>-46.01</ele>
        <time>2015-03-07T12:10:26Z</time>
      </trkpt>
      <trkpt lat="47.09119" lon="-1.74881">
        <ele>-46.18</ele>
        <time>2015-03-07T12:10:30Z</time>
      </trkpt>
      <trkpt lat="47.09099" lon="-1.74899">
        <ele>-45.8</ele>
        <time>2015-03-07T12:10:34Z</time>
      </trkpt>
      <trkpt lat="47.09079" lon="-1.74916">
        <ele>-44.98</ele>
        <time>2015-03-07T12:10:38Z</time>
      </trkpt>
      <trkpt lat="47.09059" lon="-1.74936">
        <ele>-44.92</ele>
        <time>2015-03-07T12:10:42Z</time>
      </trkpt>
      <trkpt lat="47.09038" lon="-1.74953">
        <ele>-43.2</ele>
        <time>2015-03-07T12:10:46Z</time>
      </trkpt>
      <trkpt lat="47.09022" lon="-1.74967">
        <ele>-43.08</ele>
        <time>2015-03-07T12:10:49Z</time>
      </trkpt>
      <trkpt lat="47.09005" lon="-1.74981">
        <ele>-43.26</ele>
        <time>2015-03-07T12:10:52Z</time>
      </trkpt>
      <trkpt lat="47.08988" lon="-1.74995">
        <ele>-43.95</ele>
        <time>2015-03-07T12:10:55Z</time>
      </trkpt>
      <trkpt lat="47.08971" lon="-1.75009">
        <ele>-44.42</ele>
        <time>2015-03-07T12:10:58Z</time>
      </trkpt>
      <trkpt lat="47.08955" lon="-1.75023">
        <ele>-44.79</ele>
        <time>2015-03-07T12:11:01Z</time>
      </trkpt>
      <trkpt lat="47.08939" lon="-1.75038">
        <ele>-45.39</ele>
        <time>2015-03-07T12:11:04Z</time>
      </trkpt>
      <trkpt lat="47.08924" lon="-1.75054">
        <ele>-46.23</ele>
        <time>2015-03-07T12:11:07Z</time>
      </trkpt>
      <trkpt lat="47.08908" lon="-1.75072">
        <ele>-47.02</ele>
        <time>2015-03-07T12:11:10Z</time>
      </trkpt>
      <trkpt lat="47.08895" lon="-1.75091">
        <ele>-48.08</ele>
        <time>2015-03-07T12:11:13Z</time>
      </trkpt>
      <trkpt lat="47.0888" lon="-1.75117">
        <ele>-49.29</ele>
        <time>2015-03-07T12:11:17Z</time>
      </trkpt>
      <trkpt lat="47.08869" lon="-1.75138">
        <ele>-50.11</ele>
        <time>2015-03-07T12:11:20Z</time>
      </trkpt>
      <trkpt lat="47.08857" lon="-1.75159">
        <ele>-51.03</ele>
        <time>2015-03-07T12:11:23Z</time>
      </trkpt>
      <trkpt lat="47.08845" lon="-1.7518">
        <ele>-51.37</ele>
        <time>2015-03-07T12:11:26Z</time>
      </trkpt>
      <trkpt lat="47.08834" lon="-1.752">
        <ele>-51.71</ele>
        <time>2015-03-07T12:11:29Z</time>
      </trkpt>
      <trkpt lat="47.08822" lon="-1.75221">
        <ele>-51.94</ele>
        <time>2015-03-07T12:11:32Z</time>
      </trkpt>
      <trkpt lat="47.0881" lon="-1.75242">
        <ele>-51.94</ele>
        <time>2015-03-07T12:11:35Z</time>
      </trkpt>
      <trkpt lat="47.08799" lon="-1.75262">
        <ele>-52.18</ele>
        <time>2015-03-07T12:11:38Z</time>
      </trkpt>
      <trkpt lat="47.08783" lon="-1.75289">
        <ele>-52.7</ele>
        <time>2015-03-07T12:11:42Z</time>
      </trkpt>
      <trkpt lat="47.08771" lon="-1.75309">
        <ele>-52.26</ele>
        <time>2015-03-07T12:11:45Z</time>
      </trkpt>
      <trkpt lat="47.08756" lon="-1.75328">
        <ele>-52.2</ele>
        <time>2015-03-07T12:11:48Z</time>
      </trkpt>
      <trkpt lat="47.08742" lon="-1.75345">
        <ele>-52.18</ele>
        <time>2015-03-07T12:11:51Z</time>
      </trkpt>
      <trkpt lat="47.08727" lon="-1.7536">
        <ele>-52.31</ele>
        <time>2015-03-07T12:11:54Z</time>
      </trkpt>
      <trkpt lat="47.08712" lon="-1.75375">
        <ele>-52.54</ele>
        <time>2015-03-07T12:11:57Z</time>
      </trkpt>
      <trkpt lat="47.08696" lon="-1.75389">
        <ele>-52.88</ele>
        <time>2015-03-07T12:12:00Z</time>
      </trkpt>
      <trkpt lat="47.08675" lon="-1.75405">
        <ele>-51.94</ele>
        <time>2015-03-07T12:12:04Z</time>
      </trkpt>
      <trkpt lat="47.08653" lon="-1.75419">
        <ele>-51.43</ele>
        <time>2015-03-07T12:12:08Z</time>
      </trkpt>
      <trkpt lat="47.08636" lon="-1.75428">
        <ele>-50.63</ele>
        <time>2015-03-07T12:12:11Z</time>
      </trkpt>
      <trkpt lat="47.08619" lon="-1.75436">
        <ele>-50.64</ele>
        <time>2015-03-07T12:12:14Z</time>
      </trkpt>
      <trkpt lat="47.08601" lon="-1.75443">
        <ele>-50.16</ele>
        <time>2015-03-07T12:12:17Z</time>
      </trkpt>
      <trkpt lat="47.08578" lon="-1.75451">
        <ele>-50.57</ele>
        <time>2015-03-07T12:12:21Z</time>
      </trkpt>
      <trkpt lat="47.08556" lon="-1.75458">
        <ele>-51.42</ele>
        <time>2015-03-07T12:12:25Z</time>
      </trkpt>
      <trkpt lat="47.08533" lon="-1.75463">
        <ele>-50.88</ele>
        <time>2015-03-07T12:12:29Z</time>
      </trkpt>
      <trkpt lat="47.08512" lon="-1.7547">
        <ele>-50.42</ele>
        <time>2015-03-07T12:12:33Z</time>
      </trkpt>
      <trkpt lat="47.08491" lon="-1.75476">
        <ele>-50.04</ele>
        <time>2015-03-07T12:12:37Z</time>
      </trkpt>
      <trkpt lat="47.08471" lon="-1.75481">
        <ele>-50.5</ele>
        <time>2015-03-07T12:12:41Z</time>
      </trkpt>
      <trkpt lat="47.08448" lon="-1.75483">
        <ele>-49.14</ele>
        <time>2015-03-07T12:12:45Z</time>
      </trkpt>
      <trkpt lat="47.08426" lon="-1.75482">
        <ele>-48.4</ele>
        <time>2015-03-07T12:12:49Z</time>
      </trkpt>
      <trkpt lat="47.08403" lon="-1.7548">
        <ele>-47.16</ele>
        <time>2015-03-07T12:12:53Z</time>
      </trkpt>
      <trkpt lat="47.08383" lon="-1.75481">
        <ele>-46.24</ele>
        <time>2015-03-07T12:12:57Z</time>
      </trkpt>
      <trkpt lat="47.08363" lon="-1.75482">
        <ele>-45.62</ele>
        <time>2015-03-07T12:13:01Z</time>
      </trkpt>
      <trkpt lat="47.08342" lon="-1.75484">
        <ele>-45.09</ele>
        <time>2015-03-07T12:13:05Z</time>
      </trkpt>
      <trkpt lat="47.0832" lon="-1.75488">
        <ele>-43.87</ele>
        <time>2015-03-07T12:13:09Z</time>
      </trkpt>
      <trkpt lat="47.08296" lon="-1.75491">
        <ele>-43.12</ele>
        <time>2015-03-07T12:13:13Z</time>
      </trkpt>
      <trkpt lat="47.08275" lon="-1.75494">
        <ele>-43.95</ele>
        <time>2015-03-07T12:13:17Z</time>
      </trkpt>
      <trkpt lat="47.08251" lon="-1.75497">
        <ele>-44.97</ele>
        <time>2015-03-07T12:13:21Z</time>
      </trkpt>
      <trkpt lat="47.08229" lon="-1.755">
        <ele>-45.59</ele>
        <time>2015-03-07T12:13:25Z</time>
      </trkpt>
      <trkpt lat="47.08207" lon="-1.75502">
        <ele>-45.78</ele>
        <time>2015-03-07T12:13:29Z</time>
      </trkpt>
      <trkpt lat="47.08189" lon="-1.75504">
        <ele>-46.24</ele>
        <time>2015-03-07T12:13:32Z</time>
      </trkpt>
      <trkpt lat="47.0817" lon="-1.75506">
        <ele>-46.54</ele>
        <time>2015-03-07T12:13:35Z</time>
      </trkpt>
      <trkpt lat="47.08152" lon="-1.75509">
        <ele>-47.05</ele>
        <time>2015-03-07T12:13:38Z</time>
      </trkpt>
      <trkpt lat="47.08128" lon="-1.75512">
        <ele>-46.58</ele>
        <time>2015-03-07T12:13:42Z</time>
      </trkpt>
      <trkpt lat="47.08109" lon="-1.75514">
        <ele>-46.2</ele>
        <time>2015-03-07T12:13:45Z</time>
      </trkpt>
      <trkpt lat="47.0809" lon="-1.75515">
        <ele>-45.78</ele>
        <time>2015-03-07T12:13:48Z</time>
      </trkpt>
      <trkpt lat="47.08067" lon="-1.75517">
        <ele>-46.26</ele>
        <time>2015-03-07T12:13:52Z</time>
      </trkpt>
      <trkpt lat="47.08048" lon="-1.75515">
        <ele>-45.88</ele>
        <time>2015-03-07T12:13:55Z</time>
      </trkpt>
      <trkpt lat="47.08025" lon="-1.75506">
        <ele>-46.77</ele>
        <time>2015-03-07T12:13:59Z</time>
      </trkpt>
      <trkpt lat="47.08009" lon="-1.75494">
        <ele>-47.84</ele>
        <time>2015-03-07T12:14:02Z</time>
      </trkpt>
      <trkpt lat="47.07993" lon="-1.7548">
        <ele>-48.76</ele>
        <time>2015-03-07T12:14:05Z</time>
      </trkpt>
      <trkpt lat="47.07977" lon="-1.75466">
        <ele>-49.18</ele>
        <time>2015-03-07T12:14:08Z</time>
      </trkpt>
      <trkpt lat="47.07961" lon="-1.75452">
        <ele>-49.09</ele>
        <time>2015-03-07T12:14:11Z</time>
      </trkpt>
      <trkpt lat="47.07945" lon="-1.75439">
        <ele>-49.81</ele>
        <time>2015-03-07T12:14:14Z</time>
      </trkpt>
      <trkpt lat="47.07923" lon="-1.75425">
        <ele>-50.33</ele>
        <time>2015-03-07T12:14:18Z</time>
      </trkpt>
      <trkpt lat="47.07901" lon="-1.75416">
        <ele>-50.8</ele>
        <time>2015-03-07T12:14:22Z</time>
      </trkpt>
      <trkpt lat="47.07877" lon="-1.75413">
        <ele>-50.73</ele>
        <time>2015-03-07T12:14:26Z</time>
      </trkpt>
      <trkpt lat="47.07858" lon="-1.75414">
        <ele>-49.84</ele>
        <time>2015-03-07T12:14:29Z</time>
      </trkpt>
      <trkpt lat="47.0784" lon="-1.75418">
        <ele>-49.4</ele>
        <time>2015-03-07T12:14:32Z</time>
      </trkpt>
      <trkpt lat="47.07818" lon="-1.75427">
        <ele>-49.22</ele>
        <time>2015-03-07T12:14:36Z</time>
      </trkpt>
      <trkpt lat="47.07796" lon="-1.75434">
        <ele>-48.37</ele>
        <time>2015-03-07T12:14:40Z</time>
      </trkpt>
      <trkpt lat="47.07776" lon="-1.75442">
        <ele>-47.86</ele>
        <time>2015-03-07T12:14:44Z</time>
      </trkpt>
      <trkpt lat="47.07756" lon="-1.75451">
        <ele>-47.95</ele>
        <time>2015-03-07T12:14:48Z</time>
      </trkpt>
      <trkpt lat="47.07736" lon="-1.7546">
        <ele>-47.76</ele>
        <time>2015-03-07T12:14:52Z</time>
      </trkpt>
      <trkpt lat="47.07715" lon="-1.75468">
        <ele>-47.49</ele>
        <time>2015-03-07T12:14:56Z</time>
      </trkpt>
      <trkpt lat="47.07695" lon="-1.75475">
        <ele>-47.61</ele>
        <time>2015-03-07T12:15:00Z</time>
      </trkpt>
      <trkpt lat="47.07674" lon="-1.75483">
        <ele>-46.66</ele>
        <time>2015-03-07T12:15:04Z</time>
      </trkpt>
      <trkpt lat="47.07654" lon="-1.75491">
        <ele>-46.36</ele>
        <time>2015-03-07T12:15:08Z</time>
      </trkpt>
      <trkpt lat="47.07635" lon="-1.75498">
        <ele>-46.01</ele>
        <time>2015-03-07T12:15:12Z</time>
      </trkpt>
      <trkpt lat="47.07615" lon="-1.75505">
        <ele>-44.87</ele>
        <time>2015-03-07T12:15:16Z</time>
      </trkpt>
      <trkpt lat="47.07596" lon="-1.75512">
        <ele>-44.22</ele>
        <time>2015-03-07T12:15:20Z</time>
      </trkpt>
      <trkpt lat="47.07578" lon="-1.7552">
        <ele>-43.75</ele>
        <time>2015-03-07T12:15:24Z</time>
      </trkpt>
      <trkpt lat="47.07559" lon="-1.75527">
        <ele>-41.39</ele>
        <time>2015-03-07T12:15:28Z</time>
      </trkpt>
      <trkpt lat="47.0754" lon="-1.75535">
        <ele>-40.51</ele>
        <time>2015-03-07T12:15:32Z</time>
      </trkpt>
      <trkpt lat="47.07521" lon="-1.75542">
        <ele>-40.81</ele>
        <time>2015-03-07T12:15:36Z</time>
      </trkpt>
      <trkpt lat="47.07504" lon="-1.7555">
        <ele>-40.82</ele>
        <time>2015-03-07T12:15:40Z</time>
      </trkpt>
      <trkpt lat="47.07486" lon="-1.75556">
        <ele>-40.61</ele>
        <time>2015-03-07T12:15:44Z</time>
      </trkpt>
      <trkpt lat="47.07468" lon="-1.75563">
        <ele>-40.25</ele>
        <time>2015-03-07T12:15:48Z</time>
      </trkpt>
      <trkpt lat="47.0745" lon="-1.7557">
        <ele>-40.24</ele>
        <time>2015-03-07T12:15:52Z</time>
      </trkpt>
      <trkpt lat="47.0743" lon="-1.75579">
        <ele>-38.87</ele>
        <time>2015-03-07T12:15:56Z</time>
      </trkpt>
      <trkpt lat="47.0741" lon="-1.75587">
        <ele>-35.37</ele>
        <time>2015-03-07T12:16:00Z</time>
      </trkpt>
      <trkpt lat="47.07392" lon="-1.75594">
        <ele>-34.75</ele>
        <time>2015-03-07T12:16:04Z</time>
      </trkpt>
      <trkpt lat="47.07373" lon="-1.756">
        <ele>-35.47</ele>
        <time>2015-03-07T12:16:08Z</time>
      </trkpt>
      <trkpt lat="47.07355" lon="-1.75607">
        <ele>-36.32</ele>
        <time>2015-03-07T12:16:12Z</time>
      </trkpt>
      <trkpt lat="47.07337" lon="-1.75615">
        <ele>-36.27</ele>
        <time>2015-03-07T12:16:16Z</time>
      </trkpt>
      <trkpt lat="47.07318" lon="-1.75623">
        <ele>-36.36</ele>
        <time>2015-03-07T12:16:20Z</time>
      </trkpt>
      <trkpt lat="47.07299" lon="-1.75632">
        <ele>-36.59</ele>
        <time>2015-03-07T12:16:24Z</time>
      </trkpt>
      <trkpt lat="47.07279" lon="-1.75647">
        <ele>-36.9</ele>
        <time>2015-03-07T12:16:29Z</time>
      </trkpt>
      <trkpt lat="47.07264" lon="-1.75662">
        <ele>-37.75</ele>
        <time>2015-03-07T12:16:33Z</time>
      </trkpt>
      <trkpt lat="47.07249" lon="-1.75678">
        <ele>-37.91</ele>
        <time>2015-03-07T12:16:37Z</time>
      </trkpt>
      <trkpt lat="47.07233" lon="-1.75696">
        <ele>-37.83</ele>
        <time>2015-03-07T12:16:41Z</time>
      </trkpt>
      <trkpt lat="47.07218" lon="-1.75714">
        <ele>-37.57</ele>
        <time>2015-03-07T12:16:45Z</time>
      </trkpt>
      <trkpt lat="47.07203" lon="-1.75731">
        <ele>-36.95</ele>
        <time>2015-03-07T12:16:49Z</time>
      </trkpt>
      <trkpt lat="47.07188" lon="-1.7575">
        <ele>-36.51</ele>
        <time>2015-03-07T12:16:53Z</time>
      </trkpt>
      <trkpt lat="47.07172" lon="-1.75767">
        <ele>-36.05</ele>
        <time>2015-03-07T12:16:57Z</time>
      </trkpt>
      <trkpt lat="47.07157" lon="-1.75784">
        <ele>-35.6</ele>
        <time>2015-03-07T12:17:01Z</time>
      </trkpt>
      <trkpt lat="47.07142" lon="-1.75802">
        <ele>-34.89</ele>
        <time>2015-03-07T12:17:05Z</time>
      </trkpt>
      <trkpt lat="47.07126" lon="-1.75821">
        <ele>-34.26</ele>
        <time>2015-03-07T12:17:09Z</time>
      </trkpt>
      <trkpt lat="47.0711" lon="-1.75839">
        <ele>-34.42</ele>
        <time>2015-03-07T12:17:13Z</time>
      </trkpt>
      <trkpt lat="47.07094" lon="-1.75858">
        <ele>-33.99</ele>
        <time>2015-03-07T12:17:17Z</time>
      </trkpt>
      <trkpt lat="47.07078" lon="-1.75878">
        <ele>-35.03</ele>
        <time>2015-03-07T12:17:21Z</time>
      </trkpt>
      <trkpt lat="47.07062" lon="-1.75896">
        <ele>-35.6</ele>
        <time>2015-03-07T12:17:25Z</time>
      </trkpt>
      <trkpt lat="47.07047" lon="-1.75914">
        <ele>-35.88</ele>
        <time>2015-03-07T12:17:29Z</time>
      </trkpt>
      <trkpt lat="47.07032" lon="-1.75933">
        <ele>-35.14</ele>
        <time>2015-03-07T12:17:33Z</time>
      </trkpt>
      <trkpt lat="47.07017" lon="-1.7595">
        <ele>-34.75</ele>
        <time>2015-03-07T12:17:37Z</time>
      </trkpt>
      <trkpt lat="47.07001" lon="-1.75969">
        <ele>-34.38</ele>
        <time>2015-03-07T12:17:41Z</time>
      </trkpt>
      <trkpt lat="47.06985" lon="-1.75986">
        <ele>-34.1</ele>
        <time>2015-03-07T12:17:45Z</time>
      </trkpt>
      <trkpt lat="47.06969" lon="-1.76004">
        <ele>-34.38</ele>
        <time>2015-03-07T12:17:49Z</time>
      </trkpt>
      <trkpt lat="47.06952" lon="-1.76021">
        <ele>-33.12</ele>
        <time>2015-03-07T12:17:53Z</time>
      </trkpt>
      <trkpt lat="47.06936" lon="-1.76037">
        <ele>-32.08</ele>
        <time>2015-03-07T12:17:57Z</time>
      </trkpt>
      <trkpt lat="47.06918" lon="-1.76051">
        <ele>-31.56</ele>
        <time>2015-03-07T12:18:01Z</time>
      </trkpt>
      <trkpt lat="47.069" lon="-1.76063">
        <ele>-31.42</ele>
        <time>2015-03-07T12:18:05Z</time>
      </trkpt>
      <trkpt lat="47.06882" lon="-1.76073">
        <ele>-30.78</ele>
        <time>2015-03-07T12:18:09Z</time>
      </trkpt>
      <trkpt lat="47.06864" lon="-1.76082">
        <ele>-29.52</ele>
        <time>2015-03-07T12:18:13Z</time>
      </trkpt>
      <trkpt lat="47.06846" lon="-1.76091">
        <ele>-27</ele>
        <time>2015-03-07T12:18:17Z</time>
      </trkpt>
      <trkpt lat="47.06828" lon="-1.76099">
        <ele>-26.16</ele>
        <time>2015-03-07T12:18:21Z</time>
      </trkpt>
      <trkpt lat="47.0681" lon="-1.76106">
        <ele>-25.55</ele>
        <time>2015-03-07T12:18:25Z</time>
      </trkpt>
      <trkpt lat="47.06792" lon="-1.76114">
        <ele>-25.58</ele>
        <time>2015-03-07T12:18:29Z</time>
      </trkpt>
      <trkpt lat="47.06774" lon="-1.76122">
        <ele>-26.67</ele>
        <time>2015-03-07T12:18:33Z</time>
      </trkpt>
      <trkpt lat="47.06756" lon="-1.76129">
        <ele>-26.05</ele>
        <time>2015-03-07T12:18:37Z</time>
      </trkpt>
      <trkpt lat="47.06736" lon="-1.76138">
        <ele>-26.4</ele>
        <time>2015-03-07T12:18:42Z</time>
      </trkpt>
      <trkpt lat="47.06715" lon="-1.76147">
        <ele>-25.64</ele>
        <time>2015-03-07T12:18:47Z</time>
      </trkpt>
      <trkpt lat="47.06694" lon="-1.76156">
        <ele>-24.09</ele>
        <time>2015-03-07T12:18:52Z</time>
      </trkpt>
      <trkpt lat="47.06677" lon="-1.76166">
        <ele>-22.29</ele>
        <time>2015-03-07T12:18:56Z</time>
      </trkpt>
      <trkpt lat="47.06657" lon="-1.76175">
        <ele>-19.96</ele>
        <time>2015-03-07T12:19:01Z</time>
      </trkpt>
      <trkpt lat="47.06637" lon="-1.76184">
        <ele>-19.02</ele>
        <time>2015-03-07T12:19:06Z</time>
      </trkpt>
      <trkpt lat="47.06618" lon="-1.76192">
        <ele>-19.12</ele>
        <time>2015-03-07T12:19:11Z</time>
      </trkpt>
      <trkpt lat="47.066" lon="-1.76201">
        <ele>-18.58</ele>
        <time>2015-03-07T12:19:16Z</time>
      </trkpt>
      <trkpt lat="47.06579" lon="-1.76212">
        <ele>-17.5</ele>
        <time>2015-03-07T12:19:21Z</time>
      </trkpt>
      <trkpt lat="47.06561" lon="-1.76218">
        <ele>-16.84</ele>
        <time>2015-03-07T12:19:25Z</time>
      </trkpt>
      <trkpt lat="47.06543" lon="-1.76226">
        <ele>-17.3</ele>
        <time>2015-03-07T12:19:29Z</time>
      </trkpt>
      <trkpt lat="47.06526" lon="-1.76234">
        <ele>-17.54</ele>
        <time>2015-03-07T12:19:33Z</time>
      </trkpt>
      <trkpt lat="47.06508" lon="-1.76242">
        <ele>-18.48</ele>
        <time>2015-03-07T12:19:37Z</time>
      </trkpt>
      <trkpt lat="47.06489" lon="-1.76252">
        <ele>-18.37</ele>
        <time>2015-03-07T12:19:41Z</time>
      </trkpt>
      <trkpt lat="47.06469" lon="-1.76261">
        <ele>-17.98</ele>
        <time>2015-03-07T12:19:45Z</time>
      </trkpt>
      <trkpt lat="47.06449" lon="-1.76271">
        <ele>-19.07</ele>
        <time>2015-03-07T12:19:49Z</time>
      </trkpt>
      <trkpt lat="47.06429" lon="-1.76281">
        <ele>-19.31</ele>
        <time>2015-03-07T12:19:53Z</time>
      </trkpt>
      <trkpt lat="47.06411" lon="-1.76291">
        <ele>-19.61</ele>
        <time>2015-03-07T12:19:57Z</time>
      </trkpt>
      <trkpt lat="47.0639" lon="-1.76302">
        <ele>-20.57</ele>
        <time>2015-03-07T12:20:01Z</time>
      </trkpt>
      <trkpt lat="47.06369" lon="-1.76311">
        <ele>-21.39</ele>
        <time>2015-03-07T12:20:05Z</time>
      </trkpt>
      <trkpt lat="47.06352" lon="-1.76318">
        <ele>-20.45</ele>
        <time>2015-03-07T12:20:08Z</time>
      </trkpt>
      <trkpt lat="47.06328" lon="-1.76328">
        <ele>-19.64</ele>
        <time>2015-03-07T12:20:12Z</time>
      </trkpt>
      <trkpt lat="47.0631" lon="-1.76335">
        <ele>-19.34</ele>
        <time>2015-03-07T12:20:15Z</time>
      </trkpt>
      <trkpt lat="47.06295" lon="-1.76315">
        <ele>-20.78</ele>
        <time>2015-03-07T12:20:19Z</time>
      </trkpt>
      <trkpt lat="47.06297" lon="-1.76288">
        <ele>-21.48</ele>
        <time>2015-03-07T12:20:22Z</time>
      </trkpt>
      <trkpt lat="47.06299" lon="-1.76258">
        <ele>-21.55</ele>
        <time>2015-03-07T12:20:25Z</time>
      </trkpt>
      <trkpt lat="47.06299" lon="-1.76226">
        <ele>-22.08</ele>
        <time>2015-03-07T12:20:28Z</time>
      </trkpt>
      <trkpt lat="47.06294" lon="-1.762">
        <ele>-22.1</ele>
        <time>2015-03-07T12:20:31Z</time>
      </trkpt>
      <trkpt lat="47.06286" lon="-1.76176">
        <ele>-22.4</ele>
        <time>2015-03-07T12:20:34Z</time>
      </trkpt>
      <trkpt lat="47.06272" lon="-1.76149">
        <ele>-22.64</ele>
        <time>2015-03-07T12:20:38Z</time>
      </trkpt>
      <trkpt lat="47.06256" lon="-1.76127">
        <ele>-22.61</ele>
        <time>2015-03-07T12:20:42Z</time>
      </trkpt>
      <trkpt lat="47.06239" lon="-1.76105">
        <ele>-23.33</ele>
        <time>2015-03-07T12:20:46Z</time>
      </trkpt>
      <trkpt lat="47.06224" lon="-1.76088">
        <ele>-23.61</ele>
        <time>2015-03-07T12:20:49Z</time>
      </trkpt>
      <trkpt lat="47.0621" lon="-1.76071">
        <ele>-24.05</ele>
        <time>2015-03-07T12:20:52Z</time>
      </trkpt>
      <trkpt lat="47.06195" lon="-1.76053">
        <ele>-24.35</ele>
        <time>2015-03-07T12:20:55Z</time>
      </trkpt>
      <trkpt lat="47.06179" lon="-1.76036">
        <ele>-24.65</ele>
        <time>2015-03-07T12:20:58Z</time>
      </trkpt>
      <trkpt lat="47.06163" lon="-1.76019">
        <ele>-25.32</ele>
        <time>2015-03-07T12:21:01Z</time>
      </trkpt>
      <trkpt lat="47.06148" lon="-1.76001">
        <ele>-26.53</ele>
        <time>2015-03-07T12:21:04Z</time>
      </trkpt>
      <trkpt lat="47.06133" lon="-1.75983">
        <ele>-27.64</ele>
        <time>2015-03-07T12:21:07Z</time>
      </trkpt>
      <trkpt lat="47.06117" lon="-1.75965">
        <ele>-28.15</ele>
        <time>2015-03-07T12:21:10Z</time>
      </trkpt>
      <trkpt lat="47.06103" lon="-1.75948">
        <ele>-29.01</ele>
        <time>2015-03-07T12:21:13Z</time>
      </trkpt>
      <trkpt lat="47.06089" lon="-1.7593">
        <ele>-29.83</ele>
        <time>2015-03-07T12:21:16Z</time>
      </trkpt>
      <trkpt lat="47.06074" lon="-1.75913">
        <ele>-30.48</ele>
        <time>2015-03-07T12:21:19Z</time>
      </trkpt>
      <trkpt lat="47.06059" lon="-1.75896">
        <ele>-30.84</ele>
        <time>2015-03-07T12:21:22Z</time>
      </trkpt>
      <trkpt lat="47.06044" lon="-1.75878">
        <ele>-31.24</ele>
        <time>2015-03-07T12:21:25Z</time>
      </trkpt>
      <trkpt lat="47.06029" lon="-1.75861">
        <ele>-31.4</ele>
        <time>2015-03-07T12:21:28Z</time>
      </trkpt>
      <trkpt lat="47.06015" lon="-1.75844">
        <ele>-31.56</ele>
        <time>2015-03-07T12:21:31Z</time>
      </trkpt>
      <trkpt lat="47.06001" lon="-1.75828">
        <ele>-32</ele>
        <time>2015-03-07T12:21:34Z</time>
      </trkpt>
      <trkpt lat="47.05983" lon="-1.75805">
        <ele>-32.98</ele>
        <time>2015-03-07T12:21:38Z</time>
      </trkpt>
      <trkpt lat="47.0597" lon="-1.75786">
        <ele>-34.06</ele>
        <time>2015-03-07T12:21:41Z</time>
      </trkpt>
      <trkpt lat="47.05957" lon="-1.75765">
        <ele>-34.19</ele>
        <time>2015-03-07T12:21:44Z</time>
      </trkpt>
      <trkpt lat="47.05945" lon="-1.75742">
        <ele>-33.7</ele>
        <time>2015-03-07T12:21:47Z</time>
      </trkpt>
      <trkpt lat="47.05935" lon="-1.75718">
        <ele>-31.61</ele>
        <time>2015-03-07T12:21:50Z</time>
      </trkpt>
      <trkpt lat="47.05927" lon="-1.75695">
        <ele>-30.49</ele>
        <time>2015-03-07T12:21:53Z</time>
      </trkpt>
      <trkpt lat="47.05919" lon="-1.75671">
        <ele>-30.24</ele>
        <time>2015-03-07T12:21:56Z</time>
      </trkpt>
      <trkpt lat="47.05911" lon="-1.75647">
        <ele>-30.73</ele>
        <time>2015-03-07T12:21:59Z</time>
      </trkpt>
      <trkpt lat="47.05901" lon="-1.75616">
        <ele>-30.32</ele>
        <time>2015-03-07T12:22:03Z</time>
      </trkpt>
      <trkpt lat="47.0589" lon="-1.75584">
        <ele>-30.48</ele>
        <time>2015-03-07T12:22:07Z</time>
      </trkpt>
      <trkpt lat="47.0588" lon="-1.75553">
        <ele>-30.44</ele>
        <time>2015-03-07T12:22:11Z</time>
      </trkpt>
      <trkpt lat="47.05868" lon="-1.75522">
        <ele>-30.52</ele>
        <time>2015-03-07T12:22:15Z</time>
      </trkpt>
      <trkpt lat="47.05857" lon="-1.75492">
        <ele>-30.75</ele>
        <time>2015-03-07T12:22:19Z</time>
      </trkpt>
      <trkpt lat="47.05846" lon="-1.75462">
        <ele>-30.72</ele>
        <time>2015-03-07T12:22:23Z</time>
      </trkpt>
      <trkpt lat="47.05835" lon="-1.75431">
        <ele>-30.23</ele>
        <time>2015-03-07T12:22:27Z</time>
      </trkpt>
      <trkpt lat="47.05824" lon="-1.75401">
        <ele>-30.97</ele>
        <time>2015-03-07T12:22:31Z</time>
      </trkpt>
      <trkpt lat="47.05812" lon="-1.75372">
        <ele>-31.45</ele>
        <time>2015-03-07T12:22:35Z</time>
      </trkpt>
      <trkpt lat="47.05799" lon="-1.75343">
        <ele>-31.49</ele>
        <time>2015-03-07T12:22:39Z</time>
      </trkpt>
      <trkpt lat="47.05789" lon="-1.7532">
        <ele>-31.23</ele>
        <time>2015-03-07T12:22:42Z</time>
      </trkpt>
      <trkpt lat="47.05776" lon="-1.75291">
        <ele>-31.19</ele>
        <time>2015-03-07T12:22:46Z</time>
      </trkpt>
      <trkpt lat="47.05764" lon="-1.75263">
        <ele>-30.91</ele>
        <time>2015-03-07T12:22:50Z</time>
      </trkpt>
      <trkpt lat="47.05751" lon="-1.75233">
        <ele>-31.58</ele>
        <time>2015-03-07T12:22:54Z</time>
      </trkpt>
      <trkpt lat="47.0574" lon="-1.75211">
        <ele>-32.6</ele>
        <time>2015-03-07T12:22:57Z</time>
      </trkpt>
      <trkpt lat="47.05731" lon="-1.75188">
        <ele>-32.86</ele>
        <time>2015-03-07T12:23:00Z</time>
      </trkpt>
      <trkpt lat="47.05719" lon="-1.75165">
        <ele>-33.32</ele>
        <time>2015-03-07T12:23:03Z</time>
      </trkpt>
      <trkpt lat="47.05709" lon="-1.75142">
        <ele>-34.02</ele>
        <time>2015-03-07T12:23:06Z</time>
      </trkpt>
      <trkpt lat="47.05697" lon="-1.75117">
        <ele>-34.93</ele>
        <time>2015-03-07T12:23:09Z</time>
      </trkpt>
      <trkpt lat="47.05684" lon="-1.75092">
        <ele>-36.31</ele>
        <time>2015-03-07T12:23:12Z</time>
      </trkpt>
      <trkpt lat="47.05668" lon="-1.7507">
        <ele>-37.45</ele>
        <time>2015-03-07T12:23:15Z</time>
      </trkpt>
      <trkpt lat="47.05651" lon="-1.7505">
        <ele>-39.03</ele>
        <time>2015-03-07T12:23:18Z</time>
      </trkpt>
      <trkpt lat="47.05633" lon="-1.75032">
        <ele>-40.87</ele>
        <time>2015-03-07T12:23:21Z</time>
      </trkpt>
      <trkpt lat="47.05614" lon="-1.75013">
        <ele>-42.12</ele>
        <time>2015-03-07T12:23:24Z</time>
      </trkpt>
      <trkpt lat="47.05596" lon="-1.74994">
        <ele>-43.09</ele>
        <time>2015-03-07T12:23:27Z</time>
      </trkpt>
      <trkpt lat="47.05576" lon="-1.74975">
        <ele>-44.41</ele>
        <time>2015-03-07T12:23:30Z</time>
      </trkpt>
      <trkpt lat="47.05558" lon="-1.74957">
        <ele>-46.43</ele>
        <time>2015-03-07T12:23:33Z</time>
      </trkpt>
      <trkpt lat="47.0554" lon="-1.74938">
        <ele>-48.67</ele>
        <time>2015-03-07T12:23:36Z</time>
      </trkpt>
      <trkpt lat="47.0552" lon="-1.74918">
        <ele>-50.56</ele>
        <time>2015-03-07T12:23:39Z</time>
      </trkpt>
      <trkpt lat="47.05502" lon="-1.749">
        <ele>-51.25</ele>
        <time>2015-03-07T12:23:42Z</time>
      </trkpt>
      <trkpt lat="47.05483" lon="-1.74884">
        <ele>-52.06</ele>
        <time>2015-03-07T12:23:45Z</time>
      </trkpt>
      <trkpt lat="47.05463" lon="-1.74867">
        <ele>-52.65</ele>
        <time>2015-03-07T12:23:48Z</time>
      </trkpt>
      <trkpt lat="47.05445" lon="-1.74851">
        <ele>-53.2</ele>
        <time>2015-03-07T12:23:51Z</time>
      </trkpt>
      <trkpt lat="47.05426" lon="-1.74835">
        <ele>-54.04</ele>
        <time>2015-03-07T12:23:54Z</time>
      </trkpt>
      <trkpt lat="47.05409" lon="-1.74821">
        <ele>-54.81</ele>
        <time>2015-03-07T12:23:57Z</time>
      </trkpt>
      <trkpt lat="47.05392" lon="-1.74808">
        <ele>-55.05</ele>
        <time>2015-03-07T12:24:00Z</time>
      </trkpt>
      <trkpt lat="47.05377" lon="-1.74794">
        <ele>-55.58</ele>
        <time>2015-03-07T12:24:03Z</time>
      </trkpt>
      <trkpt lat="47.05359" lon="-1.74773">
        <ele>-55.36</ele>
        <time>2015-03-07T12:24:07Z</time>
      </trkpt>
      <trkpt lat="47.05344" lon="-1.74747">
        <ele>-55.13</ele>
        <time>2015-03-07T12:24:11Z</time>
      </trkpt>
      <trkpt lat="47.05329" lon="-1.74721">
        <ele>-53.44</ele>
        <time>2015-03-07T12:24:15Z</time>
      </trkpt>
      <trkpt lat="47.05316" lon="-1.74695">
        <ele>-52.26</ele>
        <time>2015-03-07T12:24:19Z</time>
      </trkpt>
      <trkpt lat="47.05304" lon="-1.74669">
        <ele>-51.7</ele>
        <time>2015-03-07T12:24:23Z</time>
      </trkpt>
      <trkpt lat="47.0529" lon="-1.74643">
        <ele>-50.98</ele>
        <time>2015-03-07T12:24:27Z</time>
      </trkpt>
      <trkpt lat="47.05277" lon="-1.74617">
        <ele>-48.7</ele>
        <time>2015-03-07T12:24:31Z</time>
      </trkpt>
      <trkpt lat="47.05266" lon="-1.74593">
        <ele>-47.18</ele>
        <time>2015-03-07T12:24:35Z</time>
      </trkpt>
      <trkpt lat="47.05256" lon="-1.74569">
        <ele>-46.67</ele>
        <time>2015-03-07T12:24:39Z</time>
      </trkpt>
      <trkpt lat="47.05247" lon="-1.74542">
        <ele>-45.92</ele>
        <time>2015-03-07T12:24:43Z</time>
      </trkpt>
      <trkpt lat="47.05236" lon="-1.74514">
        <ele>-43.88</ele>
        <time>2015-03-07T12:24:47Z</time>
      </trkpt>
      <trkpt lat="47.05229" lon="-1.74488">
        <ele>-41.7</ele>
        <time>2015-03-07T12:24:51Z</time>
      </trkpt>
      <trkpt lat="47.05226" lon="-1.74461">
        <ele>-40.5</ele>
        <time>2015-03-07T12:24:55Z</time>
      </trkpt>
      <trkpt lat="47.05224" lon="-1.74434">
        <ele>-40.28</ele>
        <time>2015-03-07T12:24:59Z</time>
      </trkpt>
      <trkpt lat="47.05224" lon="-1.74407">
        <ele>-39.05</ele>
        <time>2015-03-07T12:25:03Z</time>
      </trkpt>
      <trkpt lat="47.05223" lon="-1.74376">
        <ele>-37.33</ele>
        <time>2015-03-07T12:25:08Z</time>
      </trkpt>
      <trkpt lat="47.05223" lon="-1.74344">
        <ele>-35.52</ele>
        <time>2015-03-07T12:25:13Z</time>
      </trkpt>
      <trkpt lat="47.05223" lon="-1.74311">
        <ele>-33.71</ele>
        <time>2015-03-07T12:25:18Z</time>
      </trkpt>
      <trkpt lat="47.05224" lon="-1.74279">
        <ele>-32.72</ele>
        <time>2015-03-07T12:25:23Z</time>
      </trkpt>
      <trkpt lat="47.05225" lon="-1.74248">
        <ele>-32.29</ele>
        <time>2015-03-07T12:25:28Z</time>
      </trkpt>
      <trkpt lat="47.05225" lon="-1.74217">
        <ele>-31.61</ele>
        <time>2015-03-07T12:25:33Z</time>
      </trkpt>
      <trkpt lat="47.05227" lon="-1.74184">
        <ele>-30.93</ele>
        <time>2015-03-07T12:25:38Z</time>
      </trkpt>
      <trkpt lat="47.05228" lon="-1.74156">
        <ele>-30.68</ele>
        <time>2015-03-07T12:25:42Z</time>
      </trkpt>
      <trkpt lat="47.05228" lon="-1.74127">
        <ele>-30.67</ele>
        <time>2015-03-07T12:25:46Z</time>
      </trkpt>
      <trkpt lat="47.05229" lon="-1.74099">
        <ele>-30.79</ele>
        <time>2015-03-07T12:25:50Z</time>
      </trkpt>
      <trkpt lat="47.0523" lon="-1.7407">
        <ele>-31.27</ele>
        <time>2015-03-07T12:25:54Z</time>
      </trkpt>
      <trkpt lat="47.0523" lon="-1.74041">
        <ele>-31.77</ele>
        <time>2015-03-07T12:25:58Z</time>
      </trkpt>
      <trkpt lat="47.05231" lon="-1.74012">
        <ele>-31.86</ele>
        <time>2015-03-07T12:26:02Z</time>
      </trkpt>
      <trkpt lat="47.05231" lon="-1.73984">
        <ele>-32.2</ele>
        <time>2015-03-07T12:26:06Z</time>
      </trkpt>
      <trkpt lat="47.05232" lon="-1.73956">
        <ele>-32.31</ele>
        <time>2015-03-07T12:26:10Z</time>
      </trkpt>
      <trkpt lat="47.05232" lon="-1.73927">
        <ele>-32.16</ele>
        <time>2015-03-07T12:26:14Z</time>
      </trkpt>
      <trkpt lat="47.05233" lon="-1.73897">
        <ele>-32.28</ele>
        <time>2015-03-07T12:26:18Z</time>
      </trkpt>
      <trkpt lat="47.05233" lon="-1.73867">
        <ele>-31.84</ele>
        <time>2015-03-07T12:26:22Z</time>
      </trkpt>
      <trkpt lat="47.05233" lon="-1.73838">
        <ele>-31.05</ele>
        <time>2015-03-07T12:26:26Z</time>
      </trkpt>
      <trkpt lat="47.05234" lon="-1.73808">
        <ele>-30.38</ele>
        <time>2015-03-07T12:26:30Z</time>
      </trkpt>
      <trkpt lat="47.05233" lon="-1.73777">
        <ele>-29.79</ele>
        <time>2015-03-07T12:26:34Z</time>
      </trkpt>
      <trkpt lat="47.05233" lon="-1.73747">
        <ele>-29.07</ele>
        <time>2015-03-07T12:26:38Z</time>
      </trkpt>
      <trkpt lat="47.05235" lon="-1.73716">
        <ele>-28.87</ele>
        <time>2015-03-07T12:26:42Z</time>
      </trkpt>
      <trkpt lat="47.05237" lon="-1.73685">
        <ele>-28.81</ele>
        <time>2015-03-07T12:26:46Z</time>
      </trkpt>
      <trkpt lat="47.05243" lon="-1.73654">
        <ele>-28.65</ele>
        <time>2015-03-07T12:26:50Z</time>
      </trkpt>
      <trkpt lat="47.05251" lon="-1.73623">
        <ele>-28.89</ele>
        <time>2015-03-07T12:26:54Z</time>
      </trkpt>
      <trkpt lat="47.05261" lon="-1.73591">
        <ele>-28.95</ele>
        <time>2015-03-07T12:26:58Z</time>
      </trkpt>
      <trkpt lat="47.0527" lon="-1.73567">
        <ele>-28.97</ele>
        <time>2015-03-07T12:27:01Z</time>
      </trkpt>
      <trkpt lat="47.05278" lon="-1.73543">
        <ele>-28.94</ele>
        <time>2015-03-07T12:27:04Z</time>
      </trkpt>
      <trkpt lat="47.05286" lon="-1.73517">
        <ele>-29.53</ele>
        <time>2015-03-07T12:27:07Z</time>
      </trkpt>
      <trkpt lat="47.05294" lon="-1.7349">
        <ele>-29.87</ele>
        <time>2015-03-07T12:27:10Z</time>
      </trkpt>
      <trkpt lat="47.053" lon="-1.73463">
        <ele>-30.6</ele>
        <time>2015-03-07T12:27:13Z</time>
      </trkpt>
      <trkpt lat="47.05306" lon="-1.73436">
        <ele>-31.51</ele>
        <time>2015-03-07T12:27:16Z</time>
      </trkpt>
      <trkpt lat="47.05311" lon="-1.73409">
        <ele>-32.44</ele>
        <time>2015-03-07T12:27:19Z</time>
      </trkpt>
      <trkpt lat="47.05315" lon="-1.73382">
        <ele>-32.93</ele>
        <time>2015-03-07T12:27:22Z</time>
      </trkpt>
      <trkpt lat="47.05318" lon="-1.73354">
        <ele>-33.11</ele>
        <time>2015-03-07T12:27:25Z</time>
      </trkpt>
      <trkpt lat="47.05321" lon="-1.7332">
        <ele>-33.43</ele>
        <time>2015-03-07T12:27:29Z</time>
      </trkpt>
      <trkpt lat="47.05321" lon="-1.73286">
        <ele>-33.22</ele>
        <time>2015-03-07T12:27:33Z</time>
      </trkpt>
      <trkpt lat="47.05318" lon="-1.73253">
        <ele>-32.18</ele>
        <time>2015-03-07T12:27:37Z</time>
      </trkpt>
      <trkpt lat="47.05316" lon="-1.7322">
        <ele>-30.33</ele>
        <time>2015-03-07T12:27:41Z</time>
      </trkpt>
      <trkpt lat="47.05312" lon="-1.73194">
        <ele>-29.67</ele>
        <time>2015-03-07T12:27:44Z</time>
      </trkpt>
      <trkpt lat="47.05308" lon="-1.73162">
        <ele>-28.55</ele>
        <time>2015-03-07T12:27:48Z</time>
      </trkpt>
      <trkpt lat="47.05311" lon="-1.73131">
        <ele>-27.67</ele>
        <time>2015-03-07T12:27:53Z</time>
      </trkpt>
      <trkpt lat="47.05327" lon="-1.7311">
        <ele>-26.96</ele>
        <time>2015-03-07T12:27:57Z</time>
      </trkpt>
      <trkpt lat="47.05342" lon="-1.73086">
        <ele>-26.93</ele>
        <time>2015-03-07T12:28:01Z</time>
      </trkpt>
      <trkpt lat="47.05358" lon="-1.73061">
        <ele>-27.48</ele>
        <time>2015-03-07T12:28:05Z</time>
      </trkpt>
      <trkpt lat="47.05373" lon="-1.73037">
        <ele>-27.71</ele>
        <time>2015-03-07T12:28:09Z</time>
      </trkpt>
      <trkpt lat="47.05386" lon="-1.73013">
        <ele>-27.21</ele>
        <time>2015-03-07T12:28:13Z</time>
      </trkpt>
      <trkpt lat="47.05399" lon="-1.72987">
        <ele>-26.93</ele>
        <time>2015-03-07T12:28:17Z</time>
      </trkpt>
      <trkpt lat="47.05412" lon="-1.7296">
        <ele>-26.81</ele>
        <time>2015-03-07T12:28:21Z</time>
      </trkpt>
      <trkpt lat="47.05424" lon="-1.72933">
        <ele>-26.75</ele>
        <time>2015-03-07T12:28:25Z</time>
      </trkpt>
      <trkpt lat="47.05437" lon="-1.72905">
        <ele>-27.68</ele>
        <time>2015-03-07T12:28:29Z</time>
      </trkpt>
      <trkpt lat="47.05454" lon="-1.72881">
        <ele>-27.99</ele>
        <time>2015-03-07T12:28:33Z</time>
      </trkpt>
      <trkpt lat="47.05471" lon="-1.72857">
        <ele>-28.51</ele>
        <time>2015-03-07T12:28:37Z</time>
      </trkpt>
      <trkpt lat="47.05485" lon="-1.72839">
        <ele>-28.55</ele>
        <time>2015-03-07T12:28:40Z</time>
      </trkpt>
      <trkpt lat="47.05503" lon="-1.72814">
        <ele>-28.54</ele>
        <time>2015-03-07T12:28:44Z</time>
      </trkpt>
      <trkpt lat="47.05513" lon="-1.72792">
        <ele>-28.69</ele>
        <time>2015-03-07T12:28:47Z</time>
      </trkpt>
      <trkpt lat="47.05522" lon="-1.72761">
        <ele>-28.23</ele>
        <time>2015-03-07T12:28:51Z</time>
      </trkpt>
      <trkpt lat="47.05527" lon="-1.72729">
        <ele>-27.17</ele>
        <time>2015-03-07T12:28:55Z</time>
      </trkpt>
      <trkpt lat="47.05532" lon="-1.72697">
        <ele>-26.09</ele>
        <time>2015-03-07T12:28:59Z</time>
      </trkpt>
      <trkpt lat="47.05537" lon="-1.72667">
        <ele>-24.81</ele>
        <time>2015-03-07T12:29:03Z</time>
      </trkpt>
      <trkpt lat="47.05559" lon="-1.72658">
        <ele>-26.9</ele>
        <time>2015-03-07T12:29:10Z</time>
      </trkpt>
      <trkpt lat="47.05579" lon="-1.72649">
        <ele>-28.58</ele>
        <time>2015-03-07T12:29:14Z</time>
      </trkpt>
      <trkpt lat="47.056" lon="-1.72633">
        <ele>-29.82</ele>
        <time>2015-03-07T12:29:18Z</time>
      </trkpt>
      <trkpt lat="47.05618" lon="-1.72611">
        <ele>-30.14</ele>
        <time>2015-03-07T12:29:22Z</time>
      </trkpt>
      <trkpt lat="47.05632" lon="-1.72595">
        <ele>-29.62</ele>
        <time>2015-03-07T12:29:25Z</time>
      </trkpt>
      <trkpt lat="47.05651" lon="-1.72574">
        <ele>-28.82</ele>
        <time>2015-03-07T12:29:29Z</time>
      </trkpt>
      <trkpt lat="47.05669" lon="-1.72552">
        <ele>-28.23</ele>
        <time>2015-03-07T12:29:33Z</time>
      </trkpt>
      <trkpt lat="47.05684" lon="-1.72525">
        <ele>-28.39</ele>
        <time>2015-03-07T12:29:37Z</time>
      </trkpt>
      <trkpt lat="47.05686" lon="-1.72492">
        <ele>-27.34</ele>
        <time>2015-03-07T12:29:41Z</time>
      </trkpt>
      <trkpt lat="47.05687" lon="-1.72459">
        <ele>-26.55</ele>
        <time>2015-03-07T12:29:45Z</time>
      </trkpt>
      <trkpt lat="47.05692" lon="-1.72427">
        <ele>-26.67</ele>
        <time>2015-03-07T12:29:49Z</time>
      </trkpt>
      <trkpt lat="47.05706" lon="-1.72401">
        <ele>-27.11</ele>
        <time>2015-03-07T12:29:53Z</time>
      </trkpt>
      <trkpt lat="47.05721" lon="-1.72376">
        <ele>-27.68</ele>
        <time>2015-03-07T12:29:57Z</time>
      </trkpt>
      <trkpt lat="47.05736" lon="-1.72349">
        <ele>-28.66</ele>
        <time>2015-03-07T12:30:01Z</time>
      </trkpt>
      <trkpt lat="47.05749" lon="-1.72326">
        <ele>-29.93</ele>
        <time>2015-03-07T12:30:04Z</time>
      </trkpt>
      <trkpt lat="47.05762" lon="-1.72302">
        <ele>-30.84</ele>
        <time>2015-03-07T12:30:07Z</time>
      </trkpt>
      <trkpt lat="47.05777" lon="-1.72276">
        <ele>-32.57</ele>
        <time>2015-03-07T12:30:10Z</time>
      </trkpt>
      <trkpt lat="47.05792" lon="-1.72248">
        <ele>-34.17</ele>
        <time>2015-03-07T12:30:13Z</time>
      </trkpt>
      <trkpt lat="47.05808" lon="-1.72221">
        <ele>-35.7</ele>
        <time>2015-03-07T12:30:16Z</time>
      </trkpt>
      <trkpt lat="47.05826" lon="-1.72191">
        <ele>-37.21</ele>
        <time>2015-03-07T12:30:19Z</time>
      </trkpt>
      <trkpt lat="47.05843" lon="-1.72162">
        <ele>-38.38</ele>
        <time>2015-03-07T12:30:22Z</time>
      </trkpt>
      <trkpt lat="47.05859" lon="-1.72131">
        <ele>-39.82</ele>
        <time>2015-03-07T12:30:25Z</time>
      </trkpt>
      <trkpt lat="47.05876" lon="-1.72101">
        <ele>-41.62</ele>
        <time>2015-03-07T12:30:28Z</time>
      </trkpt>
      <trkpt lat="47.05892" lon="-1.72073">
        <ele>-43.1</ele>
        <time>2015-03-07T12:30:31Z</time>
      </trkpt>
      <trkpt lat="47.05907" lon="-1.72047">
        <ele>-45.14</ele>
        <time>2015-03-07T12:30:34Z</time>
      </trkpt>
      <trkpt lat="47.05922" lon="-1.72021">
        <ele>-46.71</ele>
        <time>2015-03-07T12:30:37Z</time>
      </trkpt>
      <trkpt lat="47.05937" lon="-1.71994">
        <ele>-48.13</ele>
        <time>2015-03-07T12:30:40Z</time>
      </trkpt>
      <trkpt lat="47.05951" lon="-1.71968">
        <ele>-49.74</ele>
        <time>2015-03-07T12:30:43Z</time>
      </trkpt>
      <trkpt lat="47.05966" lon="-1.71943">
        <ele>-50.8</ele>
        <time>2015-03-07T12:30:46Z</time>
      </trkpt>
      <trkpt lat="47.05979" lon="-1.71917">
        <ele>-51.6</ele>
        <time>2015-03-07T12:30:49Z</time>
      </trkpt>
      <trkpt lat="47.05992" lon="-1.71892">
        <ele>-52.03</ele>
        <time>2015-03-07T12:30:52Z</time>
      </trkpt>
      <trkpt lat="47.06005" lon="-1.71867">
        <ele>-52.48</ele>
        <time>2015-03-07T12:30:55Z</time>
      </trkpt>
      <trkpt lat="47.06018" lon="-1.71845">
        <ele>-53</ele>
        <time>2015-03-07T12:30:58Z</time>
      </trkpt>
      <trkpt lat="47.06031" lon="-1.71821">
        <ele>-53.81</ele>
        <time>2015-03-07T12:31:01Z</time>
      </trkpt>
      <trkpt lat="47.06045" lon="-1.71796">
        <ele>-54.39</ele>
        <time>2015-03-07T12:31:04Z</time>
      </trkpt>
      <trkpt lat="47.06059" lon="-1.71771">
        <ele>-54.29</ele>
        <time>2015-03-07T12:31:07Z</time>
      </trkpt>
      <trkpt lat="47.06068" lon="-1.71744">
        <ele>-54.75</ele>
        <time>2015-03-07T12:31:10Z</time>
      </trkpt>
      <trkpt lat="47.06067" lon="-1.71713">
        <ele>-55.06</ele>
        <time>2015-03-07T12:31:13Z</time>
      </trkpt>
      <trkpt lat="47.06062" lon="-1.71683">
        <ele>-54.78</ele>
        <time>2015-03-07T12:31:16Z</time>
      </trkpt>
      <trkpt lat="47.06055" lon="-1.71653">
        <ele>-54.55</ele>
        <time>2015-03-07T12:31:19Z</time>
      </trkpt>
      <trkpt lat="47.06049" lon="-1.71623">
        <ele>-54.3</ele>
        <time>2015-03-07T12:31:22Z</time>
      </trkpt>
      <trkpt lat="47.06042" lon="-1.71594">
        <ele>-54.06</ele>
        <time>2015-03-07T12:31:25Z</time>
      </trkpt>
      <trkpt lat="47.06036" lon="-1.71566">
        <ele>-53.96</ele>
        <time>2015-03-07T12:31:28Z</time>
      </trkpt>
      <trkpt lat="47.0603" lon="-1.71539">
        <ele>-53.77</ele>
        <time>2015-03-07T12:31:31Z</time>
      </trkpt>
      <trkpt lat="47.06024" lon="-1.71512">
        <ele>-54.11</ele>
        <time>2015-03-07T12:31:34Z</time>
      </trkpt>
      <trkpt lat="47.06019" lon="-1.71485">
        <ele>-54.28</ele>
        <time>2015-03-07T12:31:37Z</time>
      </trkpt>
      <trkpt lat="47.06012" lon="-1.71458">
        <ele>-53.32</ele>
        <time>2015-03-07T12:31:40Z</time>
      </trkpt>
      <trkpt lat="47.06005" lon="-1.71433">
        <ele>-52.83</ele>
        <time>2015-03-07T12:31:43Z</time>
      </trkpt>
      <trkpt lat="47.05997" lon="-1.71402">
        <ele>-51.83</ele>
        <time>2015-03-07T12:31:47Z</time>
      </trkpt>
      <trkpt lat="47.05989" lon="-1.71374">
        <ele>-51.01</ele>
        <time>2015-03-07T12:31:51Z</time>
      </trkpt>
      <trkpt lat="47.05973" lon="-1.71355">
        <ele>-50.52</ele>
        <time>2015-03-07T12:32:30Z</time>
      </trkpt>
      <trkpt lat="47.05954" lon="-1.71368">
        <ele>-52.1</ele>
        <time>2015-03-07T12:34:47Z</time>
      </trkpt>
      <trkpt lat="47.05938" lon="-1.71385">
        <ele>-52.04</ele>
        <time>2015-03-07T12:34:51Z</time>
      </trkpt>
      <trkpt lat="47.05922" lon="-1.71405">
        <ele>-52.02</ele>
        <time>2015-03-07T12:34:55Z</time>
      </trkpt>
      <trkpt lat="47.05907" lon="-1.71427">
        <ele>-52.03</ele>
        <time>2015-03-07T12:34:59Z</time>
      </trkpt>
      <trkpt lat="47.05889" lon="-1.71446">
        <ele>-52</ele>
        <time>2015-03-07T12:35:03Z</time>
      </trkpt>
      <trkpt lat="47.05867" lon="-1.71458">
        <ele>-52</ele>
        <time>2015-03-07T12:35:07Z</time>
      </trkpt>
      <trkpt lat="47.05846" lon="-1.71465">
        <ele>-52.29</ele>
        <time>2015-03-07T12:35:10Z</time>
      </trkpt>
      <trkpt lat="47.05827" lon="-1.71466">
        <ele>-52.53</ele>
        <time>2015-03-07T12:35:13Z</time>
      </trkpt>
      <trkpt lat="47.05809" lon="-1.71463">
        <ele>-52.71</ele>
        <time>2015-03-07T12:35:16Z</time>
      </trkpt>
      <trkpt lat="47.05787" lon="-1.71461">
        <ele>-53.07</ele>
        <time>2015-03-07T12:35:20Z</time>
      </trkpt>
      <trkpt lat="47.05766" lon="-1.71471">
        <ele>-53.14</ele>
        <time>2015-03-07T12:35:24Z</time>
      </trkpt>
      <trkpt lat="47.05744" lon="-1.7147">
        <ele>-52.95</ele>
        <time>2015-03-07T12:35:28Z</time>
      </trkpt>
      <trkpt lat="47.05722" lon="-1.71458">
        <ele>-52.55</ele>
        <time>2015-03-07T12:35:32Z</time>
      </trkpt>
      <trkpt lat="47.05701" lon="-1.71442">
        <ele>-52.05</ele>
        <time>2015-03-07T12:35:36Z</time>
      </trkpt>
      <trkpt lat="47.0568" lon="-1.71428">
        <ele>-51.58</ele>
        <time>2015-03-07T12:35:40Z</time>
      </trkpt>
      <trkpt lat="47.05663" lon="-1.71413">
        <ele>-51.02</ele>
        <time>2015-03-07T12:35:44Z</time>
      </trkpt>
      <trkpt lat="47.05642" lon="-1.71409">
        <ele>-50.16</ele>
        <time>2015-03-07T12:35:48Z</time>
      </trkpt>
      <trkpt lat="47.05624" lon="-1.7142">
        <ele>-50.2</ele>
        <time>2015-03-07T12:35:52Z</time>
      </trkpt>
      <trkpt lat="47.05608" lon="-1.71434">
        <ele>-49.95</ele>
        <time>2015-03-07T12:35:55Z</time>
      </trkpt>
      <trkpt lat="47.05592" lon="-1.71454">
        <ele>-49.42</ele>
        <time>2015-03-07T12:35:59Z</time>
      </trkpt>
      <trkpt lat="47.05574" lon="-1.71474">
        <ele>-48.78</ele>
        <time>2015-03-07T12:36:03Z</time>
      </trkpt>
      <trkpt lat="47.05556" lon="-1.71492">
        <ele>-48.21</ele>
        <time>2015-03-07T12:36:07Z</time>
      </trkpt>
      <trkpt lat="47.05537" lon="-1.71509">
        <ele>-47.75</ele>
        <time>2015-03-07T12:36:11Z</time>
      </trkpt>
      <trkpt lat="47.05517" lon="-1.71524">
        <ele>-47.82</ele>
        <time>2015-03-07T12:36:15Z</time>
      </trkpt>
      <trkpt lat="47.05496" lon="-1.71537">
        <ele>-47.64</ele>
        <time>2015-03-07T12:36:19Z</time>
      </trkpt>
      <trkpt lat="47.05477" lon="-1.71549">
        <ele>-48.02</ele>
        <time>2015-03-07T12:36:23Z</time>
      </trkpt>
      <trkpt lat="47.05456" lon="-1.71563">
        <ele>-48.55</ele>
        <time>2015-03-07T12:36:27Z</time>
      </trkpt>
      <trkpt lat="47.05438" lon="-1.71574">
        <ele>-47.99</ele>
        <time>2015-03-07T12:36:31Z</time>
      </trkpt>
      <trkpt lat="47.0542" lon="-1.71589">
        <ele>-47.38</ele>
        <time>2015-03-07T12:36:36Z</time>
      </trkpt>
      <trkpt lat="47.05401" lon="-1.71581">
        <ele>-46.39</ele>
        <time>2015-03-07T12:36:44Z</time>
      </trkpt>
      <trkpt lat="47.05403" lon="-1.7155">
        <ele>-45.13</ele>
        <time>2015-03-07T12:36:48Z</time>
      </trkpt>
      <trkpt lat="47.05404" lon="-1.71518">
        <ele>-44.06</ele>
        <time>2015-03-07T12:36:52Z</time>
      </trkpt>
      <trkpt lat="47.05405" lon="-1.71486">
        <ele>-42.59</ele>
        <time>2015-03-07T12:36:56Z</time>
      </trkpt>
      <trkpt lat="47.05408" lon="-1.71454">
        <ele>-41.23</ele>
        <time>2015-03-07T12:37:00Z</time>
      </trkpt>
      <trkpt lat="47.05406" lon="-1.71421">
        <ele>-39.6</ele>
        <time>2015-03-07T12:37:05Z</time>
      </trkpt>
      <trkpt lat="47.05403" lon="-1.71393">
        <ele>-37.83</ele>
        <time>2015-03-07T12:37:09Z</time>
      </trkpt>
      <trkpt lat="47.05401" lon="-1.71365">
        <ele>-36.67</ele>
        <time>2015-03-07T12:37:13Z</time>
      </trkpt>
      <trkpt lat="47.05398" lon="-1.71336">
        <ele>-35.75</ele>
        <time>2015-03-07T12:37:17Z</time>
      </trkpt>
      <trkpt lat="47.05394" lon="-1.7131">
        <ele>-34.35</ele>
        <time>2015-03-07T12:37:21Z</time>
      </trkpt>
      <trkpt lat="47.0539" lon="-1.7128">
        <ele>-33.34</ele>
        <time>2015-03-07T12:37:25Z</time>
      </trkpt>
      <trkpt lat="47.0539" lon="-1.71251">
        <ele>-33.12</ele>
        <time>2015-03-07T12:37:28Z</time>
      </trkpt>
      <trkpt lat="47.05392" lon="-1.71223">
        <ele>-33.24</ele>
        <time>2015-03-07T12:37:31Z</time>
      </trkpt>
      <trkpt lat="47.05393" lon="-1.71189">
        <ele>-33.06</ele>
        <time>2015-03-07T12:37:35Z</time>
      </trkpt>
      <trkpt lat="47.05392" lon="-1.71158">
        <ele>-33.77</ele>
        <time>2015-03-07T12:37:39Z</time>
      </trkpt>
      <trkpt lat="47.05394" lon="-1.71126">
        <ele>-34.12</ele>
        <time>2015-03-07T12:37:43Z</time>
      </trkpt>
      <trkpt lat="47.05396" lon="-1.71092">
        <ele>-34.61</ele>
        <time>2015-03-07T12:37:47Z</time>
      </trkpt>
      <trkpt lat="47.05398" lon="-1.71059">
        <ele>-35</ele>
        <time>2015-03-07T12:37:51Z</time>
      </trkpt>
      <trkpt lat="47.054" lon="-1.71033">
        <ele>-35.19</ele>
        <time>2015-03-07T12:37:54Z</time>
      </trkpt>
      <trkpt lat="47.05404" lon="-1.71005">
        <ele>-35.64</ele>
        <time>2015-03-07T12:37:57Z</time>
      </trkpt>
      <trkpt lat="47.05408" lon="-1.70977">
        <ele>-35.84</ele>
        <time>2015-03-07T12:38:00Z</time>
      </trkpt>
      <trkpt lat="47.05411" lon="-1.7095">
        <ele>-35.72</ele>
        <time>2015-03-07T12:38:03Z</time>
      </trkpt>
      <trkpt lat="47.05413" lon="-1.70916">
        <ele>-35.98</ele>
        <time>2015-03-07T12:38:07Z</time>
      </trkpt>
      <trkpt lat="47.05414" lon="-1.70889">
        <ele>-36.77</ele>
        <time>2015-03-07T12:38:10Z</time>
      </trkpt>
      <trkpt lat="47.05411" lon="-1.70857">
        <ele>-36.91</ele>
        <time>2015-03-07T12:38:14Z</time>
      </trkpt>
      <trkpt lat="47.05405" lon="-1.70827">
        <ele>-36.73</ele>
        <time>2015-03-07T12:38:18Z</time>
      </trkpt>
      <trkpt lat="47.05401" lon="-1.70794">
        <ele>-36.71</ele>
        <time>2015-03-07T12:38:22Z</time>
      </trkpt>
      <trkpt lat="47.05396" lon="-1.70764">
        <ele>-36.03</ele>
        <time>2015-03-07T12:38:26Z</time>
      </trkpt>
      <trkpt lat="47.0539" lon="-1.70732">
        <ele>-34.96</ele>
        <time>2015-03-07T12:38:30Z</time>
      </trkpt>
      <trkpt lat="47.05383" lon="-1.70701">
        <ele>-34.25</ele>
        <time>2015-03-07T12:38:34Z</time>
      </trkpt>
      <trkpt lat="47.05381" lon="-1.70667">
        <ele>-35.29</ele>
        <time>2015-03-07T12:38:38Z</time>
      </trkpt>
      <trkpt lat="47.05375" lon="-1.70634">
        <ele>-35.79</ele>
        <time>2015-03-07T12:38:42Z</time>
      </trkpt>
      <trkpt lat="47.0537" lon="-1.70603">
        <ele>-35.41</ele>
        <time>2015-03-07T12:38:46Z</time>
      </trkpt>
      <trkpt lat="47.05365" lon="-1.7057">
        <ele>-35.16</ele>
        <time>2015-03-07T12:38:50Z</time>
      </trkpt>
      <trkpt lat="47.05361" lon="-1.70538">
        <ele>-34.67</ele>
        <time>2015-03-07T12:38:54Z</time>
      </trkpt>
      <trkpt lat="47.05356" lon="-1.70507">
        <ele>-34.84</ele>
        <time>2015-03-07T12:38:58Z</time>
      </trkpt>
      <trkpt lat="47.05351" lon="-1.70477">
        <ele>-35.24</ele>
        <time>2015-03-07T12:39:02Z</time>
      </trkpt>
      <trkpt lat="47.05345" lon="-1.70444">
        <ele>-36.52</ele>
        <time>2015-03-07T12:39:06Z</time>
      </trkpt>
      <trkpt lat="47.05337" lon="-1.70411">
        <ele>-37.32</ele>
        <time>2015-03-07T12:39:10Z</time>
      </trkpt>
      <trkpt lat="47.05328" lon="-1.7038">
        <ele>-37.87</ele>
        <time>2015-03-07T12:39:14Z</time>
      </trkpt>
      <trkpt lat="47.05318" lon="-1.70348">
        <ele>-39.26</ele>
        <time>2015-03-07T12:39:18Z</time>
      </trkpt>
      <trkpt lat="47.05307" lon="-1.70317">
        <ele>-40.9</ele>
        <time>2015-03-07T12:39:22Z</time>
      </trkpt>
      <trkpt lat="47.05298" lon="-1.70294">
        <ele>-42.03</ele>
        <time>2015-03-07T12:39:25Z</time>
      </trkpt>
      <trkpt lat="47.05289" lon="-1.7027">
        <ele>-42.89</ele>
        <time>2015-03-07T12:39:28Z</time>
      </trkpt>
      <trkpt lat="47.05279" lon="-1.70246">
        <ele>-43.63</ele>
        <time>2015-03-07T12:39:31Z</time>
      </trkpt>
      <trkpt lat="47.0527" lon="-1.7022">
        <ele>-43.68</ele>
        <time>2015-03-07T12:39:34Z</time>
      </trkpt>
      <trkpt lat="47.05261" lon="-1.70193">
        <ele>-44.64</ele>
        <time>2015-03-07T12:39:37Z</time>
      </trkpt>
      <trkpt lat="47.05251" lon="-1.70168">
        <ele>-45.49</ele>
        <time>2015-03-07T12:39:40Z</time>
      </trkpt>
      <trkpt lat="47.05241" lon="-1.70144">
        <ele>-46.35</ele>
        <time>2015-03-07T12:39:43Z</time>
      </trkpt>
      <trkpt lat="47.05232" lon="-1.70118">
        <ele>-46.96</ele>
        <time>2015-03-07T12:39:46Z</time>
      </trkpt>
      <trkpt lat="47.05222" lon="-1.70093">
        <ele>-47.18</ele>
        <time>2015-03-07T12:39:49Z</time>
      </trkpt>
      <trkpt lat="47.05214" lon="-1.70068">
        <ele>-47.54</ele>
        <time>2015-03-07T12:39:52Z</time>
      </trkpt>
      <trkpt lat="47.05205" lon="-1.70043">
        <ele>-47.67</ele>
        <time>2015-03-07T12:39:55Z</time>
      </trkpt>
      <trkpt lat="47.05196" lon="-1.70019">
        <ele>-47.74</ele>
        <time>2015-03-07T12:39:58Z</time>
      </trkpt>
      <trkpt lat="47.05185" lon="-1.6999">
        <ele>-48.15</ele>
        <time>2015-03-07T12:40:02Z</time>
      </trkpt>
      <trkpt lat="47.05175" lon="-1.69961">
        <ele>-48.08</ele>
        <time>2015-03-07T12:40:06Z</time>
      </trkpt>
      <trkpt lat="47.05162" lon="-1.69934">
        <ele>-49.62</ele>
        <time>2015-03-07T12:40:10Z</time>
      </trkpt>
      <trkpt lat="47.05156" lon="-1.69903">
        <ele>-50.49</ele>
        <time>2015-03-07T12:40:14Z</time>
      </trkpt>
      <trkpt lat="47.05155" lon="-1.69875">
        <ele>-51.13</ele>
        <time>2015-03-07T12:40:17Z</time>
      </trkpt>
      <trkpt lat="47.05149" lon="-1.69847">
        <ele>-50.94</ele>
        <time>2015-03-07T12:40:20Z</time>
      </trkpt>
      <trkpt lat="47.05139" lon="-1.69823">
        <ele>-51.18</ele>
        <time>2015-03-07T12:40:23Z</time>
      </trkpt>
      <trkpt lat="47.05128" lon="-1.69802">
        <ele>-51.01</ele>
        <time>2015-03-07T12:40:26Z</time>
      </trkpt>
      <trkpt lat="47.05111" lon="-1.69779">
        <ele>-50.1</ele>
        <time>2015-03-07T12:40:30Z</time>
      </trkpt>
      <trkpt lat="47.05094" lon="-1.69757">
        <ele>-48.64</ele>
        <time>2015-03-07T12:40:34Z</time>
      </trkpt>
      <trkpt lat="47.0508" lon="-1.6974">
        <ele>-47.93</ele>
        <time>2015-03-07T12:40:37Z</time>
      </trkpt>
      <trkpt lat="47.05062" lon="-1.6972">
        <ele>-47.17</ele>
        <time>2015-03-07T12:40:41Z</time>
      </trkpt>
      <trkpt lat="47.05045" lon="-1.69699">
        <ele>-46.18</ele>
        <time>2015-03-07T12:40:45Z</time>
      </trkpt>
      <trkpt lat="47.05029" lon="-1.69679">
        <ele>-45.79</ele>
        <time>2015-03-07T12:40:49Z</time>
      </trkpt>
      <trkpt lat="47.05014" lon="-1.69658">
        <ele>-45.44</ele>
        <time>2015-03-07T12:40:53Z</time>
      </trkpt>
      <trkpt lat="47.05002" lon="-1.69635">
        <ele>-45.15</ele>
        <time>2015-03-07T12:40:57Z</time>
      </trkpt>
      <trkpt lat="47.04994" lon="-1.69608">
        <ele>-45.73</ele>
        <time>2015-03-07T12:41:01Z</time>
      </trkpt>
      <trkpt lat="47.04985" lon="-1.6958">
        <ele>-46.18</ele>
        <time>2015-03-07T12:41:05Z</time>
      </trkpt>
      <trkpt lat="47.04977" lon="-1.69556">
        <ele>-46.2</ele>
        <time>2015-03-07T12:41:08Z</time>
      </trkpt>
      <trkpt lat="47.04969" lon="-1.69525">
        <ele>-46.05</ele>
        <time>2015-03-07T12:41:12Z</time>
      </trkpt>
      <trkpt lat="47.0496" lon="-1.69493">
        <ele>-45.5</ele>
        <time>2015-03-07T12:41:16Z</time>
      </trkpt>
      <trkpt lat="47.0495" lon="-1.69462">
        <ele>-45.13</ele>
        <time>2015-03-07T12:41:20Z</time>
      </trkpt>
      <trkpt lat="47.04944" lon="-1.69437">
        <ele>-44.93</ele>
        <time>2015-03-07T12:41:23Z</time>
      </trkpt>
      <trkpt lat="47.04937" lon="-1.69408">
        <ele>-43.94</ele>
        <time>2015-03-07T12:41:27Z</time>
      </trkpt>
      <trkpt lat="47.04931" lon="-1.69377">
        <ele>-43.32</ele>
        <time>2015-03-07T12:41:31Z</time>
      </trkpt>
      <trkpt lat="47.04923" lon="-1.69345">
        <ele>-42.46</ele>
        <time>2015-03-07T12:41:35Z</time>
      </trkpt>
      <trkpt lat="47.04914" lon="-1.69321">
        <ele>-42.61</ele>
        <time>2015-03-07T12:41:38Z</time>
      </trkpt>
      <trkpt lat="47.04906" lon="-1.69297">
        <ele>-41.99</ele>
        <time>2015-03-07T12:41:41Z</time>
      </trkpt>
      <trkpt lat="47.049" lon="-1.69271">
        <ele>-41.79</ele>
        <time>2015-03-07T12:41:44Z</time>
      </trkpt>
      <trkpt lat="47.04892" lon="-1.69239">
        <ele>-41.84</ele>
        <time>2015-03-07T12:41:48Z</time>
      </trkpt>
      <trkpt lat="47.04885" lon="-1.69214">
        <ele>-41.81</ele>
        <time>2015-03-07T12:41:51Z</time>
      </trkpt>
      <trkpt lat="47.04878" lon="-1.69189">
        <ele>-42.15</ele>
        <time>2015-03-07T12:41:54Z</time>
      </trkpt>
      <trkpt lat="47.04872" lon="-1.69163">
        <ele>-42.16</ele>
        <time>2015-03-07T12:41:57Z</time>
      </trkpt>
      <trkpt lat="47.04864" lon="-1.69131">
        <ele>-42.81</ele>
        <time>2015-03-07T12:42:01Z</time>
      </trkpt>
      <trkpt lat="47.04855" lon="-1.69098">
        <ele>-43.31</ele>
        <time>2015-03-07T12:42:05Z</time>
      </trkpt>
      <trkpt lat="47.04849" lon="-1.69073">
        <ele>-42.62</ele>
        <time>2015-03-07T12:42:08Z</time>
      </trkpt>
      <trkpt lat="47.04841" lon="-1.69043">
        <ele>-41.85</ele>
        <time>2015-03-07T12:42:12Z</time>
      </trkpt>
      <trkpt lat="47.04834" lon="-1.69013">
        <ele>-41.35</ele>
        <time>2015-03-07T12:42:16Z</time>
      </trkpt>
      <trkpt lat="47.04826" lon="-1.68982">
        <ele>-41.04</ele>
        <time>2015-03-07T12:42:20Z</time>
      </trkpt>
      <trkpt lat="47.04818" lon="-1.68951">
        <ele>-40.68</ele>
        <time>2015-03-07T12:42:24Z</time>
      </trkpt>
      <trkpt lat="47.0481" lon="-1.68919">
        <ele>-40.61</ele>
        <time>2015-03-07T12:42:28Z</time>
      </trkpt>
      <trkpt lat="47.04801" lon="-1.68888">
        <ele>-40.48</ele>
        <time>2015-03-07T12:42:32Z</time>
      </trkpt>
      <trkpt lat="47.04793" lon="-1.68855">
        <ele>-40.59</ele>
        <time>2015-03-07T12:42:36Z</time>
      </trkpt>
      <trkpt lat="47.04784" lon="-1.68823">
        <ele>-41.18</ele>
        <time>2015-03-07T12:42:40Z</time>
      </trkpt>
      <trkpt lat="47.04776" lon="-1.68791">
        <ele>-41.29</ele>
        <time>2015-03-07T12:42:44Z</time>
      </trkpt>
      <trkpt lat="47.04768" lon="-1.6876">
        <ele>-41.88</ele>
        <time>2015-03-07T12:42:48Z</time>
      </trkpt>
      <trkpt lat="47.04759" lon="-1.6873">
        <ele>-41.91</ele>
        <time>2015-03-07T12:42:52Z</time>
      </trkpt>
      <trkpt lat="47.04751" lon="-1.687">
        <ele>-42.24</ele>
        <time>2015-03-07T12:42:56Z</time>
      </trkpt>
      <trkpt lat="47.04744" lon="-1.68669">
        <ele>-43</ele>
        <time>2015-03-07T12:43:00Z</time>
      </trkpt>
      <trkpt lat="47.04735" lon="-1.68638">
        <ele>-43.19</ele>
        <time>2015-03-07T12:43:04Z</time>
      </trkpt>
      <trkpt lat="47.04727" lon="-1.68606">
        <ele>-44.1</ele>
        <time>2015-03-07T12:43:08Z</time>
      </trkpt>
      <trkpt lat="47.0472" lon="-1.68574">
        <ele>-43.73</ele>
        <time>2015-03-07T12:43:12Z</time>
      </trkpt>
      <trkpt lat="47.04712" lon="-1.68541">
        <ele>-43.13</ele>
        <time>2015-03-07T12:43:16Z</time>
      </trkpt>
      <trkpt lat="47.04704" lon="-1.68511">
        <ele>-41.43</ele>
        <time>2015-03-07T12:43:20Z</time>
      </trkpt>
      <trkpt lat="47.04696" lon="-1.68481">
        <ele>-40.95</ele>
        <time>2015-03-07T12:43:24Z</time>
      </trkpt>
      <trkpt lat="47.04688" lon="-1.68451">
        <ele>-40.74</ele>
        <time>2015-03-07T12:43:28Z</time>
      </trkpt>
      <trkpt lat="47.0468" lon="-1.6842">
        <ele>-40.75</ele>
        <time>2015-03-07T12:43:32Z</time>
      </trkpt>
      <trkpt lat="47.04672" lon="-1.68389">
        <ele>-41.94</ele>
        <time>2015-03-07T12:43:36Z</time>
      </trkpt>
      <trkpt lat="47.04663" lon="-1.68358">
        <ele>-42.23</ele>
        <time>2015-03-07T12:43:40Z</time>
      </trkpt>
      <trkpt lat="47.04656" lon="-1.68326">
        <ele>-42.23</ele>
        <time>2015-03-07T12:43:44Z</time>
      </trkpt>
      <trkpt lat="47.04647" lon="-1.68294">
        <ele>-42.42</ele>
        <time>2015-03-07T12:43:48Z</time>
      </trkpt>
      <trkpt lat="47.04641" lon="-1.68269">
        <ele>-43.14</ele>
        <time>2015-03-07T12:43:51Z</time>
      </trkpt>
      <trkpt lat="47.04634" lon="-1.68245">
        <ele>-43.88</ele>
        <time>2015-03-07T12:43:54Z</time>
      </trkpt>
      <trkpt lat="47.04626" lon="-1.68211">
        <ele>-44.51</ele>
        <time>2015-03-07T12:43:58Z</time>
      </trkpt>
      <trkpt lat="47.04619" lon="-1.68186">
        <ele>-44.85</ele>
        <time>2015-03-07T12:44:01Z</time>
      </trkpt>
      <trkpt lat="47.04611" lon="-1.68155">
        <ele>-45.12</ele>
        <time>2015-03-07T12:44:05Z</time>
      </trkpt>
      <trkpt lat="47.04604" lon="-1.68123">
        <ele>-44.93</ele>
        <time>2015-03-07T12:44:09Z</time>
      </trkpt>
      <trkpt lat="47.04596" lon="-1.68094">
        <ele>-44.19</ele>
        <time>2015-03-07T12:44:13Z</time>
      </trkpt>
      <trkpt lat="47.04589" lon="-1.68064">
        <ele>-43.94</ele>
        <time>2015-03-07T12:44:17Z</time>
      </trkpt>
      <trkpt lat="47.0458" lon="-1.68035">
        <ele>-43.51</ele>
        <time>2015-03-07T12:44:21Z</time>
      </trkpt>
      <trkpt lat="47.04573" lon="-1.68007">
        <ele>-42.86</ele>
        <time>2015-03-07T12:44:25Z</time>
      </trkpt>
      <trkpt lat="47.04566" lon="-1.67979">
        <ele>-42.43</ele>
        <time>2015-03-07T12:44:29Z</time>
      </trkpt>
      <trkpt lat="47.04558" lon="-1.6795">
        <ele>-41.7</ele>
        <time>2015-03-07T12:44:33Z</time>
      </trkpt>
      <trkpt lat="47.04551" lon="-1.67921">
        <ele>-40.85</ele>
        <time>2015-03-07T12:44:37Z</time>
      </trkpt>
      <trkpt lat="47.04544" lon="-1.6789">
        <ele>-40.74</ele>
        <time>2015-03-07T12:44:41Z</time>
      </trkpt>
      <trkpt lat="47.04536" lon="-1.67858">
        <ele>-41.27</ele>
        <time>2015-03-07T12:44:45Z</time>
      </trkpt>
      <trkpt lat="47.04527" lon="-1.67828">
        <ele>-41.35</ele>
        <time>2015-03-07T12:44:49Z</time>
      </trkpt>
      <trkpt lat="47.04519" lon="-1.67796">
        <ele>-41.17</ele>
        <time>2015-03-07T12:44:53Z</time>
      </trkpt>
      <trkpt lat="47.04511" lon="-1.67765">
        <ele>-40.55</ele>
        <time>2015-03-07T12:44:57Z</time>
      </trkpt>
      <trkpt lat="47.04503" lon="-1.67734">
        <ele>-40.37</ele>
        <time>2015-03-07T12:45:01Z</time>
      </trkpt>
      <trkpt lat="47.04495" lon="-1.67703">
        <ele>-40.89</ele>
        <time>2015-03-07T12:45:05Z</time>
      </trkpt>
      <trkpt lat="47.04487" lon="-1.6767">
        <ele>-40.87</ele>
        <time>2015-03-07T12:45:09Z</time>
      </trkpt>
      <trkpt lat="47.0448" lon="-1.67645">
        <ele>-40.45</ele>
        <time>2015-03-07T12:45:12Z</time>
      </trkpt>
      <trkpt lat="47.04474" lon="-1.6762">
        <ele>-40.21</ele>
        <time>2015-03-07T12:45:15Z</time>
      </trkpt>
      <trkpt lat="47.04464" lon="-1.67588">
        <ele>-40.14</ele>
        <time>2015-03-07T12:45:19Z</time>
      </trkpt>
      <trkpt lat="47.04458" lon="-1.67563">
        <ele>-40.27</ele>
        <time>2015-03-07T12:45:22Z</time>
      </trkpt>
      <trkpt lat="47.04451" lon="-1.67535">
        <ele>-40.4</ele>
        <time>2015-03-07T12:45:25Z</time>
      </trkpt>
      <trkpt lat="47.04445" lon="-1.67507">
        <ele>-41.41</ele>
        <time>2015-03-07T12:45:28Z</time>
      </trkpt>
      <trkpt lat="47.04438" lon="-1.6748">
        <ele>-42</ele>
        <time>2015-03-07T12:45:31Z</time>
      </trkpt>
      <trkpt lat="47.04431" lon="-1.67455">
        <ele>-41.69</ele>
        <time>2015-03-07T12:45:34Z</time>
      </trkpt>
      <trkpt lat="47.04424" lon="-1.67429">
        <ele>-41.88</ele>
        <time>2015-03-07T12:45:37Z</time>
      </trkpt>
      <trkpt lat="47.04416" lon="-1.67396">
        <ele>-42.14</ele>
        <time>2015-03-07T12:45:41Z</time>
      </trkpt>
      <trkpt lat="47.0441" lon="-1.67371">
        <ele>-42.01</ele>
        <time>2015-03-07T12:45:44Z</time>
      </trkpt>
      <trkpt lat="47.04404" lon="-1.67345">
        <ele>-41.9</ele>
        <time>2015-03-07T12:45:47Z</time>
      </trkpt>
      <trkpt lat="47.04396" lon="-1.67321">
        <ele>-42.35</ele>
        <time>2015-03-07T12:45:50Z</time>
      </trkpt>
      <trkpt lat="47.04387" lon="-1.67289">
        <ele>-42.46</ele>
        <time>2015-03-07T12:45:54Z</time>
      </trkpt>
      <trkpt lat="47.04381" lon="-1.67264">
        <ele>-43.05</ele>
        <time>2015-03-07T12:45:57Z</time>
      </trkpt>
      <trkpt lat="47.04374" lon="-1.67239">
        <ele>-42.98</ele>
        <time>2015-03-07T12:46:00Z</time>
      </trkpt>
      <trkpt lat="47.04366" lon="-1.67206">
        <ele>-42.72</ele>
        <time>2015-03-07T12:46:04Z</time>
      </trkpt>
      <trkpt lat="47.04358" lon="-1.67174">
        <ele>-42.86</ele>
        <time>2015-03-07T12:46:08Z</time>
      </trkpt>
      <trkpt lat="47.04352" lon="-1.67149">
        <ele>-43.15</ele>
        <time>2015-03-07T12:46:11Z</time>
      </trkpt>
      <trkpt lat="47.04345" lon="-1.67123">
        <ele>-43.6</ele>
        <time>2015-03-07T12:46:14Z</time>
      </trkpt>
      <trkpt lat="47.04336" lon="-1.6709">
        <ele>-44.32</ele>
        <time>2015-03-07T12:46:18Z</time>
      </trkpt>
      <trkpt lat="47.04328" lon="-1.67057">
        <ele>-44.96</ele>
        <time>2015-03-07T12:46:22Z</time>
      </trkpt>
      <trkpt lat="47.04321" lon="-1.67032">
        <ele>-45.67</ele>
        <time>2015-03-07T12:46:25Z</time>
      </trkpt>
      <trkpt lat="47.04314" lon="-1.67007">
        <ele>-46.1</ele>
        <time>2015-03-07T12:46:28Z</time>
      </trkpt>
      <trkpt lat="47.04308" lon="-1.66982">
        <ele>-46.09</ele>
        <time>2015-03-07T12:46:31Z</time>
      </trkpt>
      <trkpt lat="47.04301" lon="-1.66949">
        <ele>-45.31</ele>
        <time>2015-03-07T12:46:35Z</time>
      </trkpt>
      <trkpt lat="47.04293" lon="-1.66917">
        <ele>-45.06</ele>
        <time>2015-03-07T12:46:39Z</time>
      </trkpt>
      <trkpt lat="47.04285" lon="-1.66884">
        <ele>-45.02</ele>
        <time>2015-03-07T12:46:43Z</time>
      </trkpt>
      <trkpt lat="47.04278" lon="-1.66859">
        <ele>-45.07</ele>
        <time>2015-03-07T12:46:46Z</time>
      </trkpt>
      <trkpt lat="47.04272" lon="-1.66834">
        <ele>-46.01</ele>
        <time>2015-03-07T12:46:49Z</time>
      </trkpt>
      <trkpt lat="47.04265" lon="-1.66809">
        <ele>-46.49</ele>
        <time>2015-03-07T12:46:52Z</time>
      </trkpt>
      <trkpt lat="47.04256" lon="-1.66777">
        <ele>-46.7</ele>
        <time>2015-03-07T12:46:56Z</time>
      </trkpt>
      <trkpt lat="47.04249" lon="-1.66746">
        <ele>-46.22</ele>
        <time>2015-03-07T12:47:00Z</time>
      </trkpt>
      <trkpt lat="47.04242" lon="-1.66722">
        <ele>-45.45</ele>
        <time>2015-03-07T12:47:03Z</time>
      </trkpt>
      <trkpt lat="47.04233" lon="-1.6669">
        <ele>-44.47</ele>
        <time>2015-03-07T12:47:07Z</time>
      </trkpt>
      <trkpt lat="47.04225" lon="-1.66657">
        <ele>-44.31</ele>
        <time>2015-03-07T12:47:11Z</time>
      </trkpt>
      <trkpt lat="47.04216" lon="-1.66624">
        <ele>-44</ele>
        <time>2015-03-07T12:47:15Z</time>
      </trkpt>
      <trkpt lat="47.04209" lon="-1.66592">
        <ele>-43.64</ele>
        <time>2015-03-07T12:47:19Z</time>
      </trkpt>
      <trkpt lat="47.042" lon="-1.66562">
        <ele>-44.52</ele>
        <time>2015-03-07T12:47:23Z</time>
      </trkpt>
      <trkpt lat="47.04192" lon="-1.66528">
        <ele>-45.29</ele>
        <time>2015-03-07T12:47:27Z</time>
      </trkpt>
      <trkpt lat="47.04183" lon="-1.66496">
        <ele>-45.37</ele>
        <time>2015-03-07T12:47:31Z</time>
      </trkpt>
      <trkpt lat="47.04175" lon="-1.66464">
        <ele>-44.72</ele>
        <time>2015-03-07T12:47:35Z</time>
      </trkpt>
      <trkpt lat="47.04168" lon="-1.66439">
        <ele>-44.62</ele>
        <time>2015-03-07T12:47:38Z</time>
      </trkpt>
      <trkpt lat="47.0416" lon="-1.66408">
        <ele>-43.8</ele>
        <time>2015-03-07T12:47:42Z</time>
      </trkpt>
      <trkpt lat="47.04153" lon="-1.66376">
        <ele>-43.75</ele>
        <time>2015-03-07T12:47:46Z</time>
      </trkpt>
      <trkpt lat="47.04147" lon="-1.6635">
        <ele>-44.01</ele>
        <time>2015-03-07T12:47:49Z</time>
      </trkpt>
      <trkpt lat="47.0414" lon="-1.66326">
        <ele>-44.47</ele>
        <time>2015-03-07T12:47:52Z</time>
      </trkpt>
      <trkpt lat="47.0413" lon="-1.66296">
        <ele>-44.14</ele>
        <time>2015-03-07T12:47:56Z</time>
      </trkpt>
      <trkpt lat="47.04122" lon="-1.66264">
        <ele>-43.88</ele>
        <time>2015-03-07T12:48:00Z</time>
      </trkpt>
      <trkpt lat="47.04113" lon="-1.66231">
        <ele>-43.25</ele>
        <time>2015-03-07T12:48:04Z</time>
      </trkpt>
      <trkpt lat="47.04106" lon="-1.662">
        <ele>-42.16</ele>
        <time>2015-03-07T12:48:08Z</time>
      </trkpt>
      <trkpt lat="47.04098" lon="-1.6617">
        <ele>-41.1</ele>
        <time>2015-03-07T12:48:12Z</time>
      </trkpt>
      <trkpt lat="47.04091" lon="-1.66141">
        <ele>-40.27</ele>
        <time>2015-03-07T12:48:16Z</time>
      </trkpt>
      <trkpt lat="47.04081" lon="-1.66113">
        <ele>-38.8</ele>
        <time>2015-03-07T12:48:20Z</time>
      </trkpt>
      <trkpt lat="47.04071" lon="-1.66084">
        <ele>-37.43</ele>
        <time>2015-03-07T12:48:24Z</time>
      </trkpt>
      <trkpt lat="47.04062" lon="-1.66056">
        <ele>-35.99</ele>
        <time>2015-03-07T12:48:28Z</time>
      </trkpt>
      <trkpt lat="47.04055" lon="-1.66026">
        <ele>-35.03</ele>
        <time>2015-03-07T12:48:32Z</time>
      </trkpt>
      <trkpt lat="47.04047" lon="-1.65997">
        <ele>-33.99</ele>
        <time>2015-03-07T12:48:36Z</time>
      </trkpt>
      <trkpt lat="47.0404" lon="-1.65968">
        <ele>-33.27</ele>
        <time>2015-03-07T12:48:40Z</time>
      </trkpt>
      <trkpt lat="47.04031" lon="-1.65937">
        <ele>-32.59</ele>
        <time>2015-03-07T12:48:44Z</time>
      </trkpt>
      <trkpt lat="47.04022" lon="-1.65906">
        <ele>-31.17</ele>
        <time>2015-03-07T12:48:48Z</time>
      </trkpt>
      <trkpt lat="47.04012" lon="-1.65874">
        <ele>-30.52</ele>
        <time>2015-03-07T12:48:52Z</time>
      </trkpt>
      <trkpt lat="47.04004" lon="-1.65849">
        <ele>-30.4</ele>
        <time>2015-03-07T12:48:55Z</time>
      </trkpt>
      <trkpt lat="47.03996" lon="-1.65816">
        <ele>-30.08</ele>
        <time>2015-03-07T12:48:59Z</time>
      </trkpt>
      <trkpt lat="47.03986" lon="-1.65785">
        <ele>-29.8</ele>
        <time>2015-03-07T12:49:03Z</time>
      </trkpt>
      <trkpt lat="47.03979" lon="-1.65761">
        <ele>-30.16</ele>
        <time>2015-03-07T12:49:06Z</time>
      </trkpt>
      <trkpt lat="47.03973" lon="-1.65734">
        <ele>-31.45</ele>
        <time>2015-03-07T12:49:09Z</time>
      </trkpt>
      <trkpt lat="47.03966" lon="-1.65706">
        <ele>-32.6</ele>
        <time>2015-03-07T12:49:12Z</time>
      </trkpt>
      <trkpt lat="47.0396" lon="-1.65679">
        <ele>-33.53</ele>
        <time>2015-03-07T12:49:15Z</time>
      </trkpt>
      <trkpt lat="47.03953" lon="-1.65654">
        <ele>-34.81</ele>
        <time>2015-03-07T12:49:18Z</time>
      </trkpt>
      <trkpt lat="47.03946" lon="-1.65627">
        <ele>-36.09</ele>
        <time>2015-03-07T12:49:21Z</time>
      </trkpt>
      <trkpt lat="47.03939" lon="-1.65602">
        <ele>-36.7</ele>
        <time>2015-03-07T12:49:24Z</time>
      </trkpt>
      <trkpt lat="47.03933" lon="-1.65576">
        <ele>-37.88</ele>
        <time>2015-03-07T12:49:27Z</time>
      </trkpt>
      <trkpt lat="47.03926" lon="-1.65551">
        <ele>-38.72</ele>
        <time>2015-03-07T12:49:30Z</time>
      </trkpt>
      <trkpt lat="47.03918" lon="-1.65519">
        <ele>-39.26</ele>
        <time>2015-03-07T12:49:34Z</time>
      </trkpt>
      <trkpt lat="47.03909" lon="-1.65486">
        <ele>-40.13</ele>
        <time>2015-03-07T12:49:38Z</time>
      </trkpt>
      <trkpt lat="47.03902" lon="-1.65461">
        <ele>-40.32</ele>
        <time>2015-03-07T12:49:41Z</time>
      </trkpt>
      <trkpt lat="47.03894" lon="-1.65436">
        <ele>-40.52</ele>
        <time>2015-03-07T12:49:44Z</time>
      </trkpt>
      <trkpt lat="47.03887" lon="-1.65409">
        <ele>-40.5</ele>
        <time>2015-03-07T12:49:47Z</time>
      </trkpt>
      <trkpt lat="47.03879" lon="-1.65385">
        <ele>-40.14</ele>
        <time>2015-03-07T12:49:50Z</time>
      </trkpt>
      <trkpt lat="47.03869" lon="-1.65362">
        <ele>-39.73</ele>
        <time>2015-03-07T12:49:53Z</time>
      </trkpt>
      <trkpt lat="47.03851" lon="-1.65339">
        <ele>-39.96</ele>
        <time>2015-03-07T12:49:57Z</time>
      </trkpt>
      <trkpt lat="47.03829" lon="-1.65331">
        <ele>-41.57</ele>
        <time>2015-03-07T12:50:01Z</time>
      </trkpt>
      <trkpt lat="47.03806" lon="-1.65338">
        <ele>-42.33</ele>
        <time>2015-03-07T12:50:05Z</time>
      </trkpt>
      <trkpt lat="47.03785" lon="-1.65351">
        <ele>-42.53</ele>
        <time>2015-03-07T12:50:09Z</time>
      </trkpt>
      <trkpt lat="47.03765" lon="-1.65365">
        <ele>-43.2</ele>
        <time>2015-03-07T12:50:13Z</time>
      </trkpt>
      <trkpt lat="47.03744" lon="-1.65378">
        <ele>-43.49</ele>
        <time>2015-03-07T12:50:17Z</time>
      </trkpt>
      <trkpt lat="47.03723" lon="-1.65391">
        <ele>-43.84</ele>
        <time>2015-03-07T12:50:21Z</time>
      </trkpt>
      <trkpt lat="47.03704" lon="-1.65405">
        <ele>-44.54</ele>
        <time>2015-03-07T12:50:25Z</time>
      </trkpt>
      <trkpt lat="47.03685" lon="-1.6542">
        <ele>-44.48</ele>
        <time>2015-03-07T12:50:29Z</time>
      </trkpt>
      <trkpt lat="47.03667" lon="-1.65434">
        <ele>-43.62</ele>
        <time>2015-03-07T12:50:33Z</time>
      </trkpt>
      <trkpt lat="47.03648" lon="-1.65448">
        <ele>-42.79</ele>
        <time>2015-03-07T12:50:37Z</time>
      </trkpt>
      <trkpt lat="47.03631" lon="-1.65461">
        <ele>-42.01</ele>
        <time>2015-03-07T12:50:41Z</time>
      </trkpt>
      <trkpt lat="47.03614" lon="-1.65476">
        <ele>-41.71</ele>
        <time>2015-03-07T12:50:45Z</time>
      </trkpt>
      <trkpt lat="47.03595" lon="-1.65492">
        <ele>-40.72</ele>
        <time>2015-03-07T12:50:50Z</time>
      </trkpt>
      <trkpt lat="47.03577" lon="-1.65509">
        <ele>-40.13</ele>
        <time>2015-03-07T12:50:55Z</time>
      </trkpt>
      <trkpt lat="47.03562" lon="-1.65524">
        <ele>-39.7</ele>
        <time>2015-03-07T12:50:59Z</time>
      </trkpt>
      <trkpt lat="47.03544" lon="-1.65544">
        <ele>-38.82</ele>
        <time>2015-03-07T12:51:04Z</time>
      </trkpt>
      <trkpt lat="47.03527" lon="-1.65565">
        <ele>-38.38</ele>
        <time>2015-03-07T12:51:09Z</time>
      </trkpt>
      <trkpt lat="47.03512" lon="-1.65584">
        <ele>-37.33</ele>
        <time>2015-03-07T12:51:13Z</time>
      </trkpt>
      <trkpt lat="47.03498" lon="-1.65604">
        <ele>-36.03</ele>
        <time>2015-03-07T12:51:17Z</time>
      </trkpt>
      <trkpt lat="47.03486" lon="-1.65623">
        <ele>-35.61</ele>
        <time>2015-03-07T12:51:21Z</time>
      </trkpt>
      <trkpt lat="47.03471" lon="-1.65643">
        <ele>-36.13</ele>
        <time>2015-03-07T12:51:26Z</time>
      </trkpt>
      <trkpt lat="47.03458" lon="-1.65664">
        <ele>-36.33</ele>
        <time>2015-03-07T12:51:30Z</time>
      </trkpt>
      <trkpt lat="47.03446" lon="-1.65685">
        <ele>-35.92</ele>
        <time>2015-03-07T12:51:34Z</time>
      </trkpt>
      <trkpt lat="47.03435" lon="-1.65706">
        <ele>-35.35</ele>
        <time>2015-03-07T12:51:38Z</time>
      </trkpt>
      <trkpt lat="47.03424" lon="-1.65729">
        <ele>-35.45</ele>
        <time>2015-03-07T12:51:42Z</time>
      </trkpt>
      <trkpt lat="47.03414" lon="-1.65752">
        <ele>-36.37</ele>
        <time>2015-03-07T12:51:46Z</time>
      </trkpt>
      <trkpt lat="47.03404" lon="-1.65778">
        <ele>-36.25</ele>
        <time>2015-03-07T12:51:50Z</time>
      </trkpt>
      <trkpt lat="47.03401" lon="-1.65806">
        <ele>-36.98</ele>
        <time>2015-03-07T12:51:54Z</time>
      </trkpt>
      <trkpt lat="47.03405" lon="-1.65836">
        <ele>-36.77</ele>
        <time>2015-03-07T12:51:58Z</time>
      </trkpt>
      <trkpt lat="47.03411" lon="-1.65866">
        <ele>-36.39</ele>
        <time>2015-03-07T12:52:02Z</time>
      </trkpt>
      <trkpt lat="47.03417" lon="-1.65894">
        <ele>-36</ele>
        <time>2015-03-07T12:52:06Z</time>
      </trkpt>
      <trkpt lat="47.03423" lon="-1.6592">
        <ele>-35.58</ele>
        <time>2015-03-07T12:52:10Z</time>
      </trkpt>
      <trkpt lat="47.03429" lon="-1.65947">
        <ele>-35.26</ele>
        <time>2015-03-07T12:52:14Z</time>
      </trkpt>
      <trkpt lat="47.03434" lon="-1.65976">
        <ele>-35.3</ele>
        <time>2015-03-07T12:52:18Z</time>
      </trkpt>
      <trkpt lat="47.0344" lon="-1.66005">
        <ele>-34.76</ele>
        <time>2015-03-07T12:52:22Z</time>
      </trkpt>
      <trkpt lat="47.03436" lon="-1.66036">
        <ele>-34.75</ele>
        <time>2015-03-07T12:52:27Z</time>
      </trkpt>
      <trkpt lat="47.03427" lon="-1.66064">
        <ele>-34.76</ele>
        <time>2015-03-07T12:52:32Z</time>
      </trkpt>
      <trkpt lat="47.03415" lon="-1.66085">
        <ele>-34.7</ele>
        <time>2015-03-07T12:52:36Z</time>
      </trkpt>
      <trkpt lat="47.03397" lon="-1.66081">
        <ele>-34.64</ele>
        <time>2015-03-07T12:52:40Z</time>
      </trkpt>
      <trkpt lat="47.0339" lon="-1.66055">
        <ele>-33.83</ele>
        <time>2015-03-07T12:52:44Z</time>
      </trkpt>
      <trkpt lat="47.03398" lon="-1.66027">
        <ele>-33.58</ele>
        <time>2015-03-07T12:52:48Z</time>
      </trkpt>
      <trkpt lat="47.03403" lon="-1.65998">
        <ele>-33.17</ele>
        <time>2015-03-07T12:52:52Z</time>
      </trkpt>
      <trkpt lat="47.03402" lon="-1.65969">
        <ele>-32.47</ele>
        <time>2015-03-07T12:52:56Z</time>
      </trkpt>
      <trkpt lat="47.034" lon="-1.65941">
        <ele>-31.54</ele>
        <time>2015-03-07T12:53:00Z</time>
      </trkpt>
      <trkpt lat="47.03396" lon="-1.65913">
        <ele>-30.45</ele>
        <time>2015-03-07T12:53:04Z</time>
      </trkpt>
      <trkpt lat="47.0339" lon="-1.65885">
        <ele>-28.9</ele>
        <time>2015-03-07T12:53:08Z</time>
      </trkpt>
      <trkpt lat="47.0338" lon="-1.65859">
        <ele>-28.08</ele>
        <time>2015-03-07T12:53:12Z</time>
      </trkpt>
      <trkpt lat="47.0337" lon="-1.65836">
        <ele>-27.62</ele>
        <time>2015-03-07T12:53:16Z</time>
      </trkpt>
      <trkpt lat="47.03359" lon="-1.65813">
        <ele>-28.21</ele>
        <time>2015-03-07T12:53:20Z</time>
      </trkpt>
      <trkpt lat="47.03347" lon="-1.65788">
        <ele>-29.08</ele>
        <time>2015-03-07T12:53:24Z</time>
      </trkpt>
      <trkpt lat="47.03336" lon="-1.65761">
        <ele>-29.6</ele>
        <time>2015-03-07T12:53:28Z</time>
      </trkpt>
      <trkpt lat="47.03325" lon="-1.65731">
        <ele>-29.39</ele>
        <time>2015-03-07T12:53:32Z</time>
      </trkpt>
      <trkpt lat="47.03319" lon="-1.65698">
        <ele>-29.71</ele>
        <time>2015-03-07T12:53:36Z</time>
      </trkpt>
      <trkpt lat="47.03315" lon="-1.65663">
        <ele>-29.58</ele>
        <time>2015-03-07T12:53:40Z</time>
      </trkpt>
      <trkpt lat="47.03315" lon="-1.65635">
        <ele>-29.5</ele>
        <time>2015-03-07T12:53:43Z</time>
      </trkpt>
      <trkpt lat="47.03314" lon="-1.65607">
        <ele>-29.74</ele>
        <time>2015-03-07T12:53:46Z</time>
      </trkpt>
      <trkpt lat="47.0331" lon="-1.6558">
        <ele>-30.24</ele>
        <time>2015-03-07T12:53:49Z</time>
      </trkpt>
      <trkpt lat="47.03313" lon="-1.65554">
        <ele>-30.83</ele>
        <time>2015-03-07T12:53:52Z</time>
      </trkpt>
      <trkpt lat="47.03313" lon="-1.65522">
        <ele>-31.35</ele>
        <time>2015-03-07T12:53:56Z</time>
      </trkpt>
      <trkpt lat="47.03326" lon="-1.6554">
        <ele>-31.48</ele>
        <time>2015-03-07T12:54:02Z</time>
      </trkpt>
      <trkpt lat="47.03347" lon="-1.65547">
        <ele>-29.74</ele>
        <time>2015-03-07T12:54:06Z</time>
      </trkpt>
      <trkpt lat="47.03368" lon="-1.65533">
        <ele>-30.31</ele>
        <time>2015-03-07T12:54:10Z</time>
      </trkpt>
      <trkpt lat="47.03384" lon="-1.65522">
        <ele>-30.9</ele>
        <time>2015-03-07T12:54:13Z</time>
      </trkpt>
      <trkpt lat="47.03405" lon="-1.65515">
        <ele>-31.08</ele>
        <time>2015-03-07T12:54:16Z</time>
      </trkpt>
      <trkpt lat="47.03428" lon="-1.65509">
        <ele>-32.12</ele>
        <time>2015-03-07T12:54:19Z</time>
      </trkpt>
      <trkpt lat="47.03447" lon="-1.65496">
        <ele>-32.91</ele>
        <time>2015-03-07T12:54:22Z</time>
      </trkpt>
      <trkpt lat="47.03464" lon="-1.65476">
        <ele>-33.22</ele>
        <time>2015-03-07T12:54:25Z</time>
      </trkpt>
      <trkpt lat="47.03482" lon="-1.65454">
        <ele>-33.53</ele>
        <time>2015-03-07T12:54:28Z</time>
      </trkpt>
      <trkpt lat="47.03494" lon="-1.65423">
        <ele>-34.19</ele>
        <time>2015-03-07T12:54:31Z</time>
      </trkpt>
      <trkpt lat="47.03505" lon="-1.65396">
        <ele>-34.95</ele>
        <time>2015-03-07T12:54:34Z</time>
      </trkpt>
      <trkpt lat="47.03514" lon="-1.65369">
        <ele>-35.93</ele>
        <time>2015-03-07T12:54:37Z</time>
      </trkpt>
      <trkpt lat="47.03525" lon="-1.65341">
        <ele>-36.41</ele>
        <time>2015-03-07T12:54:40Z</time>
      </trkpt>
      <trkpt lat="47.03536" lon="-1.65313">
        <ele>-36.87</ele>
        <time>2015-03-07T12:54:43Z</time>
      </trkpt>
      <trkpt lat="47.03546" lon="-1.65287">
        <ele>-36.55</ele>
        <time>2015-03-07T12:54:46Z</time>
      </trkpt>
      <trkpt lat="47.03556" lon="-1.65259">
        <ele>-36.35</ele>
        <time>2015-03-07T12:54:49Z</time>
      </trkpt>
      <trkpt lat="47.03567" lon="-1.65231">
        <ele>-35.95</ele>
        <time>2015-03-07T12:54:52Z</time>
      </trkpt>
      <trkpt lat="47.03576" lon="-1.65203">
        <ele>-36.51</ele>
        <time>2015-03-07T12:54:55Z</time>
      </trkpt>
      <trkpt lat="47.03586" lon="-1.65175">
        <ele>-36.82</ele>
        <time>2015-03-07T12:54:58Z</time>
      </trkpt>
      <trkpt lat="47.03597" lon="-1.65147">
        <ele>-37.35</ele>
        <time>2015-03-07T12:55:01Z</time>
      </trkpt>
      <trkpt lat="47.03606" lon="-1.65119">
        <ele>-38</ele>
        <time>2015-03-07T12:55:04Z</time>
      </trkpt>
      <trkpt lat="47.03617" lon="-1.65089">
        <ele>-38</ele>
        <time>2015-03-07T12:55:07Z</time>
      </trkpt>
      <trkpt lat="47.03629" lon="-1.65058">
        <ele>-37.83</ele>
        <time>2015-03-07T12:55:10Z</time>
      </trkpt>
      <trkpt lat="47.03639" lon="-1.65028">
        <ele>-38.02</ele>
        <time>2015-03-07T12:55:13Z</time>
      </trkpt>
      <trkpt lat="47.0365" lon="-1.64998">
        <ele>-38.18</ele>
        <time>2015-03-07T12:55:16Z</time>
      </trkpt>
      <trkpt lat="47.03659" lon="-1.64967">
        <ele>-38.6</ele>
        <time>2015-03-07T12:55:19Z</time>
      </trkpt>
      <trkpt lat="47.03669" lon="-1.64937">
        <ele>-39.48</ele>
        <time>2015-03-07T12:55:22Z</time>
      </trkpt>
      <trkpt lat="47.0368" lon="-1.64911">
        <ele>-39.89</ele>
        <time>2015-03-07T12:55:25Z</time>
      </trkpt>
      <trkpt lat="47.03691" lon="-1.64884">
        <ele>-40.41</ele>
        <time>2015-03-07T12:55:28Z</time>
      </trkpt>
      <trkpt lat="47.03703" lon="-1.64857">
        <ele>-41.33</ele>
        <time>2015-03-07T12:55:31Z</time>
      </trkpt>
      <trkpt lat="47.03714" lon="-1.6483">
        <ele>-41.43</ele>
        <time>2015-03-07T12:55:34Z</time>
      </trkpt>
      <trkpt lat="47.03725" lon="-1.64803">
        <ele>-41.33</ele>
        <time>2015-03-07T12:55:37Z</time>
      </trkpt>
      <trkpt lat="47.03733" lon="-1.64775">
        <ele>-40.93</ele>
        <time>2015-03-07T12:55:40Z</time>
      </trkpt>
      <trkpt lat="47.03736" lon="-1.64745">
        <ele>-41.02</ele>
        <time>2015-03-07T12:55:43Z</time>
      </trkpt>
      <trkpt lat="47.03741" lon="-1.64718">
        <ele>-42.24</ele>
        <time>2015-03-07T12:55:46Z</time>
      </trkpt>
      <trkpt lat="47.03747" lon="-1.64689">
        <ele>-43.03</ele>
        <time>2015-03-07T12:55:49Z</time>
      </trkpt>
      <trkpt lat="47.03749" lon="-1.6466">
        <ele>-44.27</ele>
        <time>2015-03-07T12:55:52Z</time>
      </trkpt>
      <trkpt lat="47.03753" lon="-1.64633">
        <ele>-45.02</ele>
        <time>2015-03-07T12:55:55Z</time>
      </trkpt>
      <trkpt lat="47.03754" lon="-1.64604">
        <ele>-45.09</ele>
        <time>2015-03-07T12:55:58Z</time>
      </trkpt>
      <trkpt lat="47.03755" lon="-1.64575">
        <ele>-45.95</ele>
        <time>2015-03-07T12:56:01Z</time>
      </trkpt>
      <trkpt lat="47.03758" lon="-1.64546">
        <ele>-46.3</ele>
        <time>2015-03-07T12:56:04Z</time>
      </trkpt>
      <trkpt lat="47.0376" lon="-1.64516">
        <ele>-46.63</ele>
        <time>2015-03-07T12:56:07Z</time>
      </trkpt>
      <trkpt lat="47.03762" lon="-1.64487">
        <ele>-47.14</ele>
        <time>2015-03-07T12:56:10Z</time>
      </trkpt>
      <trkpt lat="47.03761" lon="-1.64457">
        <ele>-47.78</ele>
        <time>2015-03-07T12:56:13Z</time>
      </trkpt>
      <trkpt lat="47.03757" lon="-1.64428">
        <ele>-47.24</ele>
        <time>2015-03-07T12:56:16Z</time>
      </trkpt>
      <trkpt lat="47.03749" lon="-1.64403">
        <ele>-47.12</ele>
        <time>2015-03-07T12:56:19Z</time>
      </trkpt>
      <trkpt lat="47.03741" lon="-1.64376">
        <ele>-47.15</ele>
        <time>2015-03-07T12:56:22Z</time>
      </trkpt>
      <trkpt lat="47.0373" lon="-1.6435">
        <ele>-47.28</ele>
        <time>2015-03-07T12:56:25Z</time>
      </trkpt>
      <trkpt lat="47.03717" lon="-1.64327">
        <ele>-47.2</ele>
        <time>2015-03-07T12:56:28Z</time>
      </trkpt>
      <trkpt lat="47.03702" lon="-1.64301">
        <ele>-47.09</ele>
        <time>2015-03-07T12:56:32Z</time>
      </trkpt>
      <trkpt lat="47.03688" lon="-1.64274">
        <ele>-47.26</ele>
        <time>2015-03-07T12:56:36Z</time>
      </trkpt>
      <trkpt lat="47.03677" lon="-1.64248">
        <ele>-47.68</ele>
        <time>2015-03-07T12:56:40Z</time>
      </trkpt>
      <trkpt lat="47.03666" lon="-1.64225">
        <ele>-47.37</ele>
        <time>2015-03-07T12:56:44Z</time>
      </trkpt>
      <trkpt lat="47.03647" lon="-1.64217">
        <ele>-47.43</ele>
        <time>2015-03-07T12:56:48Z</time>
      </trkpt>
      <trkpt lat="47.03633" lon="-1.64193">
        <ele>-47.08</ele>
        <time>2015-03-07T12:56:52Z</time>
      </trkpt>
      <trkpt lat="47.03621" lon="-1.64165">
        <ele>-47.28</ele>
        <time>2015-03-07T12:56:56Z</time>
      </trkpt>
      <trkpt lat="47.03608" lon="-1.64138">
        <ele>-47.31</ele>
        <time>2015-03-07T12:57:00Z</time>
      </trkpt>
      <trkpt lat="47.03597" lon="-1.64109">
        <ele>-47.58</ele>
        <time>2015-03-07T12:57:04Z</time>
      </trkpt>
      <trkpt lat="47.03586" lon="-1.64088">
        <ele>-47.06</ele>
        <time>2015-03-07T12:57:07Z</time>
      </trkpt>
      <trkpt lat="47.03576" lon="-1.64063">
        <ele>-47.26</ele>
        <time>2015-03-07T12:57:10Z</time>
      </trkpt>
      <trkpt lat="47.03574" lon="-1.64037">
        <ele>-47.38</ele>
        <time>2015-03-07T12:57:13Z</time>
      </trkpt>
      <trkpt lat="47.03592" lon="-1.64019">
        <ele>-46.07</ele>
        <time>2015-03-07T12:57:17Z</time>
      </trkpt>
      <trkpt lat="47.03608" lon="-1.64031">
        <ele>-45.06</ele>
        <time>2015-03-07T12:57:20Z</time>
      </trkpt>
      <trkpt lat="47.03619" lon="-1.64054">
        <ele>-44.8</ele>
        <time>2015-03-07T12:57:23Z</time>
      </trkpt>
      <trkpt lat="47.03631" lon="-1.64077">
        <ele>-44.94</ele>
        <time>2015-03-07T12:57:26Z</time>
      </trkpt>
      <trkpt lat="47.03642" lon="-1.64101">
        <ele>-45.33</ele>
        <time>2015-03-07T12:57:29Z</time>
      </trkpt>
      <trkpt lat="47.03655" lon="-1.64122">
        <ele>-45.17</ele>
        <time>2015-03-07T12:57:32Z</time>
      </trkpt>
      <trkpt lat="47.03674" lon="-1.64126">
        <ele>-44.71</ele>
        <time>2015-03-07T12:57:35Z</time>
      </trkpt>
      <trkpt lat="47.03695" lon="-1.64122">
        <ele>-43.76</ele>
        <time>2015-03-07T12:57:39Z</time>
      </trkpt>
      <trkpt lat="47.03719" lon="-1.64115">
        <ele>-43.11</ele>
        <time>2015-03-07T12:57:43Z</time>
      </trkpt>
      <trkpt lat="47.03742" lon="-1.6411">
        <ele>-43.09</ele>
        <time>2015-03-07T12:57:47Z</time>
      </trkpt>
      <trkpt lat="47.03763" lon="-1.64104">
        <ele>-42.44</ele>
        <time>2015-03-07T12:57:50Z</time>
      </trkpt>
      <trkpt lat="47.03782" lon="-1.641">
        <ele>-42.88</ele>
        <time>2015-03-07T12:57:53Z</time>
      </trkpt>
      <trkpt lat="47.03801" lon="-1.64096">
        <ele>-43.35</ele>
        <time>2015-03-07T12:57:56Z</time>
      </trkpt>
      <trkpt lat="47.03821" lon="-1.6409">
        <ele>-43.56</ele>
        <time>2015-03-07T12:57:59Z</time>
      </trkpt>
      <trkpt lat="47.03842" lon="-1.64088">
        <ele>-43.2</ele>
        <time>2015-03-07T12:58:02Z</time>
      </trkpt>
      <trkpt lat="47.03861" lon="-1.64094">
        <ele>-40.51</ele>
        <time>2015-03-07T12:58:05Z</time>
      </trkpt>
      <trkpt lat="47.03882" lon="-1.64099">
        <ele>-37.94</ele>
        <time>2015-03-07T12:58:08Z</time>
      </trkpt>
      <trkpt lat="47.03903" lon="-1.64109">
        <ele>-37.44</ele>
        <time>2015-03-07T12:58:11Z</time>
      </trkpt>
      <trkpt lat="47.03921" lon="-1.64117">
        <ele>-36.02</ele>
        <time>2015-03-07T12:58:14Z</time>
      </trkpt>
      <trkpt lat="47.03938" lon="-1.64132">
        <ele>-35.28</ele>
        <time>2015-03-07T12:58:17Z</time>
      </trkpt>
      <trkpt lat="47.03957" lon="-1.6414">
        <ele>-35.05</ele>
        <time>2015-03-07T12:58:20Z</time>
      </trkpt>
      <trkpt lat="47.03975" lon="-1.64144">
        <ele>-36.85</ele>
        <time>2015-03-07T12:58:23Z</time>
      </trkpt>
      <trkpt lat="47.03997" lon="-1.64137">
        <ele>-38.11</ele>
        <time>2015-03-07T12:58:27Z</time>
      </trkpt>
      <trkpt lat="47.04017" lon="-1.64128">
        <ele>-39.49</ele>
        <time>2015-03-07T12:58:31Z</time>
      </trkpt>
      <trkpt lat="47.04038" lon="-1.64118">
        <ele>-39.9</ele>
        <time>2015-03-07T12:58:35Z</time>
      </trkpt>
      <trkpt lat="47.04061" lon="-1.64107">
        <ele>-40.4</ele>
        <time>2015-03-07T12:58:39Z</time>
      </trkpt>
      <trkpt lat="47.04079" lon="-1.64099">
        <ele>-41.01</ele>
        <time>2015-03-07T12:58:42Z</time>
      </trkpt>
      <trkpt lat="47.041" lon="-1.64092">
        <ele>-41.31</ele>
        <time>2015-03-07T12:58:46Z</time>
      </trkpt>
      <trkpt lat="47.04121" lon="-1.64084">
        <ele>-40.99</ele>
        <time>2015-03-07T12:58:50Z</time>
      </trkpt>
      <trkpt lat="47.04144" lon="-1.64073">
        <ele>-40.56</ele>
        <time>2015-03-07T12:58:54Z</time>
      </trkpt>
      <trkpt lat="47.04161" lon="-1.64063">
        <ele>-39.77</ele>
        <time>2015-03-07T12:58:57Z</time>
      </trkpt>
      <trkpt lat="47.04182" lon="-1.64055">
        <ele>-38.5</ele>
        <time>2015-03-07T12:59:01Z</time>
      </trkpt>
      <trkpt lat="47.04204" lon="-1.64046">
        <ele>-38.2</ele>
        <time>2015-03-07T12:59:05Z</time>
      </trkpt>
      <trkpt lat="47.04224" lon="-1.64037">
        <ele>-37.99</ele>
        <time>2015-03-07T12:59:09Z</time>
      </trkpt>
      <trkpt lat="47.04246" lon="-1.6403">
        <ele>-36.75</ele>
        <time>2015-03-07T12:59:13Z</time>
      </trkpt>
      <trkpt lat="47.04267" lon="-1.64021">
        <ele>-35.8</ele>
        <time>2015-03-07T12:59:17Z</time>
      </trkpt>
      <trkpt lat="47.04287" lon="-1.64011">
        <ele>-35.04</ele>
        <time>2015-03-07T12:59:21Z</time>
      </trkpt>
      <trkpt lat="47.04308" lon="-1.64">
        <ele>-33.03</ele>
        <time>2015-03-07T12:59:25Z</time>
      </trkpt>
      <trkpt lat="47.04331" lon="-1.6399">
        <ele>-32.45</ele>
        <time>2015-03-07T12:59:29Z</time>
      </trkpt>
      <trkpt lat="47.04349" lon="-1.63982">
        <ele>-32.73</ele>
        <time>2015-03-07T12:59:32Z</time>
      </trkpt>
      <trkpt lat="47.04369" lon="-1.63974">
        <ele>-33.31</ele>
        <time>2015-03-07T12:59:36Z</time>
      </trkpt>
      <trkpt lat="47.0439" lon="-1.63964">
        <ele>-33.57</ele>
        <time>2015-03-07T12:59:40Z</time>
      </trkpt>
      <trkpt lat="47.04408" lon="-1.63957">
        <ele>-33.26</ele>
        <time>2015-03-07T12:59:43Z</time>
      </trkpt>
      <trkpt lat="47.04426" lon="-1.63948">
        <ele>-33</ele>
        <time>2015-03-07T12:59:47Z</time>
      </trkpt>
      <trkpt lat="47.04446" lon="-1.63935">
        <ele>-33.96</ele>
        <time>2015-03-07T12:59:51Z</time>
      </trkpt>
      <trkpt lat="47.04468" lon="-1.63926">
        <ele>-34.52</ele>
        <time>2015-03-07T12:59:54Z</time>
      </trkpt>
      <trkpt lat="47.0449" lon="-1.63917">
        <ele>-36.02</ele>
        <time>2015-03-07T12:59:57Z</time>
      </trkpt>
      <trkpt lat="47.04508" lon="-1.63907">
        <ele>-38.22</ele>
        <time>2015-03-07T13:00:00Z</time>
      </trkpt>
      <trkpt lat="47.04525" lon="-1.63897">
        <ele>-38.63</ele>
        <time>2015-03-07T13:00:03Z</time>
      </trkpt>
      <trkpt lat="47.04545" lon="-1.63885">
        <ele>-38.54</ele>
        <time>2015-03-07T13:00:07Z</time>
      </trkpt>
      <trkpt lat="47.04565" lon="-1.63871">
        <ele>-37.98</ele>
        <time>2015-03-07T13:00:11Z</time>
      </trkpt>
      <trkpt lat="47.04584" lon="-1.63861">
        <ele>-37.25</ele>
        <time>2015-03-07T13:00:14Z</time>
      </trkpt>
      <trkpt lat="47.04606" lon="-1.63856">
        <ele>-36.92</ele>
        <time>2015-03-07T13:00:18Z</time>
      </trkpt>
      <trkpt lat="47.04624" lon="-1.63852">
        <ele>-37.49</ele>
        <time>2015-03-07T13:00:21Z</time>
      </trkpt>
      <trkpt lat="47.04648" lon="-1.63845">
        <ele>-38.69</ele>
        <time>2015-03-07T13:00:25Z</time>
      </trkpt>
      <trkpt lat="47.04667" lon="-1.63832">
        <ele>-40.39</ele>
        <time>2015-03-07T13:00:29Z</time>
      </trkpt>
      <trkpt lat="47.04686" lon="-1.63821">
        <ele>-39.82</ele>
        <time>2015-03-07T13:00:33Z</time>
      </trkpt>
      <trkpt lat="47.04704" lon="-1.63813">
        <ele>-39.29</ele>
        <time>2015-03-07T13:00:39Z</time>
      </trkpt>
      <trkpt lat="47.04723" lon="-1.63806">
        <ele>-39.47</ele>
        <time>2015-03-07T13:00:44Z</time>
      </trkpt>
      <trkpt lat="47.04745" lon="-1.63806">
        <ele>-38.67</ele>
        <time>2015-03-07T13:00:48Z</time>
      </trkpt>
      <trkpt lat="47.04766" lon="-1.63798">
        <ele>-37.82</ele>
        <time>2015-03-07T13:00:52Z</time>
      </trkpt>
      <trkpt lat="47.04786" lon="-1.63792">
        <ele>-36.29</ele>
        <time>2015-03-07T13:00:56Z</time>
      </trkpt>
      <trkpt lat="47.04806" lon="-1.63786">
        <ele>-35.1</ele>
        <time>2015-03-07T13:01:00Z</time>
      </trkpt>
      <trkpt lat="47.04826" lon="-1.63783">
        <ele>-34.92</ele>
        <time>2015-03-07T13:01:04Z</time>
      </trkpt>
      <trkpt lat="47.04846" lon="-1.63778">
        <ele>-34.7</ele>
        <time>2015-03-07T13:01:08Z</time>
      </trkpt>
      <trkpt lat="47.04867" lon="-1.63773">
        <ele>-34.21</ele>
        <time>2015-03-07T13:01:12Z</time>
      </trkpt>
      <trkpt lat="47.0489" lon="-1.63768">
        <ele>-34</ele>
        <time>2015-03-07T13:01:16Z</time>
      </trkpt>
      <trkpt lat="47.04913" lon="-1.63761">
        <ele>-33.99</ele>
        <time>2015-03-07T13:01:20Z</time>
      </trkpt>
      <trkpt lat="47.04935" lon="-1.63747">
        <ele>-35.28</ele>
        <time>2015-03-07T13:01:24Z</time>
      </trkpt>
      <trkpt lat="47.04947" lon="-1.63717">
        <ele>-35.86</ele>
        <time>2015-03-07T13:01:28Z</time>
      </trkpt>
      <trkpt lat="47.04949" lon="-1.6369">
        <ele>-37</ele>
        <time>2015-03-07T13:01:31Z</time>
      </trkpt>
      <trkpt lat="47.0495" lon="-1.63661">
        <ele>-37.91</ele>
        <time>2015-03-07T13:01:34Z</time>
      </trkpt>
      <trkpt lat="47.04953" lon="-1.63632">
        <ele>-39.22</ele>
        <time>2015-03-07T13:01:37Z</time>
      </trkpt>
      <trkpt lat="47.0496" lon="-1.63605">
        <ele>-40.47</ele>
        <time>2015-03-07T13:01:40Z</time>
      </trkpt>
      <trkpt lat="47.04972" lon="-1.63582">
        <ele>-40.7</ele>
        <time>2015-03-07T13:01:43Z</time>
      </trkpt>
      <trkpt lat="47.04989" lon="-1.63566">
        <ele>-41.84</ele>
        <time>2015-03-07T13:01:46Z</time>
      </trkpt>
      <trkpt lat="47.05008" lon="-1.63552">
        <ele>-43.09</ele>
        <time>2015-03-07T13:01:49Z</time>
      </trkpt>
      <trkpt lat="47.05027" lon="-1.63544">
        <ele>-43.24</ele>
        <time>2015-03-07T13:01:52Z</time>
      </trkpt>
      <trkpt lat="47.05046" lon="-1.63536">
        <ele>-43.01</ele>
        <time>2015-03-07T13:01:55Z</time>
      </trkpt>
      <trkpt lat="47.05065" lon="-1.63529">
        <ele>-42.89</ele>
        <time>2015-03-07T13:01:58Z</time>
      </trkpt>
      <trkpt lat="47.05084" lon="-1.63521">
        <ele>-42.3</ele>
        <time>2015-03-07T13:02:01Z</time>
      </trkpt>
      <trkpt lat="47.05101" lon="-1.63515">
        <ele>-42.46</ele>
        <time>2015-03-07T13:02:04Z</time>
      </trkpt>
      <trkpt lat="47.0512" lon="-1.63508">
        <ele>-41.59</ele>
        <time>2015-03-07T13:02:07Z</time>
      </trkpt>
      <trkpt lat="47.05139" lon="-1.63501">
        <ele>-41.56</ele>
        <time>2015-03-07T13:02:10Z</time>
      </trkpt>
      <trkpt lat="47.0516" lon="-1.63493">
        <ele>-41.65</ele>
        <time>2015-03-07T13:02:13Z</time>
      </trkpt>
      <trkpt lat="47.05178" lon="-1.63485">
        <ele>-41.17</ele>
        <time>2015-03-07T13:02:16Z</time>
      </trkpt>
      <trkpt lat="47.05197" lon="-1.63477">
        <ele>-40.71</ele>
        <time>2015-03-07T13:02:19Z</time>
      </trkpt>
      <trkpt lat="47.05217" lon="-1.6347">
        <ele>-40.89</ele>
        <time>2015-03-07T13:02:22Z</time>
      </trkpt>
      <trkpt lat="47.05236" lon="-1.63463">
        <ele>-41.6</ele>
        <time>2015-03-07T13:02:25Z</time>
      </trkpt>
      <trkpt lat="47.05256" lon="-1.63457">
        <ele>-41.99</ele>
        <time>2015-03-07T13:02:28Z</time>
      </trkpt>
      <trkpt lat="47.05277" lon="-1.63453">
        <ele>-42.46</ele>
        <time>2015-03-07T13:02:31Z</time>
      </trkpt>
      <trkpt lat="47.05296" lon="-1.63448">
        <ele>-42.6</ele>
        <time>2015-03-07T13:02:34Z</time>
      </trkpt>
      <trkpt lat="47.05314" lon="-1.63447">
        <ele>-41.91</ele>
        <time>2015-03-07T13:02:37Z</time>
      </trkpt>
      <trkpt lat="47.05338" lon="-1.63446">
        <ele>-41.98</ele>
        <time>2015-03-07T13:02:41Z</time>
      </trkpt>
      <trkpt lat="47.05361" lon="-1.63439">
        <ele>-42.21</ele>
        <time>2015-03-07T13:02:45Z</time>
      </trkpt>
      <trkpt lat="47.05382" lon="-1.63434">
        <ele>-42</ele>
        <time>2015-03-07T13:02:49Z</time>
      </trkpt>
      <trkpt lat="47.05406" lon="-1.63435">
        <ele>-42.34</ele>
        <time>2015-03-07T13:02:53Z</time>
      </trkpt>
      <trkpt lat="47.05429" lon="-1.63433">
        <ele>-42.45</ele>
        <time>2015-03-07T13:02:57Z</time>
      </trkpt>
      <trkpt lat="47.05448" lon="-1.63429">
        <ele>-42.46</ele>
        <time>2015-03-07T13:03:00Z</time>
      </trkpt>
      <trkpt lat="47.05468" lon="-1.63426">
        <ele>-42.7</ele>
        <time>2015-03-07T13:03:03Z</time>
      </trkpt>
      <trkpt lat="47.05488" lon="-1.63423">
        <ele>-42.34</ele>
        <time>2015-03-07T13:03:06Z</time>
      </trkpt>
      <trkpt lat="47.05508" lon="-1.63419">
        <ele>-42.37</ele>
        <time>2015-03-07T13:03:09Z</time>
      </trkpt>
      <trkpt lat="47.05527" lon="-1.63414">
        <ele>-42.04</ele>
        <time>2015-03-07T13:03:12Z</time>
      </trkpt>
      <trkpt lat="47.05546" lon="-1.63408">
        <ele>-41.49</ele>
        <time>2015-03-07T13:03:15Z</time>
      </trkpt>
      <trkpt lat="47.05564" lon="-1.63401">
        <ele>-41.09</ele>
        <time>2015-03-07T13:03:18Z</time>
      </trkpt>
      <trkpt lat="47.05583" lon="-1.63393">
        <ele>-40.96</ele>
        <time>2015-03-07T13:03:21Z</time>
      </trkpt>
      <trkpt lat="47.056" lon="-1.63384">
        <ele>-41</ele>
        <time>2015-03-07T13:03:24Z</time>
      </trkpt>
      <trkpt lat="47.05619" lon="-1.63375">
        <ele>-41.05</ele>
        <time>2015-03-07T13:03:27Z</time>
      </trkpt>
      <trkpt lat="47.05638" lon="-1.63365">
        <ele>-40.97</ele>
        <time>2015-03-07T13:03:30Z</time>
      </trkpt>
      <trkpt lat="47.05657" lon="-1.63356">
        <ele>-41.49</ele>
        <time>2015-03-07T13:03:33Z</time>
      </trkpt>
      <trkpt lat="47.05676" lon="-1.63347">
        <ele>-42.76</ele>
        <time>2015-03-07T13:03:36Z</time>
      </trkpt>
      <trkpt lat="47.05695" lon="-1.63339">
        <ele>-43.5</ele>
        <time>2015-03-07T13:03:39Z</time>
      </trkpt>
      <trkpt lat="47.05717" lon="-1.63329">
        <ele>-43.8</ele>
        <time>2015-03-07T13:03:43Z</time>
      </trkpt>
      <trkpt lat="47.0574" lon="-1.63319">
        <ele>-43.74</ele>
        <time>2015-03-07T13:03:47Z</time>
      </trkpt>
      <trkpt lat="47.05761" lon="-1.63313">
        <ele>-43.76</ele>
        <time>2015-03-07T13:03:51Z</time>
      </trkpt>
      <trkpt lat="47.05779" lon="-1.63304">
        <ele>-43.35</ele>
        <time>2015-03-07T13:03:54Z</time>
      </trkpt>
      <trkpt lat="47.05801" lon="-1.63296">
        <ele>-43.73</ele>
        <time>2015-03-07T13:03:58Z</time>
      </trkpt>
      <trkpt lat="47.05823" lon="-1.63286">
        <ele>-44.17</ele>
        <time>2015-03-07T13:04:02Z</time>
      </trkpt>
      <trkpt lat="47.05842" lon="-1.63279">
        <ele>-44.51</ele>
        <time>2015-03-07T13:04:06Z</time>
      </trkpt>
      <trkpt lat="47.05863" lon="-1.63271">
        <ele>-43.18</ele>
        <time>2015-03-07T13:04:10Z</time>
      </trkpt>
      <trkpt lat="47.05881" lon="-1.63261">
        <ele>-43.32</ele>
        <time>2015-03-07T13:04:13Z</time>
      </trkpt>
      <trkpt lat="47.05903" lon="-1.63249">
        <ele>-43.5</ele>
        <time>2015-03-07T13:04:17Z</time>
      </trkpt>
      <trkpt lat="47.05925" lon="-1.63238">
        <ele>-43.56</ele>
        <time>2015-03-07T13:04:21Z</time>
      </trkpt>
      <trkpt lat="47.05944" lon="-1.6323">
        <ele>-44.28</ele>
        <time>2015-03-07T13:04:25Z</time>
      </trkpt>
      <trkpt lat="47.05964" lon="-1.63222">
        <ele>-43.76</ele>
        <time>2015-03-07T13:04:29Z</time>
      </trkpt>
      <trkpt lat="47.05984" lon="-1.63208">
        <ele>-43.42</ele>
        <time>2015-03-07T13:04:33Z</time>
      </trkpt>
      <trkpt lat="47.06007" lon="-1.632">
        <ele>-42.65</ele>
        <time>2015-03-07T13:04:37Z</time>
      </trkpt>
      <trkpt lat="47.06027" lon="-1.6319">
        <ele>-42.96</ele>
        <time>2015-03-07T13:04:40Z</time>
      </trkpt>
      <trkpt lat="47.06049" lon="-1.63178">
        <ele>-42.9</ele>
        <time>2015-03-07T13:04:44Z</time>
      </trkpt>
      <trkpt lat="47.0607" lon="-1.63168">
        <ele>-42.61</ele>
        <time>2015-03-07T13:04:48Z</time>
      </trkpt>
      <trkpt lat="47.06092" lon="-1.63156">
        <ele>-42.11</ele>
        <time>2015-03-07T13:04:52Z</time>
      </trkpt>
      <trkpt lat="47.06113" lon="-1.63147">
        <ele>-42</ele>
        <time>2015-03-07T13:04:56Z</time>
      </trkpt>
      <trkpt lat="47.06136" lon="-1.63137">
        <ele>-42.9</ele>
        <time>2015-03-07T13:05:00Z</time>
      </trkpt>
      <trkpt lat="47.06154" lon="-1.63127">
        <ele>-43.28</ele>
        <time>2015-03-07T13:05:03Z</time>
      </trkpt>
      <trkpt lat="47.06171" lon="-1.63119">
        <ele>-43.54</ele>
        <time>2015-03-07T13:05:06Z</time>
      </trkpt>
      <trkpt lat="47.06192" lon="-1.63109">
        <ele>-43.95</ele>
        <time>2015-03-07T13:05:10Z</time>
      </trkpt>
      <trkpt lat="47.06213" lon="-1.63101">
        <ele>-44.39</ele>
        <time>2015-03-07T13:05:14Z</time>
      </trkpt>
      <trkpt lat="47.06234" lon="-1.63091">
        <ele>-44.03</ele>
        <time>2015-03-07T13:05:18Z</time>
      </trkpt>
      <trkpt lat="47.06255" lon="-1.6308">
        <ele>-43.29</ele>
        <time>2015-03-07T13:05:22Z</time>
      </trkpt>
      <trkpt lat="47.06276" lon="-1.63068">
        <ele>-42.71</ele>
        <time>2015-03-07T13:05:26Z</time>
      </trkpt>
      <trkpt lat="47.06298" lon="-1.63056">
        <ele>-42.29</ele>
        <time>2015-03-07T13:05:30Z</time>
      </trkpt>
      <trkpt lat="47.06319" lon="-1.63046">
        <ele>-41.36</ele>
        <time>2015-03-07T13:05:34Z</time>
      </trkpt>
      <trkpt lat="47.06336" lon="-1.63036">
        <ele>-40.06</ele>
        <time>2015-03-07T13:05:37Z</time>
      </trkpt>
      <trkpt lat="47.06356" lon="-1.63026">
        <ele>-39.07</ele>
        <time>2015-03-07T13:05:41Z</time>
      </trkpt>
      <trkpt lat="47.06377" lon="-1.63017">
        <ele>-39.14</ele>
        <time>2015-03-07T13:05:45Z</time>
      </trkpt>
      <trkpt lat="47.06398" lon="-1.63007">
        <ele>-38.88</ele>
        <time>2015-03-07T13:05:49Z</time>
      </trkpt>
      <trkpt lat="47.06419" lon="-1.62997">
        <ele>-38.23</ele>
        <time>2015-03-07T13:05:53Z</time>
      </trkpt>
      <trkpt lat="47.0644" lon="-1.62988">
        <ele>-38.4</ele>
        <time>2015-03-07T13:05:57Z</time>
      </trkpt>
      <trkpt lat="47.0646" lon="-1.62978">
        <ele>-38.23</ele>
        <time>2015-03-07T13:06:01Z</time>
      </trkpt>
      <trkpt lat="47.06481" lon="-1.62967">
        <ele>-38.15</ele>
        <time>2015-03-07T13:06:05Z</time>
      </trkpt>
      <trkpt lat="47.06501" lon="-1.62954">
        <ele>-38.12</ele>
        <time>2015-03-07T13:06:09Z</time>
      </trkpt>
      <trkpt lat="47.0652" lon="-1.62936">
        <ele>-38.48</ele>
        <time>2015-03-07T13:06:13Z</time>
      </trkpt>
      <trkpt lat="47.06536" lon="-1.62916">
        <ele>-38.97</ele>
        <time>2015-03-07T13:06:17Z</time>
      </trkpt>
      <trkpt lat="47.0655" lon="-1.62895">
        <ele>-39.11</ele>
        <time>2015-03-07T13:06:21Z</time>
      </trkpt>
      <trkpt lat="47.06565" lon="-1.62872">
        <ele>-39.1</ele>
        <time>2015-03-07T13:06:25Z</time>
      </trkpt>
      <trkpt lat="47.06581" lon="-1.62848">
        <ele>-38.86</ele>
        <time>2015-03-07T13:06:29Z</time>
      </trkpt>
      <trkpt lat="47.06596" lon="-1.62824">
        <ele>-38.4</ele>
        <time>2015-03-07T13:06:33Z</time>
      </trkpt>
      <trkpt lat="47.06612" lon="-1.628">
        <ele>-38.27</ele>
        <time>2015-03-07T13:06:37Z</time>
      </trkpt>
      <trkpt lat="47.06627" lon="-1.62777">
        <ele>-38.52</ele>
        <time>2015-03-07T13:06:41Z</time>
      </trkpt>
      <trkpt lat="47.06643" lon="-1.62754">
        <ele>-39.31</ele>
        <time>2015-03-07T13:06:45Z</time>
      </trkpt>
      <trkpt lat="47.06659" lon="-1.62729">
        <ele>-39.2</ele>
        <time>2015-03-07T13:06:49Z</time>
      </trkpt>
      <trkpt lat="47.06673" lon="-1.62707">
        <ele>-38.97</ele>
        <time>2015-03-07T13:06:53Z</time>
      </trkpt>
      <trkpt lat="47.06687" lon="-1.62685">
        <ele>-38.96</ele>
        <time>2015-03-07T13:06:57Z</time>
      </trkpt>
      <trkpt lat="47.06702" lon="-1.62662">
        <ele>-39.24</ele>
        <time>2015-03-07T13:07:01Z</time>
      </trkpt>
      <trkpt lat="47.06718" lon="-1.62643">
        <ele>-39.62</ele>
        <time>2015-03-07T13:07:05Z</time>
      </trkpt>
      <trkpt lat="47.06736" lon="-1.62626">
        <ele>-40.08</ele>
        <time>2015-03-07T13:07:09Z</time>
      </trkpt>
      <trkpt lat="47.06753" lon="-1.62608">
        <ele>-40.67</ele>
        <time>2015-03-07T13:07:13Z</time>
      </trkpt>
      <trkpt lat="47.06771" lon="-1.62591">
        <ele>-40.32</ele>
        <time>2015-03-07T13:07:17Z</time>
      </trkpt>
      <trkpt lat="47.06788" lon="-1.62577">
        <ele>-40.51</ele>
        <time>2015-03-07T13:07:21Z</time>
      </trkpt>
      <trkpt lat="47.06806" lon="-1.62563">
        <ele>-40.63</ele>
        <time>2015-03-07T13:07:25Z</time>
      </trkpt>
      <trkpt lat="47.06825" lon="-1.62549">
        <ele>-40.7</ele>
        <time>2015-03-07T13:07:29Z</time>
      </trkpt>
      <trkpt lat="47.06843" lon="-1.62538">
        <ele>-41.64</ele>
        <time>2015-03-07T13:07:33Z</time>
      </trkpt>
      <trkpt lat="47.0686" lon="-1.62525">
        <ele>-42.83</ele>
        <time>2015-03-07T13:07:37Z</time>
      </trkpt>
      <trkpt lat="47.0688" lon="-1.62517">
        <ele>-44.13</ele>
        <time>2015-03-07T13:07:41Z</time>
      </trkpt>
      <trkpt lat="47.069" lon="-1.62507">
        <ele>-44.58</ele>
        <time>2015-03-07T13:07:45Z</time>
      </trkpt>
      <trkpt lat="47.0692" lon="-1.62497">
        <ele>-44.52</ele>
        <time>2015-03-07T13:07:49Z</time>
      </trkpt>
      <trkpt lat="47.06941" lon="-1.62487">
        <ele>-44.2</ele>
        <time>2015-03-07T13:07:53Z</time>
      </trkpt>
      <trkpt lat="47.0696" lon="-1.62479">
        <ele>-44.18</ele>
        <time>2015-03-07T13:07:57Z</time>
      </trkpt>
      <trkpt lat="47.06981" lon="-1.6247">
        <ele>-44.75</ele>
        <time>2015-03-07T13:08:01Z</time>
      </trkpt>
      <trkpt lat="47.07001" lon="-1.6246">
        <ele>-45.33</ele>
        <time>2015-03-07T13:08:05Z</time>
      </trkpt>
      <trkpt lat="47.07021" lon="-1.62448">
        <ele>-45.81</ele>
        <time>2015-03-07T13:08:09Z</time>
      </trkpt>
      <trkpt lat="47.07041" lon="-1.62438">
        <ele>-45.49</ele>
        <time>2015-03-07T13:08:13Z</time>
      </trkpt>
      <trkpt lat="47.07063" lon="-1.62424">
        <ele>-45.29</ele>
        <time>2015-03-07T13:08:17Z</time>
      </trkpt>
      <trkpt lat="47.07084" lon="-1.62411">
        <ele>-46.24</ele>
        <time>2015-03-07T13:08:21Z</time>
      </trkpt>
      <trkpt lat="47.07104" lon="-1.62399">
        <ele>-46.15</ele>
        <time>2015-03-07T13:08:25Z</time>
      </trkpt>
      <trkpt lat="47.07122" lon="-1.62387">
        <ele>-45.88</ele>
        <time>2015-03-07T13:08:29Z</time>
      </trkpt>
      <trkpt lat="47.07143" lon="-1.62374">
        <ele>-45.93</ele>
        <time>2015-03-07T13:08:33Z</time>
      </trkpt>
      <trkpt lat="47.07159" lon="-1.6236">
        <ele>-45.82</ele>
        <time>2015-03-07T13:08:36Z</time>
      </trkpt>
      <trkpt lat="47.07175" lon="-1.62346">
        <ele>-45.13</ele>
        <time>2015-03-07T13:08:39Z</time>
      </trkpt>
      <trkpt lat="47.07192" lon="-1.62334">
        <ele>-44.04</ele>
        <time>2015-03-07T13:08:42Z</time>
      </trkpt>
      <trkpt lat="47.07208" lon="-1.62322">
        <ele>-43.42</ele>
        <time>2015-03-07T13:08:45Z</time>
      </trkpt>
      <trkpt lat="47.07224" lon="-1.62309">
        <ele>-43.18</ele>
        <time>2015-03-07T13:08:48Z</time>
      </trkpt>
      <trkpt lat="47.07241" lon="-1.62295">
        <ele>-42.62</ele>
        <time>2015-03-07T13:08:51Z</time>
      </trkpt>
      <trkpt lat="47.07261" lon="-1.62282">
        <ele>-42.22</ele>
        <time>2015-03-07T13:08:55Z</time>
      </trkpt>
      <trkpt lat="47.07279" lon="-1.62265">
        <ele>-42.07</ele>
        <time>2015-03-07T13:08:59Z</time>
      </trkpt>
      <trkpt lat="47.07296" lon="-1.62244">
        <ele>-42.62</ele>
        <time>2015-03-07T13:09:03Z</time>
      </trkpt>
      <trkpt lat="47.07313" lon="-1.62223">
        <ele>-42.88</ele>
        <time>2015-03-07T13:09:07Z</time>
      </trkpt>
      <trkpt lat="47.07329" lon="-1.622">
        <ele>-42.61</ele>
        <time>2015-03-07T13:09:11Z</time>
      </trkpt>
      <trkpt lat="47.07345" lon="-1.62177">
        <ele>-42.45</ele>
        <time>2015-03-07T13:09:15Z</time>
      </trkpt>
      <trkpt lat="47.07359" lon="-1.62152">
        <ele>-42.68</ele>
        <time>2015-03-07T13:09:19Z</time>
      </trkpt>
      <trkpt lat="47.07374" lon="-1.62127">
        <ele>-42.77</ele>
        <time>2015-03-07T13:09:23Z</time>
      </trkpt>
      <trkpt lat="47.0739" lon="-1.62101">
        <ele>-42.57</ele>
        <time>2015-03-07T13:09:27Z</time>
      </trkpt>
      <trkpt lat="47.07405" lon="-1.62077">
        <ele>-42.99</ele>
        <time>2015-03-07T13:09:31Z</time>
      </trkpt>
      <trkpt lat="47.07418" lon="-1.62054">
        <ele>-42.99</ele>
        <time>2015-03-07T13:09:35Z</time>
      </trkpt>
      <trkpt lat="47.07433" lon="-1.62032">
        <ele>-43.15</ele>
        <time>2015-03-07T13:09:39Z</time>
      </trkpt>
      <trkpt lat="47.07447" lon="-1.6201">
        <ele>-43.05</ele>
        <time>2015-03-07T13:09:43Z</time>
      </trkpt>
      <trkpt lat="47.07463" lon="-1.6199">
        <ele>-42.6</ele>
        <time>2015-03-07T13:09:47Z</time>
      </trkpt>
      <trkpt lat="47.07479" lon="-1.61969">
        <ele>-41.31</ele>
        <time>2015-03-07T13:09:51Z</time>
      </trkpt>
      <trkpt lat="47.07497" lon="-1.61947">
        <ele>-40.01</ele>
        <time>2015-03-07T13:09:55Z</time>
      </trkpt>
      <trkpt lat="47.07513" lon="-1.61929">
        <ele>-40.69</ele>
        <time>2015-03-07T13:09:59Z</time>
      </trkpt>
      <trkpt lat="47.07531" lon="-1.61908">
        <ele>-40.55</ele>
        <time>2015-03-07T13:10:03Z</time>
      </trkpt>
      <trkpt lat="47.07548" lon="-1.61889">
        <ele>-40.63</ele>
        <time>2015-03-07T13:10:07Z</time>
      </trkpt>
      <trkpt lat="47.07565" lon="-1.6187">
        <ele>-41.06</ele>
        <time>2015-03-07T13:10:11Z</time>
      </trkpt>
      <trkpt lat="47.07583" lon="-1.61849">
        <ele>-41.24</ele>
        <time>2015-03-07T13:10:15Z</time>
      </trkpt>
      <trkpt lat="47.07598" lon="-1.61832">
        <ele>-41.28</ele>
        <time>2015-03-07T13:10:18Z</time>
      </trkpt>
      <trkpt lat="47.07613" lon="-1.61816">
        <ele>-41.35</ele>
        <time>2015-03-07T13:10:21Z</time>
      </trkpt>
      <trkpt lat="47.07632" lon="-1.61795">
        <ele>-41.44</ele>
        <time>2015-03-07T13:10:25Z</time>
      </trkpt>
      <trkpt lat="47.07644" lon="-1.61776">
        <ele>-41.32</ele>
        <time>2015-03-07T13:10:28Z</time>
      </trkpt>
      <trkpt lat="47.07663" lon="-1.61754">
        <ele>-41.17</ele>
        <time>2015-03-07T13:10:32Z</time>
      </trkpt>
      <trkpt lat="47.0768" lon="-1.61735">
        <ele>-40.41</ele>
        <time>2015-03-07T13:10:35Z</time>
      </trkpt>
      <trkpt lat="47.07696" lon="-1.61715">
        <ele>-39.92</ele>
        <time>2015-03-07T13:10:38Z</time>
      </trkpt>
      <trkpt lat="47.07711" lon="-1.61698">
        <ele>-39.64</ele>
        <time>2015-03-07T13:10:41Z</time>
      </trkpt>
      <trkpt lat="47.07727" lon="-1.61682">
        <ele>-39.26</ele>
        <time>2015-03-07T13:10:44Z</time>
      </trkpt>
      <trkpt lat="47.07745" lon="-1.61665">
        <ele>-39.65</ele>
        <time>2015-03-07T13:10:48Z</time>
      </trkpt>
      <trkpt lat="47.07762" lon="-1.61646">
        <ele>-39.74</ele>
        <time>2015-03-07T13:10:52Z</time>
      </trkpt>
      <trkpt lat="47.0778" lon="-1.61627">
        <ele>-39.88</ele>
        <time>2015-03-07T13:10:56Z</time>
      </trkpt>
      <trkpt lat="47.07795" lon="-1.6161">
        <ele>-39.38</ele>
        <time>2015-03-07T13:11:00Z</time>
      </trkpt>
      <trkpt lat="47.07817" lon="-1.61602">
        <ele>-42.25</ele>
        <time>2015-03-07T13:11:04Z</time>
      </trkpt>
      <trkpt lat="47.07836" lon="-1.61591">
        <ele>-45.08</ele>
        <time>2015-03-07T13:11:08Z</time>
      </trkpt>
      <trkpt lat="47.07856" lon="-1.61581">
        <ele>-46.96</ele>
        <time>2015-03-07T13:11:12Z</time>
      </trkpt>
      <trkpt lat="47.07876" lon="-1.61572">
        <ele>-48.29</ele>
        <time>2015-03-07T13:11:16Z</time>
      </trkpt>
      <trkpt lat="47.07896" lon="-1.61564">
        <ele>-49.21</ele>
        <time>2015-03-07T13:11:20Z</time>
      </trkpt>
      <trkpt lat="47.07916" lon="-1.61557">
        <ele>-47.88</ele>
        <time>2015-03-07T13:11:24Z</time>
      </trkpt>
      <trkpt lat="47.07938" lon="-1.61547">
        <ele>-46.82</ele>
        <time>2015-03-07T13:11:28Z</time>
      </trkpt>
      <trkpt lat="47.0796" lon="-1.61539">
        <ele>-45.95</ele>
        <time>2015-03-07T13:11:32Z</time>
      </trkpt>
      <trkpt lat="47.07982" lon="-1.61528">
        <ele>-45.24</ele>
        <time>2015-03-07T13:11:36Z</time>
      </trkpt>
      <trkpt lat="47.08003" lon="-1.61516">
        <ele>-45.99</ele>
        <time>2015-03-07T13:11:40Z</time>
      </trkpt>
      <trkpt lat="47.08026" lon="-1.61504">
        <ele>-46.06</ele>
        <time>2015-03-07T13:11:44Z</time>
      </trkpt>
      <trkpt lat="47.08048" lon="-1.61494">
        <ele>-46.21</ele>
        <time>2015-03-07T13:11:48Z</time>
      </trkpt>
      <trkpt lat="47.08069" lon="-1.61485">
        <ele>-45.55</ele>
        <time>2015-03-07T13:11:52Z</time>
      </trkpt>
      <trkpt lat="47.08087" lon="-1.61478">
        <ele>-44.61</ele>
        <time>2015-03-07T13:11:56Z</time>
      </trkpt>
      <trkpt lat="47.08108" lon="-1.61471">
        <ele>-43.14</ele>
        <time>2015-03-07T13:12:00Z</time>
      </trkpt>
      <trkpt lat="47.08126" lon="-1.61462">
        <ele>-43.86</ele>
        <time>2015-03-07T13:12:03Z</time>
      </trkpt>
      <trkpt lat="47.08143" lon="-1.61452">
        <ele>-44.26</ele>
        <time>2015-03-07T13:12:06Z</time>
      </trkpt>
      <trkpt lat="47.08164" lon="-1.61441">
        <ele>-43.86</ele>
        <time>2015-03-07T13:12:10Z</time>
      </trkpt>
      <trkpt lat="47.08185" lon="-1.61432">
        <ele>-43.12</ele>
        <time>2015-03-07T13:12:14Z</time>
      </trkpt>
      <trkpt lat="47.08205" lon="-1.61424">
        <ele>-43.33</ele>
        <time>2015-03-07T13:12:18Z</time>
      </trkpt>
      <trkpt lat="47.08223" lon="-1.61418">
        <ele>-44.22</ele>
        <time>2015-03-07T13:12:22Z</time>
      </trkpt>
      <trkpt lat="47.08242" lon="-1.6141">
        <ele>-44.43</ele>
        <time>2015-03-07T13:12:26Z</time>
      </trkpt>
      <trkpt lat="47.08263" lon="-1.61402">
        <ele>-44.15</ele>
        <time>2015-03-07T13:12:30Z</time>
      </trkpt>
      <trkpt lat="47.08282" lon="-1.61395">
        <ele>-42.78</ele>
        <time>2015-03-07T13:12:34Z</time>
      </trkpt>
      <trkpt lat="47.08302" lon="-1.61387">
        <ele>-41.72</ele>
        <time>2015-03-07T13:12:38Z</time>
      </trkpt>
      <trkpt lat="47.08324" lon="-1.61377">
        <ele>-41.76</ele>
        <time>2015-03-07T13:12:42Z</time>
      </trkpt>
      <trkpt lat="47.08345" lon="-1.61366">
        <ele>-41.3</ele>
        <time>2015-03-07T13:12:46Z</time>
      </trkpt>
      <trkpt lat="47.08366" lon="-1.61358">
        <ele>-40.15</ele>
        <time>2015-03-07T13:12:50Z</time>
      </trkpt>
      <trkpt lat="47.08386" lon="-1.61348">
        <ele>-40.39</ele>
        <time>2015-03-07T13:12:54Z</time>
      </trkpt>
      <trkpt lat="47.08408" lon="-1.61338">
        <ele>-40.79</ele>
        <time>2015-03-07T13:12:58Z</time>
      </trkpt>
      <trkpt lat="47.0843" lon="-1.61328">
        <ele>-40.52</ele>
        <time>2015-03-07T13:13:02Z</time>
      </trkpt>
      <trkpt lat="47.08452" lon="-1.61319">
        <ele>-40.23</ele>
        <time>2015-03-07T13:13:06Z</time>
      </trkpt>
      <trkpt lat="47.08474" lon="-1.61308">
        <ele>-40.74</ele>
        <time>2015-03-07T13:13:10Z</time>
      </trkpt>
      <trkpt lat="47.08495" lon="-1.61295">
        <ele>-41.23</ele>
        <time>2015-03-07T13:13:14Z</time>
      </trkpt>
      <trkpt lat="47.08515" lon="-1.6129">
        <ele>-41.03</ele>
        <time>2015-03-07T13:13:18Z</time>
      </trkpt>
      <trkpt lat="47.08533" lon="-1.61285">
        <ele>-40.81</ele>
        <time>2015-03-07T13:13:22Z</time>
      </trkpt>
      <trkpt lat="47.08551" lon="-1.61278">
        <ele>-40.49</ele>
        <time>2015-03-07T13:13:26Z</time>
      </trkpt>
      <trkpt lat="47.08572" lon="-1.61269">
        <ele>-40.27</ele>
        <time>2015-03-07T13:13:30Z</time>
      </trkpt>
      <trkpt lat="47.08594" lon="-1.61261">
        <ele>-40.88</ele>
        <time>2015-03-07T13:13:34Z</time>
      </trkpt>
      <trkpt lat="47.08613" lon="-1.61254">
        <ele>-40.41</ele>
        <time>2015-03-07T13:13:38Z</time>
      </trkpt>
      <trkpt lat="47.08633" lon="-1.61243">
        <ele>-40.38</ele>
        <time>2015-03-07T13:13:42Z</time>
      </trkpt>
      <trkpt lat="47.08654" lon="-1.61232">
        <ele>-41.08</ele>
        <time>2015-03-07T13:13:46Z</time>
      </trkpt>
      <trkpt lat="47.08674" lon="-1.61222">
        <ele>-40.59</ele>
        <time>2015-03-07T13:13:50Z</time>
      </trkpt>
      <trkpt lat="47.08695" lon="-1.61215">
        <ele>-40.3</ele>
        <time>2015-03-07T13:13:55Z</time>
      </trkpt>
      <trkpt lat="47.08717" lon="-1.61206">
        <ele>-40.17</ele>
        <time>2015-03-07T13:13:59Z</time>
      </trkpt>
      <trkpt lat="47.08736" lon="-1.61199">
        <ele>-40.94</ele>
        <time>2015-03-07T13:14:03Z</time>
      </trkpt>
      <trkpt lat="47.08756" lon="-1.61191">
        <ele>-41.85</ele>
        <time>2015-03-07T13:14:07Z</time>
      </trkpt>
      <trkpt lat="47.08776" lon="-1.61181">
        <ele>-41.49</ele>
        <time>2015-03-07T13:14:11Z</time>
      </trkpt>
      <trkpt lat="47.08795" lon="-1.61172">
        <ele>-40.31</ele>
        <time>2015-03-07T13:14:15Z</time>
      </trkpt>
      <trkpt lat="47.08816" lon="-1.61162">
        <ele>-40.45</ele>
        <time>2015-03-07T13:14:19Z</time>
      </trkpt>
      <trkpt lat="47.08837" lon="-1.61152">
        <ele>-40.77</ele>
        <time>2015-03-07T13:14:23Z</time>
      </trkpt>
      <trkpt lat="47.08857" lon="-1.61142">
        <ele>-41.35</ele>
        <time>2015-03-07T13:14:27Z</time>
      </trkpt>
      <trkpt lat="47.08875" lon="-1.61135">
        <ele>-41.59</ele>
        <time>2015-03-07T13:14:31Z</time>
      </trkpt>
      <trkpt lat="47.08896" lon="-1.61125">
        <ele>-40.63</ele>
        <time>2015-03-07T13:14:35Z</time>
      </trkpt>
      <trkpt lat="47.08915" lon="-1.61115">
        <ele>-39.18</ele>
        <time>2015-03-07T13:14:39Z</time>
      </trkpt>
      <trkpt lat="47.08937" lon="-1.61105">
        <ele>-36.36</ele>
        <time>2015-03-07T13:14:44Z</time>
      </trkpt>
      <trkpt lat="47.08955" lon="-1.61096">
        <ele>-35.36</ele>
        <time>2015-03-07T13:14:48Z</time>
      </trkpt>
      <trkpt lat="47.08976" lon="-1.61092">
        <ele>-34.33</ele>
        <time>2015-03-07T13:14:52Z</time>
      </trkpt>
      <trkpt lat="47.08994" lon="-1.61092">
        <ele>-34.32</ele>
        <time>2015-03-07T13:14:55Z</time>
      </trkpt>
      <trkpt lat="47.09016" lon="-1.61096">
        <ele>-33.84</ele>
        <time>2015-03-07T13:14:59Z</time>
      </trkpt>
      <trkpt lat="47.09037" lon="-1.61102">
        <ele>-34.4</ele>
        <time>2015-03-07T13:15:03Z</time>
      </trkpt>
      <trkpt lat="47.09057" lon="-1.61107">
        <ele>-34.72</ele>
        <time>2015-03-07T13:15:07Z</time>
      </trkpt>
      <trkpt lat="47.09076" lon="-1.61114">
        <ele>-34.94</ele>
        <time>2015-03-07T13:15:11Z</time>
      </trkpt>
      <trkpt lat="47.09098" lon="-1.6112">
        <ele>-35.87</ele>
        <time>2015-03-07T13:15:15Z</time>
      </trkpt>
      <trkpt lat="47.0912" lon="-1.61127">
        <ele>-36.79</ele>
        <time>2015-03-07T13:15:19Z</time>
      </trkpt>
      <trkpt lat="47.09141" lon="-1.61134">
        <ele>-36.72</ele>
        <time>2015-03-07T13:15:23Z</time>
      </trkpt>
      <trkpt lat="47.09161" lon="-1.6114">
        <ele>-36.8</ele>
        <time>2015-03-07T13:15:27Z</time>
      </trkpt>
      <trkpt lat="47.09183" lon="-1.61145">
        <ele>-36.06</ele>
        <time>2015-03-07T13:15:31Z</time>
      </trkpt>
      <trkpt lat="47.09204" lon="-1.61146">
        <ele>-33.84</ele>
        <time>2015-03-07T13:15:36Z</time>
      </trkpt>
      <trkpt lat="47.09209" lon="-1.6112">
        <ele>-32.47</ele>
        <time>2015-03-07T13:15:39Z</time>
      </trkpt>
      <trkpt lat="47.09208" lon="-1.61094">
        <ele>-31.6</ele>
        <time>2015-03-07T13:15:42Z</time>
      </trkpt>
      <trkpt lat="47.09208" lon="-1.61066">
        <ele>-31.33</ele>
        <time>2015-03-07T13:15:45Z</time>
      </trkpt>
      <trkpt lat="47.09207" lon="-1.61039">
        <ele>-31.39</ele>
        <time>2015-03-07T13:15:48Z</time>
      </trkpt>
      <trkpt lat="47.09204" lon="-1.61012">
        <ele>-31.68</ele>
        <time>2015-03-07T13:15:51Z</time>
      </trkpt>
      <trkpt lat="47.09205" lon="-1.60983">
        <ele>-33.56</ele>
        <time>2015-03-07T13:15:54Z</time>
      </trkpt>
      <trkpt lat="47.09202" lon="-1.60948">
        <ele>-34.57</ele>
        <time>2015-03-07T13:15:58Z</time>
      </trkpt>
      <trkpt lat="47.09196" lon="-1.60915">
        <ele>-35.46</ele>
        <time>2015-03-07T13:16:02Z</time>
      </trkpt>
      <trkpt lat="47.0919" lon="-1.60882">
        <ele>-36.14</ele>
        <time>2015-03-07T13:16:06Z</time>
      </trkpt>
      <trkpt lat="47.09185" lon="-1.60856">
        <ele>-36.99</ele>
        <time>2015-03-07T13:16:09Z</time>
      </trkpt>
      <trkpt lat="47.09177" lon="-1.60823">
        <ele>-37.79</ele>
        <time>2015-03-07T13:16:13Z</time>
      </trkpt>
      <trkpt lat="47.09171" lon="-1.60797">
        <ele>-37.94</ele>
        <time>2015-03-07T13:16:16Z</time>
      </trkpt>
      <trkpt lat="47.09166" lon="-1.60771">
        <ele>-38.06</ele>
        <time>2015-03-07T13:16:19Z</time>
      </trkpt>
      <trkpt lat="47.0916" lon="-1.60745">
        <ele>-38.47</ele>
        <time>2015-03-07T13:16:22Z</time>
      </trkpt>
      <trkpt lat="47.09153" lon="-1.60719">
        <ele>-39.29</ele>
        <time>2015-03-07T13:16:25Z</time>
      </trkpt>
      <trkpt lat="47.09146" lon="-1.60694">
        <ele>-39.74</ele>
        <time>2015-03-07T13:16:28Z</time>
      </trkpt>
      <trkpt lat="47.0914" lon="-1.60668">
        <ele>-40.31</ele>
        <time>2015-03-07T13:16:31Z</time>
      </trkpt>
      <trkpt lat="47.09133" lon="-1.60642">
        <ele>-40.89</ele>
        <time>2015-03-07T13:16:34Z</time>
      </trkpt>
      <trkpt lat="47.09125" lon="-1.60617">
        <ele>-41.45</ele>
        <time>2015-03-07T13:16:37Z</time>
      </trkpt>
      <trkpt lat="47.09116" lon="-1.60593">
        <ele>-41.83</ele>
        <time>2015-03-07T13:16:40Z</time>
      </trkpt>
      <trkpt lat="47.09106" lon="-1.60571">
        <ele>-42.11</ele>
        <time>2015-03-07T13:16:43Z</time>
      </trkpt>
      <trkpt lat="47.09094" lon="-1.60541">
        <ele>-41.56</ele>
        <time>2015-03-07T13:16:47Z</time>
      </trkpt>
      <trkpt lat="47.09082" lon="-1.60512">
        <ele>-40.72</ele>
        <time>2015-03-07T13:16:51Z</time>
      </trkpt>
      <trkpt lat="47.09071" lon="-1.60482">
        <ele>-41.76</ele>
        <time>2015-03-07T13:16:55Z</time>
      </trkpt>
      <trkpt lat="47.09059" lon="-1.60462">
        <ele>-43.24</ele>
        <time>2015-03-07T13:16:58Z</time>
      </trkpt>
      <trkpt lat="47.09046" lon="-1.60435">
        <ele>-43.98</ele>
        <time>2015-03-07T13:17:02Z</time>
      </trkpt>
      <trkpt lat="47.09032" lon="-1.60408">
        <ele>-43.8</ele>
        <time>2015-03-07T13:17:06Z</time>
      </trkpt>
      <trkpt lat="47.09019" lon="-1.6038">
        <ele>-43.06</ele>
        <time>2015-03-07T13:17:10Z</time>
      </trkpt>
      <trkpt lat="47.09006" lon="-1.60353">
        <ele>-41.94</ele>
        <time>2015-03-07T13:17:14Z</time>
      </trkpt>
      <trkpt lat="47.08994" lon="-1.60325">
        <ele>-41.58</ele>
        <time>2015-03-07T13:17:18Z</time>
      </trkpt>
      <trkpt lat="47.08983" lon="-1.60297">
        <ele>-40.73</ele>
        <time>2015-03-07T13:17:22Z</time>
      </trkpt>
      <trkpt lat="47.08971" lon="-1.60276">
        <ele>-41.21</ele>
        <time>2015-03-07T13:17:25Z</time>
      </trkpt>
      <trkpt lat="47.0896" lon="-1.60254">
        <ele>-41.93</ele>
        <time>2015-03-07T13:17:28Z</time>
      </trkpt>
      <trkpt lat="47.08945" lon="-1.60226">
        <ele>-42.25</ele>
        <time>2015-03-07T13:17:32Z</time>
      </trkpt>
      <trkpt lat="47.0893" lon="-1.60199">
        <ele>-42.3</ele>
        <time>2015-03-07T13:17:36Z</time>
      </trkpt>
      <trkpt lat="47.08917" lon="-1.60178">
        <ele>-42.67</ele>
        <time>2015-03-07T13:17:39Z</time>
      </trkpt>
      <trkpt lat="47.08904" lon="-1.60151">
        <ele>-43.48</ele>
        <time>2015-03-07T13:17:43Z</time>
      </trkpt>
      <trkpt lat="47.0889" lon="-1.60124">
        <ele>-43.37</ele>
        <time>2015-03-07T13:17:47Z</time>
      </trkpt>
      <trkpt lat="47.08877" lon="-1.60096">
        <ele>-42.57</ele>
        <time>2015-03-07T13:17:51Z</time>
      </trkpt>
      <trkpt lat="47.08866" lon="-1.60074">
        <ele>-41.96</ele>
        <time>2015-03-07T13:17:54Z</time>
      </trkpt>
      <trkpt lat="47.08854" lon="-1.60046">
        <ele>-41.94</ele>
        <time>2015-03-07T13:17:58Z</time>
      </trkpt>
      <trkpt lat="47.08842" lon="-1.60025">
        <ele>-42.17</ele>
        <time>2015-03-07T13:18:01Z</time>
      </trkpt>
      <trkpt lat="47.08826" lon="-1.59999">
        <ele>-43.09</ele>
        <time>2015-03-07T13:18:05Z</time>
      </trkpt>
      <trkpt lat="47.08814" lon="-1.59977">
        <ele>-43.23</ele>
        <time>2015-03-07T13:18:08Z</time>
      </trkpt>
      <trkpt lat="47.08802" lon="-1.59956">
        <ele>-43.13</ele>
        <time>2015-03-07T13:18:11Z</time>
      </trkpt>
      <trkpt lat="47.08791" lon="-1.59934">
        <ele>-43.28</ele>
        <time>2015-03-07T13:18:14Z</time>
      </trkpt>
      <trkpt lat="47.0878" lon="-1.59914">
        <ele>-43.3</ele>
        <time>2015-03-07T13:18:17Z</time>
      </trkpt>
      <trkpt lat="47.08766" lon="-1.59887">
        <ele>-42.92</ele>
        <time>2015-03-07T13:18:21Z</time>
      </trkpt>
      <trkpt lat="47.08751" lon="-1.59859">
        <ele>-42.58</ele>
        <time>2015-03-07T13:18:25Z</time>
      </trkpt>
      <trkpt lat="47.08739" lon="-1.5983">
        <ele>-43.14</ele>
        <time>2015-03-07T13:18:29Z</time>
      </trkpt>
      <trkpt lat="47.08725" lon="-1.59802">
        <ele>-43.3</ele>
        <time>2015-03-07T13:18:33Z</time>
      </trkpt>
      <trkpt lat="47.08715" lon="-1.5978">
        <ele>-43.36</ele>
        <time>2015-03-07T13:18:36Z</time>
      </trkpt>
      <trkpt lat="47.08704" lon="-1.59758">
        <ele>-43.36</ele>
        <time>2015-03-07T13:18:39Z</time>
      </trkpt>
      <trkpt lat="47.08694" lon="-1.59735">
        <ele>-43.21</ele>
        <time>2015-03-07T13:18:42Z</time>
      </trkpt>
      <trkpt lat="47.08684" lon="-1.59711">
        <ele>-43.15</ele>
        <time>2015-03-07T13:18:45Z</time>
      </trkpt>
      <trkpt lat="47.08674" lon="-1.59687">
        <ele>-43.37</ele>
        <time>2015-03-07T13:18:48Z</time>
      </trkpt>
      <trkpt lat="47.08665" lon="-1.59663">
        <ele>-43.91</ele>
        <time>2015-03-07T13:18:51Z</time>
      </trkpt>
      <trkpt lat="47.08655" lon="-1.5964">
        <ele>-44.45</ele>
        <time>2015-03-07T13:18:54Z</time>
      </trkpt>
      <trkpt lat="47.08644" lon="-1.59618">
        <ele>-44.87</ele>
        <time>2015-03-07T13:18:57Z</time>
      </trkpt>
      <trkpt lat="47.08633" lon="-1.59589">
        <ele>-45.91</ele>
        <time>2015-03-07T13:19:01Z</time>
      </trkpt>
      <trkpt lat="47.08621" lon="-1.59559">
        <ele>-47.01</ele>
        <time>2015-03-07T13:19:05Z</time>
      </trkpt>
      <trkpt lat="47.08609" lon="-1.5953">
        <ele>-47.54</ele>
        <time>2015-03-07T13:19:09Z</time>
      </trkpt>
      <trkpt lat="47.08597" lon="-1.59502">
        <ele>-47.98</ele>
        <time>2015-03-07T13:19:13Z</time>
      </trkpt>
      <trkpt lat="47.08585" lon="-1.59472">
        <ele>-48.31</ele>
        <time>2015-03-07T13:19:17Z</time>
      </trkpt>
      <trkpt lat="47.08576" lon="-1.59449">
        <ele>-48.84</ele>
        <time>2015-03-07T13:19:20Z</time>
      </trkpt>
      <trkpt lat="47.08567" lon="-1.59426">
        <ele>-49.01</ele>
        <time>2015-03-07T13:19:23Z</time>
      </trkpt>
      <trkpt lat="47.08554" lon="-1.59396">
        <ele>-48.98</ele>
        <time>2015-03-07T13:19:27Z</time>
      </trkpt>
      <trkpt lat="47.08543" lon="-1.59366">
        <ele>-48.37</ele>
        <time>2015-03-07T13:19:31Z</time>
      </trkpt>
      <trkpt lat="47.08532" lon="-1.59336">
        <ele>-47.85</ele>
        <time>2015-03-07T13:19:35Z</time>
      </trkpt>
      <trkpt lat="47.08519" lon="-1.59307">
        <ele>-47.62</ele>
        <time>2015-03-07T13:19:39Z</time>
      </trkpt>
      <trkpt lat="47.08509" lon="-1.59277">
        <ele>-48.47</ele>
        <time>2015-03-07T13:19:43Z</time>
      </trkpt>
      <trkpt lat="47.08497" lon="-1.5925">
        <ele>-48.37</ele>
        <time>2015-03-07T13:19:47Z</time>
      </trkpt>
      <trkpt lat="47.08487" lon="-1.59222">
        <ele>-48.92</ele>
        <time>2015-03-07T13:19:51Z</time>
      </trkpt>
      <trkpt lat="47.08474" lon="-1.59196">
        <ele>-50.28</ele>
        <time>2015-03-07T13:19:55Z</time>
      </trkpt>
      <trkpt lat="47.08463" lon="-1.59169">
        <ele>-50.96</ele>
        <time>2015-03-07T13:19:59Z</time>
      </trkpt>
      <trkpt lat="47.08451" lon="-1.59142">
        <ele>-51.28</ele>
        <time>2015-03-07T13:20:03Z</time>
      </trkpt>
      <trkpt lat="47.08439" lon="-1.59115">
        <ele>-50.93</ele>
        <time>2015-03-07T13:20:07Z</time>
      </trkpt>
      <trkpt lat="47.08429" lon="-1.59088">
        <ele>-51.08</ele>
        <time>2015-03-07T13:20:11Z</time>
      </trkpt>
      <trkpt lat="47.08417" lon="-1.5906">
        <ele>-51.72</ele>
        <time>2015-03-07T13:20:15Z</time>
      </trkpt>
      <trkpt lat="47.08406" lon="-1.59031">
        <ele>-52.7</ele>
        <time>2015-03-07T13:20:19Z</time>
      </trkpt>
      <trkpt lat="47.08395" lon="-1.59002">
        <ele>-52.8</ele>
        <time>2015-03-07T13:20:23Z</time>
      </trkpt>
      <trkpt lat="47.08382" lon="-1.58972">
        <ele>-52.51</ele>
        <time>2015-03-07T13:20:27Z</time>
      </trkpt>
      <trkpt lat="47.08372" lon="-1.58947">
        <ele>-52.63</ele>
        <time>2015-03-07T13:20:30Z</time>
      </trkpt>
      <trkpt lat="47.08363" lon="-1.58922">
        <ele>-52.63</ele>
        <time>2015-03-07T13:20:33Z</time>
      </trkpt>
      <trkpt lat="47.08352" lon="-1.58897">
        <ele>-52.58</ele>
        <time>2015-03-07T13:20:36Z</time>
      </trkpt>
      <trkpt lat="47.08341" lon="-1.58873">
        <ele>-52.44</ele>
        <time>2015-03-07T13:20:39Z</time>
      </trkpt>
      <trkpt lat="47.0833" lon="-1.58842">
        <ele>-51.98</ele>
        <time>2015-03-07T13:20:43Z</time>
      </trkpt>
      <trkpt lat="47.08321" lon="-1.58813">
        <ele>-50.58</ele>
        <time>2015-03-07T13:20:47Z</time>
      </trkpt>
      <trkpt lat="47.08311" lon="-1.58785">
        <ele>-49.47</ele>
        <time>2015-03-07T13:20:51Z</time>
      </trkpt>
      <trkpt lat="47.083" lon="-1.58757">
        <ele>-48.61</ele>
        <time>2015-03-07T13:20:55Z</time>
      </trkpt>
      <trkpt lat="47.08288" lon="-1.58728">
        <ele>-47.93</ele>
        <time>2015-03-07T13:20:59Z</time>
      </trkpt>
      <trkpt lat="47.0828" lon="-1.58697">
        <ele>-47.07</ele>
        <time>2015-03-07T13:21:03Z</time>
      </trkpt>
      <trkpt lat="47.08269" lon="-1.5867">
        <ele>-46.25</ele>
        <time>2015-03-07T13:21:07Z</time>
      </trkpt>
      <trkpt lat="47.08257" lon="-1.58642">
        <ele>-45.36</ele>
        <time>2015-03-07T13:21:11Z</time>
      </trkpt>
      <trkpt lat="47.08247" lon="-1.58614">
        <ele>-43.89</ele>
        <time>2015-03-07T13:21:15Z</time>
      </trkpt>
      <trkpt lat="47.08235" lon="-1.58587">
        <ele>-43.37</ele>
        <time>2015-03-07T13:21:19Z</time>
      </trkpt>
      <trkpt lat="47.08223" lon="-1.58559">
        <ele>-43.63</ele>
        <time>2015-03-07T13:21:23Z</time>
      </trkpt>
      <trkpt lat="47.08209" lon="-1.58532">
        <ele>-44.55</ele>
        <time>2015-03-07T13:21:27Z</time>
      </trkpt>
      <trkpt lat="47.08192" lon="-1.58505">
        <ele>-45.72</ele>
        <time>2015-03-07T13:21:31Z</time>
      </trkpt>
      <trkpt lat="47.08181" lon="-1.58477">
        <ele>-45.94</ele>
        <time>2015-03-07T13:21:35Z</time>
      </trkpt>
      <trkpt lat="47.08168" lon="-1.58446">
        <ele>-45.62</ele>
        <time>2015-03-07T13:21:39Z</time>
      </trkpt>
      <trkpt lat="47.08158" lon="-1.58416">
        <ele>-46.13</ele>
        <time>2015-03-07T13:21:43Z</time>
      </trkpt>
      <trkpt lat="47.08149" lon="-1.5839">
        <ele>-45.02</ele>
        <time>2015-03-07T13:21:47Z</time>
      </trkpt>
      <trkpt lat="47.08145" lon="-1.58362">
        <ele>-44.16</ele>
        <time>2015-03-07T13:21:51Z</time>
      </trkpt>
      <trkpt lat="47.08141" lon="-1.58332">
        <ele>-43.51</ele>
        <time>2015-03-07T13:21:55Z</time>
      </trkpt>
      <trkpt lat="47.08137" lon="-1.58302">
        <ele>-43.11</ele>
        <time>2015-03-07T13:21:59Z</time>
      </trkpt>
      <trkpt lat="47.08132" lon="-1.58271">
        <ele>-42.72</ele>
        <time>2015-03-07T13:22:03Z</time>
      </trkpt>
      <trkpt lat="47.08129" lon="-1.5824">
        <ele>-42.13</ele>
        <time>2015-03-07T13:22:07Z</time>
      </trkpt>
      <trkpt lat="47.0812" lon="-1.58211">
        <ele>-41.48</ele>
        <time>2015-03-07T13:22:11Z</time>
      </trkpt>
      <trkpt lat="47.08109" lon="-1.58185">
        <ele>-42.59</ele>
        <time>2015-03-07T13:22:15Z</time>
      </trkpt>
      <trkpt lat="47.08097" lon="-1.58161">
        <ele>-43.03</ele>
        <time>2015-03-07T13:22:19Z</time>
      </trkpt>
      <trkpt lat="47.08082" lon="-1.58138">
        <ele>-42.56</ele>
        <time>2015-03-07T13:22:23Z</time>
      </trkpt>
      <trkpt lat="47.0807" lon="-1.58113">
        <ele>-42.45</ele>
        <time>2015-03-07T13:22:27Z</time>
      </trkpt>
      <trkpt lat="47.08055" lon="-1.58087">
        <ele>-41.29</ele>
        <time>2015-03-07T13:22:31Z</time>
      </trkpt>
      <trkpt lat="47.08042" lon="-1.58062">
        <ele>-40.63</ele>
        <time>2015-03-07T13:22:35Z</time>
      </trkpt>
      <trkpt lat="47.08028" lon="-1.58035">
        <ele>-40.35</ele>
        <time>2015-03-07T13:22:39Z</time>
      </trkpt>
      <trkpt lat="47.08015" lon="-1.58008">
        <ele>-39.24</ele>
        <time>2015-03-07T13:22:43Z</time>
      </trkpt>
      <trkpt lat="47.08003" lon="-1.57979">
        <ele>-38.24</ele>
        <time>2015-03-07T13:22:47Z</time>
      </trkpt>
      <trkpt lat="47.07992" lon="-1.5795">
        <ele>-37.35</ele>
        <time>2015-03-07T13:22:51Z</time>
      </trkpt>
      <trkpt lat="47.07981" lon="-1.57921">
        <ele>-37.08</ele>
        <time>2015-03-07T13:22:55Z</time>
      </trkpt>
      <trkpt lat="47.07967" lon="-1.57893">
        <ele>-37.36</ele>
        <time>2015-03-07T13:22:59Z</time>
      </trkpt>
      <trkpt lat="47.07955" lon="-1.57864">
        <ele>-36.64</ele>
        <time>2015-03-07T13:23:03Z</time>
      </trkpt>
      <trkpt lat="47.07946" lon="-1.57833">
        <ele>-36.58</ele>
        <time>2015-03-07T13:23:07Z</time>
      </trkpt>
      <trkpt lat="47.07935" lon="-1.57802">
        <ele>-36.74</ele>
        <time>2015-03-07T13:23:11Z</time>
      </trkpt>
      <trkpt lat="47.07922" lon="-1.57772">
        <ele>-36.92</ele>
        <time>2015-03-07T13:23:15Z</time>
      </trkpt>
      <trkpt lat="47.07909" lon="-1.57744">
        <ele>-37.28</ele>
        <time>2015-03-07T13:23:19Z</time>
      </trkpt>
      <trkpt lat="47.07896" lon="-1.57714">
        <ele>-37.22</ele>
        <time>2015-03-07T13:23:23Z</time>
      </trkpt>
      <trkpt lat="47.07884" lon="-1.57685">
        <ele>-37.7</ele>
        <time>2015-03-07T13:23:27Z</time>
      </trkpt>
      <trkpt lat="47.07874" lon="-1.57662">
        <ele>-37.83</ele>
        <time>2015-03-07T13:23:30Z</time>
      </trkpt>
      <trkpt lat="47.07861" lon="-1.57633">
        <ele>-37.72</ele>
        <time>2015-03-07T13:23:34Z</time>
      </trkpt>
      <trkpt lat="47.07849" lon="-1.57609">
        <ele>-37.55</ele>
        <time>2015-03-07T13:23:37Z</time>
      </trkpt>
      <trkpt lat="47.07841" lon="-1.57579">
        <ele>-37.47</ele>
        <time>2015-03-07T13:23:41Z</time>
      </trkpt>
      <trkpt lat="47.07833" lon="-1.57548">
        <ele>-37.31</ele>
        <time>2015-03-07T13:23:45Z</time>
      </trkpt>
      <trkpt lat="47.07825" lon="-1.57517">
        <ele>-36.83</ele>
        <time>2015-03-07T13:23:49Z</time>
      </trkpt>
      <trkpt lat="47.07813" lon="-1.57488">
        <ele>-36.1</ele>
        <time>2015-03-07T13:23:53Z</time>
      </trkpt>
      <trkpt lat="47.07804" lon="-1.57457">
        <ele>-35.44</ele>
        <time>2015-03-07T13:23:57Z</time>
      </trkpt>
      <trkpt lat="47.07794" lon="-1.57427">
        <ele>-34.85</ele>
        <time>2015-03-07T13:24:01Z</time>
      </trkpt>
      <trkpt lat="47.07783" lon="-1.57398">
        <ele>-34.58</ele>
        <time>2015-03-07T13:24:05Z</time>
      </trkpt>
      <trkpt lat="47.07774" lon="-1.57373">
        <ele>-33.79</ele>
        <time>2015-03-07T13:24:09Z</time>
      </trkpt>
      <trkpt lat="47.07782" lon="-1.57346">
        <ele>-33.66</ele>
        <time>2015-03-07T13:24:13Z</time>
      </trkpt>
      <trkpt lat="47.07796" lon="-1.57328">
        <ele>-33.67</ele>
        <time>2015-03-07T13:24:16Z</time>
      </trkpt>
      <trkpt lat="47.07814" lon="-1.5731">
        <ele>-33.32</ele>
        <time>2015-03-07T13:24:20Z</time>
      </trkpt>
      <trkpt lat="47.0783" lon="-1.57294">
        <ele>-32.49</ele>
        <time>2015-03-07T13:24:24Z</time>
      </trkpt>
      <trkpt lat="47.07845" lon="-1.57271">
        <ele>-31.72</ele>
        <time>2015-03-07T13:24:28Z</time>
      </trkpt>
      <trkpt lat="47.07857" lon="-1.57244">
        <ele>-30.71</ele>
        <time>2015-03-07T13:24:32Z</time>
      </trkpt>
      <trkpt lat="47.07866" lon="-1.57217">
        <ele>-29.66</ele>
        <time>2015-03-07T13:24:36Z</time>
      </trkpt>
      <trkpt lat="47.0787" lon="-1.57191">
        <ele>-28.5</ele>
        <time>2015-03-07T13:24:40Z</time>
      </trkpt>
      <trkpt lat="47.07877" lon="-1.57163">
        <ele>-27.36</ele>
        <time>2015-03-07T13:24:44Z</time>
      </trkpt>
      <trkpt lat="47.07884" lon="-1.57137">
        <ele>-26.51</ele>
        <time>2015-03-07T13:24:48Z</time>
      </trkpt>
      <trkpt lat="47.07891" lon="-1.57109">
        <ele>-25.88</ele>
        <time>2015-03-07T13:24:52Z</time>
      </trkpt>
      <trkpt lat="47.07899" lon="-1.5708">
        <ele>-25.17</ele>
        <time>2015-03-07T13:24:56Z</time>
      </trkpt>
      <trkpt lat="47.07902" lon="-1.57048">
        <ele>-23.94</ele>
        <time>2015-03-07T13:25:01Z</time>
      </trkpt>
      <trkpt lat="47.0791" lon="-1.57017">
        <ele>-23.18</ele>
        <time>2015-03-07T13:25:05Z</time>
      </trkpt>
      <trkpt lat="47.07918" lon="-1.5699">
        <ele>-22.9</ele>
        <time>2015-03-07T13:25:09Z</time>
      </trkpt>
      <trkpt lat="47.07922" lon="-1.56959">
        <ele>-21.94</ele>
        <time>2015-03-07T13:25:14Z</time>
      </trkpt>
      <trkpt lat="47.07926" lon="-1.56931">
        <ele>-21.26</ele>
        <time>2015-03-07T13:25:18Z</time>
      </trkpt>
      <trkpt lat="47.07932" lon="-1.569">
        <ele>-19.24</ele>
        <time>2015-03-07T13:25:23Z</time>
      </trkpt>
      <trkpt lat="47.07935" lon="-1.56873">
        <ele>-17.79</ele>
        <time>2015-03-07T13:25:27Z</time>
      </trkpt>
      <trkpt lat="47.07934" lon="-1.56846">
        <ele>-16.57</ele>
        <time>2015-03-07T13:25:31Z</time>
      </trkpt>
      <trkpt lat="47.07934" lon="-1.56814">
        <ele>-17.46</ele>
        <time>2015-03-07T13:25:35Z</time>
      </trkpt>
      <trkpt lat="47.07935" lon="-1.56779">
        <ele>-21.24</ele>
        <time>2015-03-07T13:25:39Z</time>
      </trkpt>
      <trkpt lat="47.07926" lon="-1.56752">
        <ele>-23.98</ele>
        <time>2015-03-07T13:25:43Z</time>
      </trkpt>
      <trkpt lat="47.07923" lon="-1.56721">
        <ele>-27.32</ele>
        <time>2015-03-07T13:25:47Z</time>
      </trkpt>
      <trkpt lat="47.07928" lon="-1.56692">
        <ele>-29.45</ele>
        <time>2015-03-07T13:25:52Z</time>
      </trkpt>
      <trkpt lat="47.07933" lon="-1.56664">
        <ele>-30.42</ele>
        <time>2015-03-07T13:25:56Z</time>
      </trkpt>
      <trkpt lat="47.07935" lon="-1.56635">
        <ele>-30.69</ele>
        <time>2015-03-07T13:26:00Z</time>
      </trkpt>
      <trkpt lat="47.07935" lon="-1.56607">
        <ele>-31</ele>
        <time>2015-03-07T13:26:04Z</time>
      </trkpt>
      <trkpt lat="47.07937" lon="-1.56577">
        <ele>-31.32</ele>
        <time>2015-03-07T13:26:08Z</time>
      </trkpt>
      <trkpt lat="47.07938" lon="-1.56549">
        <ele>-32.01</ele>
        <time>2015-03-07T13:26:12Z</time>
      </trkpt>
      <trkpt lat="47.0794" lon="-1.56519">
        <ele>-32.57</ele>
        <time>2015-03-07T13:26:16Z</time>
      </trkpt>
      <trkpt lat="47.07941" lon="-1.56488">
        <ele>-33.2</ele>
        <time>2015-03-07T13:26:20Z</time>
      </trkpt>
      <trkpt lat="47.07938" lon="-1.56454">
        <ele>-33.16</ele>
        <time>2015-03-07T13:26:24Z</time>
      </trkpt>
      <trkpt lat="47.07929" lon="-1.5643">
        <ele>-33.05</ele>
        <time>2015-03-07T13:26:27Z</time>
      </trkpt>
      <trkpt lat="47.07927" lon="-1.56402">
        <ele>-33.51</ele>
        <time>2015-03-07T13:26:30Z</time>
      </trkpt>
      <trkpt lat="47.07932" lon="-1.56376">
        <ele>-33.9</ele>
        <time>2015-03-07T13:26:33Z</time>
      </trkpt>
      <trkpt lat="47.07936" lon="-1.56348">
        <ele>-33.69</ele>
        <time>2015-03-07T13:26:36Z</time>
      </trkpt>
      <trkpt lat="47.07953" lon="-1.56322">
        <ele>-33.24</ele>
        <time>2015-03-07T13:26:40Z</time>
      </trkpt>
      <trkpt lat="47.07972" lon="-1.56313">
        <ele>-32.82</ele>
        <time>2015-03-07T13:26:43Z</time>
      </trkpt>
      <trkpt lat="47.07991" lon="-1.56309">
        <ele>-32.98</ele>
        <time>2015-03-07T13:26:46Z</time>
      </trkpt>
      <trkpt lat="47.0801" lon="-1.56307">
        <ele>-33.35</ele>
        <time>2015-03-07T13:26:49Z</time>
      </trkpt>
      <trkpt lat="47.08028" lon="-1.56301">
        <ele>-33.26</ele>
        <time>2015-03-07T13:26:52Z</time>
      </trkpt>
      <trkpt lat="47.08051" lon="-1.56292">
        <ele>-33.16</ele>
        <time>2015-03-07T13:26:56Z</time>
      </trkpt>
      <trkpt lat="47.0807" lon="-1.56278">
        <ele>-32.4</ele>
        <time>2015-03-07T13:27:00Z</time>
      </trkpt>
      <trkpt lat="47.08088" lon="-1.56259">
        <ele>-31.58</ele>
        <time>2015-03-07T13:27:04Z</time>
      </trkpt>
      <trkpt lat="47.08103" lon="-1.56233">
        <ele>-30.54</ele>
        <time>2015-03-07T13:27:08Z</time>
      </trkpt>
      <trkpt lat="47.08115" lon="-1.56207">
        <ele>-29.94</ele>
        <time>2015-03-07T13:27:12Z</time>
      </trkpt>
      <trkpt lat="47.08125" lon="-1.56179">
        <ele>-29.3</ele>
        <time>2015-03-07T13:27:16Z</time>
      </trkpt>
      <trkpt lat="47.08134" lon="-1.56151">
        <ele>-28.65</ele>
        <time>2015-03-07T13:27:20Z</time>
      </trkpt>
      <trkpt lat="47.08144" lon="-1.56125">
        <ele>-28.33</ele>
        <time>2015-03-07T13:27:24Z</time>
      </trkpt>
      <trkpt lat="47.08151" lon="-1.56098">
        <ele>-26.97</ele>
        <time>2015-03-07T13:27:28Z</time>
      </trkpt>
      <trkpt lat="47.08159" lon="-1.5607">
        <ele>-25.64</ele>
        <time>2015-03-07T13:27:32Z</time>
      </trkpt>
      <trkpt lat="47.08167" lon="-1.56044">
        <ele>-24.67</ele>
        <time>2015-03-07T13:27:36Z</time>
      </trkpt>
      <trkpt lat="47.08176" lon="-1.56015">
        <ele>-23.53</ele>
        <time>2015-03-07T13:27:40Z</time>
      </trkpt>
      <trkpt lat="47.08186" lon="-1.55986">
        <ele>-22.35</ele>
        <time>2015-03-07T13:27:44Z</time>
      </trkpt>
      <trkpt lat="47.08196" lon="-1.55957">
        <ele>-21.39</ele>
        <time>2015-03-07T13:27:48Z</time>
      </trkpt>
      <trkpt lat="47.08207" lon="-1.55931">
        <ele>-20.87</ele>
        <time>2015-03-07T13:27:52Z</time>
      </trkpt>
      <trkpt lat="47.08217" lon="-1.55904">
        <ele>-21.91</ele>
        <time>2015-03-07T13:27:56Z</time>
      </trkpt>
      <trkpt lat="47.08225" lon="-1.55876">
        <ele>-24.36</ele>
        <time>2015-03-07T13:28:00Z</time>
      </trkpt>
      <trkpt lat="47.08234" lon="-1.55845">
        <ele>-27.24</ele>
        <time>2015-03-07T13:28:04Z</time>
      </trkpt>
      <trkpt lat="47.08244" lon="-1.55814">
        <ele>-28.18</ele>
        <time>2015-03-07T13:28:08Z</time>
      </trkpt>
      <trkpt lat="47.08254" lon="-1.55784">
        <ele>-29.34</ele>
        <time>2015-03-07T13:28:12Z</time>
      </trkpt>
      <trkpt lat="47.08264" lon="-1.55755">
        <ele>-30.56</ele>
        <time>2015-03-07T13:28:16Z</time>
      </trkpt>
      <trkpt lat="47.08273" lon="-1.55725">
        <ele>-31.5</ele>
        <time>2015-03-07T13:28:20Z</time>
      </trkpt>
      <trkpt lat="47.08282" lon="-1.55695">
        <ele>-32.66</ele>
        <time>2015-03-07T13:28:24Z</time>
      </trkpt>
      <trkpt lat="47.08291" lon="-1.55665">
        <ele>-33.45</ele>
        <time>2015-03-07T13:28:28Z</time>
      </trkpt>
      <trkpt lat="47.08301" lon="-1.55635">
        <ele>-33.23</ele>
        <time>2015-03-07T13:28:32Z</time>
      </trkpt>
      <trkpt lat="47.0831" lon="-1.55605">
        <ele>-33.04</ele>
        <time>2015-03-07T13:28:36Z</time>
      </trkpt>
      <trkpt lat="47.08319" lon="-1.55575">
        <ele>-32.64</ele>
        <time>2015-03-07T13:28:40Z</time>
      </trkpt>
      <trkpt lat="47.08329" lon="-1.55544">
        <ele>-32.24</ele>
        <time>2015-03-07T13:28:44Z</time>
      </trkpt>
      <trkpt lat="47.08339" lon="-1.55515">
        <ele>-32.05</ele>
        <time>2015-03-07T13:28:48Z</time>
      </trkpt>
      <trkpt lat="47.0835" lon="-1.55484">
        <ele>-32.1</ele>
        <time>2015-03-07T13:28:52Z</time>
      </trkpt>
      <trkpt lat="47.0836" lon="-1.55453">
        <ele>-31.88</ele>
        <time>2015-03-07T13:28:56Z</time>
      </trkpt>
      <trkpt lat="47.08371" lon="-1.55423">
        <ele>-32.89</ele>
        <time>2015-03-07T13:29:00Z</time>
      </trkpt>
      <trkpt lat="47.08381" lon="-1.55392">
        <ele>-33.93</ele>
        <time>2015-03-07T13:29:04Z</time>
      </trkpt>
      <trkpt lat="47.08389" lon="-1.5536">
        <ele>-34.06</ele>
        <time>2015-03-07T13:29:08Z</time>
      </trkpt>
      <trkpt lat="47.08395" lon="-1.55328">
        <ele>-33.64</ele>
        <time>2015-03-07T13:29:12Z</time>
      </trkpt>
      <trkpt lat="47.08401" lon="-1.55295">
        <ele>-33.34</ele>
        <time>2015-03-07T13:29:16Z</time>
      </trkpt>
      <trkpt lat="47.08405" lon="-1.55269">
        <ele>-32.27</ele>
        <time>2015-03-07T13:29:19Z</time>
      </trkpt>
      <trkpt lat="47.0841" lon="-1.55235">
        <ele>-31.9</ele>
        <time>2015-03-07T13:29:23Z</time>
      </trkpt>
      <trkpt lat="47.08416" lon="-1.55206">
        <ele>-31.5</ele>
        <time>2015-03-07T13:29:26Z</time>
      </trkpt>
      <trkpt lat="47.08422" lon="-1.55178">
        <ele>-31.57</ele>
        <time>2015-03-07T13:29:29Z</time>
      </trkpt>
      <trkpt lat="47.08426" lon="-1.55152">
        <ele>-31.12</ele>
        <time>2015-03-07T13:29:32Z</time>
      </trkpt>
      <trkpt lat="47.08431" lon="-1.55118">
        <ele>-30.23</ele>
        <time>2015-03-07T13:29:36Z</time>
      </trkpt>
      <trkpt lat="47.08436" lon="-1.55085">
        <ele>-29.74</ele>
        <time>2015-03-07T13:29:40Z</time>
      </trkpt>
      <trkpt lat="47.08443" lon="-1.55052">
        <ele>-29.77</ele>
        <time>2015-03-07T13:29:44Z</time>
      </trkpt>
      <trkpt lat="47.08447" lon="-1.55026">
        <ele>-29.49</ele>
        <time>2015-03-07T13:29:47Z</time>
      </trkpt>
      <trkpt lat="47.0845" lon="-1.54997">
        <ele>-29.39</ele>
        <time>2015-03-07T13:29:50Z</time>
      </trkpt>
      <trkpt lat="47.08456" lon="-1.54966">
        <ele>-29.12</ele>
        <time>2015-03-07T13:29:54Z</time>
      </trkpt>
      <trkpt lat="47.08461" lon="-1.54937">
        <ele>-28.98</ele>
        <time>2015-03-07T13:29:58Z</time>
      </trkpt>
      <trkpt lat="47.08467" lon="-1.54905">
        <ele>-28.39</ele>
        <time>2015-03-07T13:30:03Z</time>
      </trkpt>
      <trkpt lat="47.08471" lon="-1.54878">
        <ele>-27.98</ele>
        <time>2015-03-07T13:30:07Z</time>
      </trkpt>
      <trkpt lat="47.08475" lon="-1.54847">
        <ele>-27.39</ele>
        <time>2015-03-07T13:30:11Z</time>
      </trkpt>
      <trkpt lat="47.08481" lon="-1.54817">
        <ele>-26.78</ele>
        <time>2015-03-07T13:30:15Z</time>
      </trkpt>
      <trkpt lat="47.08487" lon="-1.54782">
        <ele>-26.64</ele>
        <time>2015-03-07T13:30:19Z</time>
      </trkpt>
      <trkpt lat="47.08495" lon="-1.54754">
        <ele>-27.54</ele>
        <time>2015-03-07T13:30:22Z</time>
      </trkpt>
      <trkpt lat="47.085" lon="-1.54727">
        <ele>-27.98</ele>
        <time>2015-03-07T13:30:25Z</time>
      </trkpt>
      <trkpt lat="47.08508" lon="-1.547">
        <ele>-27.55</ele>
        <time>2015-03-07T13:30:28Z</time>
      </trkpt>
      <trkpt lat="47.08512" lon="-1.54669">
        <ele>-26.77</ele>
        <time>2015-03-07T13:30:33Z</time>
      </trkpt>
      <trkpt lat="47.08516" lon="-1.54641">
        <ele>-26.09</ele>
        <time>2015-03-07T13:30:37Z</time>
      </trkpt>
      <trkpt lat="47.08519" lon="-1.54608">
        <ele>-25.97</ele>
        <time>2015-03-07T13:30:42Z</time>
      </trkpt>
      <trkpt lat="47.08524" lon="-1.5458">
        <ele>-25.24</ele>
        <time>2015-03-07T13:30:46Z</time>
      </trkpt>
      <trkpt lat="47.08527" lon="-1.54548">
        <ele>-23.92</ele>
        <time>2015-03-07T13:30:50Z</time>
      </trkpt>
      <trkpt lat="47.0853" lon="-1.54516">
        <ele>-22.18</ele>
        <time>2015-03-07T13:30:54Z</time>
      </trkpt>
      <trkpt lat="47.08537" lon="-1.54488">
        <ele>-21.59</ele>
        <time>2015-03-07T13:30:57Z</time>
      </trkpt>
      <trkpt lat="47.08544" lon="-1.54463">
        <ele>-21</ele>
        <time>2015-03-07T13:31:00Z</time>
      </trkpt>
      <trkpt lat="47.08554" lon="-1.54433">
        <ele>-20.21</ele>
        <time>2015-03-07T13:31:04Z</time>
      </trkpt>
      <trkpt lat="47.08563" lon="-1.54406">
        <ele>-19.43</ele>
        <time>2015-03-07T13:31:08Z</time>
      </trkpt>
      <trkpt lat="47.08572" lon="-1.54377">
        <ele>-18.39</ele>
        <time>2015-03-07T13:31:12Z</time>
      </trkpt>
      <trkpt lat="47.08582" lon="-1.54346">
        <ele>-17.76</ele>
        <time>2015-03-07T13:31:16Z</time>
      </trkpt>
      <trkpt lat="47.08592" lon="-1.54318">
        <ele>-17.26</ele>
        <time>2015-03-07T13:31:20Z</time>
      </trkpt>
      <trkpt lat="47.08603" lon="-1.54289">
        <ele>-16.47</ele>
        <time>2015-03-07T13:31:24Z</time>
      </trkpt>
      <trkpt lat="47.08611" lon="-1.54265">
        <ele>-16.1</ele>
        <time>2015-03-07T13:31:27Z</time>
      </trkpt>
      <trkpt lat="47.08618" lon="-1.54241">
        <ele>-15.79</ele>
        <time>2015-03-07T13:31:30Z</time>
      </trkpt>
      <trkpt lat="47.08624" lon="-1.54216">
        <ele>-15.48</ele>
        <time>2015-03-07T13:31:33Z</time>
      </trkpt>
      <trkpt lat="47.08631" lon="-1.54188">
        <ele>-14.76</ele>
        <time>2015-03-07T13:31:36Z</time>
      </trkpt>
      <trkpt lat="47.08633" lon="-1.54159">
        <ele>-14.96</ele>
        <time>2015-03-07T13:31:39Z</time>
      </trkpt>
      <trkpt lat="47.08631" lon="-1.54129">
        <ele>-15.9</ele>
        <time>2015-03-07T13:31:42Z</time>
      </trkpt>
      <trkpt lat="47.0863" lon="-1.54101">
        <ele>-16.76</ele>
        <time>2015-03-07T13:31:45Z</time>
      </trkpt>
      <trkpt lat="47.08628" lon="-1.54066">
        <ele>-17.47</ele>
        <time>2015-03-07T13:31:49Z</time>
      </trkpt>
      <trkpt lat="47.08624" lon="-1.54032">
        <ele>-18.43</ele>
        <time>2015-03-07T13:31:53Z</time>
      </trkpt>
      <trkpt lat="47.08619" lon="-1.53998">
        <ele>-19.32</ele>
        <time>2015-03-07T13:31:57Z</time>
      </trkpt>
      <trkpt lat="47.08616" lon="-1.53972">
        <ele>-20.42</ele>
        <time>2015-03-07T13:32:00Z</time>
      </trkpt>
      <trkpt lat="47.08619" lon="-1.53943">
        <ele>-23.65</ele>
        <time>2015-03-07T13:32:03Z</time>
      </trkpt>
      <trkpt lat="47.08621" lon="-1.53911">
        <ele>-27.09</ele>
        <time>2015-03-07T13:32:07Z</time>
      </trkpt>
      <trkpt lat="47.08627" lon="-1.53881">
        <ele>-28.72</ele>
        <time>2015-03-07T13:32:11Z</time>
      </trkpt>
      <trkpt lat="47.08635" lon="-1.5385">
        <ele>-29.84</ele>
        <time>2015-03-07T13:32:15Z</time>
      </trkpt>
      <trkpt lat="47.08643" lon="-1.53822">
        <ele>-31.44</ele>
        <time>2015-03-07T13:32:19Z</time>
      </trkpt>
      <trkpt lat="47.08652" lon="-1.53792">
        <ele>-32.58</ele>
        <time>2015-03-07T13:32:23Z</time>
      </trkpt>
      <trkpt lat="47.08661" lon="-1.53763">
        <ele>-32.75</ele>
        <time>2015-03-07T13:32:27Z</time>
      </trkpt>
      <trkpt lat="47.08669" lon="-1.53735">
        <ele>-32.47</ele>
        <time>2015-03-07T13:32:31Z</time>
      </trkpt>
      <trkpt lat="47.08677" lon="-1.53707">
        <ele>-32.4</ele>
        <time>2015-03-07T13:32:35Z</time>
      </trkpt>
      <trkpt lat="47.08686" lon="-1.53679">
        <ele>-32.77</ele>
        <time>2015-03-07T13:32:39Z</time>
      </trkpt>
      <trkpt lat="47.08693" lon="-1.53651">
        <ele>-33.47</ele>
        <time>2015-03-07T13:32:43Z</time>
      </trkpt>
      <trkpt lat="47.08701" lon="-1.53623">
        <ele>-34.68</ele>
        <time>2015-03-07T13:32:47Z</time>
      </trkpt>
      <trkpt lat="47.0871" lon="-1.53593">
        <ele>-35.41</ele>
        <time>2015-03-07T13:32:51Z</time>
      </trkpt>
      <trkpt lat="47.0872" lon="-1.53564">
        <ele>-34.16</ele>
        <time>2015-03-07T13:32:55Z</time>
      </trkpt>
      <trkpt lat="47.08729" lon="-1.53535">
        <ele>-32.86</ele>
        <time>2015-03-07T13:32:59Z</time>
      </trkpt>
      <trkpt lat="47.08739" lon="-1.53505">
        <ele>-33</ele>
        <time>2015-03-07T13:33:03Z</time>
      </trkpt>
      <trkpt lat="47.08748" lon="-1.53476">
        <ele>-33.51</ele>
        <time>2015-03-07T13:33:07Z</time>
      </trkpt>
      <trkpt lat="47.08757" lon="-1.53448">
        <ele>-33.25</ele>
        <time>2015-03-07T13:33:11Z</time>
      </trkpt>
      <trkpt lat="47.08765" lon="-1.53419">
        <ele>-33.17</ele>
        <time>2015-03-07T13:33:15Z</time>
      </trkpt>
      <trkpt lat="47.08773" lon="-1.53391">
        <ele>-32.96</ele>
        <time>2015-03-07T13:33:19Z</time>
      </trkpt>
      <trkpt lat="47.08783" lon="-1.53362">
        <ele>-32.09</ele>
        <time>2015-03-07T13:33:23Z</time>
      </trkpt>
      <trkpt lat="47.08793" lon="-1.53334">
        <ele>-32.41</ele>
        <time>2015-03-07T13:33:27Z</time>
      </trkpt>
      <trkpt lat="47.08804" lon="-1.53307">
        <ele>-32.57</ele>
        <time>2015-03-07T13:33:31Z</time>
      </trkpt>
      <trkpt lat="47.08815" lon="-1.5328">
        <ele>-32.34</ele>
        <time>2015-03-07T13:33:35Z</time>
      </trkpt>
      <trkpt lat="47.08828" lon="-1.53252">
        <ele>-32.65</ele>
        <time>2015-03-07T13:33:39Z</time>
      </trkpt>
      <trkpt lat="47.08841" lon="-1.53224">
        <ele>-32.73</ele>
        <time>2015-03-07T13:33:43Z</time>
      </trkpt>
      <trkpt lat="47.08853" lon="-1.53197">
        <ele>-33.4</ele>
        <time>2015-03-07T13:33:47Z</time>
      </trkpt>
      <trkpt lat="47.08866" lon="-1.53174">
        <ele>-33.14</ele>
        <time>2015-03-07T13:33:51Z</time>
      </trkpt>
      <trkpt lat="47.08883" lon="-1.53154">
        <ele>-32.33</ele>
        <time>2015-03-07T13:33:55Z</time>
      </trkpt>
      <trkpt lat="47.08902" lon="-1.53135">
        <ele>-31.6</ele>
        <time>2015-03-07T13:33:59Z</time>
      </trkpt>
      <trkpt lat="47.0892" lon="-1.5312">
        <ele>-30.82</ele>
        <time>2015-03-07T13:34:03Z</time>
      </trkpt>
      <trkpt lat="47.08936" lon="-1.53107">
        <ele>-28.97</ele>
        <time>2015-03-07T13:34:06Z</time>
      </trkpt>
      <trkpt lat="47.08958" lon="-1.53099">
        <ele>-27.14</ele>
        <time>2015-03-07T13:34:10Z</time>
      </trkpt>
      <trkpt lat="47.08981" lon="-1.53089">
        <ele>-28.17</ele>
        <time>2015-03-07T13:34:14Z</time>
      </trkpt>
      <trkpt lat="47.09003" lon="-1.53084">
        <ele>-29.52</ele>
        <time>2015-03-07T13:34:18Z</time>
      </trkpt>
      <trkpt lat="47.09025" lon="-1.53078">
        <ele>-30.83</ele>
        <time>2015-03-07T13:34:22Z</time>
      </trkpt>
      <trkpt lat="47.09046" lon="-1.53073">
        <ele>-31.3</ele>
        <time>2015-03-07T13:34:26Z</time>
      </trkpt>
      <trkpt lat="47.09068" lon="-1.53065">
        <ele>-30.67</ele>
        <time>2015-03-07T13:34:30Z</time>
      </trkpt>
      <trkpt lat="47.09088" lon="-1.5305">
        <ele>-30.63</ele>
        <time>2015-03-07T13:34:34Z</time>
      </trkpt>
      <trkpt lat="47.09104" lon="-1.5303">
        <ele>-30.88</ele>
        <time>2015-03-07T13:34:38Z</time>
      </trkpt>
      <trkpt lat="47.09114" lon="-1.53005">
        <ele>-30.91</ele>
        <time>2015-03-07T13:34:42Z</time>
      </trkpt>
      <trkpt lat="47.0912" lon="-1.52978">
        <ele>-31.63</ele>
        <time>2015-03-07T13:34:48Z</time>
      </trkpt>
      <trkpt lat="47.0913" lon="-1.52953">
        <ele>-31.39</ele>
        <time>2015-03-07T13:34:51Z</time>
      </trkpt>
      <trkpt lat="47.09137" lon="-1.52924">
        <ele>-31.68</ele>
        <time>2015-03-07T13:34:54Z</time>
      </trkpt>
      <trkpt lat="47.09137" lon="-1.52894">
        <ele>-31.97</ele>
        <time>2015-03-07T13:34:57Z</time>
      </trkpt>
      <trkpt lat="47.09137" lon="-1.52865">
        <ele>-31.67</ele>
        <time>2015-03-07T13:35:00Z</time>
      </trkpt>
      <trkpt lat="47.09136" lon="-1.52838">
        <ele>-32.09</ele>
        <time>2015-03-07T13:35:03Z</time>
      </trkpt>
      <trkpt lat="47.09137" lon="-1.5281">
        <ele>-32.69</ele>
        <time>2015-03-07T13:35:06Z</time>
      </trkpt>
      <trkpt lat="47.09138" lon="-1.52783">
        <ele>-32.75</ele>
        <time>2015-03-07T13:35:09Z</time>
      </trkpt>
      <trkpt lat="47.09137" lon="-1.52749">
        <ele>-32.18</ele>
        <time>2015-03-07T13:35:13Z</time>
      </trkpt>
      <trkpt lat="47.0913" lon="-1.52717">
        <ele>-31.36</ele>
        <time>2015-03-07T13:35:17Z</time>
      </trkpt>
      <trkpt lat="47.09117" lon="-1.5269">
        <ele>-31.51</ele>
        <time>2015-03-07T13:35:21Z</time>
      </trkpt>
      <trkpt lat="47.09103" lon="-1.52665">
        <ele>-31.54</ele>
        <time>2015-03-07T13:35:25Z</time>
      </trkpt>
      <trkpt lat="47.09099" lon="-1.52635">
        <ele>-32.32</ele>
        <time>2015-03-07T13:35:29Z</time>
      </trkpt>
      <trkpt lat="47.09107" lon="-1.52603">
        <ele>-32.9</ele>
        <time>2015-03-07T13:35:33Z</time>
      </trkpt>
      <trkpt lat="47.09112" lon="-1.52575">
        <ele>-32.93</ele>
        <time>2015-03-07T13:35:36Z</time>
      </trkpt>
      <trkpt lat="47.09115" lon="-1.52547">
        <ele>-32.52</ele>
        <time>2015-03-07T13:35:39Z</time>
      </trkpt>
      <trkpt lat="47.09117" lon="-1.52517">
        <ele>-31.5</ele>
        <time>2015-03-07T13:35:42Z</time>
      </trkpt>
      <trkpt lat="47.09119" lon="-1.52487">
        <ele>-31.28</ele>
        <time>2015-03-07T13:35:45Z</time>
      </trkpt>
      <trkpt lat="47.09121" lon="-1.5246">
        <ele>-31.29</ele>
        <time>2015-03-07T13:35:48Z</time>
      </trkpt>
      <trkpt lat="47.09124" lon="-1.52432">
        <ele>-31.35</ele>
        <time>2015-03-07T13:35:51Z</time>
      </trkpt>
      <trkpt lat="47.09126" lon="-1.52406">
        <ele>-32.37</ele>
        <time>2015-03-07T13:35:54Z</time>
      </trkpt>
      <trkpt lat="47.0913" lon="-1.52379">
        <ele>-32.75</ele>
        <time>2015-03-07T13:35:57Z</time>
      </trkpt>
      <trkpt lat="47.09132" lon="-1.52353">
        <ele>-33.47</ele>
        <time>2015-03-07T13:36:00Z</time>
      </trkpt>
      <trkpt lat="47.09134" lon="-1.52326">
        <ele>-33.75</ele>
        <time>2015-03-07T13:36:03Z</time>
      </trkpt>
      <trkpt lat="47.09135" lon="-1.523">
        <ele>-34.5</ele>
        <time>2015-03-07T13:36:06Z</time>
      </trkpt>
      <trkpt lat="47.09138" lon="-1.52268">
        <ele>-34.96</ele>
        <time>2015-03-07T13:36:10Z</time>
      </trkpt>
      <trkpt lat="47.09144" lon="-1.52237">
        <ele>-34.49</ele>
        <time>2015-03-07T13:36:14Z</time>
      </trkpt>
      <trkpt lat="47.09151" lon="-1.52207">
        <ele>-33.83</ele>
        <time>2015-03-07T13:36:18Z</time>
      </trkpt>
      <trkpt lat="47.09162" lon="-1.52179">
        <ele>-33.37</ele>
        <time>2015-03-07T13:36:22Z</time>
      </trkpt>
      <trkpt lat="47.09175" lon="-1.52149">
        <ele>-33.02</ele>
        <time>2015-03-07T13:36:26Z</time>
      </trkpt>
      <trkpt lat="47.09184" lon="-1.52126">
        <ele>-32.73</ele>
        <time>2015-03-07T13:36:29Z</time>
      </trkpt>
      <trkpt lat="47.09194" lon="-1.52104">
        <ele>-32.99</ele>
        <time>2015-03-07T13:36:32Z</time>
      </trkpt>
      <trkpt lat="47.09204" lon="-1.5208">
        <ele>-33.56</ele>
        <time>2015-03-07T13:36:35Z</time>
      </trkpt>
      <trkpt lat="47.09214" lon="-1.52057">
        <ele>-33.96</ele>
        <time>2015-03-07T13:36:38Z</time>
      </trkpt>
      <trkpt lat="47.09225" lon="-1.52035">
        <ele>-34.25</ele>
        <time>2015-03-07T13:36:41Z</time>
      </trkpt>
      <trkpt lat="47.09237" lon="-1.52005">
        <ele>-34.9</ele>
        <time>2015-03-07T13:36:45Z</time>
      </trkpt>
      <trkpt lat="47.09247" lon="-1.51982">
        <ele>-35.43</ele>
        <time>2015-03-07T13:36:48Z</time>
      </trkpt>
      <trkpt lat="47.09259" lon="-1.51954">
        <ele>-36.13</ele>
        <time>2015-03-07T13:36:52Z</time>
      </trkpt>
      <trkpt lat="47.09271" lon="-1.51926">
        <ele>-36.55</ele>
        <time>2015-03-07T13:36:56Z</time>
      </trkpt>
      <trkpt lat="47.09284" lon="-1.51898">
        <ele>-35.63</ele>
        <time>2015-03-07T13:37:00Z</time>
      </trkpt>
      <trkpt lat="47.09297" lon="-1.51869">
        <ele>-35.31</ele>
        <time>2015-03-07T13:37:04Z</time>
      </trkpt>
      <trkpt lat="47.09307" lon="-1.51845">
        <ele>-35.15</ele>
        <time>2015-03-07T13:37:07Z</time>
      </trkpt>
      <trkpt lat="47.09316" lon="-1.51819">
        <ele>-35.26</ele>
        <time>2015-03-07T13:37:10Z</time>
      </trkpt>
      <trkpt lat="47.09326" lon="-1.51794">
        <ele>-35.12</ele>
        <time>2015-03-07T13:37:13Z</time>
      </trkpt>
      <trkpt lat="47.09337" lon="-1.51769">
        <ele>-34.83</ele>
        <time>2015-03-07T13:37:16Z</time>
      </trkpt>
      <trkpt lat="47.09347" lon="-1.51745">
        <ele>-34.71</ele>
        <time>2015-03-07T13:37:19Z</time>
      </trkpt>
      <trkpt lat="47.09357" lon="-1.51722">
        <ele>-34.74</ele>
        <time>2015-03-07T13:37:22Z</time>
      </trkpt>
      <trkpt lat="47.09368" lon="-1.51698">
        <ele>-34.93</ele>
        <time>2015-03-07T13:37:25Z</time>
      </trkpt>
      <trkpt lat="47.09378" lon="-1.51675">
        <ele>-35.04</ele>
        <time>2015-03-07T13:37:28Z</time>
      </trkpt>
      <trkpt lat="47.09392" lon="-1.51645">
        <ele>-34.89</ele>
        <time>2015-03-07T13:37:32Z</time>
      </trkpt>
      <trkpt lat="47.09402" lon="-1.51622">
        <ele>-34.98</ele>
        <time>2015-03-07T13:37:35Z</time>
      </trkpt>
      <trkpt lat="47.09412" lon="-1.51598">
        <ele>-35.4</ele>
        <time>2015-03-07T13:37:38Z</time>
      </trkpt>
      <trkpt lat="47.09422" lon="-1.51576">
        <ele>-35.61</ele>
        <time>2015-03-07T13:37:41Z</time>
      </trkpt>
      <trkpt lat="47.09433" lon="-1.51555">
        <ele>-35.87</ele>
        <time>2015-03-07T13:37:44Z</time>
      </trkpt>
      <trkpt lat="47.09445" lon="-1.51527">
        <ele>-36.27</ele>
        <time>2015-03-07T13:37:48Z</time>
      </trkpt>
      <trkpt lat="47.09457" lon="-1.51499">
        <ele>-36.54</ele>
        <time>2015-03-07T13:37:52Z</time>
      </trkpt>
      <trkpt lat="47.09469" lon="-1.51472">
        <ele>-37.2</ele>
        <time>2015-03-07T13:37:56Z</time>
      </trkpt>
      <trkpt lat="47.0948" lon="-1.51445">
        <ele>-37.88</ele>
        <time>2015-03-07T13:38:00Z</time>
      </trkpt>
      <trkpt lat="47.0949" lon="-1.51418">
        <ele>-37.92</ele>
        <time>2015-03-07T13:38:04Z</time>
      </trkpt>
      <trkpt lat="47.09498" lon="-1.51389">
        <ele>-38.1</ele>
        <time>2015-03-07T13:38:08Z</time>
      </trkpt>
      <trkpt lat="47.09501" lon="-1.51356">
        <ele>-38.18</ele>
        <time>2015-03-07T13:38:12Z</time>
      </trkpt>
      <trkpt lat="47.09503" lon="-1.51322">
        <ele>-38.01</ele>
        <time>2015-03-07T13:38:16Z</time>
      </trkpt>
      <trkpt lat="47.09497" lon="-1.51296">
        <ele>-37.58</ele>
        <time>2015-03-07T13:38:19Z</time>
      </trkpt>
      <trkpt lat="47.0949" lon="-1.51265">
        <ele>-37.38</ele>
        <time>2015-03-07T13:38:23Z</time>
      </trkpt>
      <trkpt lat="47.09481" lon="-1.51232">
        <ele>-37.97</ele>
        <time>2015-03-07T13:38:27Z</time>
      </trkpt>
      <trkpt lat="47.09473" lon="-1.51208">
        <ele>-38.26</ele>
        <time>2015-03-07T13:38:30Z</time>
      </trkpt>
      <trkpt lat="47.09464" lon="-1.51176">
        <ele>-38.37</ele>
        <time>2015-03-07T13:38:34Z</time>
      </trkpt>
      <trkpt lat="47.09454" lon="-1.51143">
        <ele>-38.82</ele>
        <time>2015-03-07T13:38:38Z</time>
      </trkpt>
      <trkpt lat="47.09445" lon="-1.51111">
        <ele>-38.43</ele>
        <time>2015-03-07T13:38:42Z</time>
      </trkpt>
      <trkpt lat="47.09434" lon="-1.51081">
        <ele>-38.37</ele>
        <time>2015-03-07T13:38:46Z</time>
      </trkpt>
      <trkpt lat="47.0943" lon="-1.51055">
        <ele>-39.66</ele>
        <time>2015-03-07T13:38:49Z</time>
      </trkpt>
      <trkpt lat="47.09421" lon="-1.51023">
        <ele>-41.35</ele>
        <time>2015-03-07T13:38:53Z</time>
      </trkpt>
      <trkpt lat="47.09414" lon="-1.5099">
        <ele>-42.55</ele>
        <time>2015-03-07T13:38:57Z</time>
      </trkpt>
      <trkpt lat="47.09406" lon="-1.50958">
        <ele>-42.58</ele>
        <time>2015-03-07T13:39:01Z</time>
      </trkpt>
      <trkpt lat="47.09398" lon="-1.50925">
        <ele>-42.72</ele>
        <time>2015-03-07T13:39:05Z</time>
      </trkpt>
      <trkpt lat="47.09394" lon="-1.50892">
        <ele>-43.21</ele>
        <time>2015-03-07T13:39:09Z</time>
      </trkpt>
      <trkpt lat="47.09392" lon="-1.50858">
        <ele>-43.55</ele>
        <time>2015-03-07T13:39:13Z</time>
      </trkpt>
      <trkpt lat="47.09394" lon="-1.50826">
        <ele>-43.98</ele>
        <time>2015-03-07T13:39:17Z</time>
      </trkpt>
      <trkpt lat="47.09398" lon="-1.50797">
        <ele>-44.24</ele>
        <time>2015-03-07T13:39:21Z</time>
      </trkpt>
      <trkpt lat="47.09399" lon="-1.50768">
        <ele>-43.67</ele>
        <time>2015-03-07T13:39:25Z</time>
      </trkpt>
      <trkpt lat="47.09403" lon="-1.50741">
        <ele>-42.48</ele>
        <time>2015-03-07T13:39:29Z</time>
      </trkpt>
      <trkpt lat="47.09408" lon="-1.50715">
        <ele>-42.09</ele>
        <time>2015-03-07T13:39:33Z</time>
      </trkpt>
      <trkpt lat="47.09414" lon="-1.50684">
        <ele>-41.82</ele>
        <time>2015-03-07T13:39:38Z</time>
      </trkpt>
      <trkpt lat="47.09417" lon="-1.50654">
        <ele>-41.68</ele>
        <time>2015-03-07T13:39:43Z</time>
      </trkpt>
      <trkpt lat="47.09422" lon="-1.50623">
        <ele>-41.14</ele>
        <time>2015-03-07T13:39:48Z</time>
      </trkpt>
      <trkpt lat="47.09427" lon="-1.50593">
        <ele>-40.06</ele>
        <time>2015-03-07T13:39:53Z</time>
      </trkpt>
      <trkpt lat="47.09435" lon="-1.50563">
        <ele>-36.45</ele>
        <time>2015-03-07T13:39:58Z</time>
      </trkpt>
      <trkpt lat="47.0944" lon="-1.50532">
        <ele>-34.04</ele>
        <time>2015-03-07T13:40:03Z</time>
      </trkpt>
      <trkpt lat="47.09446" lon="-1.50504">
        <ele>-32.2</ele>
        <time>2015-03-07T13:40:07Z</time>
      </trkpt>
      <trkpt lat="47.09452" lon="-1.50472">
        <ele>-30.75</ele>
        <time>2015-03-07T13:40:11Z</time>
      </trkpt>
      <trkpt lat="47.09457" lon="-1.50446">
        <ele>-31.57</ele>
        <time>2015-03-07T13:40:14Z</time>
      </trkpt>
      <trkpt lat="47.09462" lon="-1.50415">
        <ele>-32.75</ele>
        <time>2015-03-07T13:40:17Z</time>
      </trkpt>
      <trkpt lat="47.09467" lon="-1.50385">
        <ele>-33.98</ele>
        <time>2015-03-07T13:40:20Z</time>
      </trkpt>
      <trkpt lat="47.09472" lon="-1.50353">
        <ele>-35.46</ele>
        <time>2015-03-07T13:40:23Z</time>
      </trkpt>
      <trkpt lat="47.09478" lon="-1.50321">
        <ele>-37.25</ele>
        <time>2015-03-07T13:40:26Z</time>
      </trkpt>
      <trkpt lat="47.09484" lon="-1.50289">
        <ele>-38.03</ele>
        <time>2015-03-07T13:40:29Z</time>
      </trkpt>
      <trkpt lat="47.09489" lon="-1.50263">
        <ele>-39.33</ele>
        <time>2015-03-07T13:40:32Z</time>
      </trkpt>
      <trkpt lat="47.09494" lon="-1.5023">
        <ele>-40.35</ele>
        <time>2015-03-07T13:40:36Z</time>
      </trkpt>
      <trkpt lat="47.095" lon="-1.50201">
        <ele>-40.74</ele>
        <time>2015-03-07T13:40:40Z</time>
      </trkpt>
      <trkpt lat="47.09503" lon="-1.50174">
        <ele>-40.03</ele>
        <time>2015-03-07T13:40:44Z</time>
      </trkpt>
      <trkpt lat="47.09506" lon="-1.50145">
        <ele>-40.85</ele>
        <time>2015-03-07T13:40:48Z</time>
      </trkpt>
      <trkpt lat="47.09508" lon="-1.50118">
        <ele>-41.97</ele>
        <time>2015-03-07T13:40:52Z</time>
      </trkpt>
      <trkpt lat="47.09513" lon="-1.50087">
        <ele>-39.88</ele>
        <time>2015-03-07T13:40:57Z</time>
      </trkpt>
      <trkpt lat="47.09519" lon="-1.50061">
        <ele>-35.99</ele>
        <time>2015-03-07T13:41:01Z</time>
      </trkpt>
      <trkpt lat="47.09524" lon="-1.5003">
        <ele>-32.24</ele>
        <time>2015-03-07T13:41:06Z</time>
      </trkpt>
      <trkpt lat="47.09529" lon="-1.50002">
        <ele>-30.74</ele>
        <time>2015-03-07T13:41:11Z</time>
      </trkpt>
      <trkpt lat="47.09533" lon="-1.49971">
        <ele>-30.01</ele>
        <time>2015-03-07T13:41:16Z</time>
      </trkpt>
      <trkpt lat="47.0954" lon="-1.49946">
        <ele>-29.15</ele>
        <time>2015-03-07T13:41:20Z</time>
      </trkpt>
      <trkpt lat="47.09547" lon="-1.49917">
        <ele>-27.18</ele>
        <time>2015-03-07T13:41:25Z</time>
      </trkpt>
      <trkpt lat="47.09554" lon="-1.49889">
        <ele>-24.59</ele>
        <time>2015-03-07T13:41:30Z</time>
      </trkpt>
      <trkpt lat="47.09561" lon="-1.49861">
        <ele>-22.76</ele>
        <time>2015-03-07T13:41:35Z</time>
      </trkpt>
      <trkpt lat="47.0957" lon="-1.49833">
        <ele>-20.28</ele>
        <time>2015-03-07T13:41:40Z</time>
      </trkpt>
      <trkpt lat="47.09578" lon="-1.49809">
        <ele>-18.5</ele>
        <time>2015-03-07T13:41:44Z</time>
      </trkpt>
      <trkpt lat="47.09587" lon="-1.49784">
        <ele>-16.59</ele>
        <time>2015-03-07T13:41:48Z</time>
      </trkpt>
      <trkpt lat="47.09596" lon="-1.49761">
        <ele>-15.67</ele>
        <time>2015-03-07T13:41:52Z</time>
      </trkpt>
      <trkpt lat="47.09605" lon="-1.49731">
        <ele>-15.85</ele>
        <time>2015-03-07T13:41:57Z</time>
      </trkpt>
      <trkpt lat="47.09615" lon="-1.49703">
        <ele>-16.38</ele>
        <time>2015-03-07T13:42:01Z</time>
      </trkpt>
      <trkpt lat="47.09624" lon="-1.49676">
        <ele>-16.61</ele>
        <time>2015-03-07T13:42:05Z</time>
      </trkpt>
      <trkpt lat="47.09634" lon="-1.49647">
        <ele>-17.13</ele>
        <time>2015-03-07T13:42:09Z</time>
      </trkpt>
      <trkpt lat="47.09645" lon="-1.49617">
        <ele>-16.98</ele>
        <time>2015-03-07T13:42:13Z</time>
      </trkpt>
      <trkpt lat="47.09655" lon="-1.49589">
        <ele>-17.72</ele>
        <time>2015-03-07T13:42:17Z</time>
      </trkpt>
      <trkpt lat="47.09664" lon="-1.4956">
        <ele>-18.98</ele>
        <time>2015-03-07T13:42:21Z</time>
      </trkpt>
      <trkpt lat="47.09673" lon="-1.49531">
        <ele>-19.94</ele>
        <time>2015-03-07T13:42:25Z</time>
      </trkpt>
      <trkpt lat="47.09678" lon="-1.49499">
        <ele>-20.63</ele>
        <time>2015-03-07T13:42:29Z</time>
      </trkpt>
      <trkpt lat="47.09682" lon="-1.49467">
        <ele>-21.83</ele>
        <time>2015-03-07T13:42:33Z</time>
      </trkpt>
      <trkpt lat="47.0969" lon="-1.49435">
        <ele>-22.87</ele>
        <time>2015-03-07T13:42:37Z</time>
      </trkpt>
      <trkpt lat="47.09695" lon="-1.49403">
        <ele>-24.31</ele>
        <time>2015-03-07T13:42:41Z</time>
      </trkpt>
      <trkpt lat="47.097" lon="-1.49371">
        <ele>-25.23</ele>
        <time>2015-03-07T13:42:45Z</time>
      </trkpt>
      <trkpt lat="47.09704" lon="-1.4934">
        <ele>-25.22</ele>
        <time>2015-03-07T13:42:49Z</time>
      </trkpt>
      <trkpt lat="47.09706" lon="-1.49311">
        <ele>-25.15</ele>
        <time>2015-03-07T13:42:53Z</time>
      </trkpt>
      <trkpt lat="47.0971" lon="-1.49279">
        <ele>-24.89</ele>
        <time>2015-03-07T13:42:57Z</time>
      </trkpt>
      <trkpt lat="47.09718" lon="-1.4925">
        <ele>-24.51</ele>
        <time>2015-03-07T13:43:01Z</time>
      </trkpt>
      <trkpt lat="47.09728" lon="-1.49219">
        <ele>-24.07</ele>
        <time>2015-03-07T13:43:05Z</time>
      </trkpt>
      <trkpt lat="47.09738" lon="-1.49187">
        <ele>-23.96</ele>
        <time>2015-03-07T13:43:09Z</time>
      </trkpt>
      <trkpt lat="47.09745" lon="-1.49162">
        <ele>-23.53</ele>
        <time>2015-03-07T13:43:12Z</time>
      </trkpt>
      <trkpt lat="47.09753" lon="-1.49137">
        <ele>-23.34</ele>
        <time>2015-03-07T13:43:15Z</time>
      </trkpt>
      <trkpt lat="47.09761" lon="-1.49111">
        <ele>-23.22</ele>
        <time>2015-03-07T13:43:18Z</time>
      </trkpt>
      <trkpt lat="47.09769" lon="-1.49085">
        <ele>-23.69</ele>
        <time>2015-03-07T13:43:21Z</time>
      </trkpt>
      <trkpt lat="47.09775" lon="-1.49058">
        <ele>-24.05</ele>
        <time>2015-03-07T13:43:24Z</time>
      </trkpt>
      <trkpt lat="47.0978" lon="-1.49025">
        <ele>-23.57</ele>
        <time>2015-03-07T13:43:28Z</time>
      </trkpt>
      <trkpt lat="47.09783" lon="-1.48993">
        <ele>-23.57</ele>
        <time>2015-03-07T13:43:32Z</time>
      </trkpt>
      <trkpt lat="47.09788" lon="-1.48961">
        <ele>-23.67</ele>
        <time>2015-03-07T13:43:36Z</time>
      </trkpt>
      <trkpt lat="47.0979" lon="-1.48933">
        <ele>-23.82</ele>
        <time>2015-03-07T13:43:40Z</time>
      </trkpt>
      <trkpt lat="47.09792" lon="-1.489">
        <ele>-24.41</ele>
        <time>2015-03-07T13:43:44Z</time>
      </trkpt>
      <trkpt lat="47.09785" lon="-1.48875">
        <ele>-24.54</ele>
        <time>2015-03-07T13:43:47Z</time>
      </trkpt>
      <trkpt lat="47.09777" lon="-1.48843">
        <ele>-24.82</ele>
        <time>2015-03-07T13:43:51Z</time>
      </trkpt>
      <trkpt lat="47.09768" lon="-1.48811">
        <ele>-25.21</ele>
        <time>2015-03-07T13:43:55Z</time>
      </trkpt>
      <trkpt lat="47.09761" lon="-1.48781">
        <ele>-25.73</ele>
        <time>2015-03-07T13:43:59Z</time>
      </trkpt>
      <trkpt lat="47.09754" lon="-1.48751">
        <ele>-26.31</ele>
        <time>2015-03-07T13:44:03Z</time>
      </trkpt>
      <trkpt lat="47.09746" lon="-1.48723">
        <ele>-27.09</ele>
        <time>2015-03-07T13:44:07Z</time>
      </trkpt>
      <trkpt lat="47.09737" lon="-1.48699">
        <ele>-27.31</ele>
        <time>2015-03-07T13:44:11Z</time>
      </trkpt>
      <trkpt lat="47.09727" lon="-1.4867">
        <ele>-27.48</ele>
        <time>2015-03-07T13:44:16Z</time>
      </trkpt>
      <trkpt lat="47.09719" lon="-1.48643">
        <ele>-27.72</ele>
        <time>2015-03-07T13:44:21Z</time>
      </trkpt>
      <trkpt lat="47.09711" lon="-1.48615">
        <ele>-25.26</ele>
        <time>2015-03-07T13:44:27Z</time>
      </trkpt>
      <trkpt lat="47.09702" lon="-1.48591">
        <ele>-23.25</ele>
        <time>2015-03-07T13:44:31Z</time>
      </trkpt>
      <trkpt lat="47.09689" lon="-1.4857">
        <ele>-21.92</ele>
        <time>2015-03-07T13:44:35Z</time>
      </trkpt>
      <trkpt lat="47.09675" lon="-1.4855">
        <ele>-20.73</ele>
        <time>2015-03-07T13:44:39Z</time>
      </trkpt>
      <trkpt lat="47.09662" lon="-1.48532">
        <ele>-20</ele>
        <time>2015-03-07T13:44:43Z</time>
      </trkpt>
      <trkpt lat="47.09647" lon="-1.48515">
        <ele>-19.56</ele>
        <time>2015-03-07T13:44:47Z</time>
      </trkpt>
      <trkpt lat="47.09632" lon="-1.48499">
        <ele>-18.56</ele>
        <time>2015-03-07T13:44:51Z</time>
      </trkpt>
      <trkpt lat="47.09617" lon="-1.48482">
        <ele>-18.33</ele>
        <time>2015-03-07T13:44:55Z</time>
      </trkpt>
      <trkpt lat="47.09603" lon="-1.48466">
        <ele>-17.88</ele>
        <time>2015-03-07T13:44:59Z</time>
      </trkpt>
      <trkpt lat="47.09585" lon="-1.48446">
        <ele>-17.07</ele>
        <time>2015-03-07T13:45:04Z</time>
      </trkpt>
      <trkpt lat="47.09566" lon="-1.48429">
        <ele>-16.49</ele>
        <time>2015-03-07T13:45:09Z</time>
      </trkpt>
      <trkpt lat="47.0955" lon="-1.48415">
        <ele>-15.89</ele>
        <time>2015-03-07T13:45:13Z</time>
      </trkpt>
      <trkpt lat="47.09532" lon="-1.48401">
        <ele>-16.37</ele>
        <time>2015-03-07T13:45:17Z</time>
      </trkpt>
      <trkpt lat="47.09514" lon="-1.48388">
        <ele>-16.92</ele>
        <time>2015-03-07T13:45:21Z</time>
      </trkpt>
      <trkpt lat="47.09496" lon="-1.48377">
        <ele>-17.55</ele>
        <time>2015-03-07T13:45:25Z</time>
      </trkpt>
      <trkpt lat="47.09478" lon="-1.48368">
        <ele>-17.5</ele>
        <time>2015-03-07T13:45:29Z</time>
      </trkpt>
      <trkpt lat="47.09459" lon="-1.48359">
        <ele>-17.18</ele>
        <time>2015-03-07T13:45:33Z</time>
      </trkpt>
      <trkpt lat="47.09441" lon="-1.48349">
        <ele>-17.82</ele>
        <time>2015-03-07T13:45:37Z</time>
      </trkpt>
      <trkpt lat="47.09422" lon="-1.48334">
        <ele>-18.06</ele>
        <time>2015-03-07T13:45:42Z</time>
      </trkpt>
      <trkpt lat="47.09402" lon="-1.48319">
        <ele>-17.47</ele>
        <time>2015-03-07T13:45:47Z</time>
      </trkpt>
      <trkpt lat="47.09385" lon="-1.48304">
        <ele>-17.57</ele>
        <time>2015-03-07T13:45:51Z</time>
      </trkpt>
      <trkpt lat="47.09369" lon="-1.48289">
        <ele>-17.19</ele>
        <time>2015-03-07T13:45:55Z</time>
      </trkpt>
      <trkpt lat="47.09352" lon="-1.48271">
        <ele>-16.93</ele>
        <time>2015-03-07T13:46:00Z</time>
      </trkpt>
      <trkpt lat="47.09337" lon="-1.48255">
        <ele>-17.06</ele>
        <time>2015-03-07T13:46:04Z</time>
      </trkpt>
      <trkpt lat="47.09321" lon="-1.48235">
        <ele>-18.53</ele>
        <time>2015-03-07T13:46:08Z</time>
      </trkpt>
      <trkpt lat="47.09304" lon="-1.48211">
        <ele>-19.67</ele>
        <time>2015-03-07T13:46:12Z</time>
      </trkpt>
      <trkpt lat="47.09287" lon="-1.48188">
        <ele>-19.77</ele>
        <time>2015-03-07T13:46:16Z</time>
      </trkpt>
      <trkpt lat="47.09273" lon="-1.4817">
        <ele>-20.22</ele>
        <time>2015-03-07T13:46:19Z</time>
      </trkpt>
      <trkpt lat="47.0926" lon="-1.48151">
        <ele>-21.07</ele>
        <time>2015-03-07T13:46:22Z</time>
      </trkpt>
      <trkpt lat="47.09246" lon="-1.48133">
        <ele>-21.69</ele>
        <time>2015-03-07T13:46:25Z</time>
      </trkpt>
      <trkpt lat="47.09232" lon="-1.48116">
        <ele>-22.09</ele>
        <time>2015-03-07T13:46:28Z</time>
      </trkpt>
      <trkpt lat="47.09219" lon="-1.48098">
        <ele>-20.91</ele>
        <time>2015-03-07T13:46:31Z</time>
      </trkpt>
      <trkpt lat="47.09202" lon="-1.48074">
        <ele>-19.66</ele>
        <time>2015-03-07T13:46:35Z</time>
      </trkpt>
      <trkpt lat="47.09185" lon="-1.4805">
        <ele>-18.9</ele>
        <time>2015-03-07T13:46:39Z</time>
      </trkpt>
      <trkpt lat="47.0917" lon="-1.48025">
        <ele>-18.68</ele>
        <time>2015-03-07T13:46:43Z</time>
      </trkpt>
      <trkpt lat="47.09156" lon="-1.47998">
        <ele>-19.02</ele>
        <time>2015-03-07T13:46:47Z</time>
      </trkpt>
      <trkpt lat="47.09142" lon="-1.47971">
        <ele>-19.9</ele>
        <time>2015-03-07T13:46:51Z</time>
      </trkpt>
      <trkpt lat="47.09133" lon="-1.47941">
        <ele>-20.94</ele>
        <time>2015-03-07T13:46:55Z</time>
      </trkpt>
      <trkpt lat="47.09137" lon="-1.4791">
        <ele>-20.54</ele>
        <time>2015-03-07T13:46:59Z</time>
      </trkpt>
      <trkpt lat="47.09143" lon="-1.47878">
        <ele>-20.04</ele>
        <time>2015-03-07T13:47:03Z</time>
      </trkpt>
      <trkpt lat="47.09149" lon="-1.47847">
        <ele>-19.37</ele>
        <time>2015-03-07T13:47:07Z</time>
      </trkpt>
      <trkpt lat="47.09153" lon="-1.47814">
        <ele>-19.99</ele>
        <time>2015-03-07T13:47:11Z</time>
      </trkpt>
      <trkpt lat="47.09156" lon="-1.47782">
        <ele>-20.08</ele>
        <time>2015-03-07T13:47:15Z</time>
      </trkpt>
      <trkpt lat="47.09159" lon="-1.4775">
        <ele>-20.76</ele>
        <time>2015-03-07T13:47:19Z</time>
      </trkpt>
      <trkpt lat="47.09161" lon="-1.47718">
        <ele>-21.45</ele>
        <time>2015-03-07T13:47:23Z</time>
      </trkpt>
      <trkpt lat="47.09164" lon="-1.47686">
        <ele>-22.81</ele>
        <time>2015-03-07T13:47:27Z</time>
      </trkpt>
      <trkpt lat="47.09168" lon="-1.47656">
        <ele>-24.15</ele>
        <time>2015-03-07T13:47:31Z</time>
      </trkpt>
      <trkpt lat="47.09172" lon="-1.47624">
        <ele>-25.05</ele>
        <time>2015-03-07T13:47:35Z</time>
      </trkpt>
      <trkpt lat="47.09175" lon="-1.47591">
        <ele>-25.63</ele>
        <time>2015-03-07T13:47:39Z</time>
      </trkpt>
      <trkpt lat="47.09178" lon="-1.4756">
        <ele>-25.27</ele>
        <time>2015-03-07T13:47:43Z</time>
      </trkpt>
      <trkpt lat="47.09182" lon="-1.47528">
        <ele>-25.59</ele>
        <time>2015-03-07T13:47:47Z</time>
      </trkpt>
      <trkpt lat="47.09187" lon="-1.47496">
        <ele>-24.9</ele>
        <time>2015-03-07T13:47:51Z</time>
      </trkpt>
      <trkpt lat="47.09192" lon="-1.47464">
        <ele>-24.68</ele>
        <time>2015-03-07T13:47:55Z</time>
      </trkpt>
      <trkpt lat="47.09196" lon="-1.47433">
        <ele>-24.31</ele>
        <time>2015-03-07T13:47:59Z</time>
      </trkpt>
      <trkpt lat="47.09197" lon="-1.47401">
        <ele>-23.93</ele>
        <time>2015-03-07T13:48:03Z</time>
      </trkpt>
      <trkpt lat="47.09194" lon="-1.47369">
        <ele>-22.73</ele>
        <time>2015-03-07T13:48:07Z</time>
      </trkpt>
      <trkpt lat="47.09186" lon="-1.4734">
        <ele>-22.41</ele>
        <time>2015-03-07T13:48:11Z</time>
      </trkpt>
      <trkpt lat="47.09177" lon="-1.47312">
        <ele>-22.6</ele>
        <time>2015-03-07T13:48:15Z</time>
      </trkpt>
      <trkpt lat="47.09168" lon="-1.47289">
        <ele>-21.99</ele>
        <time>2015-03-07T13:48:19Z</time>
      </trkpt>
      <trkpt lat="47.09152" lon="-1.47265">
        <ele>-20.98</ele>
        <time>2015-03-07T13:48:24Z</time>
      </trkpt>
      <trkpt lat="47.09139" lon="-1.47242">
        <ele>-20.15</ele>
        <time>2015-03-07T13:48:29Z</time>
      </trkpt>
      <trkpt lat="47.09131" lon="-1.47213">
        <ele>-19.72</ele>
        <time>2015-03-07T13:48:34Z</time>
      </trkpt>
      <trkpt lat="47.09125" lon="-1.47187">
        <ele>-19.71</ele>
        <time>2015-03-07T13:48:38Z</time>
      </trkpt>
      <trkpt lat="47.09117" lon="-1.47161">
        <ele>-19.59</ele>
        <time>2015-03-07T13:48:42Z</time>
      </trkpt>
      <trkpt lat="47.09111" lon="-1.47133">
        <ele>-19.62</ele>
        <time>2015-03-07T13:48:46Z</time>
      </trkpt>
      <trkpt lat="47.09106" lon="-1.47105">
        <ele>-20.27</ele>
        <time>2015-03-07T13:48:50Z</time>
      </trkpt>
      <trkpt lat="47.09102" lon="-1.47076">
        <ele>-20.09</ele>
        <time>2015-03-07T13:48:54Z</time>
      </trkpt>
      <trkpt lat="47.09098" lon="-1.47048">
        <ele>-21.31</ele>
        <time>2015-03-07T13:48:58Z</time>
      </trkpt>
      <trkpt lat="47.09093" lon="-1.4702">
        <ele>-22.15</ele>
        <time>2015-03-07T13:49:02Z</time>
      </trkpt>
      <trkpt lat="47.09085" lon="-1.46994">
        <ele>-22.35</ele>
        <time>2015-03-07T13:49:06Z</time>
      </trkpt>
      <trkpt lat="47.0908" lon="-1.46966">
        <ele>-21.37</ele>
        <time>2015-03-07T13:49:10Z</time>
      </trkpt>
      <trkpt lat="47.09073" lon="-1.46938">
        <ele>-21.2</ele>
        <time>2015-03-07T13:49:14Z</time>
      </trkpt>
      <trkpt lat="47.09068" lon="-1.46911">
        <ele>-21.05</ele>
        <time>2015-03-07T13:49:18Z</time>
      </trkpt>
      <trkpt lat="47.09062" lon="-1.46885">
        <ele>-21.18</ele>
        <time>2015-03-07T13:49:22Z</time>
      </trkpt>
      <trkpt lat="47.09055" lon="-1.46859">
        <ele>-20.99</ele>
        <time>2015-03-07T13:49:26Z</time>
      </trkpt>
      <trkpt lat="47.09049" lon="-1.46834">
        <ele>-21.33</ele>
        <time>2015-03-07T13:49:30Z</time>
      </trkpt>
      <trkpt lat="47.09042" lon="-1.46808">
        <ele>-21.72</ele>
        <time>2015-03-07T13:49:34Z</time>
      </trkpt>
      <trkpt lat="47.09035" lon="-1.46779">
        <ele>-20.05</ele>
        <time>2015-03-07T13:49:39Z</time>
      </trkpt>
      <trkpt lat="47.09028" lon="-1.4675">
        <ele>-17.76</ele>
        <time>2015-03-07T13:49:44Z</time>
      </trkpt>
      <trkpt lat="47.09021" lon="-1.46725">
        <ele>-16.86</ele>
        <time>2015-03-07T13:49:48Z</time>
      </trkpt>
      <trkpt lat="47.09015" lon="-1.46699">
        <ele>-16.02</ele>
        <time>2015-03-07T13:49:52Z</time>
      </trkpt>
      <trkpt lat="47.0901" lon="-1.46672">
        <ele>-15.01</ele>
        <time>2015-03-07T13:49:57Z</time>
      </trkpt>
      <trkpt lat="47.09008" lon="-1.46643">
        <ele>-17.09</ele>
        <time>2015-03-07T13:56:18Z</time>
      </trkpt>
      <trkpt lat="47.09017" lon="-1.46614">
        <ele>-16.64</ele>
        <time>2015-03-07T13:57:37Z</time>
      </trkpt>
      <trkpt lat="47.09029" lon="-1.46589">
        <ele>-16.72</ele>
        <time>2015-03-07T13:57:41Z</time>
      </trkpt>
      <trkpt lat="47.09042" lon="-1.46566">
        <ele>-16.96</ele>
        <time>2015-03-07T13:57:45Z</time>
      </trkpt>
      <trkpt lat="47.09056" lon="-1.46542">
        <ele>-17.34</ele>
        <time>2015-03-07T13:57:49Z</time>
      </trkpt>
      <trkpt lat="47.0907" lon="-1.46518">
        <ele>-17.08</ele>
        <time>2015-03-07T13:57:53Z</time>
      </trkpt>
      <trkpt lat="47.09082" lon="-1.46492">
        <ele>-17.17</ele>
        <time>2015-03-07T13:57:57Z</time>
      </trkpt>
      <trkpt lat="47.09084" lon="-1.46463">
        <ele>-16.22</ele>
        <time>2015-03-07T13:58:01Z</time>
      </trkpt>
      <trkpt lat="47.09075" lon="-1.46438">
        <ele>-15.77</ele>
        <time>2015-03-07T13:58:05Z</time>
      </trkpt>
      <trkpt lat="47.09059" lon="-1.4642">
        <ele>-15.18</ele>
        <time>2015-03-07T13:58:09Z</time>
      </trkpt>
      <trkpt lat="47.09042" lon="-1.46406">
        <ele>-15.19</ele>
        <time>2015-03-07T13:58:13Z</time>
      </trkpt>
      <trkpt lat="47.09026" lon="-1.46392">
        <ele>-14.68</ele>
        <time>2015-03-07T13:58:17Z</time>
      </trkpt>
      <trkpt lat="47.09009" lon="-1.46379">
        <ele>-13.54</ele>
        <time>2015-03-07T13:58:21Z</time>
      </trkpt>
      <trkpt lat="47.08993" lon="-1.46367">
        <ele>-13.43</ele>
        <time>2015-03-07T13:58:25Z</time>
      </trkpt>
      <trkpt lat="47.08977" lon="-1.46355">
        <ele>-13.12</ele>
        <time>2015-03-07T13:58:29Z</time>
      </trkpt>
      <trkpt lat="47.0896" lon="-1.46343">
        <ele>-13.04</ele>
        <time>2015-03-07T13:58:33Z</time>
      </trkpt>
      <trkpt lat="47.08942" lon="-1.46324">
        <ele>-12.17</ele>
        <time>2015-03-07T13:58:38Z</time>
      </trkpt>
      <trkpt lat="47.08931" lon="-1.46296">
        <ele>-11.6</ele>
        <time>2015-03-07T13:58:43Z</time>
      </trkpt>
      <trkpt lat="47.08923" lon="-1.46266">
        <ele>-10.5</ele>
        <time>2015-03-07T13:58:48Z</time>
      </trkpt>
      <trkpt lat="47.08912" lon="-1.46239">
        <ele>-10.45</ele>
        <time>2015-03-07T13:58:53Z</time>
      </trkpt>
      <trkpt lat="47.08901" lon="-1.46213">
        <ele>-10.2</ele>
        <time>2015-03-07T13:58:58Z</time>
      </trkpt>
      <trkpt lat="47.0889" lon="-1.46189">
        <ele>-9.38</ele>
        <time>2015-03-07T13:59:03Z</time>
      </trkpt>
      <trkpt lat="47.08877" lon="-1.46164">
        <ele>-9.09</ele>
        <time>2015-03-07T13:59:08Z</time>
      </trkpt>
      <trkpt lat="47.08861" lon="-1.46144">
        <ele>-8.1</ele>
        <time>2015-03-07T13:59:13Z</time>
      </trkpt>
      <trkpt lat="47.08841" lon="-1.46128">
        <ele>-8.22</ele>
        <time>2015-03-07T13:59:18Z</time>
      </trkpt>
      <trkpt lat="47.08824" lon="-1.46116">
        <ele>-8.15</ele>
        <time>2015-03-07T13:59:22Z</time>
      </trkpt>
      <trkpt lat="47.08805" lon="-1.46103">
        <ele>-8.83</ele>
        <time>2015-03-07T13:59:26Z</time>
      </trkpt>
      <trkpt lat="47.08784" lon="-1.46089">
        <ele>-9.77</ele>
        <time>2015-03-07T13:59:30Z</time>
      </trkpt>
      <trkpt lat="47.08768" lon="-1.46079">
        <ele>-10.2</ele>
        <time>2015-03-07T13:59:33Z</time>
      </trkpt>
      <trkpt lat="47.0875" lon="-1.4607">
        <ele>-10.85</ele>
        <time>2015-03-07T13:59:36Z</time>
      </trkpt>
      <trkpt lat="47.08732" lon="-1.46067">
        <ele>-11.4</ele>
        <time>2015-03-07T13:59:39Z</time>
      </trkpt>
      <trkpt lat="47.08708" lon="-1.46071">
        <ele>-12.57</ele>
        <time>2015-03-07T13:59:43Z</time>
      </trkpt>
      <trkpt lat="47.08685" lon="-1.46068">
        <ele>-13.2</ele>
        <time>2015-03-07T13:59:47Z</time>
      </trkpt>
      <trkpt lat="47.08666" lon="-1.46048">
        <ele>-14.06</ele>
        <time>2015-03-07T13:59:51Z</time>
      </trkpt>
      <trkpt lat="47.08649" lon="-1.46027">
        <ele>-13.88</ele>
        <time>2015-03-07T13:59:55Z</time>
      </trkpt>
      <trkpt lat="47.08646" lon="-1.45994">
        <ele>-12.99</ele>
        <time>2015-03-07T14:00:00Z</time>
      </trkpt>
      <trkpt lat="47.08655" lon="-1.4597">
        <ele>-12.9</ele>
        <time>2015-03-07T14:00:03Z</time>
      </trkpt>
      <trkpt lat="47.08664" lon="-1.45945">
        <ele>-13.38</ele>
        <time>2015-03-07T14:00:06Z</time>
      </trkpt>
      <trkpt lat="47.08672" lon="-1.4592">
        <ele>-13.39</ele>
        <time>2015-03-07T14:00:09Z</time>
      </trkpt>
      <trkpt lat="47.0868" lon="-1.45895">
        <ele>-13.56</ele>
        <time>2015-03-07T14:00:12Z</time>
      </trkpt>
      <trkpt lat="47.08688" lon="-1.45871">
        <ele>-13.41</ele>
        <time>2015-03-07T14:00:15Z</time>
      </trkpt>
      <trkpt lat="47.08697" lon="-1.45847">
        <ele>-13.35</ele>
        <time>2015-03-07T14:00:18Z</time>
      </trkpt>
      <trkpt lat="47.08707" lon="-1.45816">
        <ele>-13.4</ele>
        <time>2015-03-07T14:00:22Z</time>
      </trkpt>
      <trkpt lat="47.08718" lon="-1.45786">
        <ele>-13.13</ele>
        <time>2015-03-07T14:00:26Z</time>
      </trkpt>
      <trkpt lat="47.08727" lon="-1.45758">
        <ele>-11.89</ele>
        <time>2015-03-07T14:00:30Z</time>
      </trkpt>
      <trkpt lat="47.08736" lon="-1.45733">
        <ele>-10.89</ele>
        <time>2015-03-07T14:00:34Z</time>
      </trkpt>
      <trkpt lat="47.08747" lon="-1.45711">
        <ele>-9.87</ele>
        <time>2015-03-07T14:00:38Z</time>
      </trkpt>
      <trkpt lat="47.0876" lon="-1.45687">
        <ele>-9.61</ele>
        <time>2015-03-07T14:00:43Z</time>
      </trkpt>
      <trkpt lat="47.08774" lon="-1.45665">
        <ele>-9.41</ele>
        <time>2015-03-07T14:00:48Z</time>
      </trkpt>
      <trkpt lat="47.08788" lon="-1.45644">
        <ele>-9.18</ele>
        <time>2015-03-07T14:00:53Z</time>
      </trkpt>
      <trkpt lat="47.08802" lon="-1.45622">
        <ele>-7.26</ele>
        <time>2015-03-07T14:00:58Z</time>
      </trkpt>
      <trkpt lat="47.08816" lon="-1.45599">
        <ele>-5.86</ele>
        <time>2015-03-07T14:01:03Z</time>
      </trkpt>
      <trkpt lat="47.0883" lon="-1.45577">
        <ele>-4.55</ele>
        <time>2015-03-07T14:01:08Z</time>
      </trkpt>
      <trkpt lat="47.08845" lon="-1.45555">
        <ele>-3.5</ele>
        <time>2015-03-07T14:01:13Z</time>
      </trkpt>
      <trkpt lat="47.08859" lon="-1.45533">
        <ele>-2.85</ele>
        <time>2015-03-07T14:01:18Z</time>
      </trkpt>
      <trkpt lat="47.08873" lon="-1.4551">
        <ele>-2.83</ele>
        <time>2015-03-07T14:01:23Z</time>
      </trkpt>
      <trkpt lat="47.08889" lon="-1.45486">
        <ele>-3.16</ele>
        <time>2015-03-07T14:01:28Z</time>
      </trkpt>
      <trkpt lat="47.08902" lon="-1.45467">
        <ele>-3.2</ele>
        <time>2015-03-07T14:01:32Z</time>
      </trkpt>
      <trkpt lat="47.08915" lon="-1.45448">
        <ele>-3.6</ele>
        <time>2015-03-07T14:01:36Z</time>
      </trkpt>
      <trkpt lat="47.08931" lon="-1.45428">
        <ele>-4.53</ele>
        <time>2015-03-07T14:01:40Z</time>
      </trkpt>
      <trkpt lat="47.08947" lon="-1.45407">
        <ele>-5.48</ele>
        <time>2015-03-07T14:01:44Z</time>
      </trkpt>
      <trkpt lat="47.08966" lon="-1.45387">
        <ele>-6.04</ele>
        <time>2015-03-07T14:01:48Z</time>
      </trkpt>
      <trkpt lat="47.08985" lon="-1.45366">
        <ele>-6.88</ele>
        <time>2015-03-07T14:01:52Z</time>
      </trkpt>
      <trkpt lat="47.09004" lon="-1.45346">
        <ele>-7.19</ele>
        <time>2015-03-07T14:01:56Z</time>
      </trkpt>
      <trkpt lat="47.09023" lon="-1.45325">
        <ele>-6.99</ele>
        <time>2015-03-07T14:02:00Z</time>
      </trkpt>
      <trkpt lat="47.09124" lon="-1.45204">
        <ele>-9.07</ele>
        <time>2015-03-07T14:02:22Z</time>
      </trkpt>
      <trkpt lat="47.09143" lon="-1.45192">
        <ele>-9.41</ele>
        <time>2015-03-07T14:02:28Z</time>
      </trkpt>
      <trkpt lat="47.09161" lon="-1.45178">
        <ele>-9.47</ele>
        <time>2015-03-07T14:02:34Z</time>
      </trkpt>
      <trkpt lat="47.09179" lon="-1.45163">
        <ele>-9.42</ele>
        <time>2015-03-07T14:02:38Z</time>
      </trkpt>
      <trkpt lat="47.09197" lon="-1.45147">
        <ele>-9.36</ele>
        <time>2015-03-07T14:02:42Z</time>
      </trkpt>
      <trkpt lat="47.09217" lon="-1.45132">
        <ele>-9.42</ele>
        <time>2015-03-07T14:02:46Z</time>
      </trkpt>
      <trkpt lat="47.09236" lon="-1.45116">
        <ele>-9.53</ele>
        <time>2015-03-07T14:02:50Z</time>
      </trkpt>
      <trkpt lat="47.09255" lon="-1.451">
        <ele>-9.4</ele>
        <time>2015-03-07T14:02:54Z</time>
      </trkpt>
      <trkpt lat="47.09274" lon="-1.45084">
        <ele>-9.31</ele>
        <time>2015-03-07T14:02:58Z</time>
      </trkpt>
      <trkpt lat="47.09292" lon="-1.45068">
        <ele>-9.12</ele>
        <time>2015-03-07T14:03:02Z</time>
      </trkpt>
      <trkpt lat="47.0931" lon="-1.45053">
        <ele>-8.73</ele>
        <time>2015-03-07T14:03:06Z</time>
      </trkpt>
      <trkpt lat="47.09326" lon="-1.45039">
        <ele>-7.73</ele>
        <time>2015-03-07T14:03:10Z</time>
      </trkpt>
      <trkpt lat="47.09343" lon="-1.45024">
        <ele>-6.45</ele>
        <time>2015-03-07T14:03:14Z</time>
      </trkpt>
      <trkpt lat="47.0936" lon="-1.45009">
        <ele>-5.47</ele>
        <time>2015-03-07T14:03:18Z</time>
      </trkpt>
      <trkpt lat="47.09377" lon="-1.44996">
        <ele>-4.17</ele>
        <time>2015-03-07T14:03:22Z</time>
      </trkpt>
      <trkpt lat="47.09394" lon="-1.44982">
        <ele>-3.54</ele>
        <time>2015-03-07T14:03:26Z</time>
      </trkpt>
      <trkpt lat="47.0941" lon="-1.44966">
        <ele>-2.72</ele>
        <time>2015-03-07T14:03:30Z</time>
      </trkpt>
      <trkpt lat="47.09429" lon="-1.44948">
        <ele>-2.02</ele>
        <time>2015-03-07T14:03:35Z</time>
      </trkpt>
      <trkpt lat="47.09445" lon="-1.44928">
        <ele>-1.81</ele>
        <time>2015-03-07T14:03:40Z</time>
      </trkpt>
      <trkpt lat="47.09461" lon="-1.44908">
        <ele>-0.84</ele>
        <time>2015-03-07T14:03:45Z</time>
      </trkpt>
      <trkpt lat="47.09477" lon="-1.4489">
        <ele>-0.3</ele>
        <time>2015-03-07T14:03:50Z</time>
      </trkpt>
      <trkpt lat="47.09496" lon="-1.44881">
        <ele>0.48</ele>
        <time>2015-03-07T14:03:55Z</time>
      </trkpt>
      <trkpt lat="47.09517" lon="-1.44883">
        <ele>-0.32</ele>
        <time>2015-03-07T14:04:00Z</time>
      </trkpt>
      <trkpt lat="47.09536" lon="-1.44896">
        <ele>-0.08</ele>
        <time>2015-03-07T14:04:05Z</time>
      </trkpt>
      <trkpt lat="47.09552" lon="-1.44916">
        <ele>0.72</ele>
        <time>2015-03-07T14:04:10Z</time>
      </trkpt>
      <trkpt lat="47.0957" lon="-1.44932">
        <ele>0.9</ele>
        <time>2015-03-07T14:04:15Z</time>
      </trkpt>
      <trkpt lat="47.09591" lon="-1.44935">
        <ele>0.58</ele>
        <time>2015-03-07T14:04:20Z</time>
      </trkpt>
      <trkpt lat="47.09612" lon="-1.44929">
        <ele>0.32</ele>
        <time>2015-03-07T14:04:25Z</time>
      </trkpt>
      <trkpt lat="47.09629" lon="-1.44914">
        <ele>-0.02</ele>
        <time>2015-03-07T14:04:30Z</time>
      </trkpt>
      <trkpt lat="47.09643" lon="-1.44893">
        <ele>-0.09</ele>
        <time>2015-03-07T14:04:34Z</time>
      </trkpt>
      <trkpt lat="47.09662" lon="-1.4488">
        <ele>-0.36</ele>
        <time>2015-03-07T14:04:38Z</time>
      </trkpt>
      <trkpt lat="47.09677" lon="-1.44858">
        <ele>-1.05</ele>
        <time>2015-03-07T14:04:42Z</time>
      </trkpt>
      <trkpt lat="47.09687" lon="-1.44828">
        <ele>-1.35</ele>
        <time>2015-03-07T14:04:46Z</time>
      </trkpt>
      <trkpt lat="47.09687" lon="-1.44797">
        <ele>-1.1</ele>
        <time>2015-03-07T14:04:50Z</time>
      </trkpt>
      <trkpt lat="47.09678" lon="-1.4477">
        <ele>-0.7</ele>
        <time>2015-03-07T14:04:54Z</time>
      </trkpt>
      <trkpt lat="47.09665" lon="-1.44747">
        <ele>-0.51</ele>
        <time>2015-03-07T14:04:58Z</time>
      </trkpt>
      <trkpt lat="47.09654" lon="-1.44724">
        <ele>-0.31</ele>
        <time>2015-03-07T14:05:02Z</time>
      </trkpt>
      <trkpt lat="47.09648" lon="-1.44697">
        <ele>49.7</ele>
        <time>2015-03-07T14:05:06Z</time>
      </trkpt>
      <trkpt lat="47.09648" lon="-1.44669">
        <ele>0.52</ele>
        <time>2015-03-07T14:05:10Z</time>
      </trkpt>
      <trkpt lat="47.09655" lon="-1.44641">
        <ele>0.83</ele>
        <time>2015-03-07T14:05:14Z</time>
      </trkpt>
      <trkpt lat="47.09669" lon="-1.44619">
        <ele>1.26</ele>
        <time>2015-03-07T14:05:18Z</time>
      </trkpt>
      <trkpt lat="47.09688" lon="-1.44602">
        <ele>0.92</ele>
        <time>2015-03-07T14:05:22Z</time>
      </trkpt>
      <trkpt lat="47.09709" lon="-1.44587">
        <ele>0.53</ele>
        <time>2015-03-07T14:05:26Z</time>
      </trkpt>
      <trkpt lat="47.09731" lon="-1.44574">
        <ele>-0.28</ele>
        <time>2015-03-07T14:05:30Z</time>
      </trkpt>
      <trkpt lat="47.09748" lon="-1.44565">
        <ele>-0.62</ele>
        <time>2015-03-07T14:05:33Z</time>
      </trkpt>
      <trkpt lat="47.09766" lon="-1.44557">
        <ele>-1.64</ele>
        <time>2015-03-07T14:05:36Z</time>
      </trkpt>
      <trkpt lat="47.09784" lon="-1.44549">
        <ele>-2.2</ele>
        <time>2015-03-07T14:05:39Z</time>
      </trkpt>
      <trkpt lat="47.09802" lon="-1.44542">
        <ele>-2.81</ele>
        <time>2015-03-07T14:05:42Z</time>
      </trkpt>
      <trkpt lat="47.09821" lon="-1.44535">
        <ele>-3.63</ele>
        <time>2015-03-07T14:05:45Z</time>
      </trkpt>
      <trkpt lat="47.09842" lon="-1.44527">
        <ele>-4.56</ele>
        <time>2015-03-07T14:05:48Z</time>
      </trkpt>
      <trkpt lat="47.09863" lon="-1.44518">
        <ele>-5.08</ele>
        <time>2015-03-07T14:05:51Z</time>
      </trkpt>
      <trkpt lat="47.09886" lon="-1.44509">
        <ele>-6.25</ele>
        <time>2015-03-07T14:05:54Z</time>
      </trkpt>
      <trkpt lat="47.09909" lon="-1.445">
        <ele>-7.57</ele>
        <time>2015-03-07T14:05:57Z</time>
      </trkpt>
      <trkpt lat="47.09933" lon="-1.44491">
        <ele>-8.92</ele>
        <time>2015-03-07T14:06:00Z</time>
      </trkpt>
      <trkpt lat="47.09958" lon="-1.44482">
        <ele>-10.51</ele>
        <time>2015-03-07T14:06:03Z</time>
      </trkpt>
      <trkpt lat="47.09983" lon="-1.44472">
        <ele>-12.43</ele>
        <time>2015-03-07T14:06:06Z</time>
      </trkpt>
      <trkpt lat="47.10009" lon="-1.44463">
        <ele>-14.76</ele>
        <time>2015-03-07T14:06:09Z</time>
      </trkpt>
      <trkpt lat="47.10033" lon="-1.44453">
        <ele>-16.58</ele>
        <time>2015-03-07T14:06:12Z</time>
      </trkpt>
      <trkpt lat="47.10058" lon="-1.44444">
        <ele>-18.35</ele>
        <time>2015-03-07T14:06:15Z</time>
      </trkpt>
      <trkpt lat="47.10082" lon="-1.44436">
        <ele>-19.6</ele>
        <time>2015-03-07T14:06:18Z</time>
      </trkpt>
      <trkpt lat="47.10105" lon="-1.44427">
        <ele>-20.11</ele>
        <time>2015-03-07T14:06:21Z</time>
      </trkpt>
      <trkpt lat="47.10125" lon="-1.44416">
        <ele>-20.05</ele>
        <time>2015-03-07T14:06:24Z</time>
      </trkpt>
      <trkpt lat="47.10144" lon="-1.444">
        <ele>-20.62</ele>
        <time>2015-03-07T14:06:27Z</time>
      </trkpt>
      <trkpt lat="47.10161" lon="-1.44381">
        <ele>-21.12</ele>
        <time>2015-03-07T14:06:30Z</time>
      </trkpt>
      <trkpt lat="47.10178" lon="-1.44362">
        <ele>-21.48</ele>
        <time>2015-03-07T14:06:33Z</time>
      </trkpt>
      <trkpt lat="47.10193" lon="-1.44345">
        <ele>-21.81</ele>
        <time>2015-03-07T14:06:36Z</time>
      </trkpt>
      <trkpt lat="47.10208" lon="-1.44328">
        <ele>-21.87</ele>
        <time>2015-03-07T14:06:39Z</time>
      </trkpt>
      <trkpt lat="47.10222" lon="-1.44311">
        <ele>-21.05</ele>
        <time>2015-03-07T14:06:42Z</time>
      </trkpt>
      <trkpt lat="47.10237" lon="-1.44294">
        <ele>-20.31</ele>
        <time>2015-03-07T14:06:45Z</time>
      </trkpt>
      <trkpt lat="47.10251" lon="-1.44276">
        <ele>-20.04</ele>
        <time>2015-03-07T14:06:48Z</time>
      </trkpt>
      <trkpt lat="47.10266" lon="-1.4426">
        <ele>-20.31</ele>
        <time>2015-03-07T14:06:51Z</time>
      </trkpt>
      <trkpt lat="47.10281" lon="-1.44243">
        <ele>-19.93</ele>
        <time>2015-03-07T14:06:54Z</time>
      </trkpt>
      <trkpt lat="47.10297" lon="-1.44231">
        <ele>-20.17</ele>
        <time>2015-03-07T14:06:57Z</time>
      </trkpt>
      <trkpt lat="47.1032" lon="-1.4422">
        <ele>-20.32</ele>
        <time>2015-03-07T14:07:01Z</time>
      </trkpt>
      <trkpt lat="47.10342" lon="-1.4421">
        <ele>-19.67</ele>
        <time>2015-03-07T14:07:05Z</time>
      </trkpt>
      <trkpt lat="47.10364" lon="-1.44199">
        <ele>-18.85</ele>
        <time>2015-03-07T14:07:09Z</time>
      </trkpt>
      <trkpt lat="47.10386" lon="-1.44189">
        <ele>-18.2</ele>
        <time>2015-03-07T14:07:13Z</time>
      </trkpt>
      <trkpt lat="47.10408" lon="-1.44179">
        <ele>-17.61</ele>
        <time>2015-03-07T14:07:17Z</time>
      </trkpt>
      <trkpt lat="47.1043" lon="-1.44169">
        <ele>-16.48</ele>
        <time>2015-03-07T14:07:21Z</time>
      </trkpt>
      <trkpt lat="47.10452" lon="-1.44158">
        <ele>-15.16</ele>
        <time>2015-03-07T14:07:25Z</time>
      </trkpt>
      <trkpt lat="47.10469" lon="-1.44151">
        <ele>-14.93</ele>
        <time>2015-03-07T14:07:28Z</time>
      </trkpt>
      <trkpt lat="47.1049" lon="-1.44139">
        <ele>-15.85</ele>
        <time>2015-03-07T14:07:32Z</time>
      </trkpt>
      <trkpt lat="47.10509" lon="-1.44126">
        <ele>-15.54</ele>
        <time>2015-03-07T14:07:36Z</time>
      </trkpt>
      <trkpt lat="47.10528" lon="-1.44112">
        <ele>-15.6</ele>
        <time>2015-03-07T14:07:40Z</time>
      </trkpt>
      <trkpt lat="47.10546" lon="-1.44097">
        <ele>-16.32</ele>
        <time>2015-03-07T14:07:44Z</time>
      </trkpt>
      <trkpt lat="47.10564" lon="-1.44082">
        <ele>-16.1</ele>
        <time>2015-03-07T14:07:48Z</time>
      </trkpt>
      <trkpt lat="47.10581" lon="-1.44062">
        <ele>-16.19</ele>
        <time>2015-03-07T14:07:52Z</time>
      </trkpt>
      <trkpt lat="47.10599" lon="-1.44046">
        <ele>-15.66</ele>
        <time>2015-03-07T14:07:56Z</time>
      </trkpt>
      <trkpt lat="47.10617" lon="-1.44033">
        <ele>-15.2</ele>
        <time>2015-03-07T14:08:00Z</time>
      </trkpt>
      <trkpt lat="47.10635" lon="-1.44022">
        <ele>-14.21</ele>
        <time>2015-03-07T14:08:04Z</time>
      </trkpt>
      <trkpt lat="47.10653" lon="-1.44011">
        <ele>-12.6</ele>
        <time>2015-03-07T14:08:08Z</time>
      </trkpt>
      <trkpt lat="47.10672" lon="-1.44001">
        <ele>-11.51</ele>
        <time>2015-03-07T14:08:12Z</time>
      </trkpt>
      <trkpt lat="47.10691" lon="-1.43991">
        <ele>-10.26</ele>
        <time>2015-03-07T14:08:16Z</time>
      </trkpt>
      <trkpt lat="47.10708" lon="-1.43979">
        <ele>-9.92</ele>
        <time>2015-03-07T14:08:20Z</time>
      </trkpt>
      <trkpt lat="47.10724" lon="-1.43965">
        <ele>-9.76</ele>
        <time>2015-03-07T14:08:24Z</time>
      </trkpt>
      <trkpt lat="47.1074" lon="-1.43948">
        <ele>-10.24</ele>
        <time>2015-03-07T14:08:28Z</time>
      </trkpt>
      <trkpt lat="47.10757" lon="-1.4393">
        <ele>-10.24</ele>
        <time>2015-03-07T14:08:32Z</time>
      </trkpt>
      <trkpt lat="47.10774" lon="-1.43916">
        <ele>-9.82</ele>
        <time>2015-03-07T14:08:36Z</time>
      </trkpt>
      <trkpt lat="47.1079" lon="-1.43901">
        <ele>-9.51</ele>
        <time>2015-03-07T14:08:40Z</time>
      </trkpt>
      <trkpt lat="47.10806" lon="-1.43888">
        <ele>-10.26</ele>
        <time>2015-03-07T14:08:44Z</time>
      </trkpt>
      <trkpt lat="47.10822" lon="-1.43874">
        <ele>-10.63</ele>
        <time>2015-03-07T14:08:48Z</time>
      </trkpt>
      <trkpt lat="47.10838" lon="-1.43859">
        <ele>-11.66</ele>
        <time>2015-03-07T14:08:52Z</time>
      </trkpt>
      <trkpt lat="47.10855" lon="-1.43844">
        <ele>-11.36</ele>
        <time>2015-03-07T14:08:56Z</time>
      </trkpt>
      <trkpt lat="47.10871" lon="-1.43831">
        <ele>-10.65</ele>
        <time>2015-03-07T14:09:00Z</time>
      </trkpt>
      <trkpt lat="47.10887" lon="-1.43818">
        <ele>-10.1</ele>
        <time>2015-03-07T14:09:04Z</time>
      </trkpt>
      <trkpt lat="47.10902" lon="-1.43803">
        <ele>-9.37</ele>
        <time>2015-03-07T14:09:08Z</time>
      </trkpt>
      <trkpt lat="47.10918" lon="-1.43786">
        <ele>-8.73</ele>
        <time>2015-03-07T14:09:12Z</time>
      </trkpt>
      <trkpt lat="47.10933" lon="-1.43771">
        <ele>-8.89</ele>
        <time>2015-03-07T14:09:16Z</time>
      </trkpt>
      <trkpt lat="47.10952" lon="-1.43751">
        <ele>-8</ele>
        <time>2015-03-07T14:09:21Z</time>
      </trkpt>
      <trkpt lat="47.10966" lon="-1.43736">
        <ele>-7.44</ele>
        <time>2015-03-07T14:09:25Z</time>
      </trkpt>
      <trkpt lat="47.10982" lon="-1.43719">
        <ele>-6.78</ele>
        <time>2015-03-07T14:09:29Z</time>
      </trkpt>
      <trkpt lat="47.10997" lon="-1.43702">
        <ele>-6.44</ele>
        <time>2015-03-07T14:09:33Z</time>
      </trkpt>
      <trkpt lat="47.11013" lon="-1.43684">
        <ele>-6.02</ele>
        <time>2015-03-07T14:09:37Z</time>
      </trkpt>
      <trkpt lat="47.11027" lon="-1.43667">
        <ele>-5.2</ele>
        <time>2015-03-07T14:09:41Z</time>
      </trkpt>
      <trkpt lat="47.11041" lon="-1.43648">
        <ele>-4.78</ele>
        <time>2015-03-07T14:09:45Z</time>
      </trkpt>
      <trkpt lat="47.11054" lon="-1.43629">
        <ele>-4.47</ele>
        <time>2015-03-07T14:09:49Z</time>
      </trkpt>
      <trkpt lat="47.11069" lon="-1.43611">
        <ele>-4.3</ele>
        <time>2015-03-07T14:09:53Z</time>
      </trkpt>
      <trkpt lat="47.11086" lon="-1.43594">
        <ele>-3.69</ele>
        <time>2015-03-07T14:09:57Z</time>
      </trkpt>
      <trkpt lat="47.11101" lon="-1.43578">
        <ele>-2.71</ele>
        <time>2015-03-07T14:10:01Z</time>
      </trkpt>
      <trkpt lat="47.11115" lon="-1.43558">
        <ele>-2.45</ele>
        <time>2015-03-07T14:10:05Z</time>
      </trkpt>
      <trkpt lat="47.11128" lon="-1.43536">
        <ele>-2.15</ele>
        <time>2015-03-07T14:10:09Z</time>
      </trkpt>
      <trkpt lat="47.11141" lon="-1.43514">
        <ele>-2.4</ele>
        <time>2015-03-07T14:10:13Z</time>
      </trkpt>
      <trkpt lat="47.11155" lon="-1.43492">
        <ele>-3.18</ele>
        <time>2015-03-07T14:10:17Z</time>
      </trkpt>
      <trkpt lat="47.11168" lon="-1.4347">
        <ele>-3.97</ele>
        <time>2015-03-07T14:10:21Z</time>
      </trkpt>
      <trkpt lat="47.1118" lon="-1.43447">
        <ele>-4.71</ele>
        <time>2015-03-07T14:10:25Z</time>
      </trkpt>
      <trkpt lat="47.11193" lon="-1.43424">
        <ele>-5.55</ele>
        <time>2015-03-07T14:10:29Z</time>
      </trkpt>
      <trkpt lat="47.11207" lon="-1.434">
        <ele>-6.24</ele>
        <time>2015-03-07T14:10:33Z</time>
      </trkpt>
      <trkpt lat="47.11221" lon="-1.43375">
        <ele>-6.58</ele>
        <time>2015-03-07T14:10:37Z</time>
      </trkpt>
      <trkpt lat="47.11236" lon="-1.43351">
        <ele>-6.97</ele>
        <time>2015-03-07T14:10:41Z</time>
      </trkpt>
      <trkpt lat="47.1125" lon="-1.43328">
        <ele>-7.98</ele>
        <time>2015-03-07T14:10:45Z</time>
      </trkpt>
      <trkpt lat="47.11266" lon="-1.43306">
        <ele>-9.14</ele>
        <time>2015-03-07T14:10:49Z</time>
      </trkpt>
      <trkpt lat="47.11284" lon="-1.43284">
        <ele>-8.94</ele>
        <time>2015-03-07T14:10:53Z</time>
      </trkpt>
      <trkpt lat="47.11303" lon="-1.43262">
        <ele>-8.12</ele>
        <time>2015-03-07T14:10:57Z</time>
      </trkpt>
      <trkpt lat="47.11318" lon="-1.43246">
        <ele>-8.18</ele>
        <time>2015-03-07T14:11:00Z</time>
      </trkpt>
      <trkpt lat="47.11333" lon="-1.43228">
        <ele>-8.36</ele>
        <time>2015-03-07T14:11:03Z</time>
      </trkpt>
      <trkpt lat="47.11347" lon="-1.43211">
        <ele>-8.52</ele>
        <time>2015-03-07T14:11:06Z</time>
      </trkpt>
      <trkpt lat="47.11361" lon="-1.43194">
        <ele>-8.88</ele>
        <time>2015-03-07T14:11:09Z</time>
      </trkpt>
      <trkpt lat="47.11375" lon="-1.43177">
        <ele>-9.26</ele>
        <time>2015-03-07T14:11:12Z</time>
      </trkpt>
      <trkpt lat="47.11389" lon="-1.43159">
        <ele>-9.65</ele>
        <time>2015-03-07T14:11:15Z</time>
      </trkpt>
      <trkpt lat="47.11403" lon="-1.43141">
        <ele>-9.7</ele>
        <time>2015-03-07T14:11:18Z</time>
      </trkpt>
      <trkpt lat="47.11416" lon="-1.43123">
        <ele>-10.05</ele>
        <time>2015-03-07T14:11:21Z</time>
      </trkpt>
      <trkpt lat="47.1143" lon="-1.43105">
        <ele>-10.31</ele>
        <time>2015-03-07T14:11:24Z</time>
      </trkpt>
      <trkpt lat="47.11445" lon="-1.43089">
        <ele>-11.12</ele>
        <time>2015-03-07T14:11:27Z</time>
      </trkpt>
      <trkpt lat="47.11461" lon="-1.43074">
        <ele>-11.63</ele>
        <time>2015-03-07T14:11:30Z</time>
      </trkpt>
      <trkpt lat="47.11478" lon="-1.43058">
        <ele>-12.04</ele>
        <time>2015-03-07T14:11:33Z</time>
      </trkpt>
      <trkpt lat="47.11495" lon="-1.43044">
        <ele>-12.76</ele>
        <time>2015-03-07T14:11:36Z</time>
      </trkpt>
      <trkpt lat="47.11512" lon="-1.43028">
        <ele>-12.83</ele>
        <time>2015-03-07T14:11:39Z</time>
      </trkpt>
      <trkpt lat="47.11529" lon="-1.43012">
        <ele>-13.69</ele>
        <time>2015-03-07T14:11:42Z</time>
      </trkpt>
      <trkpt lat="47.11546" lon="-1.42996">
        <ele>-14.3</ele>
        <time>2015-03-07T14:11:45Z</time>
      </trkpt>
      <trkpt lat="47.11564" lon="-1.4298">
        <ele>-14.7</ele>
        <time>2015-03-07T14:11:48Z</time>
      </trkpt>
      <trkpt lat="47.11582" lon="-1.42963">
        <ele>-15.27</ele>
        <time>2015-03-07T14:11:51Z</time>
      </trkpt>
      <trkpt lat="47.116" lon="-1.42946">
        <ele>-16.31</ele>
        <time>2015-03-07T14:11:54Z</time>
      </trkpt>
      <trkpt lat="47.11618" lon="-1.42926">
        <ele>-17.58</ele>
        <time>2015-03-07T14:11:57Z</time>
      </trkpt>
      <trkpt lat="47.11634" lon="-1.42903">
        <ele>-18.59</ele>
        <time>2015-03-07T14:12:00Z</time>
      </trkpt>
      <trkpt lat="47.11645" lon="-1.42878">
        <ele>-19.46</ele>
        <time>2015-03-07T14:12:03Z</time>
      </trkpt>
      <trkpt lat="47.11655" lon="-1.42854">
        <ele>-20.2</ele>
        <time>2015-03-07T14:12:06Z</time>
      </trkpt>
      <trkpt lat="47.11667" lon="-1.42826">
        <ele>-20.51</ele>
        <time>2015-03-07T14:12:10Z</time>
      </trkpt>
      <trkpt lat="47.11677" lon="-1.42797">
        <ele>-20.06</ele>
        <time>2015-03-07T14:12:14Z</time>
      </trkpt>
      <trkpt lat="47.11683" lon="-1.4277">
        <ele>-18.72</ele>
        <time>2015-03-07T14:12:18Z</time>
      </trkpt>
      <trkpt lat="47.11688" lon="-1.42742">
        <ele>-14.73</ele>
        <time>2015-03-07T14:12:23Z</time>
      </trkpt>
      <trkpt lat="47.11698" lon="-1.42713">
        <ele>-9.65</ele>
        <time>2015-03-07T14:12:29Z</time>
      </trkpt>
      <trkpt lat="47.11714" lon="-1.42696">
        <ele>-3.31</ele>
        <time>2015-03-07T14:12:35Z</time>
      </trkpt>
      <trkpt lat="47.11732" lon="-1.42684">
        <ele>-1.52</ele>
        <time>2015-03-07T14:12:40Z</time>
      </trkpt>
      <trkpt lat="47.11749" lon="-1.42672">
        <ele>-1.37</ele>
        <time>2015-03-07T14:12:45Z</time>
      </trkpt>
      <trkpt lat="47.11768" lon="-1.4266">
        <ele>-1.41</ele>
        <time>2015-03-07T14:12:51Z</time>
      </trkpt>
      <trkpt lat="47.11787" lon="-1.42648">
        <ele>-0.43</ele>
        <time>2015-03-07T14:12:57Z</time>
      </trkpt>
      <trkpt lat="47.11806" lon="-1.42636">
        <ele>-0.14</ele>
        <time>2015-03-07T14:13:03Z</time>
      </trkpt>
      <trkpt lat="47.11823" lon="-1.42628">
        <ele>-1.39</ele>
        <time>2015-03-07T14:13:08Z</time>
      </trkpt>
      <trkpt lat="47.11841" lon="-1.42616">
        <ele>-1.22</ele>
        <time>2015-03-07T14:13:14Z</time>
      </trkpt>
      <trkpt lat="47.11858" lon="-1.42603">
        <ele>-1.16</ele>
        <time>2015-03-07T14:13:20Z</time>
      </trkpt>
      <trkpt lat="47.11874" lon="-1.42588">
        <ele>-1.94</ele>
        <time>2015-03-07T14:13:26Z</time>
      </trkpt>
      <trkpt lat="47.11892" lon="-1.42572">
        <ele>-1.83</ele>
        <time>2015-03-07T14:13:32Z</time>
      </trkpt>
      <trkpt lat="47.1191" lon="-1.42555">
        <ele>-1.83</ele>
        <time>2015-03-07T14:13:38Z</time>
      </trkpt>
      <trkpt lat="47.11925" lon="-1.4254">
        <ele>-0.98</ele>
        <time>2015-03-07T14:13:43Z</time>
      </trkpt>
      <trkpt lat="47.1194" lon="-1.42524">
        <ele>-0.16</ele>
        <time>2015-03-07T14:13:48Z</time>
      </trkpt>
      <trkpt lat="47.11957" lon="-1.42508">
        <ele>0.79</ele>
        <time>2015-03-07T14:13:53Z</time>
      </trkpt>
      <trkpt lat="47.11974" lon="-1.42492">
        <ele>0.89</ele>
        <time>2015-03-07T14:13:58Z</time>
      </trkpt>
      <trkpt lat="47.1199" lon="-1.42476">
        <ele>1.78</ele>
        <time>2015-03-07T14:14:03Z</time>
      </trkpt>
      <trkpt lat="47.12007" lon="-1.42459">
        <ele>1.92</ele>
        <time>2015-03-07T14:14:08Z</time>
      </trkpt>
      <trkpt lat="47.12024" lon="-1.42443">
        <ele>2.11</ele>
        <time>2015-03-07T14:14:13Z</time>
      </trkpt>
      <trkpt lat="47.12041" lon="-1.42426">
        <ele>2.49</ele>
        <time>2015-03-07T14:14:18Z</time>
      </trkpt>
      <trkpt lat="47.12055" lon="-1.42405">
        <ele>3.28</ele>
        <time>2015-03-07T14:14:23Z</time>
      </trkpt>
      <trkpt lat="47.12066" lon="-1.42379">
        <ele>3.8</ele>
        <time>2015-03-07T14:14:27Z</time>
      </trkpt>
      <trkpt lat="47.12076" lon="-1.42349">
        <ele>3.67</ele>
        <time>2015-03-07T14:14:31Z</time>
      </trkpt>
      <trkpt lat="47.12086" lon="-1.42318">
        <ele>2.89</ele>
        <time>2015-03-07T14:14:35Z</time>
      </trkpt>
      <trkpt lat="47.12095" lon="-1.42288">
        <ele>2.54</ele>
        <time>2015-03-07T14:14:39Z</time>
      </trkpt>
      <trkpt lat="47.12105" lon="-1.42257">
        <ele>1.69</ele>
        <time>2015-03-07T14:14:43Z</time>
      </trkpt>
      <trkpt lat="47.12114" lon="-1.42226">
        <ele>1.69</ele>
        <time>2015-03-07T14:14:47Z</time>
      </trkpt>
      <trkpt lat="47.12125" lon="-1.42197">
        <ele>1.55</ele>
        <time>2015-03-07T14:14:51Z</time>
      </trkpt>
      <trkpt lat="47.1214" lon="-1.42176">
        <ele>2.2</ele>
        <time>2015-03-07T14:14:55Z</time>
      </trkpt>
      <trkpt lat="47.12159" lon="-1.42159">
        <ele>2.56</ele>
        <time>2015-03-07T14:14:59Z</time>
      </trkpt>
      <trkpt lat="47.12179" lon="-1.42148">
        <ele>2.87</ele>
        <time>2015-03-07T14:15:03Z</time>
      </trkpt>
      <trkpt lat="47.122" lon="-1.42136">
        <ele>3.21</ele>
        <time>2015-03-07T14:15:07Z</time>
      </trkpt>
      <trkpt lat="47.12221" lon="-1.42124">
        <ele>3.3</ele>
        <time>2015-03-07T14:15:11Z</time>
      </trkpt>
      <trkpt lat="47.12239" lon="-1.42108">
        <ele>3.1</ele>
        <time>2015-03-07T14:15:15Z</time>
      </trkpt>
      <trkpt lat="47.12258" lon="-1.42093">
        <ele>3.37</ele>
        <time>2015-03-07T14:15:19Z</time>
      </trkpt>
      <trkpt lat="47.12276" lon="-1.42077">
        <ele>3.26</ele>
        <time>2015-03-07T14:15:23Z</time>
      </trkpt>
      <trkpt lat="47.12295" lon="-1.42062">
        <ele>2.67</ele>
        <time>2015-03-07T14:15:27Z</time>
      </trkpt>
      <trkpt lat="47.12313" lon="-1.42048">
        <ele>2.93</ele>
        <time>2015-03-07T14:15:31Z</time>
      </trkpt>
      <trkpt lat="47.12331" lon="-1.42045">
        <ele>3.61</ele>
        <time>2015-03-07T14:15:35Z</time>
      </trkpt>
      <trkpt lat="47.12349" lon="-1.42048">
        <ele>3.78</ele>
        <time>2015-03-07T14:15:39Z</time>
      </trkpt>
      <trkpt lat="47.12368" lon="-1.42034">
        <ele>4.59</ele>
        <time>2015-03-07T14:15:43Z</time>
      </trkpt>
      <trkpt lat="47.12386" lon="-1.42018">
        <ele>5.2</ele>
        <time>2015-03-07T14:15:47Z</time>
      </trkpt>
      <trkpt lat="47.12403" lon="-1.41998">
        <ele>5.42</ele>
        <time>2015-03-07T14:15:51Z</time>
      </trkpt>
      <trkpt lat="47.12416" lon="-1.41972">
        <ele>5.58</ele>
        <time>2015-03-07T14:15:55Z</time>
      </trkpt>
      <trkpt lat="47.12428" lon="-1.41951">
        <ele>5.73</ele>
        <time>2015-03-07T14:15:58Z</time>
      </trkpt>
      <trkpt lat="47.12443" lon="-1.4193">
        <ele>5.8</ele>
        <time>2015-03-07T14:16:01Z</time>
      </trkpt>
      <trkpt lat="47.1246" lon="-1.41913">
        <ele>5.84</ele>
        <time>2015-03-07T14:16:04Z</time>
      </trkpt>
      <trkpt lat="47.12475" lon="-1.41899">
        <ele>5.5</ele>
        <time>2015-03-07T14:16:07Z</time>
      </trkpt>
      <trkpt lat="47.12495" lon="-1.41881">
        <ele>5.27</ele>
        <time>2015-03-07T14:16:11Z</time>
      </trkpt>
      <trkpt lat="47.12512" lon="-1.4187">
        <ele>5.56</ele>
        <time>2015-03-07T14:16:14Z</time>
      </trkpt>
      <trkpt lat="47.12532" lon="-1.4186">
        <ele>5.73</ele>
        <time>2015-03-07T14:16:17Z</time>
      </trkpt>
      <trkpt lat="47.12552" lon="-1.4185">
        <ele>5.99</ele>
        <time>2015-03-07T14:16:20Z</time>
      </trkpt>
      <trkpt lat="47.12567" lon="-1.41826">
        <ele>5.56</ele>
        <time>2015-03-07T14:16:23Z</time>
      </trkpt>
      <trkpt lat="47.12574" lon="-1.41793">
        <ele>3.72</ele>
        <time>2015-03-07T14:16:26Z</time>
      </trkpt>
      <trkpt lat="47.12582" lon="-1.4176">
        <ele>1.99</ele>
        <time>2015-03-07T14:16:29Z</time>
      </trkpt>
      <trkpt lat="47.12599" lon="-1.41735">
        <ele>1.11</ele>
        <time>2015-03-07T14:16:32Z</time>
      </trkpt>
      <trkpt lat="47.12622" lon="-1.41725">
        <ele>1.02</ele>
        <time>2015-03-07T14:16:35Z</time>
      </trkpt>
      <trkpt lat="47.12641" lon="-1.41719">
        <ele>0.23</ele>
        <time>2015-03-07T14:16:37Z</time>
      </trkpt>
      <trkpt lat="47.12658" lon="-1.4171">
        <ele>-0.65</ele>
        <time>2015-03-07T14:16:39Z</time>
      </trkpt>
      <trkpt lat="47.12674" lon="-1.41697">
        <ele>-1.59</ele>
        <time>2015-03-07T14:16:41Z</time>
      </trkpt>
      <trkpt lat="47.12691" lon="-1.41683">
        <ele>-2.85</ele>
        <time>2015-03-07T14:16:43Z</time>
      </trkpt>
      <trkpt lat="47.12709" lon="-1.41674">
        <ele>-4.99</ele>
        <time>2015-03-07T14:16:45Z</time>
      </trkpt>
      <trkpt lat="47.12727" lon="-1.4167">
        <ele>-6.78</ele>
        <time>2015-03-07T14:16:47Z</time>
      </trkpt>
      <trkpt lat="47.12746" lon="-1.41669">
        <ele>-9</ele>
        <time>2015-03-07T14:16:49Z</time>
      </trkpt>
      <trkpt lat="47.12764" lon="-1.41661">
        <ele>-11.01</ele>
        <time>2015-03-07T14:16:51Z</time>
      </trkpt>
      <trkpt lat="47.12777" lon="-1.41639">
        <ele>-12.61</ele>
        <time>2015-03-07T14:16:53Z</time>
      </trkpt>
      <trkpt lat="47.1278" lon="-1.41611">
        <ele>-14.01</ele>
        <time>2015-03-07T14:16:55Z</time>
      </trkpt>
      <trkpt lat="47.12765" lon="-1.41591">
        <ele>-15.73</ele>
        <time>2015-03-07T14:16:57Z</time>
      </trkpt>
      <trkpt lat="47.12744" lon="-1.41586">
        <ele>-17.66</ele>
        <time>2015-03-07T14:16:59Z</time>
      </trkpt>
      <trkpt lat="47.12724" lon="-1.41591">
        <ele>-19.45</ele>
        <time>2015-03-07T14:17:01Z</time>
      </trkpt>
      <trkpt lat="47.12704" lon="-1.4159">
        <ele>-21.29</ele>
        <time>2015-03-07T14:17:03Z</time>
      </trkpt>
      <trkpt lat="47.12686" lon="-1.41577">
        <ele>-22.85</ele>
        <time>2015-03-07T14:17:05Z</time>
      </trkpt>
      <trkpt lat="47.12665" lon="-1.41573">
        <ele>-24.42</ele>
        <time>2015-03-07T14:17:07Z</time>
      </trkpt>
      <trkpt lat="47.12646" lon="-1.41582">
        <ele>-25.76</ele>
        <time>2015-03-07T14:17:09Z</time>
      </trkpt>
      <trkpt lat="47.12626" lon="-1.41582">
        <ele>-26.85</ele>
        <time>2015-03-07T14:17:11Z</time>
      </trkpt>
      <trkpt lat="47.12607" lon="-1.41569">
        <ele>-27.97</ele>
        <time>2015-03-07T14:17:13Z</time>
      </trkpt>
      <trkpt lat="47.12593" lon="-1.41547">
        <ele>-29.17</ele>
        <time>2015-03-07T14:17:15Z</time>
      </trkpt>
      <trkpt lat="47.1258" lon="-1.41524">
        <ele>-30.65</ele>
        <time>2015-03-07T14:17:17Z</time>
      </trkpt>
      <trkpt lat="47.12567" lon="-1.41501">
        <ele>-32.19</ele>
        <time>2015-03-07T14:17:19Z</time>
      </trkpt>
      <trkpt lat="47.12552" lon="-1.41472">
        <ele>-34.53</ele>
        <time>2015-03-07T14:17:22Z</time>
      </trkpt>
      <trkpt lat="47.12537" lon="-1.41447">
        <ele>-35.72</ele>
        <time>2015-03-07T14:17:25Z</time>
      </trkpt>
      <trkpt lat="47.12531" lon="-1.41415">
        <ele>-36.4</ele>
        <time>2015-03-07T14:17:29Z</time>
      </trkpt>
      <trkpt lat="47.12542" lon="-1.41392">
        <ele>-36.47</ele>
        <time>2015-03-07T14:17:33Z</time>
      </trkpt>
      <trkpt lat="47.12555" lon="-1.41372">
        <ele>-35.16</ele>
        <time>2015-03-07T14:17:37Z</time>
      </trkpt>
      <trkpt lat="47.12569" lon="-1.41349">
        <ele>-34.56</ele>
        <time>2015-03-07T14:17:42Z</time>
      </trkpt>
      <trkpt lat="47.12581" lon="-1.41328">
        <ele>-32.22</ele>
        <time>2015-03-07T14:17:47Z</time>
      </trkpt>
      <trkpt lat="47.12593" lon="-1.41305">
        <ele>-30.52</ele>
        <time>2015-03-07T14:17:53Z</time>
      </trkpt>
      <trkpt lat="47.12606" lon="-1.41285">
        <ele>-29.47</ele>
        <time>2015-03-07T14:17:59Z</time>
      </trkpt>
      <trkpt lat="47.12624" lon="-1.41273">
        <ele>-25.74</ele>
        <time>2015-03-07T14:18:07Z</time>
      </trkpt>
      <trkpt lat="47.12642" lon="-1.41261">
        <ele>-20.08</ele>
        <time>2015-03-07T14:18:15Z</time>
      </trkpt>
      <trkpt lat="47.12661" lon="-1.41257">
        <ele>-16.42</ele>
        <time>2015-03-07T14:18:22Z</time>
      </trkpt>
      <trkpt lat="47.12678" lon="-1.41247">
        <ele>-13.56</ele>
        <time>2015-03-07T14:18:27Z</time>
      </trkpt>
      <trkpt lat="47.12696" lon="-1.41239">
        <ele>-11.99</ele>
        <time>2015-03-07T14:18:32Z</time>
      </trkpt>
      <trkpt lat="47.12713" lon="-1.41224">
        <ele>-12.88</ele>
        <time>2015-03-07T14:18:39Z</time>
      </trkpt>
      <trkpt lat="47.12729" lon="-1.4121">
        <ele>-13.38</ele>
        <time>2015-03-07T14:18:46Z</time>
      </trkpt>
      <trkpt lat="47.12744" lon="-1.41192">
        <ele>-13.28</ele>
        <time>2015-03-07T14:18:53Z</time>
      </trkpt>
      <trkpt lat="47.12759" lon="-1.41171">
        <ele>-13.4</ele>
        <time>2015-03-07T14:18:59Z</time>
      </trkpt>
      <trkpt lat="47.12769" lon="-1.41149">
        <ele>-14.03</ele>
        <time>2015-03-07T14:19:05Z</time>
      </trkpt>
      <trkpt lat="47.1278" lon="-1.41128">
        <ele>-12.45</ele>
        <time>2015-03-07T14:19:12Z</time>
      </trkpt>
      <trkpt lat="47.12792" lon="-1.41104">
        <ele>-9.59</ele>
        <time>2015-03-07T14:19:20Z</time>
      </trkpt>
      <trkpt lat="47.12803" lon="-1.4108">
        <ele>-6.44</ele>
        <time>2015-03-07T14:19:26Z</time>
      </trkpt>
      <trkpt lat="47.12809" lon="-1.41054">
        <ele>-3.16</ele>
        <time>2015-03-07T14:19:32Z</time>
      </trkpt>
      <trkpt lat="47.12803" lon="-1.41026">
        <ele>-0.62</ele>
        <time>2015-03-07T14:19:39Z</time>
      </trkpt>
      <trkpt lat="47.12794" lon="-1.40998">
        <ele>-0.01</ele>
        <time>2015-03-07T14:19:46Z</time>
      </trkpt>
      <trkpt lat="47.12785" lon="-1.40973">
        <ele>-0.3</ele>
        <time>2015-03-07T14:19:53Z</time>
      </trkpt>
      <trkpt lat="47.12774" lon="-1.40948">
        <ele>0.2</ele>
        <time>2015-03-07T14:20:00Z</time>
      </trkpt>
      <trkpt lat="47.12759" lon="-1.40926">
        <ele>-1.51</ele>
        <time>2015-03-07T14:20:07Z</time>
      </trkpt>
      <trkpt lat="47.1274" lon="-1.40916">
        <ele>-2.02</ele>
        <time>2015-03-07T14:20:13Z</time>
      </trkpt>
      <trkpt lat="47.12719" lon="-1.40911">
        <ele>-2.38</ele>
        <time>2015-03-07T14:20:20Z</time>
      </trkpt>
      <trkpt lat="47.127" lon="-1.40907">
        <ele>-0.97</ele>
        <time>2015-03-07T14:20:27Z</time>
      </trkpt>
      <trkpt lat="47.12681" lon="-1.40902">
        <ele>-0.2</ele>
        <time>2015-03-07T14:20:33Z</time>
      </trkpt>
      <trkpt lat="47.12663" lon="-1.40898">
        <ele>0.72</ele>
        <time>2015-03-07T14:20:39Z</time>
      </trkpt>
      <trkpt lat="47.12642" lon="-1.40894">
        <ele>0.44</ele>
        <time>2015-03-07T14:20:45Z</time>
      </trkpt>
      <trkpt lat="47.12621" lon="-1.40889">
        <ele>0.53</ele>
        <time>2015-03-07T14:20:51Z</time>
      </trkpt>
      <trkpt lat="47.126" lon="-1.40885">
        <ele>0.59</ele>
        <time>2015-03-07T14:20:57Z</time>
      </trkpt>
      <trkpt lat="47.12582" lon="-1.4088">
        <ele>0.96</ele>
        <time>2015-03-07T14:21:02Z</time>
      </trkpt>
      <trkpt lat="47.12561" lon="-1.40876">
        <ele>1.41</ele>
        <time>2015-03-07T14:21:07Z</time>
      </trkpt>
      <trkpt lat="47.12543" lon="-1.40871">
        <ele>1.99</ele>
        <time>2015-03-07T14:21:11Z</time>
      </trkpt>
      <trkpt lat="47.12525" lon="-1.40867">
        <ele>2.35</ele>
        <time>2015-03-07T14:21:15Z</time>
      </trkpt>
      <trkpt lat="47.12506" lon="-1.40863">
        <ele>2.42</ele>
        <time>2015-03-07T14:21:19Z</time>
      </trkpt>
      <trkpt lat="47.12487" lon="-1.40858">
        <ele>2.2</ele>
        <time>2015-03-07T14:21:23Z</time>
      </trkpt>
      <trkpt lat="47.12468" lon="-1.40853">
        <ele>2.18</ele>
        <time>2015-03-07T14:21:27Z</time>
      </trkpt>
      <trkpt lat="47.12449" lon="-1.40843">
        <ele>2.48</ele>
        <time>2015-03-07T14:21:31Z</time>
      </trkpt>
      <trkpt lat="47.12432" lon="-1.40828">
        <ele>2.65</ele>
        <time>2015-03-07T14:21:35Z</time>
      </trkpt>
      <trkpt lat="47.12418" lon="-1.40809">
        <ele>2.97</ele>
        <time>2015-03-07T14:21:39Z</time>
      </trkpt>
      <trkpt lat="47.12405" lon="-1.40788">
        <ele>3.51</ele>
        <time>2015-03-07T14:21:43Z</time>
      </trkpt>
      <trkpt lat="47.12392" lon="-1.40768">
        <ele>4.18</ele>
        <time>2015-03-07T14:21:47Z</time>
      </trkpt>
      <trkpt lat="47.12379" lon="-1.40748">
        <ele>4.59</ele>
        <time>2015-03-07T14:21:51Z</time>
      </trkpt>
      <trkpt lat="47.12367" lon="-1.40728">
        <ele>5.16</ele>
        <time>2015-03-07T14:21:55Z</time>
      </trkpt>
      <trkpt lat="47.12352" lon="-1.4071">
        <ele>5.47</ele>
        <time>2015-03-07T14:21:59Z</time>
      </trkpt>
      <trkpt lat="47.12335" lon="-1.40697">
        <ele>5.47</ele>
        <time>2015-03-07T14:22:03Z</time>
      </trkpt>
      <trkpt lat="47.12316" lon="-1.40689">
        <ele>5.65</ele>
        <time>2015-03-07T14:22:07Z</time>
      </trkpt>
      <trkpt lat="47.12298" lon="-1.4068">
        <ele>5.88</ele>
        <time>2015-03-07T14:22:11Z</time>
      </trkpt>
      <trkpt lat="47.12282" lon="-1.40664">
        <ele>6.54</ele>
        <time>2015-03-07T14:22:15Z</time>
      </trkpt>
      <trkpt lat="47.12272" lon="-1.40639">
        <ele>7.14</ele>
        <time>2015-03-07T14:22:19Z</time>
      </trkpt>
      <trkpt lat="47.12262" lon="-1.40613">
        <ele>7.49</ele>
        <time>2015-03-07T14:22:23Z</time>
      </trkpt>
      <trkpt lat="47.12252" lon="-1.40586">
        <ele>8.26</ele>
        <time>2015-03-07T14:22:27Z</time>
      </trkpt>
      <trkpt lat="47.12242" lon="-1.40559">
        <ele>9.2</ele>
        <time>2015-03-07T14:22:31Z</time>
      </trkpt>
      <trkpt lat="47.12234" lon="-1.4053">
        <ele>9.92</ele>
        <time>2015-03-07T14:22:35Z</time>
      </trkpt>
      <trkpt lat="47.12227" lon="-1.40501">
        <ele>10.05</ele>
        <time>2015-03-07T14:22:39Z</time>
      </trkpt>
      <trkpt lat="47.12221" lon="-1.40472">
        <ele>10.38</ele>
        <time>2015-03-07T14:22:43Z</time>
      </trkpt>
      <trkpt lat="47.12215" lon="-1.40442">
        <ele>10</ele>
        <time>2015-03-07T14:22:47Z</time>
      </trkpt>
      <trkpt lat="47.12209" lon="-1.40413">
        <ele>9.83</ele>
        <time>2015-03-07T14:22:51Z</time>
      </trkpt>
      <trkpt lat="47.12203" lon="-1.40384">
        <ele>9.45</ele>
        <time>2015-03-07T14:22:55Z</time>
      </trkpt>
      <trkpt lat="47.12197" lon="-1.40355">
        <ele>8.95</ele>
        <time>2015-03-07T14:22:59Z</time>
      </trkpt>
      <trkpt lat="47.12192" lon="-1.4033">
        <ele>7.78</ele>
        <time>2015-03-07T14:23:03Z</time>
      </trkpt>
      <trkpt lat="47.1219" lon="-1.40302">
        <ele>7.83</ele>
        <time>2015-03-07T14:23:08Z</time>
      </trkpt>
      <trkpt lat="47.12209" lon="-1.40287">
        <ele>8.4</ele>
        <time>2015-03-07T14:23:12Z</time>
      </trkpt>
      <trkpt lat="47.12229" lon="-1.40278">
        <ele>7.57</ele>
        <time>2015-03-07T14:23:16Z</time>
      </trkpt>
      <trkpt lat="47.12249" lon="-1.40268">
        <ele>7.03</ele>
        <time>2015-03-07T14:23:20Z</time>
      </trkpt>
      <trkpt lat="47.1227" lon="-1.40259">
        <ele>7.21</ele>
        <time>2015-03-07T14:23:24Z</time>
      </trkpt>
      <trkpt lat="47.1229" lon="-1.40249">
        <ele>7.66</ele>
        <time>2015-03-07T14:23:28Z</time>
      </trkpt>
      <trkpt lat="47.12312" lon="-1.40239">
        <ele>8.07</ele>
        <time>2015-03-07T14:23:32Z</time>
      </trkpt>
      <trkpt lat="47.12334" lon="-1.40228">
        <ele>7.12</ele>
        <time>2015-03-07T14:23:36Z</time>
      </trkpt>
      <trkpt lat="47.12351" lon="-1.4022">
        <ele>6.41</ele>
        <time>2015-03-07T14:23:39Z</time>
      </trkpt>
      <trkpt lat="47.12369" lon="-1.40212">
        <ele>5.45</ele>
        <time>2015-03-07T14:23:42Z</time>
      </trkpt>
      <trkpt lat="47.12391" lon="-1.40202">
        <ele>4.81</ele>
        <time>2015-03-07T14:23:46Z</time>
      </trkpt>
      <trkpt lat="47.12409" lon="-1.40194">
        <ele>4.44</ele>
        <time>2015-03-07T14:23:49Z</time>
      </trkpt>
      <trkpt lat="47.12427" lon="-1.40186">
        <ele>3.35</ele>
        <time>2015-03-07T14:23:52Z</time>
      </trkpt>
      <trkpt lat="47.12444" lon="-1.40178">
        <ele>2.87</ele>
        <time>2015-03-07T14:23:55Z</time>
      </trkpt>
      <trkpt lat="47.12462" lon="-1.4017">
        <ele>2.64</ele>
        <time>2015-03-07T14:23:58Z</time>
      </trkpt>
      <trkpt lat="47.1248" lon="-1.40161">
        <ele>2.03</ele>
        <time>2015-03-07T14:24:01Z</time>
      </trkpt>
      <trkpt lat="47.12498" lon="-1.40154">
        <ele>1.26</ele>
        <time>2015-03-07T14:24:04Z</time>
      </trkpt>
      <trkpt lat="47.12516" lon="-1.4015">
        <ele>1.04</ele>
        <time>2015-03-07T14:24:07Z</time>
      </trkpt>
      <trkpt lat="47.12534" lon="-1.4015">
        <ele>0.84</ele>
        <time>2015-03-07T14:24:10Z</time>
      </trkpt>
      <trkpt lat="47.12557" lon="-1.40155">
        <ele>0.46</ele>
        <time>2015-03-07T14:24:14Z</time>
      </trkpt>
      <trkpt lat="47.1258" lon="-1.40161">
        <ele>-1.72</ele>
        <time>2015-03-07T14:24:18Z</time>
      </trkpt>
      <trkpt lat="47.12604" lon="-1.40164">
        <ele>-3.18</ele>
        <time>2015-03-07T14:24:22Z</time>
      </trkpt>
      <trkpt lat="47.12627" lon="-1.40162">
        <ele>-3.78</ele>
        <time>2015-03-07T14:24:26Z</time>
      </trkpt>
      <trkpt lat="47.12645" lon="-1.40159">
        <ele>-4.17</ele>
        <time>2015-03-07T14:24:29Z</time>
      </trkpt>
      <trkpt lat="47.12664" lon="-1.40156">
        <ele>-5</ele>
        <time>2015-03-07T14:24:32Z</time>
      </trkpt>
      <trkpt lat="47.12682" lon="-1.40151">
        <ele>-5.04</ele>
        <time>2015-03-07T14:24:35Z</time>
      </trkpt>
      <trkpt lat="47.12699" lon="-1.40139">
        <ele>-4.82</ele>
        <time>2015-03-07T14:24:38Z</time>
      </trkpt>
      <trkpt lat="47.12715" lon="-1.40125">
        <ele>-4.7</ele>
        <time>2015-03-07T14:24:41Z</time>
      </trkpt>
      <trkpt lat="47.12732" lon="-1.4011">
        <ele>-5.25</ele>
        <time>2015-03-07T14:24:44Z</time>
      </trkpt>
      <trkpt lat="47.12748" lon="-1.40095">
        <ele>-5.78</ele>
        <time>2015-03-07T14:24:47Z</time>
      </trkpt>
      <trkpt lat="47.12767" lon="-1.40076">
        <ele>-5.99</ele>
        <time>2015-03-07T14:24:51Z</time>
      </trkpt>
      <trkpt lat="47.12787" lon="-1.40056">
        <ele>-5.65</ele>
        <time>2015-03-07T14:24:55Z</time>
      </trkpt>
      <trkpt lat="47.12806" lon="-1.40038">
        <ele>-5.97</ele>
        <time>2015-03-07T14:24:59Z</time>
      </trkpt>
      <trkpt lat="47.12825" lon="-1.4002">
        <ele>-6.9</ele>
        <time>2015-03-07T14:25:03Z</time>
      </trkpt>
      <trkpt lat="47.12844" lon="-1.40001">
        <ele>-7.13</ele>
        <time>2015-03-07T14:25:07Z</time>
      </trkpt>
      <trkpt lat="47.12862" lon="-1.39984">
        <ele>-6.05</ele>
        <time>2015-03-07T14:25:11Z</time>
      </trkpt>
      <trkpt lat="47.12881" lon="-1.39968">
        <ele>-5.24</ele>
        <time>2015-03-07T14:25:15Z</time>
      </trkpt>
      <trkpt lat="47.129" lon="-1.39955">
        <ele>-4.85</ele>
        <time>2015-03-07T14:25:19Z</time>
      </trkpt>
      <trkpt lat="47.1292" lon="-1.39945">
        <ele>-5.22</ele>
        <time>2015-03-07T14:25:23Z</time>
      </trkpt>
      <trkpt lat="47.1294" lon="-1.39936">
        <ele>-5.86</ele>
        <time>2015-03-07T14:25:27Z</time>
      </trkpt>
      <trkpt lat="47.1296" lon="-1.39927">
        <ele>-6.6</ele>
        <time>2015-03-07T14:25:31Z</time>
      </trkpt>
      <trkpt lat="47.12978" lon="-1.39916">
        <ele>-6.98</ele>
        <time>2015-03-07T14:25:35Z</time>
      </trkpt>
      <trkpt lat="47.12995" lon="-1.39896">
        <ele>-5.64</ele>
        <time>2015-03-07T14:25:40Z</time>
      </trkpt>
      <trkpt lat="47.13011" lon="-1.3991">
        <ele>-4.32</ele>
        <time>2015-03-07T14:25:44Z</time>
      </trkpt>
      <trkpt lat="47.13025" lon="-1.39936">
        <ele>-4.67</ele>
        <time>2015-03-07T14:25:48Z</time>
      </trkpt>
      <trkpt lat="47.13041" lon="-1.39958">
        <ele>-5.1</ele>
        <time>2015-03-07T14:25:52Z</time>
      </trkpt>
      <trkpt lat="47.1306" lon="-1.39977">
        <ele>-5.88</ele>
        <time>2015-03-07T14:25:56Z</time>
      </trkpt>
      <trkpt lat="47.1308" lon="-1.39991">
        <ele>-6.65</ele>
        <time>2015-03-07T14:26:00Z</time>
      </trkpt>
      <trkpt lat="47.131" lon="-1.40003">
        <ele>-7.23</ele>
        <time>2015-03-07T14:26:04Z</time>
      </trkpt>
      <trkpt lat="47.13121" lon="-1.40013">
        <ele>-7.62</ele>
        <time>2015-03-07T14:26:08Z</time>
      </trkpt>
      <trkpt lat="47.13141" lon="-1.40024">
        <ele>-7.54</ele>
        <time>2015-03-07T14:26:12Z</time>
      </trkpt>
      <trkpt lat="47.13162" lon="-1.40035">
        <ele>-7.83</ele>
        <time>2015-03-07T14:26:16Z</time>
      </trkpt>
      <trkpt lat="47.13182" lon="-1.40045">
        <ele>-7.86</ele>
        <time>2015-03-07T14:26:20Z</time>
      </trkpt>
      <trkpt lat="47.132" lon="-1.40057">
        <ele>-7.78</ele>
        <time>2015-03-07T14:26:24Z</time>
      </trkpt>
      <trkpt lat="47.13219" lon="-1.4007">
        <ele>-7.67</ele>
        <time>2015-03-07T14:26:28Z</time>
      </trkpt>
      <trkpt lat="47.13237" lon="-1.40084">
        <ele>-7.82</ele>
        <time>2015-03-07T14:26:32Z</time>
      </trkpt>
      <trkpt lat="47.13255" lon="-1.401">
        <ele>-7.96</ele>
        <time>2015-03-07T14:26:36Z</time>
      </trkpt>
      <trkpt lat="47.13273" lon="-1.40114">
        <ele>-7.85</ele>
        <time>2015-03-07T14:26:40Z</time>
      </trkpt>
      <trkpt lat="47.1329" lon="-1.40129">
        <ele>-7.64</ele>
        <time>2015-03-07T14:26:44Z</time>
      </trkpt>
      <trkpt lat="47.13308" lon="-1.40143">
        <ele>-7.5</ele>
        <time>2015-03-07T14:26:48Z</time>
      </trkpt>
      <trkpt lat="47.13325" lon="-1.40157">
        <ele>-7.43</ele>
        <time>2015-03-07T14:26:52Z</time>
      </trkpt>
      <trkpt lat="47.13342" lon="-1.40169">
        <ele>-7.33</ele>
        <time>2015-03-07T14:26:56Z</time>
      </trkpt>
      <trkpt lat="47.1336" lon="-1.40177">
        <ele>-7.28</ele>
        <time>2015-03-07T14:27:00Z</time>
      </trkpt>
      <trkpt lat="47.1338" lon="-1.4018">
        <ele>-7.21</ele>
        <time>2015-03-07T14:27:04Z</time>
      </trkpt>
      <trkpt lat="47.13399" lon="-1.40181">
        <ele>-7.24</ele>
        <time>2015-03-07T14:27:08Z</time>
      </trkpt>
      <trkpt lat="47.13419" lon="-1.4018">
        <ele>-7.28</ele>
        <time>2015-03-07T14:27:12Z</time>
      </trkpt>
      <trkpt lat="47.13439" lon="-1.40183">
        <ele>-7.32</ele>
        <time>2015-03-07T14:27:16Z</time>
      </trkpt>
      <trkpt lat="47.13458" lon="-1.40191">
        <ele>-7.35</ele>
        <time>2015-03-07T14:27:20Z</time>
      </trkpt>
      <trkpt lat="47.13476" lon="-1.40199">
        <ele>-7.16</ele>
        <time>2015-03-07T14:27:24Z</time>
      </trkpt>
      <trkpt lat="47.13495" lon="-1.40208">
        <ele>-7.1</ele>
        <time>2015-03-07T14:27:28Z</time>
      </trkpt>
      <trkpt lat="47.13513" lon="-1.40216">
        <ele>-7.14</ele>
        <time>2015-03-07T14:27:32Z</time>
      </trkpt>
      <trkpt lat="47.13532" lon="-1.40225">
        <ele>-7.12</ele>
        <time>2015-03-07T14:27:36Z</time>
      </trkpt>
      <trkpt lat="47.13551" lon="-1.40234">
        <ele>-7.44</ele>
        <time>2015-03-07T14:27:40Z</time>
      </trkpt>
      <trkpt lat="47.1357" lon="-1.40242">
        <ele>-7.57</ele>
        <time>2015-03-07T14:27:44Z</time>
      </trkpt>
      <trkpt lat="47.13588" lon="-1.4025">
        <ele>-7.74</ele>
        <time>2015-03-07T14:27:48Z</time>
      </trkpt>
      <trkpt lat="47.13607" lon="-1.40259">
        <ele>-8.2</ele>
        <time>2015-03-07T14:27:52Z</time>
      </trkpt>
      <trkpt lat="47.13625" lon="-1.40268">
        <ele>-8.32</ele>
        <time>2015-03-07T14:27:56Z</time>
      </trkpt>
      <trkpt lat="47.13644" lon="-1.40276">
        <ele>-8.32</ele>
        <time>2015-03-07T14:28:00Z</time>
      </trkpt>
      <trkpt lat="47.13664" lon="-1.4028">
        <ele>-8.36</ele>
        <time>2015-03-07T14:28:04Z</time>
      </trkpt>
      <trkpt lat="47.13684" lon="-1.4028">
        <ele>-8.14</ele>
        <time>2015-03-07T14:28:08Z</time>
      </trkpt>
      <trkpt lat="47.13704" lon="-1.40277">
        <ele>-8.22</ele>
        <time>2015-03-07T14:28:12Z</time>
      </trkpt>
      <trkpt lat="47.13724" lon="-1.40273">
        <ele>-8.32</ele>
        <time>2015-03-07T14:28:16Z</time>
      </trkpt>
      <trkpt lat="47.13745" lon="-1.40269">
        <ele>-8.51</ele>
        <time>2015-03-07T14:28:20Z</time>
      </trkpt>
      <trkpt lat="47.13765" lon="-1.40265">
        <ele>-8.8</ele>
        <time>2015-03-07T14:28:24Z</time>
      </trkpt>
      <trkpt lat="47.13785" lon="-1.40261">
        <ele>-9.03</ele>
        <time>2015-03-07T14:28:28Z</time>
      </trkpt>
      <trkpt lat="47.13805" lon="-1.40257">
        <ele>-9.07</ele>
        <time>2015-03-07T14:28:32Z</time>
      </trkpt>
      <trkpt lat="47.13825" lon="-1.40254">
        <ele>-8.99</ele>
        <time>2015-03-07T14:28:36Z</time>
      </trkpt>
      <trkpt lat="47.13845" lon="-1.4025">
        <ele>-9.1</ele>
        <time>2015-03-07T14:28:40Z</time>
      </trkpt>
      <trkpt lat="47.13865" lon="-1.40247">
        <ele>-9.17</ele>
        <time>2015-03-07T14:28:44Z</time>
      </trkpt>
      <trkpt lat="47.13886" lon="-1.40243">
        <ele>-9.15</ele>
        <time>2015-03-07T14:28:48Z</time>
      </trkpt>
      <trkpt lat="47.13906" lon="-1.40242">
        <ele>-9.17</ele>
        <time>2015-03-07T14:28:52Z</time>
      </trkpt>
      <trkpt lat="47.13925" lon="-1.40245">
        <ele>-9.18</ele>
        <time>2015-03-07T14:28:56Z</time>
      </trkpt>
      <trkpt lat="47.13944" lon="-1.40251">
        <ele>-9.03</ele>
        <time>2015-03-07T14:29:00Z</time>
      </trkpt>
      <trkpt lat="47.13963" lon="-1.4026">
        <ele>-8.8</ele>
        <time>2015-03-07T14:29:04Z</time>
      </trkpt>
      <trkpt lat="47.13981" lon="-1.4027">
        <ele>-8.41</ele>
        <time>2015-03-07T14:29:08Z</time>
      </trkpt>
      <trkpt lat="47.13998" lon="-1.40284">
        <ele>-8.01</ele>
        <time>2015-03-07T14:29:12Z</time>
      </trkpt>
      <trkpt lat="47.14013" lon="-1.40302">
        <ele>-7.54</ele>
        <time>2015-03-07T14:29:16Z</time>
      </trkpt>
      <trkpt lat="47.14026" lon="-1.40323">
        <ele>-7.57</ele>
        <time>2015-03-07T14:29:20Z</time>
      </trkpt>
      <trkpt lat="47.14038" lon="-1.40346">
        <ele>-7.66</ele>
        <time>2015-03-07T14:29:24Z</time>
      </trkpt>
      <trkpt lat="47.14046" lon="-1.40371">
        <ele>-7.67</ele>
        <time>2015-03-07T14:29:28Z</time>
      </trkpt>
      <trkpt lat="47.14055" lon="-1.40398">
        <ele>-7.81</ele>
        <time>2015-03-07T14:29:32Z</time>
      </trkpt>
      <trkpt lat="47.14063" lon="-1.40425">
        <ele>-7.87</ele>
        <time>2015-03-07T14:29:36Z</time>
      </trkpt>
      <trkpt lat="47.14074" lon="-1.40452">
        <ele>-7.87</ele>
        <time>2015-03-07T14:29:40Z</time>
      </trkpt>
      <trkpt lat="47.14087" lon="-1.40476">
        <ele>-8.11</ele>
        <time>2015-03-07T14:29:44Z</time>
      </trkpt>
      <trkpt lat="47.14102" lon="-1.40498">
        <ele>-8.43</ele>
        <time>2015-03-07T14:29:48Z</time>
      </trkpt>
      <trkpt lat="47.14117" lon="-1.40518">
        <ele>-8.64</ele>
        <time>2015-03-07T14:29:52Z</time>
      </trkpt>
      <trkpt lat="47.14132" lon="-1.4054">
        <ele>-8.9</ele>
        <time>2015-03-07T14:29:56Z</time>
      </trkpt>
      <trkpt lat="47.14147" lon="-1.40561">
        <ele>-8.97</ele>
        <time>2015-03-07T14:30:00Z</time>
      </trkpt>
      <trkpt lat="47.14163" lon="-1.40583">
        <ele>-9.15</ele>
        <time>2015-03-07T14:30:04Z</time>
      </trkpt>
      <trkpt lat="47.14179" lon="-1.40606">
        <ele>-9.59</ele>
        <time>2015-03-07T14:30:08Z</time>
      </trkpt>
      <trkpt lat="47.14194" lon="-1.40628">
        <ele>-9.8</ele>
        <time>2015-03-07T14:30:12Z</time>
      </trkpt>
      <trkpt lat="47.1421" lon="-1.40649">
        <ele>-10.03</ele>
        <time>2015-03-07T14:30:16Z</time>
      </trkpt>
      <trkpt lat="47.14225" lon="-1.40671">
        <ele>-10.29</ele>
        <time>2015-03-07T14:30:20Z</time>
      </trkpt>
      <trkpt lat="47.14239" lon="-1.40693">
        <ele>-10.44</ele>
        <time>2015-03-07T14:30:24Z</time>
      </trkpt>
      <trkpt lat="47.14253" lon="-1.40718">
        <ele>-10.85</ele>
        <time>2015-03-07T14:30:28Z</time>
      </trkpt>
      <trkpt lat="47.14266" lon="-1.40743">
        <ele>-11.09</ele>
        <time>2015-03-07T14:30:32Z</time>
      </trkpt>
      <trkpt lat="47.1428" lon="-1.40769">
        <ele>-11.48</ele>
        <time>2015-03-07T14:30:36Z</time>
      </trkpt>
      <trkpt lat="47.14294" lon="-1.40794">
        <ele>-11.79</ele>
        <time>2015-03-07T14:30:40Z</time>
      </trkpt>
      <trkpt lat="47.14308" lon="-1.40819">
        <ele>-11.71</ele>
        <time>2015-03-07T14:30:44Z</time>
      </trkpt>
      <trkpt lat="47.14321" lon="-1.40842">
        <ele>-11.98</ele>
        <time>2015-03-07T14:30:48Z</time>
      </trkpt>
      <trkpt lat="47.14333" lon="-1.40864">
        <ele>-11.94</ele>
        <time>2015-03-07T14:30:52Z</time>
      </trkpt>
      <trkpt lat="47.14345" lon="-1.40887">
        <ele>-12.28</ele>
        <time>2015-03-07T14:30:56Z</time>
      </trkpt>
      <trkpt lat="47.14357" lon="-1.40908">
        <ele>-12.02</ele>
        <time>2015-03-07T14:31:00Z</time>
      </trkpt>
      <trkpt lat="47.14371" lon="-1.40933">
        <ele>-11</ele>
        <time>2015-03-07T14:31:05Z</time>
      </trkpt>
      <trkpt lat="47.14384" lon="-1.40957">
        <ele>-9.97</ele>
        <time>2015-03-07T14:31:10Z</time>
      </trkpt>
      <trkpt lat="47.14396" lon="-1.40981">
        <ele>-9.1</ele>
        <time>2015-03-07T14:31:15Z</time>
      </trkpt>
      <trkpt lat="47.14405" lon="-1.41009">
        <ele>-8.49</ele>
        <time>2015-03-07T14:31:20Z</time>
      </trkpt>
      <trkpt lat="47.1441" lon="-1.4104">
        <ele>-8.15</ele>
        <time>2015-03-07T14:31:25Z</time>
      </trkpt>
      <trkpt lat="47.14409" lon="-1.41073">
        <ele>-7.9</ele>
        <time>2015-03-07T14:31:30Z</time>
      </trkpt>
      <trkpt lat="47.14407" lon="-1.41105">
        <ele>-7.69</ele>
        <time>2015-03-07T14:31:35Z</time>
      </trkpt>
      <trkpt lat="47.14405" lon="-1.41136">
        <ele>-7.47</ele>
        <time>2015-03-07T14:31:40Z</time>
      </trkpt>
      <trkpt lat="47.14403" lon="-1.41168">
        <ele>-7.51</ele>
        <time>2015-03-07T14:31:45Z</time>
      </trkpt>
      <trkpt lat="47.144" lon="-1.412">
        <ele>-7.12</ele>
        <time>2015-03-07T14:31:50Z</time>
      </trkpt>
      <trkpt lat="47.14399" lon="-1.41227">
        <ele>-6.77</ele>
        <time>2015-03-07T14:31:54Z</time>
      </trkpt>
      <trkpt lat="47.14397" lon="-1.41259">
        <ele>-6.18</ele>
        <time>2015-03-07T14:31:59Z</time>
      </trkpt>
      <trkpt lat="47.14395" lon="-1.41291">
        <ele>-5.76</ele>
        <time>2015-03-07T14:32:04Z</time>
      </trkpt>
      <trkpt lat="47.14394" lon="-1.41323">
        <ele>-5.6</ele>
        <time>2015-03-07T14:32:09Z</time>
      </trkpt>
      <trkpt lat="47.14395" lon="-1.41354">
        <ele>-5.17</ele>
        <time>2015-03-07T14:32:14Z</time>
      </trkpt>
      <trkpt lat="47.14395" lon="-1.41385">
        <ele>-4.76</ele>
        <time>2015-03-07T14:32:19Z</time>
      </trkpt>
      <trkpt lat="47.14395" lon="-1.41417">
        <ele>-4.24</ele>
        <time>2015-03-07T14:32:24Z</time>
      </trkpt>
      <trkpt lat="47.14395" lon="-1.41449">
        <ele>-3.49</ele>
        <time>2015-03-07T14:32:29Z</time>
      </trkpt>
      <trkpt lat="47.14395" lon="-1.41476">
        <ele>-2.97</ele>
        <time>2015-03-07T14:32:33Z</time>
      </trkpt>
      <trkpt lat="47.14396" lon="-1.41502">
        <ele>-2.61</ele>
        <time>2015-03-07T14:32:37Z</time>
      </trkpt>
      <trkpt lat="47.14395" lon="-1.41529">
        <ele>-2.45</ele>
        <time>2015-03-07T14:32:41Z</time>
      </trkpt>
      <trkpt lat="47.14396" lon="-1.41556">
        <ele>-2.34</ele>
        <time>2015-03-07T14:32:45Z</time>
      </trkpt>
      <trkpt lat="47.14396" lon="-1.41588">
        <ele>-2.38</ele>
        <time>2015-03-07T14:32:50Z</time>
      </trkpt>
      <trkpt lat="47.14389" lon="-1.41618">
        <ele>-2.03</ele>
        <time>2015-03-07T14:32:55Z</time>
      </trkpt>
      <trkpt lat="47.14383" lon="-1.41649">
        <ele>-2.65</ele>
        <time>2015-03-07T14:33:00Z</time>
      </trkpt>
      <trkpt lat="47.14386" lon="-1.41677">
        <ele>-3.19</ele>
        <time>2015-03-07T14:33:04Z</time>
      </trkpt>
      <trkpt lat="47.14393" lon="-1.41704">
        <ele>-4.49</ele>
        <time>2015-03-07T14:33:08Z</time>
      </trkpt>
      <trkpt lat="47.14402" lon="-1.41737">
        <ele>-5.61</ele>
        <time>2015-03-07T14:33:12Z</time>
      </trkpt>
      <trkpt lat="47.14407" lon="-1.41765">
        <ele>-5.73</ele>
        <time>2015-03-07T14:33:15Z</time>
      </trkpt>
      <trkpt lat="47.14408" lon="-1.41796">
        <ele>-6.22</ele>
        <time>2015-03-07T14:33:18Z</time>
      </trkpt>
      <trkpt lat="47.14407" lon="-1.41828">
        <ele>-7.63</ele>
        <time>2015-03-07T14:33:21Z</time>
      </trkpt>
      <trkpt lat="47.14412" lon="-1.4186">
        <ele>-9.27</ele>
        <time>2015-03-07T14:33:24Z</time>
      </trkpt>
      <trkpt lat="47.14419" lon="-1.41892">
        <ele>-11.15</ele>
        <time>2015-03-07T14:33:27Z</time>
      </trkpt>
      <trkpt lat="47.14426" lon="-1.41923">
        <ele>-12.18</ele>
        <time>2015-03-07T14:33:30Z</time>
      </trkpt>
      <trkpt lat="47.14433" lon="-1.41954">
        <ele>-12.8</ele>
        <time>2015-03-07T14:33:33Z</time>
      </trkpt>
      <trkpt lat="47.14441" lon="-1.41985">
        <ele>-14.08</ele>
        <time>2015-03-07T14:33:36Z</time>
      </trkpt>
      <trkpt lat="47.14449" lon="-1.42016">
        <ele>-15.51</ele>
        <time>2015-03-07T14:33:39Z</time>
      </trkpt>
      <trkpt lat="47.1446" lon="-1.42048">
        <ele>-17.05</ele>
        <time>2015-03-07T14:33:42Z</time>
      </trkpt>
      <trkpt lat="47.14473" lon="-1.42078">
        <ele>-19.22</ele>
        <time>2015-03-07T14:33:45Z</time>
      </trkpt>
      <trkpt lat="47.14485" lon="-1.42108">
        <ele>-20.88</ele>
        <time>2015-03-07T14:33:48Z</time>
      </trkpt>
      <trkpt lat="47.14498" lon="-1.42138">
        <ele>-21.86</ele>
        <time>2015-03-07T14:33:51Z</time>
      </trkpt>
      <trkpt lat="47.1451" lon="-1.42169">
        <ele>-22.9</ele>
        <time>2015-03-07T14:33:54Z</time>
      </trkpt>
      <trkpt lat="47.14521" lon="-1.42201">
        <ele>-24.1</ele>
        <time>2015-03-07T14:33:57Z</time>
      </trkpt>
      <trkpt lat="47.14531" lon="-1.42232">
        <ele>-24.68</ele>
        <time>2015-03-07T14:34:00Z</time>
      </trkpt>
      <trkpt lat="47.14541" lon="-1.42261">
        <ele>-24.86</ele>
        <time>2015-03-07T14:34:03Z</time>
      </trkpt>
      <trkpt lat="47.14556" lon="-1.4229">
        <ele>-25</ele>
        <time>2015-03-07T14:34:07Z</time>
      </trkpt>
      <trkpt lat="47.1457" lon="-1.42313">
        <ele>-24.8</ele>
        <time>2015-03-07T14:34:10Z</time>
      </trkpt>
      <trkpt lat="47.14587" lon="-1.42333">
        <ele>-24.32</ele>
        <time>2015-03-07T14:34:13Z</time>
      </trkpt>
      <trkpt lat="47.14603" lon="-1.42349">
        <ele>-23.49</ele>
        <time>2015-03-07T14:34:16Z</time>
      </trkpt>
      <trkpt lat="47.14619" lon="-1.42365">
        <ele>-22.9</ele>
        <time>2015-03-07T14:34:19Z</time>
      </trkpt>
      <trkpt lat="47.14634" lon="-1.4238">
        <ele>-22.54</ele>
        <time>2015-03-07T14:34:22Z</time>
      </trkpt>
      <trkpt lat="47.14654" lon="-1.42398">
        <ele>-21.53</ele>
        <time>2015-03-07T14:34:26Z</time>
      </trkpt>
      <trkpt lat="47.14672" lon="-1.42416">
        <ele>-20.42</ele>
        <time>2015-03-07T14:34:30Z</time>
      </trkpt>
      <trkpt lat="47.14688" lon="-1.42432">
        <ele>-19.32</ele>
        <time>2015-03-07T14:34:34Z</time>
      </trkpt>
      <trkpt lat="47.14703" lon="-1.42448">
        <ele>-18.21</ele>
        <time>2015-03-07T14:34:38Z</time>
      </trkpt>
      <trkpt lat="47.14721" lon="-1.42466">
        <ele>-17.14</ele>
        <time>2015-03-07T14:34:43Z</time>
      </trkpt>
      <trkpt lat="47.14739" lon="-1.42483">
        <ele>-16.44</ele>
        <time>2015-03-07T14:34:48Z</time>
      </trkpt>
      <trkpt lat="47.14756" lon="-1.42501">
        <ele>-15.79</ele>
        <time>2015-03-07T14:34:53Z</time>
      </trkpt>
      <trkpt lat="47.14774" lon="-1.42518">
        <ele>-15.2</ele>
        <time>2015-03-07T14:34:58Z</time>
      </trkpt>
      <trkpt lat="47.14791" lon="-1.42536">
        <ele>-14.9</ele>
        <time>2015-03-07T14:35:03Z</time>
      </trkpt>
      <trkpt lat="47.14806" lon="-1.42552">
        <ele>-14.93</ele>
        <time>2015-03-07T14:35:07Z</time>
      </trkpt>
      <trkpt lat="47.14819" lon="-1.4257">
        <ele>-15.18</ele>
        <time>2015-03-07T14:35:11Z</time>
      </trkpt>
      <trkpt lat="47.14833" lon="-1.42588">
        <ele>-15.43</ele>
        <time>2015-03-07T14:35:15Z</time>
      </trkpt>
      <trkpt lat="47.14847" lon="-1.42607">
        <ele>-15.56</ele>
        <time>2015-03-07T14:35:19Z</time>
      </trkpt>
      <trkpt lat="47.14862" lon="-1.42627">
        <ele>-15.9</ele>
        <time>2015-03-07T14:35:23Z</time>
      </trkpt>
      <trkpt lat="47.14878" lon="-1.42649">
        <ele>-16.49</ele>
        <time>2015-03-07T14:35:27Z</time>
      </trkpt>
      <trkpt lat="47.14894" lon="-1.42672">
        <ele>-17.24</ele>
        <time>2015-03-07T14:35:31Z</time>
      </trkpt>
      <trkpt lat="47.14907" lon="-1.42691">
        <ele>-17.92</ele>
        <time>2015-03-07T14:35:34Z</time>
      </trkpt>
      <trkpt lat="47.14919" lon="-1.42711">
        <ele>-18.73</ele>
        <time>2015-03-07T14:35:37Z</time>
      </trkpt>
      <trkpt lat="47.14932" lon="-1.42731">
        <ele>-19.37</ele>
        <time>2015-03-07T14:35:40Z</time>
      </trkpt>
      <trkpt lat="47.14945" lon="-1.42751">
        <ele>-19.9</ele>
        <time>2015-03-07T14:35:43Z</time>
      </trkpt>
      <trkpt lat="47.14958" lon="-1.4277">
        <ele>-20.4</ele>
        <time>2015-03-07T14:35:46Z</time>
      </trkpt>
      <trkpt lat="47.14974" lon="-1.42796">
        <ele>-20.78</ele>
        <time>2015-03-07T14:35:50Z</time>
      </trkpt>
      <trkpt lat="47.1499" lon="-1.42822">
        <ele>-21.25</ele>
        <time>2015-03-07T14:35:54Z</time>
      </trkpt>
      <trkpt lat="47.15003" lon="-1.4284">
        <ele>-21.57</ele>
        <time>2015-03-07T14:35:57Z</time>
      </trkpt>
      <trkpt lat="47.15023" lon="-1.42859">
        <ele>-21.68</ele>
        <time>2015-03-07T14:36:01Z</time>
      </trkpt>
      <trkpt lat="47.15045" lon="-1.42869">
        <ele>-21.62</ele>
        <time>2015-03-07T14:36:05Z</time>
      </trkpt>
      <trkpt lat="47.15067" lon="-1.42875">
        <ele>-21.52</ele>
        <time>2015-03-07T14:36:09Z</time>
      </trkpt>
      <trkpt lat="47.1509" lon="-1.42882">
        <ele>-21.63</ele>
        <time>2015-03-07T14:36:13Z</time>
      </trkpt>
      <trkpt lat="47.15112" lon="-1.42889">
        <ele>-21.99</ele>
        <time>2015-03-07T14:36:17Z</time>
      </trkpt>
      <trkpt lat="47.15129" lon="-1.42897">
        <ele>-22.54</ele>
        <time>2015-03-07T14:36:20Z</time>
      </trkpt>
      <trkpt lat="47.15147" lon="-1.42905">
        <ele>-22.99</ele>
        <time>2015-03-07T14:36:23Z</time>
      </trkpt>
      <trkpt lat="47.15168" lon="-1.42918">
        <ele>-23.04</ele>
        <time>2015-03-07T14:36:27Z</time>
      </trkpt>
      <trkpt lat="47.15185" lon="-1.42929">
        <ele>-23.33</ele>
        <time>2015-03-07T14:36:30Z</time>
      </trkpt>
      <trkpt lat="47.15201" lon="-1.42946">
        <ele>-24.14</ele>
        <time>2015-03-07T14:36:33Z</time>
      </trkpt>
      <trkpt lat="47.15215" lon="-1.42969">
        <ele>-25.51</ele>
        <time>2015-03-07T14:36:36Z</time>
      </trkpt>
      <trkpt lat="47.15229" lon="-1.42995">
        <ele>-26.98</ele>
        <time>2015-03-07T14:36:39Z</time>
      </trkpt>
      <trkpt lat="47.15242" lon="-1.43024">
        <ele>-28.24</ele>
        <time>2015-03-07T14:36:42Z</time>
      </trkpt>
      <trkpt lat="47.15251" lon="-1.43058">
        <ele>-29.66</ele>
        <time>2015-03-07T14:36:45Z</time>
      </trkpt>
      <trkpt lat="47.15256" lon="-1.43095">
        <ele>-31.1</ele>
        <time>2015-03-07T14:36:48Z</time>
      </trkpt>
      <trkpt lat="47.15256" lon="-1.43135">
        <ele>-32.4</ele>
        <time>2015-03-07T14:36:51Z</time>
      </trkpt>
      <trkpt lat="47.15254" lon="-1.43173">
        <ele>-33.24</ele>
        <time>2015-03-07T14:36:54Z</time>
      </trkpt>
      <trkpt lat="47.15253" lon="-1.432">
        <ele>-33.99</ele>
        <time>2015-03-07T14:36:56Z</time>
      </trkpt>
      <trkpt lat="47.15252" lon="-1.43228">
        <ele>-34.8</ele>
        <time>2015-03-07T14:36:58Z</time>
      </trkpt>
      <trkpt lat="47.15251" lon="-1.43255">
        <ele>-35.56</ele>
        <time>2015-03-07T14:37:00Z</time>
      </trkpt>
      <trkpt lat="47.1525" lon="-1.43283">
        <ele>-36.24</ele>
        <time>2015-03-07T14:37:02Z</time>
      </trkpt>
      <trkpt lat="47.15249" lon="-1.43311">
        <ele>-36.97</ele>
        <time>2015-03-07T14:37:04Z</time>
      </trkpt>
      <trkpt lat="47.15249" lon="-1.43338">
        <ele>-37.8</ele>
        <time>2015-03-07T14:37:06Z</time>
      </trkpt>
      <trkpt lat="47.15249" lon="-1.43364">
        <ele>-38.18</ele>
        <time>2015-03-07T14:37:08Z</time>
      </trkpt>
      <trkpt lat="47.15251" lon="-1.43402">
        <ele>-38.61</ele>
        <time>2015-03-07T14:37:11Z</time>
      </trkpt>
      <trkpt lat="47.15255" lon="-1.43436">
        <ele>-38.8</ele>
        <time>2015-03-07T14:37:14Z</time>
      </trkpt>
      <trkpt lat="47.1526" lon="-1.43469">
        <ele>-39.19</ele>
        <time>2015-03-07T14:37:17Z</time>
      </trkpt>
      <trkpt lat="47.15264" lon="-1.43502">
        <ele>-39.61</ele>
        <time>2015-03-07T14:37:20Z</time>
      </trkpt>
      <trkpt lat="47.15266" lon="-1.43534">
        <ele>-40.12</ele>
        <time>2015-03-07T14:37:23Z</time>
      </trkpt>
      <trkpt lat="47.15269" lon="-1.43568">
        <ele>-40.55</ele>
        <time>2015-03-07T14:37:26Z</time>
      </trkpt>
      <trkpt lat="47.15272" lon="-1.43601">
        <ele>-40.78</ele>
        <time>2015-03-07T14:37:29Z</time>
      </trkpt>
      <trkpt lat="47.15274" lon="-1.43634">
        <ele>-40.76</ele>
        <time>2015-03-07T14:37:32Z</time>
      </trkpt>
      <trkpt lat="47.15277" lon="-1.43666">
        <ele>-41.59</ele>
        <time>2015-03-07T14:37:35Z</time>
      </trkpt>
      <trkpt lat="47.15278" lon="-1.437">
        <ele>-42.33</ele>
        <time>2015-03-07T14:37:38Z</time>
      </trkpt>
      <trkpt lat="47.15278" lon="-1.43733">
        <ele>-42.68</ele>
        <time>2015-03-07T14:37:41Z</time>
      </trkpt>
      <trkpt lat="47.15275" lon="-1.43764">
        <ele>-42.79</ele>
        <time>2015-03-07T14:37:44Z</time>
      </trkpt>
      <trkpt lat="47.15272" lon="-1.43795">
        <ele>-43.34</ele>
        <time>2015-03-07T14:37:47Z</time>
      </trkpt>
      <trkpt lat="47.1527" lon="-1.43826">
        <ele>-43.52</ele>
        <time>2015-03-07T14:37:50Z</time>
      </trkpt>
      <trkpt lat="47.15273" lon="-1.43857">
        <ele>-44.04</ele>
        <time>2015-03-07T14:37:53Z</time>
      </trkpt>
      <trkpt lat="47.15281" lon="-1.43886">
        <ele>-45.18</ele>
        <time>2015-03-07T14:37:56Z</time>
      </trkpt>
      <trkpt lat="47.15295" lon="-1.4391">
        <ele>-46.46</ele>
        <time>2015-03-07T14:37:59Z</time>
      </trkpt>
      <trkpt lat="47.1531" lon="-1.43932">
        <ele>-46.77</ele>
        <time>2015-03-07T14:38:02Z</time>
      </trkpt>
      <trkpt lat="47.15327" lon="-1.43955">
        <ele>-45.67</ele>
        <time>2015-03-07T14:38:06Z</time>
      </trkpt>
      <trkpt lat="47.15341" lon="-1.43976">
        <ele>-45.24</ele>
        <time>2015-03-07T14:38:10Z</time>
      </trkpt>
      <trkpt lat="47.15354" lon="-1.43997">
        <ele>-43.43</ele>
        <time>2015-03-07T14:38:14Z</time>
      </trkpt>
      <trkpt lat="47.15367" lon="-1.44019">
        <ele>-42.6</ele>
        <time>2015-03-07T14:38:18Z</time>
      </trkpt>
      <trkpt lat="47.1538" lon="-1.44047">
        <ele>-43.04</ele>
        <time>2015-03-07T14:38:22Z</time>
      </trkpt>
      <trkpt lat="47.15384" lon="-1.4408">
        <ele>-43.2</ele>
        <time>2015-03-07T14:38:26Z</time>
      </trkpt>
      <trkpt lat="47.15381" lon="-1.44112">
        <ele>-43.26</ele>
        <time>2015-03-07T14:38:30Z</time>
      </trkpt>
      <trkpt lat="47.15375" lon="-1.44143">
        <ele>-42.94</ele>
        <time>2015-03-07T14:38:34Z</time>
      </trkpt>
      <trkpt lat="47.1537" lon="-1.44172">
        <ele>-42.8</ele>
        <time>2015-03-07T14:38:38Z</time>
      </trkpt>
      <trkpt lat="47.15368" lon="-1.44206">
        <ele>-42.88</ele>
        <time>2015-03-07T14:38:42Z</time>
      </trkpt>
      <trkpt lat="47.1537" lon="-1.44238">
        <ele>-43.1</ele>
        <time>2015-03-07T14:38:46Z</time>
      </trkpt>
      <trkpt lat="47.15374" lon="-1.4427">
        <ele>-43.48</ele>
        <time>2015-03-07T14:38:50Z</time>
      </trkpt>
      <trkpt lat="47.1538" lon="-1.44299">
        <ele>-43</ele>
        <time>2015-03-07T14:38:54Z</time>
      </trkpt>
      <trkpt lat="47.15391" lon="-1.44325">
        <ele>-42.37</ele>
        <time>2015-03-07T14:38:58Z</time>
      </trkpt>
      <trkpt lat="47.15404" lon="-1.4435">
        <ele>-42.25</ele>
        <time>2015-03-07T14:39:02Z</time>
      </trkpt>
      <trkpt lat="47.15418" lon="-1.44371">
        <ele>-41.44</ele>
        <time>2015-03-07T14:39:06Z</time>
      </trkpt>
      <trkpt lat="47.15434" lon="-1.44387">
        <ele>-40.38</ele>
        <time>2015-03-07T14:39:10Z</time>
      </trkpt>
      <trkpt lat="47.15451" lon="-1.44399">
        <ele>-39.86</ele>
        <time>2015-03-07T14:39:14Z</time>
      </trkpt>
      <trkpt lat="47.15469" lon="-1.44408">
        <ele>-39.09</ele>
        <time>2015-03-07T14:39:18Z</time>
      </trkpt>
      <trkpt lat="47.15486" lon="-1.44414">
        <ele>-38.66</ele>
        <time>2015-03-07T14:39:22Z</time>
      </trkpt>
      <trkpt lat="47.15508" lon="-1.44416">
        <ele>-36.75</ele>
        <time>2015-03-07T14:39:27Z</time>
      </trkpt>
      <trkpt lat="47.15529" lon="-1.44419">
        <ele>-34.64</ele>
        <time>2015-03-07T14:39:32Z</time>
      </trkpt>
      <trkpt lat="47.15551" lon="-1.44421">
        <ele>-33.46</ele>
        <time>2015-03-07T14:39:37Z</time>
      </trkpt>
      <trkpt lat="47.15573" lon="-1.44416">
        <ele>-32.88</ele>
        <time>2015-03-07T14:39:42Z</time>
      </trkpt>
      <trkpt lat="47.15594" lon="-1.44409">
        <ele>-31.08</ele>
        <time>2015-03-07T14:39:47Z</time>
      </trkpt>
      <trkpt lat="47.15616" lon="-1.44399">
        <ele>-27.05</ele>
        <time>2015-03-07T14:39:52Z</time>
      </trkpt>
      <trkpt lat="47.15637" lon="-1.4439">
        <ele>-24.2</ele>
        <time>2015-03-07T14:39:57Z</time>
      </trkpt>
      <trkpt lat="47.15657" lon="-1.44381">
        <ele>-20.83</ele>
        <time>2015-03-07T14:40:02Z</time>
      </trkpt>
      <trkpt lat="47.15677" lon="-1.44371">
        <ele>-17.23</ele>
        <time>2015-03-07T14:40:07Z</time>
      </trkpt>
      <trkpt lat="47.15694" lon="-1.44363">
        <ele>-14.15</ele>
        <time>2015-03-07T14:40:12Z</time>
      </trkpt>
      <trkpt lat="47.15713" lon="-1.44355">
        <ele>-11.11</ele>
        <time>2015-03-07T14:40:17Z</time>
      </trkpt>
      <trkpt lat="47.1573" lon="-1.44346">
        <ele>-9.77</ele>
        <time>2015-03-07T14:40:21Z</time>
      </trkpt>
      <trkpt lat="47.15748" lon="-1.44337">
        <ele>-9.13</ele>
        <time>2015-03-07T14:40:25Z</time>
      </trkpt>
      <trkpt lat="47.15771" lon="-1.44332">
        <ele>-12.13</ele>
        <time>2015-03-07T14:40:29Z</time>
      </trkpt>
      <trkpt lat="47.15791" lon="-1.44329">
        <ele>-14.48</ele>
        <time>2015-03-07T14:40:33Z</time>
      </trkpt>
      <trkpt lat="47.15808" lon="-1.44338">
        <ele>-16.51</ele>
        <time>2015-03-07T14:40:37Z</time>
      </trkpt>
      <trkpt lat="47.15822" lon="-1.44355">
        <ele>-18.49</ele>
        <time>2015-03-07T14:40:41Z</time>
      </trkpt>
      <trkpt lat="47.15835" lon="-1.44381">
        <ele>-19.95</ele>
        <time>2015-03-07T14:40:46Z</time>
      </trkpt>
      <trkpt lat="47.15846" lon="-1.44408">
        <ele>-20.38</ele>
        <time>2015-03-07T14:40:51Z</time>
      </trkpt>
      <trkpt lat="47.15856" lon="-1.44434">
        <ele>-20.95</ele>
        <time>2015-03-07T14:40:56Z</time>
      </trkpt>
      <trkpt lat="47.15866" lon="-1.44458">
        <ele>-21</ele>
        <time>2015-03-07T14:41:01Z</time>
      </trkpt>
      <trkpt lat="47.15876" lon="-1.44484">
        <ele>-20.59</ele>
        <time>2015-03-07T14:41:06Z</time>
      </trkpt>
      <trkpt lat="47.15885" lon="-1.44507">
        <ele>-19.46</ele>
        <time>2015-03-07T14:41:11Z</time>
      </trkpt>
      <trkpt lat="47.15894" lon="-1.4453">
        <ele>-19.6</ele>
        <time>2015-03-07T14:41:16Z</time>
      </trkpt>
      <trkpt lat="47.15903" lon="-1.44553">
        <ele>-20.89</ele>
        <time>2015-03-07T14:41:21Z</time>
      </trkpt>
      <trkpt lat="47.15912" lon="-1.44579">
        <ele>-21.02</ele>
        <time>2015-03-07T14:41:26Z</time>
      </trkpt>
      <trkpt lat="47.15922" lon="-1.44607">
        <ele>-19.79</ele>
        <time>2015-03-07T14:41:32Z</time>
      </trkpt>
      <trkpt lat="47.1593" lon="-1.44634">
        <ele>-18.62</ele>
        <time>2015-03-07T14:41:38Z</time>
      </trkpt>
      <trkpt lat="47.15938" lon="-1.44661">
        <ele>-18.16</ele>
        <time>2015-03-07T14:41:44Z</time>
      </trkpt>
      <trkpt lat="47.15946" lon="-1.4469">
        <ele>-17.49</ele>
        <time>2015-03-07T14:41:50Z</time>
      </trkpt>
      <trkpt lat="47.15955" lon="-1.44719">
        <ele>-17.25</ele>
        <time>2015-03-07T14:41:56Z</time>
      </trkpt>
      <trkpt lat="47.15963" lon="-1.44745">
        <ele>-17.55</ele>
        <time>2015-03-07T14:42:01Z</time>
      </trkpt>
      <trkpt lat="47.15973" lon="-1.44773">
        <ele>-18.07</ele>
        <time>2015-03-07T14:42:06Z</time>
      </trkpt>
      <trkpt lat="47.15981" lon="-1.44797">
        <ele>-18.46</ele>
        <time>2015-03-07T14:42:10Z</time>
      </trkpt>
      <trkpt lat="47.15992" lon="-1.44821">
        <ele>-18.96</ele>
        <time>2015-03-07T14:42:14Z</time>
      </trkpt>
      <trkpt lat="47.16005" lon="-1.44844">
        <ele>-19.23</ele>
        <time>2015-03-07T14:42:18Z</time>
      </trkpt>
      <trkpt lat="47.16019" lon="-1.44864">
        <ele>-19.36</ele>
        <time>2015-03-07T14:42:22Z</time>
      </trkpt>
      <trkpt lat="47.16034" lon="-1.44882">
        <ele>-19.49</ele>
        <time>2015-03-07T14:42:26Z</time>
      </trkpt>
      <trkpt lat="47.16049" lon="-1.44899">
        <ele>-19.41</ele>
        <time>2015-03-07T14:42:30Z</time>
      </trkpt>
      <trkpt lat="47.16064" lon="-1.44917">
        <ele>-19</ele>
        <time>2015-03-07T14:42:34Z</time>
      </trkpt>
      <trkpt lat="47.16078" lon="-1.44935">
        <ele>-18.83</ele>
        <time>2015-03-07T14:42:38Z</time>
      </trkpt>
      <trkpt lat="47.1609" lon="-1.44956">
        <ele>-18.98</ele>
        <time>2015-03-07T14:42:42Z</time>
      </trkpt>
      <trkpt lat="47.16101" lon="-1.4498">
        <ele>-18.87</ele>
        <time>2015-03-07T14:42:46Z</time>
      </trkpt>
      <trkpt lat="47.1611" lon="-1.45005">
        <ele>-18.47</ele>
        <time>2015-03-07T14:42:50Z</time>
      </trkpt>
      <trkpt lat="47.16119" lon="-1.45029">
        <ele>-18.36</ele>
        <time>2015-03-07T14:42:54Z</time>
      </trkpt>
      <trkpt lat="47.16128" lon="-1.45059">
        <ele>-18.44</ele>
        <time>2015-03-07T14:42:59Z</time>
      </trkpt>
      <trkpt lat="47.16135" lon="-1.45087">
        <ele>-17.83</ele>
        <time>2015-03-07T14:43:04Z</time>
      </trkpt>
      <trkpt lat="47.16141" lon="-1.45115">
        <ele>-16.15</ele>
        <time>2015-03-07T14:43:09Z</time>
      </trkpt>
      <trkpt lat="47.16151" lon="-1.45143">
        <ele>-15.32</ele>
        <time>2015-03-07T14:43:14Z</time>
      </trkpt>
      <trkpt lat="47.16168" lon="-1.45163">
        <ele>-14.49</ele>
        <time>2015-03-07T14:43:19Z</time>
      </trkpt>
      <trkpt lat="47.16187" lon="-1.45174">
        <ele>-13.1</ele>
        <time>2015-03-07T14:43:24Z</time>
      </trkpt>
      <trkpt lat="47.16208" lon="-1.45185">
        <ele>-12.28</ele>
        <time>2015-03-07T14:43:29Z</time>
      </trkpt>
      <trkpt lat="47.16226" lon="-1.45196">
        <ele>-12.84</ele>
        <time>2015-03-07T14:43:33Z</time>
      </trkpt>
      <trkpt lat="47.16242" lon="-1.45211">
        <ele>-13.21</ele>
        <time>2015-03-07T14:43:37Z</time>
      </trkpt>
      <trkpt lat="47.16254" lon="-1.45231">
        <ele>-13.06</ele>
        <time>2015-03-07T14:43:41Z</time>
      </trkpt>
      <trkpt lat="47.16264" lon="-1.45256">
        <ele>-13.1</ele>
        <time>2015-03-07T14:43:45Z</time>
      </trkpt>
      <trkpt lat="47.16273" lon="-1.45283">
        <ele>-13.39</ele>
        <time>2015-03-07T14:43:49Z</time>
      </trkpt>
      <trkpt lat="47.16283" lon="-1.45312">
        <ele>-14.03</ele>
        <time>2015-03-07T14:43:53Z</time>
      </trkpt>
      <trkpt lat="47.16291" lon="-1.45338">
        <ele>-14.99</ele>
        <time>2015-03-07T14:43:56Z</time>
      </trkpt>
      <trkpt lat="47.16296" lon="-1.45369">
        <ele>-16.04</ele>
        <time>2015-03-07T14:43:59Z</time>
      </trkpt>
      <trkpt lat="47.16301" lon="-1.45403">
        <ele>-17.66</ele>
        <time>2015-03-07T14:44:02Z</time>
      </trkpt>
      <trkpt lat="47.16312" lon="-1.45436">
        <ele>-18.53</ele>
        <time>2015-03-07T14:44:05Z</time>
      </trkpt>
      <trkpt lat="47.16327" lon="-1.45464">
        <ele>-19.37</ele>
        <time>2015-03-07T14:44:08Z</time>
      </trkpt>
      <trkpt lat="47.16341" lon="-1.45491">
        <ele>-20.24</ele>
        <time>2015-03-07T14:44:11Z</time>
      </trkpt>
      <trkpt lat="47.16356" lon="-1.45516">
        <ele>-20.79</ele>
        <time>2015-03-07T14:44:14Z</time>
      </trkpt>
      <trkpt lat="47.16369" lon="-1.45541">
        <ele>-21.26</ele>
        <time>2015-03-07T14:44:17Z</time>
      </trkpt>
      <trkpt lat="47.16382" lon="-1.45565">
        <ele>-21.66</ele>
        <time>2015-03-07T14:44:20Z</time>
      </trkpt>
      <trkpt lat="47.16393" lon="-1.45589">
        <ele>-22.12</ele>
        <time>2015-03-07T14:44:23Z</time>
      </trkpt>
      <trkpt lat="47.16404" lon="-1.45612">
        <ele>-22.52</ele>
        <time>2015-03-07T14:44:26Z</time>
      </trkpt>
      <trkpt lat="47.16412" lon="-1.45637">
        <ele>-22.54</ele>
        <time>2015-03-07T14:44:29Z</time>
      </trkpt>
      <trkpt lat="47.16419" lon="-1.45663">
        <ele>-22.32</ele>
        <time>2015-03-07T14:44:32Z</time>
      </trkpt>
      <trkpt lat="47.16426" lon="-1.45688">
        <ele>-22.27</ele>
        <time>2015-03-07T14:44:35Z</time>
      </trkpt>
      <trkpt lat="47.16433" lon="-1.4572">
        <ele>-22.1</ele>
        <time>2015-03-07T14:44:39Z</time>
      </trkpt>
      <trkpt lat="47.16441" lon="-1.45752">
        <ele>-21.71</ele>
        <time>2015-03-07T14:44:43Z</time>
      </trkpt>
      <trkpt lat="47.16448" lon="-1.45782">
        <ele>-21.23</ele>
        <time>2015-03-07T14:44:47Z</time>
      </trkpt>
      <trkpt lat="47.16454" lon="-1.45809">
        <ele>-20.36</ele>
        <time>2015-03-07T14:44:51Z</time>
      </trkpt>
      <trkpt lat="47.16462" lon="-1.45836">
        <ele>-19.18</ele>
        <time>2015-03-07T14:44:55Z</time>
      </trkpt>
      <trkpt lat="47.1647" lon="-1.45862">
        <ele>-19.11</ele>
        <time>2015-03-07T14:44:59Z</time>
      </trkpt>
      <trkpt lat="47.16477" lon="-1.45888">
        <ele>-17.91</ele>
        <time>2015-03-07T14:45:03Z</time>
      </trkpt>
      <trkpt lat="47.16484" lon="-1.45914">
        <ele>-16.26</ele>
        <time>2015-03-07T14:45:07Z</time>
      </trkpt>
      <trkpt lat="47.16492" lon="-1.45938">
        <ele>-15.31</ele>
        <time>2015-03-07T14:45:11Z</time>
      </trkpt>
      <trkpt lat="47.165" lon="-1.45962">
        <ele>-14.18</ele>
        <time>2015-03-07T14:45:15Z</time>
      </trkpt>
      <trkpt lat="47.16509" lon="-1.45986">
        <ele>-13.5</ele>
        <time>2015-03-07T14:45:19Z</time>
      </trkpt>
      <trkpt lat="47.1652" lon="-1.46014">
        <ele>-13.51</ele>
        <time>2015-03-07T14:45:24Z</time>
      </trkpt>
      <trkpt lat="47.16536" lon="-1.46035">
        <ele>-13.12</ele>
        <time>2015-03-07T14:45:29Z</time>
      </trkpt>
      <trkpt lat="47.16548" lon="-1.46055">
        <ele>-12.83</ele>
        <time>2015-03-07T14:45:33Z</time>
      </trkpt>
      <trkpt lat="47.16544" lon="-1.46086">
        <ele>-12.99</ele>
        <time>2015-03-07T14:45:38Z</time>
      </trkpt>
      <trkpt lat="47.16524" lon="-1.46097">
        <ele>-13.89</ele>
        <time>2015-03-07T14:45:43Z</time>
      </trkpt>
      <trkpt lat="47.16506" lon="-1.46103">
        <ele>-14.04</ele>
        <time>2015-03-07T14:45:47Z</time>
      </trkpt>
      <trkpt lat="47.16492" lon="-1.46118">
        <ele>-14.18</ele>
        <time>2015-03-07T14:45:51Z</time>
      </trkpt>
      <trkpt lat="47.16477" lon="-1.46134">
        <ele>-14.27</ele>
        <time>2015-03-07T14:45:55Z</time>
      </trkpt>
      <trkpt lat="47.1646" lon="-1.46152">
        <ele>-14.14</ele>
        <time>2015-03-07T14:45:59Z</time>
      </trkpt>
      <trkpt lat="47.16445" lon="-1.46168">
        <ele>-14.22</ele>
        <time>2015-03-07T14:46:03Z</time>
      </trkpt>
      <trkpt lat="47.1643" lon="-1.46184">
        <ele>-13.92</ele>
        <time>2015-03-07T14:46:07Z</time>
      </trkpt>
      <trkpt lat="47.16413" lon="-1.46204">
        <ele>-13.43</ele>
        <time>2015-03-07T14:46:12Z</time>
      </trkpt>
      <trkpt lat="47.16397" lon="-1.46224">
        <ele>-12.69</ele>
        <time>2015-03-07T14:46:17Z</time>
      </trkpt>
      <trkpt lat="47.16381" lon="-1.46247">
        <ele>-12.21</ele>
        <time>2015-03-07T14:46:22Z</time>
      </trkpt>
      <trkpt lat="47.16369" lon="-1.46268">
        <ele>-12.56</ele>
        <time>2015-03-07T14:46:26Z</time>
      </trkpt>
      <trkpt lat="47.16358" lon="-1.46289">
        <ele>-12.9</ele>
        <time>2015-03-07T14:46:30Z</time>
      </trkpt>
      <trkpt lat="47.16347" lon="-1.46312">
        <ele>-13.23</ele>
        <time>2015-03-07T14:46:34Z</time>
      </trkpt>
      <trkpt lat="47.16337" lon="-1.46337">
        <ele>-13.71</ele>
        <time>2015-03-07T14:46:38Z</time>
      </trkpt>
      <trkpt lat="47.16328" lon="-1.46363">
        <ele>-14.02</ele>
        <time>2015-03-07T14:46:42Z</time>
      </trkpt>
      <trkpt lat="47.1632" lon="-1.46392">
        <ele>-14.76</ele>
        <time>2015-03-07T14:46:46Z</time>
      </trkpt>
      <trkpt lat="47.16313" lon="-1.46422">
        <ele>-15.14</ele>
        <time>2015-03-07T14:46:50Z</time>
      </trkpt>
      <trkpt lat="47.16307" lon="-1.46454">
        <ele>-15.41</ele>
        <time>2015-03-07T14:46:54Z</time>
      </trkpt>
      <trkpt lat="47.16302" lon="-1.46487">
        <ele>-16.18</ele>
        <time>2015-03-07T14:46:58Z</time>
      </trkpt>
      <trkpt lat="47.16299" lon="-1.46514">
        <ele>-16.76</ele>
        <time>2015-03-07T14:47:01Z</time>
      </trkpt>
      <trkpt lat="47.16297" lon="-1.46541">
        <ele>-17.37</ele>
        <time>2015-03-07T14:47:04Z</time>
      </trkpt>
      <trkpt lat="47.16293" lon="-1.4657">
        <ele>-18.1</ele>
        <time>2015-03-07T14:47:07Z</time>
      </trkpt>
      <trkpt lat="47.16291" lon="-1.46601">
        <ele>-19.1</ele>
        <time>2015-03-07T14:47:10Z</time>
      </trkpt>
      <trkpt lat="47.16288" lon="-1.46634">
        <ele>-20.12</ele>
        <time>2015-03-07T14:47:13Z</time>
      </trkpt>
      <trkpt lat="47.16284" lon="-1.46668">
        <ele>-21.3</ele>
        <time>2015-03-07T14:47:16Z</time>
      </trkpt>
      <trkpt lat="47.16281" lon="-1.46703">
        <ele>-23.03</ele>
        <time>2015-03-07T14:47:19Z</time>
      </trkpt>
      <trkpt lat="47.16278" lon="-1.46738">
        <ele>-24.14</ele>
        <time>2015-03-07T14:47:22Z</time>
      </trkpt>
      <trkpt lat="47.16276" lon="-1.46773">
        <ele>-25</ele>
        <time>2015-03-07T14:47:25Z</time>
      </trkpt>
      <trkpt lat="47.16279" lon="-1.46805">
        <ele>-25.48</ele>
        <time>2015-03-07T14:47:28Z</time>
      </trkpt>
      <trkpt lat="47.16275" lon="-1.46834">
        <ele>-25.75</ele>
        <time>2015-03-07T14:47:31Z</time>
      </trkpt>
      <trkpt lat="47.16268" lon="-1.46862">
        <ele>-26.17</ele>
        <time>2015-03-07T14:47:34Z</time>
      </trkpt>
      <trkpt lat="47.16265" lon="-1.46893">
        <ele>-26.44</ele>
        <time>2015-03-07T14:47:37Z</time>
      </trkpt>
      <trkpt lat="47.16262" lon="-1.46924">
        <ele>-27.01</ele>
        <time>2015-03-07T14:47:40Z</time>
      </trkpt>
      <trkpt lat="47.16261" lon="-1.46955">
        <ele>-27.53</ele>
        <time>2015-03-07T14:47:43Z</time>
      </trkpt>
      <trkpt lat="47.1626" lon="-1.46985">
        <ele>-28.16</ele>
        <time>2015-03-07T14:47:46Z</time>
      </trkpt>
      <trkpt lat="47.16261" lon="-1.47018">
        <ele>-28.98</ele>
        <time>2015-03-07T14:47:49Z</time>
      </trkpt>
      <trkpt lat="47.16263" lon="-1.47051">
        <ele>-30.04</ele>
        <time>2015-03-07T14:47:52Z</time>
      </trkpt>
      <trkpt lat="47.16267" lon="-1.47085">
        <ele>-31.17</ele>
        <time>2015-03-07T14:47:55Z</time>
      </trkpt>
      <trkpt lat="47.16273" lon="-1.47119">
        <ele>-32.7</ele>
        <time>2015-03-07T14:47:58Z</time>
      </trkpt>
      <trkpt lat="47.16281" lon="-1.47154">
        <ele>-34.2</ele>
        <time>2015-03-07T14:48:01Z</time>
      </trkpt>
      <trkpt lat="47.16291" lon="-1.47189">
        <ele>-36.13</ele>
        <time>2015-03-07T14:48:04Z</time>
      </trkpt>
      <trkpt lat="47.16302" lon="-1.47223">
        <ele>-37.46</ele>
        <time>2015-03-07T14:48:07Z</time>
      </trkpt>
      <trkpt lat="47.16314" lon="-1.47255">
        <ele>-38.37</ele>
        <time>2015-03-07T14:48:10Z</time>
      </trkpt>
      <trkpt lat="47.16325" lon="-1.47286">
        <ele>-39.36</ele>
        <time>2015-03-07T14:48:13Z</time>
      </trkpt>
      <trkpt lat="47.16333" lon="-1.47317">
        <ele>-39.58</ele>
        <time>2015-03-07T14:48:16Z</time>
      </trkpt>
      <trkpt lat="47.16338" lon="-1.47349">
        <ele>-39.96</ele>
        <time>2015-03-07T14:48:19Z</time>
      </trkpt>
      <trkpt lat="47.16335" lon="-1.47382">
        <ele>-40.4</ele>
        <time>2015-03-07T14:48:22Z</time>
      </trkpt>
      <trkpt lat="47.16341" lon="-1.47414">
        <ele>-40.99</ele>
        <time>2015-03-07T14:48:25Z</time>
      </trkpt>
      <trkpt lat="47.16348" lon="-1.47445">
        <ele>-41.43</ele>
        <time>2015-03-07T14:48:28Z</time>
      </trkpt>
      <trkpt lat="47.16355" lon="-1.47475">
        <ele>-41.27</ele>
        <time>2015-03-07T14:48:31Z</time>
      </trkpt>
      <trkpt lat="47.16361" lon="-1.47506">
        <ele>-41.47</ele>
        <time>2015-03-07T14:48:34Z</time>
      </trkpt>
      <trkpt lat="47.16368" lon="-1.47536">
        <ele>-42.07</ele>
        <time>2015-03-07T14:48:37Z</time>
      </trkpt>
      <trkpt lat="47.16374" lon="-1.47565">
        <ele>-42.77</ele>
        <time>2015-03-07T14:48:40Z</time>
      </trkpt>
      <trkpt lat="47.16381" lon="-1.47594">
        <ele>-43.17</ele>
        <time>2015-03-07T14:48:43Z</time>
      </trkpt>
      <trkpt lat="47.16387" lon="-1.47622">
        <ele>-43.12</ele>
        <time>2015-03-07T14:48:46Z</time>
      </trkpt>
      <trkpt lat="47.16393" lon="-1.4765">
        <ele>-43.31</ele>
        <time>2015-03-07T14:48:49Z</time>
      </trkpt>
      <trkpt lat="47.164" lon="-1.47678">
        <ele>-43.49</ele>
        <time>2015-03-07T14:48:52Z</time>
      </trkpt>
      <trkpt lat="47.16405" lon="-1.47706">
        <ele>-43.75</ele>
        <time>2015-03-07T14:48:55Z</time>
      </trkpt>
      <trkpt lat="47.16411" lon="-1.47734">
        <ele>-43.81</ele>
        <time>2015-03-07T14:48:58Z</time>
      </trkpt>
      <trkpt lat="47.16417" lon="-1.47761">
        <ele>-42.87</ele>
        <time>2015-03-07T14:49:01Z</time>
      </trkpt>
      <trkpt lat="47.16423" lon="-1.47789">
        <ele>-42.09</ele>
        <time>2015-03-07T14:49:04Z</time>
      </trkpt>
      <trkpt lat="47.1643" lon="-1.47817">
        <ele>-41.93</ele>
        <time>2015-03-07T14:49:07Z</time>
      </trkpt>
      <trkpt lat="47.16437" lon="-1.47845">
        <ele>-41.89</ele>
        <time>2015-03-07T14:49:10Z</time>
      </trkpt>
      <trkpt lat="47.16443" lon="-1.47873">
        <ele>-41.93</ele>
        <time>2015-03-07T14:49:13Z</time>
      </trkpt>
      <trkpt lat="47.1645" lon="-1.47903">
        <ele>-42.46</ele>
        <time>2015-03-07T14:49:16Z</time>
      </trkpt>
      <trkpt lat="47.16456" lon="-1.47933">
        <ele>-43.15</ele>
        <time>2015-03-07T14:49:19Z</time>
      </trkpt>
      <trkpt lat="47.16462" lon="-1.4796">
        <ele>-43.56</ele>
        <time>2015-03-07T14:49:22Z</time>
      </trkpt>
      <trkpt lat="47.16468" lon="-1.47985">
        <ele>-43.78</ele>
        <time>2015-03-07T14:49:25Z</time>
      </trkpt>
      <trkpt lat="47.16475" lon="-1.48016">
        <ele>-43.57</ele>
        <time>2015-03-07T14:49:29Z</time>
      </trkpt>
      <trkpt lat="47.16481" lon="-1.48044">
        <ele>-43.12</ele>
        <time>2015-03-07T14:49:33Z</time>
      </trkpt>
      <trkpt lat="47.16492" lon="-1.48069">
        <ele>-43.4</ele>
        <time>2015-03-07T14:49:39Z</time>
      </trkpt>
      <trkpt lat="47.16501" lon="-1.48094">
        <ele>-43.24</ele>
        <time>2015-03-07T14:49:43Z</time>
      </trkpt>
      <trkpt lat="47.1651" lon="-1.48125">
        <ele>-43.04</ele>
        <time>2015-03-07T14:49:47Z</time>
      </trkpt>
      <trkpt lat="47.16528" lon="-1.48128">
        <ele>-42.45</ele>
        <time>2015-03-07T14:49:51Z</time>
      </trkpt>
      <trkpt lat="47.16546" lon="-1.48118">
        <ele>-42.12</ele>
        <time>2015-03-07T14:49:58Z</time>
      </trkpt>
      <trkpt lat="47.16567" lon="-1.48104">
        <ele>-42.5</ele>
        <time>2015-03-07T14:50:03Z</time>
      </trkpt>
      <trkpt lat="47.16588" lon="-1.48091">
        <ele>-43.41</ele>
        <time>2015-03-07T14:50:07Z</time>
      </trkpt>
      <trkpt lat="47.16606" lon="-1.48083">
        <ele>-43.54</ele>
        <time>2015-03-07T14:50:12Z</time>
      </trkpt>
      <trkpt lat="47.16621" lon="-1.48067">
        <ele>-42.98</ele>
        <time>2015-03-07T14:50:16Z</time>
      </trkpt>
      <trkpt lat="47.16639" lon="-1.48053">
        <ele>-42.54</ele>
        <time>2015-03-07T14:50:20Z</time>
      </trkpt>
      <trkpt lat="47.16656" lon="-1.4804">
        <ele>-42.53</ele>
        <time>2015-03-07T14:50:24Z</time>
      </trkpt>
      <trkpt lat="47.16675" lon="-1.48027">
        <ele>-43.09</ele>
        <time>2015-03-07T14:50:28Z</time>
      </trkpt>
      <trkpt lat="47.16693" lon="-1.48016">
        <ele>-42.38</ele>
        <time>2015-03-07T14:50:32Z</time>
      </trkpt>
      <trkpt lat="47.16712" lon="-1.48009">
        <ele>-41.66</ele>
        <time>2015-03-07T14:50:36Z</time>
      </trkpt>
      <trkpt lat="47.16732" lon="-1.48005">
        <ele>-41.01</ele>
        <time>2015-03-07T14:50:40Z</time>
      </trkpt>
      <trkpt lat="47.16752" lon="-1.48">
        <ele>-40.58</ele>
        <time>2015-03-07T14:50:44Z</time>
      </trkpt>
      <trkpt lat="47.16771" lon="-1.48001">
        <ele>-41.05</ele>
        <time>2015-03-07T14:50:47Z</time>
      </trkpt>
      <trkpt lat="47.16792" lon="-1.48006">
        <ele>-41.23</ele>
        <time>2015-03-07T14:50:52Z</time>
      </trkpt>
      <trkpt lat="47.16809" lon="-1.48019">
        <ele>-40.98</ele>
        <time>2015-03-07T14:50:57Z</time>
      </trkpt>
      <trkpt lat="47.16824" lon="-1.48046">
        <ele>-42.56</ele>
        <time>2015-03-07T14:51:01Z</time>
      </trkpt>
      <trkpt lat="47.16839" lon="-1.48071">
        <ele>-43.9</ele>
        <time>2015-03-07T14:51:05Z</time>
      </trkpt>
      <trkpt lat="47.16858" lon="-1.4809">
        <ele>-44.45</ele>
        <time>2015-03-07T14:51:09Z</time>
      </trkpt>
      <trkpt lat="47.16875" lon="-1.48115">
        <ele>-45.3</ele>
        <time>2015-03-07T14:51:13Z</time>
      </trkpt>
      <trkpt lat="47.16887" lon="-1.48142">
        <ele>-45.76</ele>
        <time>2015-03-07T14:51:17Z</time>
      </trkpt>
      <trkpt lat="47.16898" lon="-1.48164">
        <ele>-46.14</ele>
        <time>2015-03-07T14:51:21Z</time>
      </trkpt>
      <trkpt lat="47.16912" lon="-1.4819">
        <ele>-46.26</ele>
        <time>2015-03-07T14:51:26Z</time>
      </trkpt>
      <trkpt lat="47.16927" lon="-1.48217">
        <ele>-46.09</ele>
        <time>2015-03-07T14:51:30Z</time>
      </trkpt>
      <trkpt lat="47.16935" lon="-1.48241">
        <ele>-45.74</ele>
        <time>2015-03-07T14:51:33Z</time>
      </trkpt>
      <trkpt lat="47.16942" lon="-1.48272">
        <ele>-44.42</ele>
        <time>2015-03-07T14:51:37Z</time>
      </trkpt>
      <trkpt lat="47.1694" lon="-1.48303">
        <ele>-42.36</ele>
        <time>2015-03-07T14:51:41Z</time>
      </trkpt>
      <trkpt lat="47.16935" lon="-1.48335">
        <ele>-41.37</ele>
        <time>2015-03-07T14:51:45Z</time>
      </trkpt>
      <trkpt lat="47.16924" lon="-1.48364">
        <ele>-40.41</ele>
        <time>2015-03-07T14:51:49Z</time>
      </trkpt>
      <trkpt lat="47.16917" lon="-1.48398">
        <ele>-39.2</ele>
        <time>2015-03-07T14:51:53Z</time>
      </trkpt>
      <trkpt lat="47.16908" lon="-1.48429">
        <ele>-38.96</ele>
        <time>2015-03-07T14:51:57Z</time>
      </trkpt>
      <trkpt lat="47.16905" lon="-1.48457">
        <ele>-42.65</ele>
        <time>2015-03-07T14:52:00Z</time>
      </trkpt>
      <trkpt lat="47.16896" lon="-1.48488">
        <ele>-46.37</ele>
        <time>2015-03-07T14:52:04Z</time>
      </trkpt>
      <trkpt lat="47.16892" lon="-1.48521">
        <ele>-48.53</ele>
        <time>2015-03-07T14:52:08Z</time>
      </trkpt>
      <trkpt lat="47.16888" lon="-1.48552">
        <ele>-48.26</ele>
        <time>2015-03-07T14:52:12Z</time>
      </trkpt>
      <trkpt lat="47.16892" lon="-1.48585">
        <ele>-49.31</ele>
        <time>2015-03-07T14:52:16Z</time>
      </trkpt>
      <trkpt lat="47.16896" lon="-1.48617">
        <ele>-49.78</ele>
        <time>2015-03-07T14:52:20Z</time>
      </trkpt>
      <trkpt lat="47.169" lon="-1.48648">
        <ele>-48.41</ele>
        <time>2015-03-07T14:52:24Z</time>
      </trkpt>
      <trkpt lat="47.16906" lon="-1.48679">
        <ele>-48.03</ele>
        <time>2015-03-07T14:52:28Z</time>
      </trkpt>
      <trkpt lat="47.16914" lon="-1.4871">
        <ele>-47.35</ele>
        <time>2015-03-07T14:52:32Z</time>
      </trkpt>
      <trkpt lat="47.16922" lon="-1.4874">
        <ele>-47.24</ele>
        <time>2015-03-07T14:52:36Z</time>
      </trkpt>
      <trkpt lat="47.16929" lon="-1.4877">
        <ele>-47.32</ele>
        <time>2015-03-07T14:52:40Z</time>
      </trkpt>
      <trkpt lat="47.16934" lon="-1.48801">
        <ele>-46.57</ele>
        <time>2015-03-07T14:52:44Z</time>
      </trkpt>
      <trkpt lat="47.1694" lon="-1.4883">
        <ele>-44.77</ele>
        <time>2015-03-07T14:52:48Z</time>
      </trkpt>
      <trkpt lat="47.16946" lon="-1.4886">
        <ele>-42.84</ele>
        <time>2015-03-07T14:52:52Z</time>
      </trkpt>
      <trkpt lat="47.16954" lon="-1.4889">
        <ele>-41.04</ele>
        <time>2015-03-07T14:52:56Z</time>
      </trkpt>
      <trkpt lat="47.16959" lon="-1.48919">
        <ele>-39.16</ele>
        <time>2015-03-07T14:53:00Z</time>
      </trkpt>
      <trkpt lat="47.16964" lon="-1.48952">
        <ele>-36.94</ele>
        <time>2015-03-07T14:53:04Z</time>
      </trkpt>
      <trkpt lat="47.16971" lon="-1.48983">
        <ele>-35.75</ele>
        <time>2015-03-07T14:53:08Z</time>
      </trkpt>
      <trkpt lat="47.16979" lon="-1.49014">
        <ele>-35.21</ele>
        <time>2015-03-07T14:53:12Z</time>
      </trkpt>
      <trkpt lat="47.16989" lon="-1.49044">
        <ele>-34.5</ele>
        <time>2015-03-07T14:53:16Z</time>
      </trkpt>
      <trkpt lat="47.16997" lon="-1.49075">
        <ele>-33.51</ele>
        <time>2015-03-07T14:53:20Z</time>
      </trkpt>
      <trkpt lat="47.17006" lon="-1.49104">
        <ele>-32.94</ele>
        <time>2015-03-07T14:53:24Z</time>
      </trkpt>
      <trkpt lat="47.17013" lon="-1.49132">
        <ele>-32.37</ele>
        <time>2015-03-07T14:53:28Z</time>
      </trkpt>
      <trkpt lat="47.17022" lon="-1.49161">
        <ele>-31.52</ele>
        <time>2015-03-07T14:53:32Z</time>
      </trkpt>
      <trkpt lat="47.17029" lon="-1.49188">
        <ele>-31.56</ele>
        <time>2015-03-07T14:53:35Z</time>
      </trkpt>
      <trkpt lat="47.17035" lon="-1.49213">
        <ele>-32.1</ele>
        <time>2015-03-07T14:53:38Z</time>
      </trkpt>
      <trkpt lat="47.17043" lon="-1.49243">
        <ele>-32.4</ele>
        <time>2015-03-07T14:53:42Z</time>
      </trkpt>
      <trkpt lat="47.17052" lon="-1.49272">
        <ele>-33.41</ele>
        <time>2015-03-07T14:53:46Z</time>
      </trkpt>
      <trkpt lat="47.17061" lon="-1.49302">
        <ele>-33.63</ele>
        <time>2015-03-07T14:53:50Z</time>
      </trkpt>
      <trkpt lat="47.1707" lon="-1.4933">
        <ele>-34.91</ele>
        <time>2015-03-07T14:53:54Z</time>
      </trkpt>
      <trkpt lat="47.17078" lon="-1.49358">
        <ele>-36.58</ele>
        <time>2015-03-07T14:53:58Z</time>
      </trkpt>
      <trkpt lat="47.17087" lon="-1.49388">
        <ele>-38.78</ele>
        <time>2015-03-07T14:54:03Z</time>
      </trkpt>
      <trkpt lat="47.17098" lon="-1.49418">
        <ele>-39.26</ele>
        <time>2015-03-07T14:54:08Z</time>
      </trkpt>
      <trkpt lat="47.17107" lon="-1.49441">
        <ele>-38.83</ele>
        <time>2015-03-07T14:54:11Z</time>
      </trkpt>
      <trkpt lat="47.17119" lon="-1.49471">
        <ele>-39.35</ele>
        <time>2015-03-07T14:54:15Z</time>
      </trkpt>
      <trkpt lat="47.17126" lon="-1.49502">
        <ele>-40.02</ele>
        <time>2015-03-07T14:54:19Z</time>
      </trkpt>
      <trkpt lat="47.17133" lon="-1.49531">
        <ele>-40.3</ele>
        <time>2015-03-07T14:54:23Z</time>
      </trkpt>
      <trkpt lat="47.17141" lon="-1.49559">
        <ele>-40.04</ele>
        <time>2015-03-07T14:54:27Z</time>
      </trkpt>
      <trkpt lat="47.17147" lon="-1.49589">
        <ele>-39.92</ele>
        <time>2015-03-07T14:54:31Z</time>
      </trkpt>
      <trkpt lat="47.17152" lon="-1.49619">
        <ele>-40.28</ele>
        <time>2015-03-07T14:54:35Z</time>
      </trkpt>
      <trkpt lat="47.17161" lon="-1.4965">
        <ele>-40.67</ele>
        <time>2015-03-07T14:54:39Z</time>
      </trkpt>
      <trkpt lat="47.1717" lon="-1.49678">
        <ele>-40.87</ele>
        <time>2015-03-07T14:54:43Z</time>
      </trkpt>
      <trkpt lat="47.17178" lon="-1.49707">
        <ele>-40.48</ele>
        <time>2015-03-07T14:54:47Z</time>
      </trkpt>
      <trkpt lat="47.17187" lon="-1.49737">
        <ele>-40.4</ele>
        <time>2015-03-07T14:54:51Z</time>
      </trkpt>
      <trkpt lat="47.17196" lon="-1.49766">
        <ele>-40.51</ele>
        <time>2015-03-07T14:54:55Z</time>
      </trkpt>
      <trkpt lat="47.17206" lon="-1.49794">
        <ele>-40.05</ele>
        <time>2015-03-07T14:54:59Z</time>
      </trkpt>
      <trkpt lat="47.17217" lon="-1.49822">
        <ele>-39.26</ele>
        <time>2015-03-07T14:55:03Z</time>
      </trkpt>
      <trkpt lat="47.17225" lon="-1.49847">
        <ele>-39.02</ele>
        <time>2015-03-07T14:55:06Z</time>
      </trkpt>
      <trkpt lat="47.17235" lon="-1.49876">
        <ele>-39.55</ele>
        <time>2015-03-07T14:55:10Z</time>
      </trkpt>
      <trkpt lat="47.17244" lon="-1.49905">
        <ele>-40.52</ele>
        <time>2015-03-07T14:55:14Z</time>
      </trkpt>
      <trkpt lat="47.17254" lon="-1.49934">
        <ele>-41.96</ele>
        <time>2015-03-07T14:55:18Z</time>
      </trkpt>
      <trkpt lat="47.17264" lon="-1.49962">
        <ele>-41.25</ele>
        <time>2015-03-07T14:55:22Z</time>
      </trkpt>
      <trkpt lat="47.17274" lon="-1.4999">
        <ele>-40.96</ele>
        <time>2015-03-07T14:55:26Z</time>
      </trkpt>
      <trkpt lat="47.17286" lon="-1.50015">
        <ele>-40.49</ele>
        <time>2015-03-07T14:55:30Z</time>
      </trkpt>
      <trkpt lat="47.17298" lon="-1.50038">
        <ele>-39.63</ele>
        <time>2015-03-07T14:55:34Z</time>
      </trkpt>
      <trkpt lat="47.17312" lon="-1.50063">
        <ele>-39.7</ele>
        <time>2015-03-07T14:55:38Z</time>
      </trkpt>
      <trkpt lat="47.17324" lon="-1.50089">
        <ele>-39.58</ele>
        <time>2015-03-07T14:55:42Z</time>
      </trkpt>
      <trkpt lat="47.17335" lon="-1.50116">
        <ele>-39.79</ele>
        <time>2015-03-07T14:55:46Z</time>
      </trkpt>
      <trkpt lat="47.17347" lon="-1.50145">
        <ele>-40.44</ele>
        <time>2015-03-07T14:55:50Z</time>
      </trkpt>
      <trkpt lat="47.17358" lon="-1.50171">
        <ele>-40.92</ele>
        <time>2015-03-07T14:55:54Z</time>
      </trkpt>
      <trkpt lat="47.1737" lon="-1.50198">
        <ele>-42.38</ele>
        <time>2015-03-07T14:55:58Z</time>
      </trkpt>
      <trkpt lat="47.17382" lon="-1.50225">
        <ele>-44.45</ele>
        <time>2015-03-07T14:56:02Z</time>
      </trkpt>
      <trkpt lat="47.17393" lon="-1.50252">
        <ele>-44.93</ele>
        <time>2015-03-07T14:56:06Z</time>
      </trkpt>
      <trkpt lat="47.17407" lon="-1.50281">
        <ele>-45.14</ele>
        <time>2015-03-07T14:56:10Z</time>
      </trkpt>
      <trkpt lat="47.17417" lon="-1.50303">
        <ele>-45.22</ele>
        <time>2015-03-07T14:56:13Z</time>
      </trkpt>
      <trkpt lat="47.17427" lon="-1.50325">
        <ele>-45.23</ele>
        <time>2015-03-07T14:56:16Z</time>
      </trkpt>
      <trkpt lat="47.17437" lon="-1.50347">
        <ele>-45.77</ele>
        <time>2015-03-07T14:56:19Z</time>
      </trkpt>
      <trkpt lat="47.17451" lon="-1.50373">
        <ele>-46.1</ele>
        <time>2015-03-07T14:56:23Z</time>
      </trkpt>
      <trkpt lat="47.17464" lon="-1.50399">
        <ele>-45.97</ele>
        <time>2015-03-07T14:56:27Z</time>
      </trkpt>
      <trkpt lat="47.17477" lon="-1.50423">
        <ele>-45.76</ele>
        <time>2015-03-07T14:56:31Z</time>
      </trkpt>
      <trkpt lat="47.1749" lon="-1.50447">
        <ele>-45.22</ele>
        <time>2015-03-07T14:56:35Z</time>
      </trkpt>
      <trkpt lat="47.17502" lon="-1.50471">
        <ele>-44.77</ele>
        <time>2015-03-07T14:56:39Z</time>
      </trkpt>
      <trkpt lat="47.17516" lon="-1.50496">
        <ele>-43.8</ele>
        <time>2015-03-07T14:56:43Z</time>
      </trkpt>
      <trkpt lat="47.17528" lon="-1.5052">
        <ele>-42.91</ele>
        <time>2015-03-07T14:56:47Z</time>
      </trkpt>
      <trkpt lat="47.17541" lon="-1.50545">
        <ele>-42.65</ele>
        <time>2015-03-07T14:56:51Z</time>
      </trkpt>
      <trkpt lat="47.17557" lon="-1.5057">
        <ele>-42.72</ele>
        <time>2015-03-07T14:56:55Z</time>
      </trkpt>
      <trkpt lat="47.17572" lon="-1.50596">
        <ele>-43.01</ele>
        <time>2015-03-07T14:56:59Z</time>
      </trkpt>
      <trkpt lat="47.17585" lon="-1.50619">
        <ele>-43.5</ele>
        <time>2015-03-07T14:57:03Z</time>
      </trkpt>
      <trkpt lat="47.17602" lon="-1.50641">
        <ele>-44.08</ele>
        <time>2015-03-07T14:57:07Z</time>
      </trkpt>
      <trkpt lat="47.1762" lon="-1.50664">
        <ele>-43.41</ele>
        <time>2015-03-07T14:57:11Z</time>
      </trkpt>
      <trkpt lat="47.17638" lon="-1.50686">
        <ele>-43.51</ele>
        <time>2015-03-07T14:57:15Z</time>
      </trkpt>
      <trkpt lat="47.1765" lon="-1.50715">
        <ele>-43.67</ele>
        <time>2015-03-07T14:57:19Z</time>
      </trkpt>
      <trkpt lat="47.17643" lon="-1.50741">
        <ele>-43.11</ele>
        <time>2015-03-07T14:57:23Z</time>
      </trkpt>
      <trkpt lat="47.17632" lon="-1.50766">
        <ele>-42.44</ele>
        <time>2015-03-07T14:57:27Z</time>
      </trkpt>
      <trkpt lat="47.17641" lon="-1.50793">
        <ele>-41.84</ele>
        <time>2015-03-07T14:57:32Z</time>
      </trkpt>
      <trkpt lat="47.17658" lon="-1.50812">
        <ele>-41.08</ele>
        <time>2015-03-07T14:57:37Z</time>
      </trkpt>
      <trkpt lat="47.1768" lon="-1.50811">
        <ele>-41.09</ele>
        <time>2015-03-07T14:57:41Z</time>
      </trkpt>
      <trkpt lat="47.17695" lon="-1.50794">
        <ele>-41.22</ele>
        <time>2015-03-07T14:57:45Z</time>
      </trkpt>
      <trkpt lat="47.17716" lon="-1.50803">
        <ele>-39.06</ele>
        <time>2015-03-07T14:57:50Z</time>
      </trkpt>
      <trkpt lat="47.1773" lon="-1.5082">
        <ele>-38.99</ele>
        <time>2015-03-07T14:57:54Z</time>
      </trkpt>
      <trkpt lat="47.17745" lon="-1.50837">
        <ele>-40.19</ele>
        <time>2015-03-07T14:57:58Z</time>
      </trkpt>
      <trkpt lat="47.17761" lon="-1.50854">
        <ele>-40.85</ele>
        <time>2015-03-07T14:58:02Z</time>
      </trkpt>
      <trkpt lat="47.17779" lon="-1.50873">
        <ele>-41.85</ele>
        <time>2015-03-07T14:58:06Z</time>
      </trkpt>
      <trkpt lat="47.17795" lon="-1.50893">
        <ele>-43.08</ele>
        <time>2015-03-07T14:58:10Z</time>
      </trkpt>
      <trkpt lat="47.17813" lon="-1.50913">
        <ele>-43.64</ele>
        <time>2015-03-07T14:58:14Z</time>
      </trkpt>
      <trkpt lat="47.1783" lon="-1.5093">
        <ele>-44.25</ele>
        <time>2015-03-07T14:58:18Z</time>
      </trkpt>
      <trkpt lat="47.17847" lon="-1.50949">
        <ele>-44.09</ele>
        <time>2015-03-07T14:58:22Z</time>
      </trkpt>
      <trkpt lat="47.17864" lon="-1.5097">
        <ele>-43.85</ele>
        <time>2015-03-07T14:58:26Z</time>
      </trkpt>
      <trkpt lat="47.17879" lon="-1.50992">
        <ele>-43.85</ele>
        <time>2015-03-07T14:58:30Z</time>
      </trkpt>
      <trkpt lat="47.17895" lon="-1.51014">
        <ele>-44.1</ele>
        <time>2015-03-07T14:58:34Z</time>
      </trkpt>
      <trkpt lat="47.17911" lon="-1.51036">
        <ele>-44</ele>
        <time>2015-03-07T14:58:38Z</time>
      </trkpt>
      <trkpt lat="47.17926" lon="-1.51059">
        <ele>-44.33</ele>
        <time>2015-03-07T14:58:42Z</time>
      </trkpt>
      <trkpt lat="47.17943" lon="-1.51082">
        <ele>-43.68</ele>
        <time>2015-03-07T14:58:46Z</time>
      </trkpt>
      <trkpt lat="47.17958" lon="-1.51102">
        <ele>-43.07</ele>
        <time>2015-03-07T14:58:50Z</time>
      </trkpt>
      <trkpt lat="47.17976" lon="-1.51118">
        <ele>-42.8</ele>
        <time>2015-03-07T14:58:54Z</time>
      </trkpt>
      <trkpt lat="47.17994" lon="-1.51131">
        <ele>-43.04</ele>
        <time>2015-03-07T14:58:58Z</time>
      </trkpt>
      <trkpt lat="47.18013" lon="-1.51142">
        <ele>-43.85</ele>
        <time>2015-03-07T14:59:02Z</time>
      </trkpt>
      <trkpt lat="47.18033" lon="-1.51147">
        <ele>-44.24</ele>
        <time>2015-03-07T14:59:06Z</time>
      </trkpt>
      <trkpt lat="47.18054" lon="-1.5115">
        <ele>-44.26</ele>
        <time>2015-03-07T14:59:11Z</time>
      </trkpt>
      <trkpt lat="47.18056" lon="-1.51181">
        <ele>-40.01</ele>
        <time>2015-03-07T14:59:17Z</time>
      </trkpt>
      <trkpt lat="47.18057" lon="-1.51216">
        <ele>-39.71</ele>
        <time>2015-03-07T14:59:21Z</time>
      </trkpt>
      <trkpt lat="47.1806" lon="-1.51243">
        <ele>-39.42</ele>
        <time>2015-03-07T14:59:24Z</time>
      </trkpt>
      <trkpt lat="47.18063" lon="-1.51276">
        <ele>-39.43</ele>
        <time>2015-03-07T14:59:28Z</time>
      </trkpt>
      <trkpt lat="47.18067" lon="-1.51308">
        <ele>-40.07</ele>
        <time>2015-03-07T14:59:32Z</time>
      </trkpt>
      <trkpt lat="47.18073" lon="-1.51337">
        <ele>-40.4</ele>
        <time>2015-03-07T14:59:36Z</time>
      </trkpt>
      <trkpt lat="47.18082" lon="-1.51364">
        <ele>-40.56</ele>
        <time>2015-03-07T14:59:40Z</time>
      </trkpt>
      <trkpt lat="47.18092" lon="-1.51391">
        <ele>-40.9</ele>
        <time>2015-03-07T14:59:44Z</time>
      </trkpt>
      <trkpt lat="47.18102" lon="-1.51413">
        <ele>-41.86</ele>
        <time>2015-03-07T14:59:47Z</time>
      </trkpt>
      <trkpt lat="47.18112" lon="-1.51444">
        <ele>-43.02</ele>
        <time>2015-03-07T14:59:51Z</time>
      </trkpt>
      <trkpt lat="47.18121" lon="-1.51476">
        <ele>-44.35</ele>
        <time>2015-03-07T14:59:55Z</time>
      </trkpt>
      <trkpt lat="47.18128" lon="-1.51508">
        <ele>-45.07</ele>
        <time>2015-03-07T14:59:59Z</time>
      </trkpt>
      <trkpt lat="47.18134" lon="-1.51537">
        <ele>-45.14</ele>
        <time>2015-03-07T15:00:03Z</time>
      </trkpt>
      <trkpt lat="47.18138" lon="-1.51565">
        <ele>-44.37</ele>
        <time>2015-03-07T15:00:07Z</time>
      </trkpt>
      <trkpt lat="47.18142" lon="-1.51595">
        <ele>-43.94</ele>
        <time>2015-03-07T15:00:11Z</time>
      </trkpt>
      <trkpt lat="47.18144" lon="-1.51626">
        <ele>-43.38</ele>
        <time>2015-03-07T15:00:15Z</time>
      </trkpt>
      <trkpt lat="47.18147" lon="-1.51657">
        <ele>-43.01</ele>
        <time>2015-03-07T15:00:19Z</time>
      </trkpt>
      <trkpt lat="47.18151" lon="-1.51689">
        <ele>-42.89</ele>
        <time>2015-03-07T15:00:23Z</time>
      </trkpt>
      <trkpt lat="47.18153" lon="-1.51718">
        <ele>-41.86</ele>
        <time>2015-03-07T15:00:27Z</time>
      </trkpt>
      <trkpt lat="47.1815" lon="-1.5175">
        <ele>-40.88</ele>
        <time>2015-03-07T15:00:32Z</time>
      </trkpt>
      <trkpt lat="47.18135" lon="-1.51773">
        <ele>-38.73</ele>
        <time>2015-03-07T15:00:37Z</time>
      </trkpt>
      <trkpt lat="47.18122" lon="-1.51795">
        <ele>-36.27</ele>
        <time>2015-03-07T15:00:41Z</time>
      </trkpt>
      <trkpt lat="47.18106" lon="-1.51816">
        <ele>-34.69</ele>
        <time>2015-03-07T15:00:45Z</time>
      </trkpt>
      <trkpt lat="47.18101" lon="-1.51847">
        <ele>-34</ele>
        <time>2015-03-07T15:00:49Z</time>
      </trkpt>
      <trkpt lat="47.18106" lon="-1.51873">
        <ele>-34.1</ele>
        <time>2015-03-07T15:00:54Z</time>
      </trkpt>
      <trkpt lat="47.18109" lon="-1.51901">
        <ele>-33.88</ele>
        <time>2015-03-07T15:01:05Z</time>
      </trkpt>
      <trkpt lat="47.18116" lon="-1.51927">
        <ele>-33.78</ele>
        <time>2015-03-07T15:01:09Z</time>
      </trkpt>
      <trkpt lat="47.18117" lon="-1.51961">
        <ele>-32.81</ele>
        <time>2015-03-07T15:01:13Z</time>
      </trkpt>
      <trkpt lat="47.1812" lon="-1.5199">
        <ele>-31.75</ele>
        <time>2015-03-07T15:01:17Z</time>
      </trkpt>
      <trkpt lat="47.1812" lon="-1.52017">
        <ele>-31.33</ele>
        <time>2015-03-07T15:01:20Z</time>
      </trkpt>
      <trkpt lat="47.18124" lon="-1.52049">
        <ele>-31.98</ele>
        <time>2015-03-07T15:01:24Z</time>
      </trkpt>
      <trkpt lat="47.18129" lon="-1.52083">
        <ele>-33.29</ele>
        <time>2015-03-07T15:01:28Z</time>
      </trkpt>
      <trkpt lat="47.1814" lon="-1.52112">
        <ele>-35.7</ele>
        <time>2015-03-07T15:01:32Z</time>
      </trkpt>
      <trkpt lat="47.18153" lon="-1.52137">
        <ele>-37.41</ele>
        <time>2015-03-07T15:01:36Z</time>
      </trkpt>
      <trkpt lat="47.18163" lon="-1.52166">
        <ele>-39.23</ele>
        <time>2015-03-07T15:01:40Z</time>
      </trkpt>
      <trkpt lat="47.1817" lon="-1.52196">
        <ele>-40.86</ele>
        <time>2015-03-07T15:01:44Z</time>
      </trkpt>
      <trkpt lat="47.18178" lon="-1.52222">
        <ele>-42.05</ele>
        <time>2015-03-07T15:01:48Z</time>
      </trkpt>
      <trkpt lat="47.18189" lon="-1.52248">
        <ele>-42.69</ele>
        <time>2015-03-07T15:01:52Z</time>
      </trkpt>
      <trkpt lat="47.18191" lon="-1.52278">
        <ele>-43.11</ele>
        <time>2015-03-07T15:01:56Z</time>
      </trkpt>
      <trkpt lat="47.1819" lon="-1.52308">
        <ele>-43.98</ele>
        <time>2015-03-07T15:02:00Z</time>
      </trkpt>
      <trkpt lat="47.18185" lon="-1.52336">
        <ele>-44.68</ele>
        <time>2015-03-07T15:02:04Z</time>
      </trkpt>
      <trkpt lat="47.18182" lon="-1.52369">
        <ele>-44.71</ele>
        <time>2015-03-07T15:02:09Z</time>
      </trkpt>
      <trkpt lat="47.18185" lon="-1.52397">
        <ele>-44.88</ele>
        <time>2015-03-07T15:02:13Z</time>
      </trkpt>
      <trkpt lat="47.18196" lon="-1.52423">
        <ele>-43.84</ele>
        <time>2015-03-07T15:02:18Z</time>
      </trkpt>
      <trkpt lat="47.182" lon="-1.5245">
        <ele>-42.49</ele>
        <time>2015-03-07T15:02:23Z</time>
      </trkpt>
      <trkpt lat="47.18198" lon="-1.52478">
        <ele>-41</ele>
        <time>2015-03-07T15:02:27Z</time>
      </trkpt>
      <trkpt lat="47.18199" lon="-1.52507">
        <ele>-39.73</ele>
        <time>2015-03-07T15:02:31Z</time>
      </trkpt>
      <trkpt lat="47.18208" lon="-1.52537">
        <ele>-39.03</ele>
        <time>2015-03-07T15:02:35Z</time>
      </trkpt>
      <trkpt lat="47.18216" lon="-1.52568">
        <ele>-38.17</ele>
        <time>2015-03-07T15:02:39Z</time>
      </trkpt>
      <trkpt lat="47.18228" lon="-1.52588">
        <ele>-37.22</ele>
        <time>2015-03-07T15:02:43Z</time>
      </trkpt>
      <trkpt lat="47.1824" lon="-1.52612">
        <ele>-35.91</ele>
        <time>2015-03-07T15:02:47Z</time>
      </trkpt>
      <trkpt lat="47.18242" lon="-1.52642">
        <ele>-35.11</ele>
        <time>2015-03-07T15:02:51Z</time>
      </trkpt>
      <trkpt lat="47.1824" lon="-1.52675">
        <ele>-35.1</ele>
        <time>2015-03-07T15:02:55Z</time>
      </trkpt>
      <trkpt lat="47.18235" lon="-1.52704">
        <ele>-35.59</ele>
        <time>2015-03-07T15:02:59Z</time>
      </trkpt>
      <trkpt lat="47.18236" lon="-1.52734">
        <ele>-35.27</ele>
        <time>2015-03-07T15:03:03Z</time>
      </trkpt>
      <trkpt lat="47.18242" lon="-1.52765">
        <ele>-34.33</ele>
        <time>2015-03-07T15:03:09Z</time>
      </trkpt>
      <trkpt lat="47.18251" lon="-1.52793">
        <ele>-35.16</ele>
        <time>2015-03-07T15:03:13Z</time>
      </trkpt>
      <trkpt lat="47.1826" lon="-1.52819">
        <ele>-34.87</ele>
        <time>2015-03-07T15:03:17Z</time>
      </trkpt>
      <trkpt lat="47.18263" lon="-1.52847">
        <ele>-35.09</ele>
        <time>2015-03-07T15:03:21Z</time>
      </trkpt>
      <trkpt lat="47.18268" lon="-1.52874">
        <ele>-36.15</ele>
        <time>2015-03-07T15:03:25Z</time>
      </trkpt>
      <trkpt lat="47.18279" lon="-1.52901">
        <ele>-37.43</ele>
        <time>2015-03-07T15:03:29Z</time>
      </trkpt>
      <trkpt lat="47.18291" lon="-1.52925">
        <ele>-38.5</ele>
        <time>2015-03-07T15:03:33Z</time>
      </trkpt>
      <trkpt lat="47.18302" lon="-1.52952">
        <ele>-39.23</ele>
        <time>2015-03-07T15:03:37Z</time>
      </trkpt>
      <trkpt lat="47.1831" lon="-1.52983">
        <ele>-39.8</ele>
        <time>2015-03-07T15:03:41Z</time>
      </trkpt>
      <trkpt lat="47.18321" lon="-1.53006">
        <ele>-39.72</ele>
        <time>2015-03-07T15:03:45Z</time>
      </trkpt>
      <trkpt lat="47.18332" lon="-1.53027">
        <ele>-40.41</ele>
        <time>2015-03-07T15:03:49Z</time>
      </trkpt>
      <trkpt lat="47.18346" lon="-1.5305">
        <ele>-39.81</ele>
        <time>2015-03-07T15:03:55Z</time>
      </trkpt>
      <trkpt lat="47.18352" lon="-1.53079">
        <ele>-35.24</ele>
        <time>2015-03-07T15:04:09Z</time>
      </trkpt>
      <trkpt lat="47.18338" lon="-1.53099">
        <ele>-34.97</ele>
        <time>2015-03-07T15:04:14Z</time>
      </trkpt>
      <trkpt lat="47.1832" lon="-1.53116">
        <ele>-36.27</ele>
        <time>2015-03-07T15:04:19Z</time>
      </trkpt>
      <trkpt lat="47.18301" lon="-1.53132">
        <ele>-37.46</ele>
        <time>2015-03-07T15:04:24Z</time>
      </trkpt>
      <trkpt lat="47.18285" lon="-1.53145">
        <ele>-37.94</ele>
        <time>2015-03-07T15:04:28Z</time>
      </trkpt>
      <trkpt lat="47.18267" lon="-1.53164">
        <ele>-38.63</ele>
        <time>2015-03-07T15:04:33Z</time>
      </trkpt>
      <trkpt lat="47.18255" lon="-1.53187">
        <ele>-40.19</ele>
        <time>2015-03-07T15:04:38Z</time>
      </trkpt>
      <trkpt lat="47.1827" lon="-1.53171">
        <ele>-41.63</ele>
        <time>2015-03-07T15:04:46Z</time>
      </trkpt>
      <trkpt lat="47.1829" lon="-1.53162">
        <ele>-40.94</ele>
        <time>2015-03-07T15:04:51Z</time>
      </trkpt>
      <trkpt lat="47.18304" lon="-1.5318">
        <ele>-39.51</ele>
        <time>2015-03-07T15:04:56Z</time>
      </trkpt>
      <trkpt lat="47.18318" lon="-1.532">
        <ele>-39.35</ele>
        <time>2015-03-07T15:05:01Z</time>
      </trkpt>
      <trkpt lat="47.18332" lon="-1.53219">
        <ele>-38.78</ele>
        <time>2015-03-07T15:05:06Z</time>
      </trkpt>
      <trkpt lat="47.18347" lon="-1.53237">
        <ele>-37.49</ele>
        <time>2015-03-07T15:05:10Z</time>
      </trkpt>
      <trkpt lat="47.18361" lon="-1.53253">
        <ele>-36.47</ele>
        <time>2015-03-07T15:05:14Z</time>
      </trkpt>
      <trkpt lat="47.1838" lon="-1.53276">
        <ele>-36.73</ele>
        <time>2015-03-07T15:05:18Z</time>
      </trkpt>
      <trkpt lat="47.18396" lon="-1.53295">
        <ele>-36.88</ele>
        <time>2015-03-07T15:05:22Z</time>
      </trkpt>
      <trkpt lat="47.18411" lon="-1.53314">
        <ele>-35.67</ele>
        <time>2015-03-07T15:05:26Z</time>
      </trkpt>
      <trkpt lat="47.18426" lon="-1.53333">
        <ele>-35.35</ele>
        <time>2015-03-07T15:05:30Z</time>
      </trkpt>
      <trkpt lat="47.18443" lon="-1.53353">
        <ele>-34.87</ele>
        <time>2015-03-07T15:05:34Z</time>
      </trkpt>
      <trkpt lat="47.18458" lon="-1.5337">
        <ele>-34.17</ele>
        <time>2015-03-07T15:05:38Z</time>
      </trkpt>
      <trkpt lat="47.18474" lon="-1.53383">
        <ele>-33.42</ele>
        <time>2015-03-07T15:05:42Z</time>
      </trkpt>
      <trkpt lat="47.1849" lon="-1.53398">
        <ele>-32.61</ele>
        <time>2015-03-07T15:05:46Z</time>
      </trkpt>
      <trkpt lat="47.18506" lon="-1.53418">
        <ele>-34.1</ele>
        <time>2015-03-07T15:05:50Z</time>
      </trkpt>
      <trkpt lat="47.18521" lon="-1.53438">
        <ele>-36.05</ele>
        <time>2015-03-07T15:05:55Z</time>
      </trkpt>
      <trkpt lat="47.18538" lon="-1.53452">
        <ele>-36.85</ele>
        <time>2015-03-07T15:05:59Z</time>
      </trkpt>
      <trkpt lat="47.18554" lon="-1.53469">
        <ele>-37.28</ele>
        <time>2015-03-07T15:06:03Z</time>
      </trkpt>
      <trkpt lat="47.18571" lon="-1.53488">
        <ele>-35.81</ele>
        <time>2015-03-07T15:06:08Z</time>
      </trkpt>
      <trkpt lat="47.18586" lon="-1.53508">
        <ele>-34.28</ele>
        <time>2015-03-07T15:06:13Z</time>
      </trkpt>
      <trkpt lat="47.18604" lon="-1.53523">
        <ele>-33.36</ele>
        <time>2015-03-07T15:06:18Z</time>
      </trkpt>
      <trkpt lat="47.18622" lon="-1.53534">
        <ele>-33.2</ele>
        <time>2015-03-07T15:06:22Z</time>
      </trkpt>
      <trkpt lat="47.18643" lon="-1.53544">
        <ele>-34.31</ele>
        <time>2015-03-07T15:06:26Z</time>
      </trkpt>
      <trkpt lat="47.18665" lon="-1.53555">
        <ele>-36.12</ele>
        <time>2015-03-07T15:06:30Z</time>
      </trkpt>
      <trkpt lat="47.18686" lon="-1.53562">
        <ele>-37.35</ele>
        <time>2015-03-07T15:06:34Z</time>
      </trkpt>
      <trkpt lat="47.18705" lon="-1.53569">
        <ele>-38.85</ele>
        <time>2015-03-07T15:06:38Z</time>
      </trkpt>
      <trkpt lat="47.18724" lon="-1.53577">
        <ele>-42.13</ele>
        <time>2015-03-07T15:06:42Z</time>
      </trkpt>
      <trkpt lat="47.18747" lon="-1.53584">
        <ele>-43.6</ele>
        <time>2015-03-07T15:06:46Z</time>
      </trkpt>
      <trkpt lat="47.1877" lon="-1.5359">
        <ele>-43.17</ele>
        <time>2015-03-07T15:06:50Z</time>
      </trkpt>
      <trkpt lat="47.1879" lon="-1.53595">
        <ele>-43.8</ele>
        <time>2015-03-07T15:06:54Z</time>
      </trkpt>
      <trkpt lat="47.18812" lon="-1.53602">
        <ele>-43.42</ele>
        <time>2015-03-07T15:06:58Z</time>
      </trkpt>
      <trkpt lat="47.18833" lon="-1.5361">
        <ele>-42.65</ele>
        <time>2015-03-07T15:07:02Z</time>
      </trkpt>
      <trkpt lat="47.18853" lon="-1.53618">
        <ele>-41.77</ele>
        <time>2015-03-07T15:07:06Z</time>
      </trkpt>
      <trkpt lat="47.18871" lon="-1.53631">
        <ele>-40.64</ele>
        <time>2015-03-07T15:07:10Z</time>
      </trkpt>
      <trkpt lat="47.1889" lon="-1.53641">
        <ele>-40.98</ele>
        <time>2015-03-07T15:07:14Z</time>
      </trkpt>
      <trkpt lat="47.18907" lon="-1.53653">
        <ele>-40.23</ele>
        <time>2015-03-07T15:07:18Z</time>
      </trkpt>
      <trkpt lat="47.18926" lon="-1.53671">
        <ele>-39.24</ele>
        <time>2015-03-07T15:07:23Z</time>
      </trkpt>
      <trkpt lat="47.18941" lon="-1.53685">
        <ele>-38.17</ele>
        <time>2015-03-07T15:07:27Z</time>
      </trkpt>
      <trkpt lat="47.18961" lon="-1.53698">
        <ele>-37.59</ele>
        <time>2015-03-07T15:07:31Z</time>
      </trkpt>
      <trkpt lat="47.1898" lon="-1.53711">
        <ele>-37.42</ele>
        <time>2015-03-07T15:07:35Z</time>
      </trkpt>
      <trkpt lat="47.18999" lon="-1.53726">
        <ele>-36.53</ele>
        <time>2015-03-07T15:07:39Z</time>
      </trkpt>
      <trkpt lat="47.19018" lon="-1.53744">
        <ele>-36.58</ele>
        <time>2015-03-07T15:07:43Z</time>
      </trkpt>
      <trkpt lat="47.19033" lon="-1.53761">
        <ele>-36.45</ele>
        <time>2015-03-07T15:07:46Z</time>
      </trkpt>
      <trkpt lat="47.19048" lon="-1.53785">
        <ele>-37.18</ele>
        <time>2015-03-07T15:07:50Z</time>
      </trkpt>
      <trkpt lat="47.19065" lon="-1.53804">
        <ele>-38.11</ele>
        <time>2015-03-07T15:07:55Z</time>
      </trkpt>
      <trkpt lat="47.19081" lon="-1.53821">
        <ele>-38.46</ele>
        <time>2015-03-07T15:07:59Z</time>
      </trkpt>
      <trkpt lat="47.19096" lon="-1.5384">
        <ele>-39.98</ele>
        <time>2015-03-07T15:08:03Z</time>
      </trkpt>
      <trkpt lat="47.1911" lon="-1.53859">
        <ele>-41.34</ele>
        <time>2015-03-07T15:08:07Z</time>
      </trkpt>
      <trkpt lat="47.19125" lon="-1.53883">
        <ele>-41.48</ele>
        <time>2015-03-07T15:08:12Z</time>
      </trkpt>
      <trkpt lat="47.1914" lon="-1.53899">
        <ele>-40.66</ele>
        <time>2015-03-07T15:08:16Z</time>
      </trkpt>
      <trkpt lat="47.19155" lon="-1.53916">
        <ele>-39.55</ele>
        <time>2015-03-07T15:08:20Z</time>
      </trkpt>
      <trkpt lat="47.19168" lon="-1.53936">
        <ele>-38.32</ele>
        <time>2015-03-07T15:08:24Z</time>
      </trkpt>
      <trkpt lat="47.1918" lon="-1.5396">
        <ele>-38.81</ele>
        <time>2015-03-07T15:08:28Z</time>
      </trkpt>
      <trkpt lat="47.19193" lon="-1.53981">
        <ele>-39.39</ele>
        <time>2015-03-07T15:08:32Z</time>
      </trkpt>
      <trkpt lat="47.19204" lon="-1.54003">
        <ele>-39.67</ele>
        <time>2015-03-07T15:08:36Z</time>
      </trkpt>
      <trkpt lat="47.19218" lon="-1.54028">
        <ele>-39.41</ele>
        <time>2015-03-07T15:08:41Z</time>
      </trkpt>
      <trkpt lat="47.19229" lon="-1.5405">
        <ele>-39.35</ele>
        <time>2015-03-07T15:08:45Z</time>
      </trkpt>
      <trkpt lat="47.1924" lon="-1.54073">
        <ele>-38.45</ele>
        <time>2015-03-07T15:08:49Z</time>
      </trkpt>
      <trkpt lat="47.19252" lon="-1.541">
        <ele>-37.24</ele>
        <time>2015-03-07T15:08:54Z</time>
      </trkpt>
      <trkpt lat="47.19263" lon="-1.54121">
        <ele>-36.98</ele>
        <time>2015-03-07T15:08:58Z</time>
      </trkpt>
      <trkpt lat="47.19273" lon="-1.54145">
        <ele>-37.95</ele>
        <time>2015-03-07T15:09:02Z</time>
      </trkpt>
      <trkpt lat="47.19285" lon="-1.54169">
        <ele>-37.94</ele>
        <time>2015-03-07T15:09:07Z</time>
      </trkpt>
      <trkpt lat="47.19303" lon="-1.54191">
        <ele>-37.25</ele>
        <time>2015-03-07T15:09:12Z</time>
      </trkpt>
      <trkpt lat="47.19315" lon="-1.54213">
        <ele>-37.33</ele>
        <time>2015-03-07T15:09:16Z</time>
      </trkpt>
      <trkpt lat="47.19327" lon="-1.54239">
        <ele>-38</ele>
        <time>2015-03-07T15:09:20Z</time>
      </trkpt>
      <trkpt lat="47.19339" lon="-1.54262">
        <ele>-38.75</ele>
        <time>2015-03-07T15:09:24Z</time>
      </trkpt>
      <trkpt lat="47.19351" lon="-1.54281">
        <ele>-38.62</ele>
        <time>2015-03-07T15:09:28Z</time>
      </trkpt>
      <trkpt lat="47.19365" lon="-1.54299">
        <ele>-38.78</ele>
        <time>2015-03-07T15:09:32Z</time>
      </trkpt>
      <trkpt lat="47.1938" lon="-1.54321">
        <ele>-39.43</ele>
        <time>2015-03-07T15:09:37Z</time>
      </trkpt>
      <trkpt lat="47.19393" lon="-1.54343">
        <ele>-40.29</ele>
        <time>2015-03-07T15:09:42Z</time>
      </trkpt>
      <trkpt lat="47.19406" lon="-1.54362">
        <ele>-40.89</ele>
        <time>2015-03-07T15:09:46Z</time>
      </trkpt>
      <trkpt lat="47.19419" lon="-1.54382">
        <ele>-41.24</ele>
        <time>2015-03-07T15:09:50Z</time>
      </trkpt>
      <trkpt lat="47.19432" lon="-1.54408">
        <ele>-42.86</ele>
        <time>2015-03-07T15:09:55Z</time>
      </trkpt>
      <trkpt lat="47.19445" lon="-1.54432">
        <ele>-44.12</ele>
        <time>2015-03-07T15:10:00Z</time>
      </trkpt>
      <trkpt lat="47.19455" lon="-1.54455">
        <ele>-43.66</ele>
        <time>2015-03-07T15:10:05Z</time>
      </trkpt>
      <trkpt lat="47.19468" lon="-1.54474">
        <ele>-43.04</ele>
        <time>2015-03-07T15:10:13Z</time>
      </trkpt>
      <trkpt lat="47.19479" lon="-1.54496">
        <ele>-42.66</ele>
        <time>2015-03-07T15:10:38Z</time>
      </trkpt>
      <trkpt lat="47.19483" lon="-1.54523">
        <ele>-43.53</ele>
        <time>2015-03-07T15:10:49Z</time>
      </trkpt>
      <trkpt lat="47.19487" lon="-1.5455">
        <ele>-43.43</ele>
        <time>2015-03-07T15:10:52Z</time>
      </trkpt>
      <trkpt lat="47.19494" lon="-1.54582">
        <ele>-43.3</ele>
        <time>2015-03-07T15:10:56Z</time>
      </trkpt>
      <trkpt lat="47.1951" lon="-1.54602">
        <ele>-43.27</ele>
        <time>2015-03-07T15:11:00Z</time>
      </trkpt>
      <trkpt lat="47.19527" lon="-1.54619">
        <ele>-43.32</ele>
        <time>2015-03-07T15:11:04Z</time>
      </trkpt>
      <trkpt lat="47.19542" lon="-1.54639">
        <ele>-42.57</ele>
        <time>2015-03-07T15:11:08Z</time>
      </trkpt>
      <trkpt lat="47.19555" lon="-1.54659">
        <ele>-41.63</ele>
        <time>2015-03-07T15:11:12Z</time>
      </trkpt>
      <trkpt lat="47.1957" lon="-1.54677">
        <ele>-41.36</ele>
        <time>2015-03-07T15:11:16Z</time>
      </trkpt>
      <trkpt lat="47.19582" lon="-1.54699">
        <ele>-40.86</ele>
        <time>2015-03-07T15:11:20Z</time>
      </trkpt>
      <trkpt lat="47.19593" lon="-1.54721">
        <ele>-40.7</ele>
        <time>2015-03-07T15:11:24Z</time>
      </trkpt>
      <trkpt lat="47.19609" lon="-1.54737">
        <ele>-41.19</ele>
        <time>2015-03-07T15:11:28Z</time>
      </trkpt>
      <trkpt lat="47.19623" lon="-1.54756">
        <ele>-42.31</ele>
        <time>2015-03-07T15:11:32Z</time>
      </trkpt>
      <trkpt lat="47.19638" lon="-1.54779">
        <ele>-42.43</ele>
        <time>2015-03-07T15:11:36Z</time>
      </trkpt>
      <trkpt lat="47.19653" lon="-1.548">
        <ele>-43.43</ele>
        <time>2015-03-07T15:11:40Z</time>
      </trkpt>
      <trkpt lat="47.19668" lon="-1.54824">
        <ele>-44.51</ele>
        <time>2015-03-07T15:11:44Z</time>
      </trkpt>
      <trkpt lat="47.1968" lon="-1.5485">
        <ele>-45.75</ele>
        <time>2015-03-07T15:11:48Z</time>
      </trkpt>
      <trkpt lat="47.19685" lon="-1.54879">
        <ele>-46.85</ele>
        <time>2015-03-07T15:11:52Z</time>
      </trkpt>
      <trkpt lat="47.1968" lon="-1.54907">
        <ele>-46.97</ele>
        <time>2015-03-07T15:11:56Z</time>
      </trkpt>
      <trkpt lat="47.19678" lon="-1.54937">
        <ele>-46.57</ele>
        <time>2015-03-07T15:12:00Z</time>
      </trkpt>
      <trkpt lat="47.19696" lon="-1.54951">
        <ele>-47.54</ele>
        <time>2015-03-07T15:12:05Z</time>
      </trkpt>
      <trkpt lat="47.19713" lon="-1.54965">
        <ele>-45.44</ele>
        <time>2015-03-07T15:12:10Z</time>
      </trkpt>
      <trkpt lat="47.197" lon="-1.54989">
        <ele>-43.1</ele>
        <time>2015-03-07T15:12:16Z</time>
      </trkpt>
      <trkpt lat="47.1968" lon="-1.54996">
        <ele>-40.82</ele>
        <time>2015-03-07T15:12:21Z</time>
      </trkpt>
      <trkpt lat="47.19676" lon="-1.55024">
        <ele>-37.32</ele>
        <time>2015-03-07T15:12:26Z</time>
      </trkpt>
      <trkpt lat="47.19675" lon="-1.55051">
        <ele>-35.97</ele>
        <time>2015-03-07T15:12:30Z</time>
      </trkpt>
      <trkpt lat="47.19676" lon="-1.55078">
        <ele>-35.81</ele>
        <time>2015-03-07T15:12:34Z</time>
      </trkpt>
      <trkpt lat="47.19679" lon="-1.5511">
        <ele>-33.9</ele>
        <time>2015-03-07T15:12:39Z</time>
      </trkpt>
      <trkpt lat="47.1968" lon="-1.55142">
        <ele>-31.9</ele>
        <time>2015-03-07T15:12:44Z</time>
      </trkpt>
      <trkpt lat="47.19682" lon="-1.55171">
        <ele>-29.54</ele>
        <time>2015-03-07T15:12:49Z</time>
      </trkpt>
      <trkpt lat="47.19683" lon="-1.55203">
        <ele>-28.46</ele>
        <time>2015-03-07T15:12:54Z</time>
      </trkpt>
      <trkpt lat="47.19675" lon="-1.5523">
        <ele>-26.51</ele>
        <time>2015-03-07T15:13:00Z</time>
      </trkpt>
      <trkpt lat="47.19674" lon="-1.55257">
        <ele>-24.59</ele>
        <time>2015-03-07T15:13:04Z</time>
      </trkpt>
      <trkpt lat="47.19668" lon="-1.55288">
        <ele>-21.87</ele>
        <time>2015-03-07T15:13:09Z</time>
      </trkpt>
      <trkpt lat="47.19669" lon="-1.55316">
        <ele>-20.27</ele>
        <time>2015-03-07T15:13:13Z</time>
      </trkpt>
      <trkpt lat="47.19667" lon="-1.55344">
        <ele>-17.71</ele>
        <time>2015-03-07T15:13:18Z</time>
      </trkpt>
      <trkpt lat="47.19666" lon="-1.55373">
        <ele>-14.66</ele>
        <time>2015-03-07T15:13:23Z</time>
      </trkpt>
      <trkpt lat="47.19669" lon="-1.55401">
        <ele>-12.68</ele>
        <time>2015-03-07T15:13:27Z</time>
      </trkpt>
      <trkpt lat="47.19673" lon="-1.55429">
        <ele>-8.33</ele>
        <time>2015-03-07T15:13:34Z</time>
      </trkpt>
      <trkpt lat="47.19677" lon="-1.55462">
        <ele>-7.07</ele>
        <time>2015-03-07T15:13:39Z</time>
      </trkpt>
      <trkpt lat="47.19687" lon="-1.55494">
        <ele>-7.47</ele>
        <time>2015-03-07T15:13:43Z</time>
      </trkpt>
      <trkpt lat="47.19698" lon="-1.55519">
        <ele>-7.41</ele>
        <time>2015-03-07T15:13:47Z</time>
      </trkpt>
      <trkpt lat="47.197" lon="-1.55547">
        <ele>-7.99</ele>
        <time>2015-03-07T15:13:52Z</time>
      </trkpt>
      <trkpt lat="47.19683" lon="-1.55561">
        <ele>-11.94</ele>
        <time>2015-03-07T15:14:00Z</time>
      </trkpt>
      <trkpt lat="47.19672" lon="-1.55588">
        <ele>-12.12</ele>
        <time>2015-03-07T15:14:06Z</time>
      </trkpt>
      <trkpt lat="47.19657" lon="-1.55608">
        <ele>-15.35</ele>
        <time>2015-03-07T15:14:11Z</time>
      </trkpt>
      <trkpt lat="47.19644" lon="-1.55627">
        <ele>-18.69</ele>
        <time>2015-03-07T15:14:19Z</time>
      </trkpt>
      <trkpt lat="47.19649" lon="-1.55655">
        <ele>-21.03</ele>
        <time>2015-03-07T15:14:23Z</time>
      </trkpt>
      <trkpt lat="47.19654" lon="-1.55682">
        <ele>-23.12</ele>
        <time>2015-03-07T15:14:27Z</time>
      </trkpt>
      <trkpt lat="47.19659" lon="-1.5571">
        <ele>-25.78</ele>
        <time>2015-03-07T15:14:31Z</time>
      </trkpt>
      <trkpt lat="47.19663" lon="-1.55738">
        <ele>-28.77</ele>
        <time>2015-03-07T15:14:35Z</time>
      </trkpt>
      <trkpt lat="47.19668" lon="-1.55765">
        <ele>-31.07</ele>
        <time>2015-03-07T15:14:39Z</time>
      </trkpt>
      <trkpt lat="47.19669" lon="-1.55796">
        <ele>-33.01</ele>
        <time>2015-03-07T15:14:43Z</time>
      </trkpt>
      <trkpt lat="47.19669" lon="-1.55825">
        <ele>-34.04</ele>
        <time>2015-03-07T15:14:47Z</time>
      </trkpt>
      <trkpt lat="47.19669" lon="-1.55855">
        <ele>-34.71</ele>
        <time>2015-03-07T15:14:51Z</time>
      </trkpt>
      <trkpt lat="47.19669" lon="-1.55883">
        <ele>-35.39</ele>
        <time>2015-03-07T15:14:55Z</time>
      </trkpt>
      <trkpt lat="47.19669" lon="-1.55913">
        <ele>-35.86</ele>
        <time>2015-03-07T15:14:59Z</time>
      </trkpt>
      <trkpt lat="47.19662" lon="-1.55944">
        <ele>-36.22</ele>
        <time>2015-03-07T15:15:03Z</time>
      </trkpt>
      <trkpt lat="47.19662" lon="-1.55973">
        <ele>-36.2</ele>
        <time>2015-03-07T15:15:07Z</time>
      </trkpt>
      <trkpt lat="47.1966" lon="-1.56003">
        <ele>-36.18</ele>
        <time>2015-03-07T15:15:11Z</time>
      </trkpt>
      <trkpt lat="47.19655" lon="-1.56035">
        <ele>-37.71</ele>
        <time>2015-03-07T15:15:15Z</time>
      </trkpt>
      <trkpt lat="47.1965" lon="-1.56066">
        <ele>-38.56</ele>
        <time>2015-03-07T15:15:19Z</time>
      </trkpt>
      <trkpt lat="47.19647" lon="-1.56095">
        <ele>-38.65</ele>
        <time>2015-03-07T15:15:23Z</time>
      </trkpt>
      <trkpt lat="47.19645" lon="-1.56124">
        <ele>-39.23</ele>
        <time>2015-03-07T15:15:27Z</time>
      </trkpt>
      <trkpt lat="47.19643" lon="-1.56151">
        <ele>-40.17</ele>
        <time>2015-03-07T15:15:31Z</time>
      </trkpt>
      <trkpt lat="47.19658" lon="-1.56168">
        <ele>-41.53</ele>
        <time>2015-03-07T15:15:37Z</time>
      </trkpt>
      <trkpt lat="47.19679" lon="-1.56179">
        <ele>-40.88</ele>
        <time>2015-03-07T15:15:42Z</time>
      </trkpt>
      <trkpt lat="47.19682" lon="-1.56208">
        <ele>-39.04</ele>
        <time>2015-03-07T15:15:46Z</time>
      </trkpt>
      <trkpt lat="47.19679" lon="-1.5624">
        <ele>-37.26</ele>
        <time>2015-03-07T15:15:50Z</time>
      </trkpt>
      <trkpt lat="47.19661" lon="-1.56252">
        <ele>-35.58</ele>
        <time>2015-03-07T15:15:55Z</time>
      </trkpt>
      <trkpt lat="47.19642" lon="-1.56258">
        <ele>-34.74</ele>
        <time>2015-03-07T15:16:00Z</time>
      </trkpt>
      <trkpt lat="47.19636" lon="-1.56284">
        <ele>-34.65</ele>
        <time>2015-03-07T15:16:04Z</time>
      </trkpt>
      <trkpt lat="47.19635" lon="-1.56312">
        <ele>-33.76</ele>
        <time>2015-03-07T15:16:08Z</time>
      </trkpt>
      <trkpt lat="47.19634" lon="-1.56342">
        <ele>-33.66</ele>
        <time>2015-03-07T15:16:12Z</time>
      </trkpt>
      <trkpt lat="47.19634" lon="-1.56371">
        <ele>-35.27</ele>
        <time>2015-03-07T15:16:16Z</time>
      </trkpt>
      <trkpt lat="47.19635" lon="-1.564">
        <ele>-36.15</ele>
        <time>2015-03-07T15:16:20Z</time>
      </trkpt>
      <trkpt lat="47.19636" lon="-1.56429">
        <ele>-35.94</ele>
        <time>2015-03-07T15:16:24Z</time>
      </trkpt>
      <trkpt lat="47.19636" lon="-1.56458">
        <ele>-36.67</ele>
        <time>2015-03-07T15:16:28Z</time>
      </trkpt>
      <trkpt lat="47.19637" lon="-1.56487">
        <ele>-36.81</ele>
        <time>2015-03-07T15:16:32Z</time>
      </trkpt>
      <trkpt lat="47.19636" lon="-1.56515">
        <ele>-37.22</ele>
        <time>2015-03-07T15:16:36Z</time>
      </trkpt>
      <trkpt lat="47.19636" lon="-1.56544">
        <ele>-36.98</ele>
        <time>2015-03-07T15:16:40Z</time>
      </trkpt>
      <trkpt lat="47.19635" lon="-1.56574">
        <ele>-37.52</ele>
        <time>2015-03-07T15:16:44Z</time>
      </trkpt>
      <trkpt lat="47.19634" lon="-1.56603">
        <ele>-36.66</ele>
        <time>2015-03-07T15:16:48Z</time>
      </trkpt>
      <trkpt lat="47.19635" lon="-1.56631">
        <ele>-36.05</ele>
        <time>2015-03-07T15:16:52Z</time>
      </trkpt>
      <trkpt lat="47.19635" lon="-1.56658">
        <ele>-33.62</ele>
        <time>2015-03-07T15:16:56Z</time>
      </trkpt>
      <trkpt lat="47.19632" lon="-1.56687">
        <ele>-33.53</ele>
        <time>2015-03-07T15:17:00Z</time>
      </trkpt>
      <trkpt lat="47.1963" lon="-1.56716">
        <ele>-34.28</ele>
        <time>2015-03-07T15:17:04Z</time>
      </trkpt>
      <trkpt lat="47.19627" lon="-1.56744">
        <ele>-34.67</ele>
        <time>2015-03-07T15:17:08Z</time>
      </trkpt>
      <trkpt lat="47.19624" lon="-1.56772">
        <ele>-35.8</ele>
        <time>2015-03-07T15:17:12Z</time>
      </trkpt>
      <trkpt lat="47.19622" lon="-1.56801">
        <ele>-36.98</ele>
        <time>2015-03-07T15:17:16Z</time>
      </trkpt>
      <trkpt lat="47.1962" lon="-1.5683">
        <ele>-37.62</ele>
        <time>2015-03-07T15:17:20Z</time>
      </trkpt>
      <trkpt lat="47.19618" lon="-1.56858">
        <ele>-37.98</ele>
        <time>2015-03-07T15:17:24Z</time>
      </trkpt>
      <trkpt lat="47.19616" lon="-1.56887">
        <ele>-37.96</ele>
        <time>2015-03-07T15:17:28Z</time>
      </trkpt>
      <trkpt lat="47.19614" lon="-1.56916">
        <ele>-38.12</ele>
        <time>2015-03-07T15:17:32Z</time>
      </trkpt>
      <trkpt lat="47.19613" lon="-1.56945">
        <ele>-38.12</ele>
        <time>2015-03-07T15:17:36Z</time>
      </trkpt>
      <trkpt lat="47.19611" lon="-1.56975">
        <ele>-38.03</ele>
        <time>2015-03-07T15:17:40Z</time>
      </trkpt>
      <trkpt lat="47.1961" lon="-1.57004">
        <ele>-37.68</ele>
        <time>2015-03-07T15:17:44Z</time>
      </trkpt>
      <trkpt lat="47.1961" lon="-1.57033">
        <ele>-37.11</ele>
        <time>2015-03-07T15:17:48Z</time>
      </trkpt>
      <trkpt lat="47.19607" lon="-1.57061">
        <ele>-36.9</ele>
        <time>2015-03-07T15:17:52Z</time>
      </trkpt>
      <trkpt lat="47.19606" lon="-1.57089">
        <ele>-36.74</ele>
        <time>2015-03-07T15:17:56Z</time>
      </trkpt>
      <trkpt lat="47.19605" lon="-1.57117">
        <ele>-36.18</ele>
        <time>2015-03-07T15:18:00Z</time>
      </trkpt>
      <trkpt lat="47.19603" lon="-1.57145">
        <ele>-35.29</ele>
        <time>2015-03-07T15:18:04Z</time>
      </trkpt>
      <trkpt lat="47.19602" lon="-1.57173">
        <ele>-34.41</ele>
        <time>2015-03-07T15:18:08Z</time>
      </trkpt>
      <trkpt lat="47.19599" lon="-1.57203">
        <ele>-33.39</ele>
        <time>2015-03-07T15:18:12Z</time>
      </trkpt>
      <trkpt lat="47.19596" lon="-1.57232">
        <ele>-33.16</ele>
        <time>2015-03-07T15:18:16Z</time>
      </trkpt>
      <trkpt lat="47.19593" lon="-1.5726">
        <ele>-33.32</ele>
        <time>2015-03-07T15:18:20Z</time>
      </trkpt>
      <trkpt lat="47.19592" lon="-1.57287">
        <ele>-33.41</ele>
        <time>2015-03-07T15:18:24Z</time>
      </trkpt>
      <trkpt lat="47.19588" lon="-1.57319">
        <ele>-33.2</ele>
        <time>2015-03-07T15:18:29Z</time>
      </trkpt>
      <trkpt lat="47.19579" lon="-1.57345">
        <ele>-34.42</ele>
        <time>2015-03-07T15:18:33Z</time>
      </trkpt>
      <trkpt lat="47.19574" lon="-1.57376">
        <ele>-33.32</ele>
        <time>2015-03-07T15:18:38Z</time>
      </trkpt>
      <trkpt lat="47.1957" lon="-1.57407">
        <ele>-31.21</ele>
        <time>2015-03-07T15:18:43Z</time>
      </trkpt>
      <trkpt lat="47.19564" lon="-1.57438">
        <ele>-29.72</ele>
        <time>2015-03-07T15:18:48Z</time>
      </trkpt>
      <trkpt lat="47.19559" lon="-1.57465">
        <ele>-28.73</ele>
        <time>2015-03-07T15:18:52Z</time>
      </trkpt>
      <trkpt lat="47.19553" lon="-1.57493">
        <ele>-28.22</ele>
        <time>2015-03-07T15:18:56Z</time>
      </trkpt>
      <trkpt lat="47.19548" lon="-1.5752">
        <ele>-28.14</ele>
        <time>2015-03-07T15:19:00Z</time>
      </trkpt>
      <trkpt lat="47.19545" lon="-1.57547">
        <ele>-27.48</ele>
        <time>2015-03-07T15:19:04Z</time>
      </trkpt>
      <trkpt lat="47.19539" lon="-1.57574">
        <ele>-27.31</ele>
        <time>2015-03-07T15:19:08Z</time>
      </trkpt>
      <trkpt lat="47.19534" lon="-1.576">
        <ele>-27.3</ele>
        <time>2015-03-07T15:19:12Z</time>
      </trkpt>
      <trkpt lat="47.19527" lon="-1.57627">
        <ele>-28.03</ele>
        <time>2015-03-07T15:19:16Z</time>
      </trkpt>
      <trkpt lat="47.19521" lon="-1.57654">
        <ele>-27.51</ele>
        <time>2015-03-07T15:19:20Z</time>
      </trkpt>
      <trkpt lat="47.19516" lon="-1.5768">
        <ele>-27.16</ele>
        <time>2015-03-07T15:19:24Z</time>
      </trkpt>
      <trkpt lat="47.1951" lon="-1.57707">
        <ele>-27.44</ele>
        <time>2015-03-07T15:19:28Z</time>
      </trkpt>
      <trkpt lat="47.19504" lon="-1.57733">
        <ele>-27.95</ele>
        <time>2015-03-07T15:19:32Z</time>
      </trkpt>
      <trkpt lat="47.19496" lon="-1.57763">
        <ele>-28.8</ele>
        <time>2015-03-07T15:19:36Z</time>
      </trkpt>
      <trkpt lat="47.1949" lon="-1.57792">
        <ele>-28.77</ele>
        <time>2015-03-07T15:19:40Z</time>
      </trkpt>
      <trkpt lat="47.19485" lon="-1.57821">
        <ele>-28.77</ele>
        <time>2015-03-07T15:19:44Z</time>
      </trkpt>
      <trkpt lat="47.19482" lon="-1.57851">
        <ele>-29.39</ele>
        <time>2015-03-07T15:19:48Z</time>
      </trkpt>
      <trkpt lat="47.19478" lon="-1.5788">
        <ele>-30.5</ele>
        <time>2015-03-07T15:19:52Z</time>
      </trkpt>
      <trkpt lat="47.19475" lon="-1.57913">
        <ele>-30.69</ele>
        <time>2015-03-07T15:19:56Z</time>
      </trkpt>
      <trkpt lat="47.19471" lon="-1.57945">
        <ele>-31.46</ele>
        <time>2015-03-07T15:20:00Z</time>
      </trkpt>
      <trkpt lat="47.19469" lon="-1.57978">
        <ele>-33.29</ele>
        <time>2015-03-07T15:20:04Z</time>
      </trkpt>
      <trkpt lat="47.19465" lon="-1.58011">
        <ele>-33.74</ele>
        <time>2015-03-07T15:20:08Z</time>
      </trkpt>
      <trkpt lat="47.19462" lon="-1.5804">
        <ele>-33.98</ele>
        <time>2015-03-07T15:20:12Z</time>
      </trkpt>
      <trkpt lat="47.19457" lon="-1.5807">
        <ele>-34.01</ele>
        <time>2015-03-07T15:20:17Z</time>
      </trkpt>
      <trkpt lat="47.19448" lon="-1.58095">
        <ele>-37.12</ele>
        <time>2015-03-07T15:20:22Z</time>
      </trkpt>
      <trkpt lat="47.1943" lon="-1.58113">
        <ele>-38.27</ele>
        <time>2015-03-07T15:20:27Z</time>
      </trkpt>
      <trkpt lat="47.19413" lon="-1.58135">
        <ele>-39.4</ele>
        <time>2015-03-07T15:20:32Z</time>
      </trkpt>
      <trkpt lat="47.19401" lon="-1.58158">
        <ele>-39.71</ele>
        <time>2015-03-07T15:20:36Z</time>
      </trkpt>
      <trkpt lat="47.1939" lon="-1.58183">
        <ele>-40.43</ele>
        <time>2015-03-07T15:20:40Z</time>
      </trkpt>
      <trkpt lat="47.19381" lon="-1.58207">
        <ele>-40.03</ele>
        <time>2015-03-07T15:20:44Z</time>
      </trkpt>
      <trkpt lat="47.19373" lon="-1.58231">
        <ele>-38.55</ele>
        <time>2015-03-07T15:20:48Z</time>
      </trkpt>
      <trkpt lat="47.19364" lon="-1.58255">
        <ele>-36.92</ele>
        <time>2015-03-07T15:20:52Z</time>
      </trkpt>
      <trkpt lat="47.19352" lon="-1.58275">
        <ele>-35.83</ele>
        <time>2015-03-07T15:20:56Z</time>
      </trkpt>
      <trkpt lat="47.19334" lon="-1.58293">
        <ele>-37.95</ele>
        <time>2015-03-07T15:21:00Z</time>
      </trkpt>
      <trkpt lat="47.19316" lon="-1.58309">
        <ele>-40.13</ele>
        <time>2015-03-07T15:21:04Z</time>
      </trkpt>
      <trkpt lat="47.19298" lon="-1.58327">
        <ele>-41.12</ele>
        <time>2015-03-07T15:21:08Z</time>
      </trkpt>
      <trkpt lat="47.19282" lon="-1.58343">
        <ele>-42.61</ele>
        <time>2015-03-07T15:21:12Z</time>
      </trkpt>
      <trkpt lat="47.19266" lon="-1.5836">
        <ele>-44.03</ele>
        <time>2015-03-07T15:21:16Z</time>
      </trkpt>
      <trkpt lat="47.1925" lon="-1.58376">
        <ele>-44.52</ele>
        <time>2015-03-07T15:21:20Z</time>
      </trkpt>
      <trkpt lat="47.19234" lon="-1.58391">
        <ele>-45.51</ele>
        <time>2015-03-07T15:21:24Z</time>
      </trkpt>
      <trkpt lat="47.19217" lon="-1.58405">
        <ele>-46.09</ele>
        <time>2015-03-07T15:21:28Z</time>
      </trkpt>
      <trkpt lat="47.19201" lon="-1.58419">
        <ele>-46.35</ele>
        <time>2015-03-07T15:21:32Z</time>
      </trkpt>
      <trkpt lat="47.19185" lon="-1.58433">
        <ele>-46.63</ele>
        <time>2015-03-07T15:21:36Z</time>
      </trkpt>
      <trkpt lat="47.19169" lon="-1.58447">
        <ele>-47.18</ele>
        <time>2015-03-07T15:21:40Z</time>
      </trkpt>
      <trkpt lat="47.19152" lon="-1.58465">
        <ele>-47.1</ele>
        <time>2015-03-07T15:21:45Z</time>
      </trkpt>
      <trkpt lat="47.19136" lon="-1.58481">
        <ele>-47.04</ele>
        <time>2015-03-07T15:21:50Z</time>
      </trkpt>
      <trkpt lat="47.1912" lon="-1.58496">
        <ele>-46.99</ele>
        <time>2015-03-07T15:21:54Z</time>
      </trkpt>
      <trkpt lat="47.19104" lon="-1.58512">
        <ele>-46.82</ele>
        <time>2015-03-07T15:21:58Z</time>
      </trkpt>
      <trkpt lat="47.19088" lon="-1.58527">
        <ele>-46.35</ele>
        <time>2015-03-07T15:22:02Z</time>
      </trkpt>
      <trkpt lat="47.19073" lon="-1.58542">
        <ele>-45.97</ele>
        <time>2015-03-07T15:22:06Z</time>
      </trkpt>
      <trkpt lat="47.19059" lon="-1.58559">
        <ele>-45.39</ele>
        <time>2015-03-07T15:22:10Z</time>
      </trkpt>
      <trkpt lat="47.19042" lon="-1.58577">
        <ele>-44.82</ele>
        <time>2015-03-07T15:22:15Z</time>
      </trkpt>
      <trkpt lat="47.19027" lon="-1.58592">
        <ele>-45.46</ele>
        <time>2015-03-07T15:22:19Z</time>
      </trkpt>
      <trkpt lat="47.19012" lon="-1.58608">
        <ele>-44.7</ele>
        <time>2015-03-07T15:22:23Z</time>
      </trkpt>
      <trkpt lat="47.18996" lon="-1.58623">
        <ele>-44.99</ele>
        <time>2015-03-07T15:22:27Z</time>
      </trkpt>
      <trkpt lat="47.18978" lon="-1.58642">
        <ele>-45.05</ele>
        <time>2015-03-07T15:22:32Z</time>
      </trkpt>
      <trkpt lat="47.18959" lon="-1.58659">
        <ele>-44.69</ele>
        <time>2015-03-07T15:22:37Z</time>
      </trkpt>
      <trkpt lat="47.18944" lon="-1.58673">
        <ele>-44.7</ele>
        <time>2015-03-07T15:22:41Z</time>
      </trkpt>
      <trkpt lat="47.18928" lon="-1.58688">
        <ele>-44.89</ele>
        <time>2015-03-07T15:22:45Z</time>
      </trkpt>
      <trkpt lat="47.18913" lon="-1.58701">
        <ele>-45.12</ele>
        <time>2015-03-07T15:22:49Z</time>
      </trkpt>
      <trkpt lat="47.18893" lon="-1.58715">
        <ele>-45.19</ele>
        <time>2015-03-07T15:22:54Z</time>
      </trkpt>
      <trkpt lat="47.18873" lon="-1.58726">
        <ele>-44.88</ele>
        <time>2015-03-07T15:22:59Z</time>
      </trkpt>
      <trkpt lat="47.18855" lon="-1.58736">
        <ele>-43.93</ele>
        <time>2015-03-07T15:23:04Z</time>
      </trkpt>
      <trkpt lat="47.18838" lon="-1.58749">
        <ele>-43.69</ele>
        <time>2015-03-07T15:23:09Z</time>
      </trkpt>
      <trkpt lat="47.18831" lon="-1.58775">
        <ele>-43.46</ele>
        <time>2015-03-07T15:23:14Z</time>
      </trkpt>
      <trkpt lat="47.18817" lon="-1.58799">
        <ele>-43.06</ele>
        <time>2015-03-07T15:23:19Z</time>
      </trkpt>
      <trkpt lat="47.18798" lon="-1.58813">
        <ele>-42.76</ele>
        <time>2015-03-07T15:23:24Z</time>
      </trkpt>
      <trkpt lat="47.18787" lon="-1.58838">
        <ele>-41.89</ele>
        <time>2015-03-07T15:23:29Z</time>
      </trkpt>
      <trkpt lat="47.1878" lon="-1.58868">
        <ele>-42.54</ele>
        <time>2015-03-07T15:23:34Z</time>
      </trkpt>
      <trkpt lat="47.18776" lon="-1.58893">
        <ele>-42.61</ele>
        <time>2015-03-07T15:23:38Z</time>
      </trkpt>
      <trkpt lat="47.18773" lon="-1.5892">
        <ele>-42.54</ele>
        <time>2015-03-07T15:23:42Z</time>
      </trkpt>
      <trkpt lat="47.1877" lon="-1.58948">
        <ele>-41.88</ele>
        <time>2015-03-07T15:23:46Z</time>
      </trkpt>
      <trkpt lat="47.18767" lon="-1.58975">
        <ele>-40.9</ele>
        <time>2015-03-07T15:23:50Z</time>
      </trkpt>
      <trkpt lat="47.18764" lon="-1.59008">
        <ele>-39.1</ele>
        <time>2015-03-07T15:23:55Z</time>
      </trkpt>
      <trkpt lat="47.1876" lon="-1.59036">
        <ele>-39.75</ele>
        <time>2015-03-07T15:23:59Z</time>
      </trkpt>
      <trkpt lat="47.18757" lon="-1.59064">
        <ele>-40.97</ele>
        <time>2015-03-07T15:24:03Z</time>
      </trkpt>
      <trkpt lat="47.18754" lon="-1.59092">
        <ele>-40.9</ele>
        <time>2015-03-07T15:24:07Z</time>
      </trkpt>
      <trkpt lat="47.18751" lon="-1.5912">
        <ele>-41.04</ele>
        <time>2015-03-07T15:24:11Z</time>
      </trkpt>
      <trkpt lat="47.18747" lon="-1.59149">
        <ele>-41.58</ele>
        <time>2015-03-07T15:24:15Z</time>
      </trkpt>
      <trkpt lat="47.18745" lon="-1.59179">
        <ele>-42.42</ele>
        <time>2015-03-07T15:24:19Z</time>
      </trkpt>
      <trkpt lat="47.18741" lon="-1.59209">
        <ele>-43.06</ele>
        <time>2015-03-07T15:24:23Z</time>
      </trkpt>
      <trkpt lat="47.18738" lon="-1.59238">
        <ele>-43.74</ele>
        <time>2015-03-07T15:24:27Z</time>
      </trkpt>
      <trkpt lat="47.18735" lon="-1.59267">
        <ele>-43.92</ele>
        <time>2015-03-07T15:24:31Z</time>
      </trkpt>
      <trkpt lat="47.18732" lon="-1.59295">
        <ele>-44</ele>
        <time>2015-03-07T15:24:35Z</time>
      </trkpt>
      <trkpt lat="47.18729" lon="-1.59324">
        <ele>-44.11</ele>
        <time>2015-03-07T15:24:39Z</time>
      </trkpt>
      <trkpt lat="47.18726" lon="-1.59353">
        <ele>-44.31</ele>
        <time>2015-03-07T15:24:43Z</time>
      </trkpt>
      <trkpt lat="47.18723" lon="-1.59381">
        <ele>-44.59</ele>
        <time>2015-03-07T15:24:47Z</time>
      </trkpt>
      <trkpt lat="47.1872" lon="-1.59411">
        <ele>-44.88</ele>
        <time>2015-03-07T15:24:51Z</time>
      </trkpt>
      <trkpt lat="47.18716" lon="-1.5944">
        <ele>-45.14</ele>
        <time>2015-03-07T15:24:55Z</time>
      </trkpt>
      <trkpt lat="47.18713" lon="-1.59469">
        <ele>-45.27</ele>
        <time>2015-03-07T15:24:59Z</time>
      </trkpt>
      <trkpt lat="47.1871" lon="-1.59498">
        <ele>-45.31</ele>
        <time>2015-03-07T15:25:03Z</time>
      </trkpt>
      <trkpt lat="47.18707" lon="-1.59527">
        <ele>-45.23</ele>
        <time>2015-03-07T15:25:07Z</time>
      </trkpt>
      <trkpt lat="47.18704" lon="-1.59555">
        <ele>-45.06</ele>
        <time>2015-03-07T15:25:11Z</time>
      </trkpt>
      <trkpt lat="47.18701" lon="-1.59583">
        <ele>-44.89</ele>
        <time>2015-03-07T15:25:15Z</time>
      </trkpt>
      <trkpt lat="47.18698" lon="-1.5961">
        <ele>-45.04</ele>
        <time>2015-03-07T15:25:19Z</time>
      </trkpt>
      <trkpt lat="47.18694" lon="-1.59638">
        <ele>-45.14</ele>
        <time>2015-03-07T15:25:23Z</time>
      </trkpt>
      <trkpt lat="47.1869" lon="-1.59665">
        <ele>-45.26</ele>
        <time>2015-03-07T15:25:27Z</time>
      </trkpt>
      <trkpt lat="47.18686" lon="-1.59692">
        <ele>-45.36</ele>
        <time>2015-03-07T15:25:31Z</time>
      </trkpt>
      <trkpt lat="47.18684" lon="-1.59719">
        <ele>-45.51</ele>
        <time>2015-03-07T15:25:35Z</time>
      </trkpt>
      <trkpt lat="47.18684" lon="-1.59747">
        <ele>-45.53</ele>
        <time>2015-03-07T15:25:39Z</time>
      </trkpt>
      <trkpt lat="47.18688" lon="-1.59776">
        <ele>-45.93</ele>
        <time>2015-03-07T15:25:43Z</time>
      </trkpt>
      <trkpt lat="47.18684" lon="-1.5981">
        <ele>-46.45</ele>
        <time>2015-03-07T15:25:47Z</time>
      </trkpt>
      <trkpt lat="47.18672" lon="-1.59838">
        <ele>-45</ele>
        <time>2015-03-07T15:25:51Z</time>
      </trkpt>
      <trkpt lat="47.1865" lon="-1.59846">
        <ele>-44.43</ele>
        <time>2015-03-07T15:25:55Z</time>
      </trkpt>
      <trkpt lat="47.18633" lon="-1.59836">
        <ele>-45.07</ele>
        <time>2015-03-07T15:25:58Z</time>
      </trkpt>
      <trkpt lat="47.18622" lon="-1.59863">
        <ele>-46.66</ele>
        <time>2015-03-07T15:26:04Z</time>
      </trkpt>
      <trkpt lat="47.18619" lon="-1.59893">
        <ele>-47.1</ele>
        <time>2015-03-07T15:26:08Z</time>
      </trkpt>
      <trkpt lat="47.18612" lon="-1.5992">
        <ele>-46.99</ele>
        <time>2015-03-07T15:26:12Z</time>
      </trkpt>
      <trkpt lat="47.18605" lon="-1.59944">
        <ele>-46.9</ele>
        <time>2015-03-07T15:26:16Z</time>
      </trkpt>
      <trkpt lat="47.18597" lon="-1.59969">
        <ele>-46.79</ele>
        <time>2015-03-07T15:26:20Z</time>
      </trkpt>
      <trkpt lat="47.18589" lon="-1.59993">
        <ele>-46.94</ele>
        <time>2015-03-07T15:26:24Z</time>
      </trkpt>
      <trkpt lat="47.18581" lon="-1.60017">
        <ele>-46.92</ele>
        <time>2015-03-07T15:26:28Z</time>
      </trkpt>
      <trkpt lat="47.1857" lon="-1.60046">
        <ele>-46.49</ele>
        <time>2015-03-07T15:26:33Z</time>
      </trkpt>
      <trkpt lat="47.1856" lon="-1.60075">
        <ele>-46.46</ele>
        <time>2015-03-07T15:26:38Z</time>
      </trkpt>
      <trkpt lat="47.1855" lon="-1.60098">
        <ele>-46.33</ele>
        <time>2015-03-07T15:26:42Z</time>
      </trkpt>
      <trkpt lat="47.1854" lon="-1.60121">
        <ele>-46.55</ele>
        <time>2015-03-07T15:26:46Z</time>
      </trkpt>
      <trkpt lat="47.1853" lon="-1.60144">
        <ele>-46.89</ele>
        <time>2015-03-07T15:26:50Z</time>
      </trkpt>
      <trkpt lat="47.1852" lon="-1.60166">
        <ele>-46.98</ele>
        <time>2015-03-07T15:26:54Z</time>
      </trkpt>
      <trkpt lat="47.18509" lon="-1.60187">
        <ele>-47.46</ele>
        <time>2015-03-07T15:26:58Z</time>
      </trkpt>
      <trkpt lat="47.18498" lon="-1.6021">
        <ele>-47.04</ele>
        <time>2015-03-07T15:27:02Z</time>
      </trkpt>
      <trkpt lat="47.18485" lon="-1.60236">
        <ele>-46.9</ele>
        <time>2015-03-07T15:27:07Z</time>
      </trkpt>
      <trkpt lat="47.18471" lon="-1.60261">
        <ele>-46.91</ele>
        <time>2015-03-07T15:27:12Z</time>
      </trkpt>
      <trkpt lat="47.18459" lon="-1.60281">
        <ele>-47.39</ele>
        <time>2015-03-07T15:27:16Z</time>
      </trkpt>
      <trkpt lat="47.18445" lon="-1.60306">
        <ele>-47.42</ele>
        <time>2015-03-07T15:27:21Z</time>
      </trkpt>
      <trkpt lat="47.18429" lon="-1.6033">
        <ele>-47.78</ele>
        <time>2015-03-07T15:27:26Z</time>
      </trkpt>
      <trkpt lat="47.18414" lon="-1.60353">
        <ele>-48.01</ele>
        <time>2015-03-07T15:27:31Z</time>
      </trkpt>
      <trkpt lat="47.18397" lon="-1.60376">
        <ele>-47.39</ele>
        <time>2015-03-07T15:27:36Z</time>
      </trkpt>
      <trkpt lat="47.18384" lon="-1.60394">
        <ele>-46.62</ele>
        <time>2015-03-07T15:27:40Z</time>
      </trkpt>
      <trkpt lat="47.18369" lon="-1.60412">
        <ele>-46.27</ele>
        <time>2015-03-07T15:27:44Z</time>
      </trkpt>
      <trkpt lat="47.18355" lon="-1.6043">
        <ele>-46.67</ele>
        <time>2015-03-07T15:27:48Z</time>
      </trkpt>
      <trkpt lat="47.18339" lon="-1.6045">
        <ele>-46.23</ele>
        <time>2015-03-07T15:27:53Z</time>
      </trkpt>
      <trkpt lat="47.18325" lon="-1.60467">
        <ele>-45.86</ele>
        <time>2015-03-07T15:27:57Z</time>
      </trkpt>
      <trkpt lat="47.1831" lon="-1.60484">
        <ele>-46.02</ele>
        <time>2015-03-07T15:28:01Z</time>
      </trkpt>
      <trkpt lat="47.18296" lon="-1.60501">
        <ele>-45.88</ele>
        <time>2015-03-07T15:28:05Z</time>
      </trkpt>
      <trkpt lat="47.18278" lon="-1.6052">
        <ele>-46.3</ele>
        <time>2015-03-07T15:28:10Z</time>
      </trkpt>
      <trkpt lat="47.18262" lon="-1.60534">
        <ele>-46.36</ele>
        <time>2015-03-07T15:28:14Z</time>
      </trkpt>
      <trkpt lat="47.18246" lon="-1.60547">
        <ele>-46.08</ele>
        <time>2015-03-07T15:28:18Z</time>
      </trkpt>
      <trkpt lat="47.18226" lon="-1.6056">
        <ele>-46.28</ele>
        <time>2015-03-07T15:28:23Z</time>
      </trkpt>
      <trkpt lat="47.18206" lon="-1.60572">
        <ele>-45.04</ele>
        <time>2015-03-07T15:28:28Z</time>
      </trkpt>
      <trkpt lat="47.18192" lon="-1.60591">
        <ele>-42.28</ele>
        <time>2015-03-07T15:28:35Z</time>
      </trkpt>
      <trkpt lat="47.18175" lon="-1.60599">
        <ele>-41.31</ele>
        <time>2015-03-07T15:28:39Z</time>
      </trkpt>
      <trkpt lat="47.18155" lon="-1.60601">
        <ele>-40.77</ele>
        <time>2015-03-07T15:28:43Z</time>
      </trkpt>
      <trkpt lat="47.18137" lon="-1.60598">
        <ele>-40.87</ele>
        <time>2015-03-07T15:28:47Z</time>
      </trkpt>
      <trkpt lat="47.18119" lon="-1.60593">
        <ele>-40.27</ele>
        <time>2015-03-07T15:28:51Z</time>
      </trkpt>
      <trkpt lat="47.181" lon="-1.60586">
        <ele>-40.01</ele>
        <time>2015-03-07T15:28:55Z</time>
      </trkpt>
      <trkpt lat="47.18082" lon="-1.60576">
        <ele>-40.43</ele>
        <time>2015-03-07T15:28:59Z</time>
      </trkpt>
      <trkpt lat="47.18065" lon="-1.60568">
        <ele>-40.3</ele>
        <time>2015-03-07T15:29:03Z</time>
      </trkpt>
      <trkpt lat="47.18048" lon="-1.60558">
        <ele>-41.53</ele>
        <time>2015-03-07T15:29:07Z</time>
      </trkpt>
      <trkpt lat="47.1803" lon="-1.60551">
        <ele>-42.52</ele>
        <time>2015-03-07T15:29:11Z</time>
      </trkpt>
      <trkpt lat="47.18011" lon="-1.60553">
        <ele>-43.46</ele>
        <time>2015-03-07T15:29:15Z</time>
      </trkpt>
      <trkpt lat="47.1799" lon="-1.60559">
        <ele>-44.38</ele>
        <time>2015-03-07T15:29:20Z</time>
      </trkpt>
      <trkpt lat="47.17971" lon="-1.60566">
        <ele>-44.48</ele>
        <time>2015-03-07T15:29:25Z</time>
      </trkpt>
      <trkpt lat="47.17951" lon="-1.60574">
        <ele>-44.31</ele>
        <time>2015-03-07T15:29:30Z</time>
      </trkpt>
      <trkpt lat="47.17933" lon="-1.60584">
        <ele>-44.46</ele>
        <time>2015-03-07T15:29:35Z</time>
      </trkpt>
      <trkpt lat="47.17915" lon="-1.60586">
        <ele>-43.4</ele>
        <time>2015-03-07T15:29:44Z</time>
      </trkpt>
      <trkpt lat="47.17905" lon="-1.6061">
        <ele>-43.11</ele>
        <time>2015-03-07T15:29:48Z</time>
      </trkpt>
      <trkpt lat="47.17896" lon="-1.60638">
        <ele>-42.85</ele>
        <time>2015-03-07T15:29:52Z</time>
      </trkpt>
      <trkpt lat="47.17885" lon="-1.60664">
        <ele>-41.93</ele>
        <time>2015-03-07T15:29:56Z</time>
      </trkpt>
      <trkpt lat="47.17877" lon="-1.6069">
        <ele>-41.76</ele>
        <time>2015-03-07T15:30:00Z</time>
      </trkpt>
      <trkpt lat="47.1787" lon="-1.60714">
        <ele>-42.54</ele>
        <time>2015-03-07T15:30:04Z</time>
      </trkpt>
      <trkpt lat="47.17863" lon="-1.60744">
        <ele>-42.19</ele>
        <time>2015-03-07T15:30:09Z</time>
      </trkpt>
      <trkpt lat="47.17856" lon="-1.60774">
        <ele>-42.77</ele>
        <time>2015-03-07T15:30:14Z</time>
      </trkpt>
      <trkpt lat="47.17849" lon="-1.60801">
        <ele>-42.17</ele>
        <time>2015-03-07T15:30:19Z</time>
      </trkpt>
      <trkpt lat="47.17841" lon="-1.60829">
        <ele>-42.76</ele>
        <time>2015-03-07T15:30:24Z</time>
      </trkpt>
      <trkpt lat="47.17831" lon="-1.60853">
        <ele>-42.55</ele>
        <time>2015-03-07T15:30:29Z</time>
      </trkpt>
      <trkpt lat="47.17819" lon="-1.60876">
        <ele>-43.85</ele>
        <time>2015-03-07T15:30:34Z</time>
      </trkpt>
      <trkpt lat="47.17803" lon="-1.60894">
        <ele>-45.03</ele>
        <time>2015-03-07T15:30:39Z</time>
      </trkpt>
      <trkpt lat="47.17786" lon="-1.60908">
        <ele>-45.87</ele>
        <time>2015-03-07T15:30:44Z</time>
      </trkpt>
      <trkpt lat="47.17768" lon="-1.60922">
        <ele>-46.19</ele>
        <time>2015-03-07T15:30:49Z</time>
      </trkpt>
      <trkpt lat="47.1775" lon="-1.60935">
        <ele>-46.33</ele>
        <time>2015-03-07T15:30:54Z</time>
      </trkpt>
      <trkpt lat="47.17731" lon="-1.60948">
        <ele>-46.5</ele>
        <time>2015-03-07T15:30:59Z</time>
      </trkpt>
      <trkpt lat="47.17711" lon="-1.60961">
        <ele>-45.92</ele>
        <time>2015-03-07T15:31:04Z</time>
      </trkpt>
      <trkpt lat="47.17693" lon="-1.6097">
        <ele>-46.05</ele>
        <time>2015-03-07T15:31:08Z</time>
      </trkpt>
      <trkpt lat="47.17674" lon="-1.60968">
        <ele>-47.69</ele>
        <time>2015-03-07T15:31:12Z</time>
      </trkpt>
      <trkpt lat="47.17654" lon="-1.60975">
        <ele>-48.37</ele>
        <time>2015-03-07T15:31:16Z</time>
      </trkpt>
      <trkpt lat="47.17638" lon="-1.60989">
        <ele>-49.25</ele>
        <time>2015-03-07T15:31:20Z</time>
      </trkpt>
      <trkpt lat="47.17622" lon="-1.61003">
        <ele>-49.45</ele>
        <time>2015-03-07T15:31:24Z</time>
      </trkpt>
      <trkpt lat="47.17603" lon="-1.6102">
        <ele>-49.65</ele>
        <time>2015-03-07T15:31:29Z</time>
      </trkpt>
      <trkpt lat="47.17586" lon="-1.61036">
        <ele>-50.18</ele>
        <time>2015-03-07T15:31:34Z</time>
      </trkpt>
      <trkpt lat="47.17569" lon="-1.61051">
        <ele>-50.03</ele>
        <time>2015-03-07T15:31:39Z</time>
      </trkpt>
      <trkpt lat="47.17553" lon="-1.61065">
        <ele>-50.01</ele>
        <time>2015-03-07T15:31:44Z</time>
      </trkpt>
      <trkpt lat="47.17535" lon="-1.61079">
        <ele>-49.82</ele>
        <time>2015-03-07T15:31:50Z</time>
      </trkpt>
      <trkpt lat="47.17518" lon="-1.61095">
        <ele>-49.46</ele>
        <time>2015-03-07T15:31:55Z</time>
      </trkpt>
      <trkpt lat="47.17501" lon="-1.61104">
        <ele>-51.11</ele>
        <time>2015-03-07T15:33:28Z</time>
      </trkpt>
      <trkpt lat="47.1748" lon="-1.61102">
        <ele>-50.92</ele>
        <time>2015-03-07T15:33:34Z</time>
      </trkpt>
      <trkpt lat="47.17464" lon="-1.6109">
        <ele>-49.91</ele>
        <time>2015-03-07T15:33:39Z</time>
      </trkpt>
      <trkpt lat="47.17449" lon="-1.61072">
        <ele>-48.71</ele>
        <time>2015-03-07T15:33:44Z</time>
      </trkpt>
      <trkpt lat="47.17438" lon="-1.61048">
        <ele>-47.8</ele>
        <time>2015-03-07T15:33:49Z</time>
      </trkpt>
      <trkpt lat="47.1743" lon="-1.6102">
        <ele>-46.07</ele>
        <time>2015-03-07T15:33:55Z</time>
      </trkpt>
      <trkpt lat="47.17428" lon="-1.61048">
        <ele>-41.87</ele>
        <time>2015-03-07T15:34:06Z</time>
      </trkpt>
      <trkpt lat="47.17437" lon="-1.61074">
        <ele>-41.51</ele>
        <time>2015-03-07T15:34:11Z</time>
      </trkpt>
      <trkpt lat="47.17447" lon="-1.61097">
        <ele>-40.85</ele>
        <time>2015-03-07T15:34:16Z</time>
      </trkpt>
      <trkpt lat="47.17456" lon="-1.61124">
        <ele>-38.85</ele>
        <time>2015-03-07T15:34:22Z</time>
      </trkpt>
      <trkpt lat="47.17467" lon="-1.61152">
        <ele>-36.87</ele>
        <time>2015-03-07T15:34:28Z</time>
      </trkpt>
      <trkpt lat="47.17477" lon="-1.61176">
        <ele>-36.71</ele>
        <time>2015-03-07T15:34:33Z</time>
      </trkpt>
      <trkpt lat="47.17487" lon="-1.61201">
        <ele>-36.82</ele>
        <time>2015-03-07T15:34:38Z</time>
      </trkpt>
      <trkpt lat="47.17497" lon="-1.61226">
        <ele>-37.16</ele>
        <time>2015-03-07T15:34:43Z</time>
      </trkpt>
      <trkpt lat="47.17509" lon="-1.6125">
        <ele>-38.15</ele>
        <time>2015-03-07T15:34:48Z</time>
      </trkpt>
      <trkpt lat="47.17523" lon="-1.61272">
        <ele>-38.61</ele>
        <time>2015-03-07T15:34:53Z</time>
      </trkpt>
      <trkpt lat="47.17541" lon="-1.61284">
        <ele>-39.21</ele>
        <time>2015-03-07T15:34:59Z</time>
      </trkpt>
      <trkpt lat="47.17558" lon="-1.61303">
        <ele>-38.99</ele>
        <time>2015-03-07T15:35:04Z</time>
      </trkpt>
      <trkpt lat="47.17561" lon="-1.61331">
        <ele>-38.97</ele>
        <time>2015-03-07T15:35:08Z</time>
      </trkpt>
      <trkpt lat="47.17549" lon="-1.61352">
        <ele>-39.87</ele>
        <time>2015-03-07T15:35:12Z</time>
      </trkpt>
      <trkpt lat="47.17534" lon="-1.6137">
        <ele>-40.67</ele>
        <time>2015-03-07T15:35:16Z</time>
      </trkpt>
      <trkpt lat="47.17525" lon="-1.61399">
        <ele>-41.42</ele>
        <time>2015-03-07T15:35:21Z</time>
      </trkpt>
      <trkpt lat="47.17519" lon="-1.61426">
        <ele>-40.48</ele>
        <time>2015-03-07T15:35:26Z</time>
      </trkpt>
      <trkpt lat="47.17511" lon="-1.61453">
        <ele>-38.24</ele>
        <time>2015-03-07T15:35:31Z</time>
      </trkpt>
      <trkpt lat="47.17494" lon="-1.61464">
        <ele>-36.94</ele>
        <time>2015-03-07T15:35:36Z</time>
      </trkpt>
      <trkpt lat="47.17477" lon="-1.61472">
        <ele>-35.24</ele>
        <time>2015-03-07T15:35:41Z</time>
      </trkpt>
      <trkpt lat="47.17459" lon="-1.6148">
        <ele>-34.02</ele>
        <time>2015-03-07T15:35:46Z</time>
      </trkpt>
      <trkpt lat="47.1744" lon="-1.6149">
        <ele>-33.5</ele>
        <time>2015-03-07T15:35:52Z</time>
      </trkpt>
      <trkpt lat="47.17423" lon="-1.61502">
        <ele>-33.22</ele>
        <time>2015-03-07T15:35:57Z</time>
      </trkpt>
      <trkpt lat="47.17406" lon="-1.61513">
        <ele>-33.3</ele>
        <time>2015-03-07T15:36:02Z</time>
      </trkpt>
      <trkpt lat="47.1739" lon="-1.61526">
        <ele>-33.44</ele>
        <time>2015-03-07T15:36:07Z</time>
      </trkpt>
      <trkpt lat="47.17375" lon="-1.6154">
        <ele>-33.85</ele>
        <time>2015-03-07T15:36:12Z</time>
      </trkpt>
      <trkpt lat="47.17357" lon="-1.61558">
        <ele>-33.39</ele>
        <time>2015-03-07T15:36:18Z</time>
      </trkpt>
      <trkpt lat="47.17341" lon="-1.61577">
        <ele>-32.74</ele>
        <time>2015-03-07T15:36:24Z</time>
      </trkpt>
      <trkpt lat="47.17326" lon="-1.61596">
        <ele>-32.24</ele>
        <time>2015-03-07T15:36:29Z</time>
      </trkpt>
      <trkpt lat="47.17311" lon="-1.61616">
        <ele>-31.62</ele>
        <time>2015-03-07T15:36:34Z</time>
      </trkpt>
      <trkpt lat="47.17296" lon="-1.61637">
        <ele>-31.24</ele>
        <time>2015-03-07T15:36:39Z</time>
      </trkpt>
      <trkpt lat="47.17283" lon="-1.61658">
        <ele>-30.34</ele>
        <time>2015-03-07T15:36:44Z</time>
      </trkpt>
      <trkpt lat="47.17271" lon="-1.61683">
        <ele>-29.72</ele>
        <time>2015-03-07T15:36:49Z</time>
      </trkpt>
      <trkpt lat="47.17259" lon="-1.61708">
        <ele>-30.01</ele>
        <time>2015-03-07T15:36:54Z</time>
      </trkpt>
      <trkpt lat="47.17247" lon="-1.61733">
        <ele>-30.3</ele>
        <time>2015-03-07T15:36:59Z</time>
      </trkpt>
      <trkpt lat="47.17241" lon="-1.61763">
        <ele>-30.43</ele>
        <time>2015-03-07T15:37:04Z</time>
      </trkpt>
      <trkpt lat="47.17228" lon="-1.61786">
        <ele>-30.93</ele>
        <time>2015-03-07T15:37:09Z</time>
      </trkpt>
      <trkpt lat="47.17211" lon="-1.61802">
        <ele>-31.48</ele>
        <time>2015-03-07T15:37:14Z</time>
      </trkpt>
      <trkpt lat="47.17194" lon="-1.61817">
        <ele>-31.45</ele>
        <time>2015-03-07T15:37:19Z</time>
      </trkpt>
      <trkpt lat="47.17178" lon="-1.61832">
        <ele>-31</ele>
        <time>2015-03-07T15:37:24Z</time>
      </trkpt>
      <trkpt lat="47.17163" lon="-1.61848">
        <ele>-31.12</ele>
        <time>2015-03-07T15:37:29Z</time>
      </trkpt>
      <trkpt lat="47.17146" lon="-1.61865">
        <ele>-31.93</ele>
        <time>2015-03-07T15:37:34Z</time>
      </trkpt>
      <trkpt lat="47.1713" lon="-1.6188">
        <ele>-32.35</ele>
        <time>2015-03-07T15:37:39Z</time>
      </trkpt>
      <trkpt lat="47.17113" lon="-1.61897">
        <ele>-33.13</ele>
        <time>2015-03-07T15:37:44Z</time>
      </trkpt>
      <trkpt lat="47.17096" lon="-1.61914">
        <ele>-33.66</ele>
        <time>2015-03-07T15:37:49Z</time>
      </trkpt>
      <trkpt lat="47.17079" lon="-1.61931">
        <ele>-34.01</ele>
        <time>2015-03-07T15:37:54Z</time>
      </trkpt>
      <trkpt lat="47.17064" lon="-1.61948">
        <ele>-33.59</ele>
        <time>2015-03-07T15:37:59Z</time>
      </trkpt>
      <trkpt lat="47.17049" lon="-1.61967">
        <ele>-33.48</ele>
        <time>2015-03-07T15:38:04Z</time>
      </trkpt>
      <trkpt lat="47.17035" lon="-1.61987">
        <ele>-33.75</ele>
        <time>2015-03-07T15:38:09Z</time>
      </trkpt>
      <trkpt lat="47.1702" lon="-1.62007">
        <ele>-33.96</ele>
        <time>2015-03-07T15:38:14Z</time>
      </trkpt>
      <trkpt lat="47.17006" lon="-1.62028">
        <ele>-33.88</ele>
        <time>2015-03-07T15:38:19Z</time>
      </trkpt>
      <trkpt lat="47.16993" lon="-1.62051">
        <ele>-33.31</ele>
        <time>2015-03-07T15:38:24Z</time>
      </trkpt>
      <trkpt lat="47.1698" lon="-1.62075">
        <ele>-33.6</ele>
        <time>2015-03-07T15:38:29Z</time>
      </trkpt>
      <trkpt lat="47.16967" lon="-1.62097">
        <ele>-33.32</ele>
        <time>2015-03-07T15:38:34Z</time>
      </trkpt>
      <trkpt lat="47.16955" lon="-1.6212">
        <ele>-33.21</ele>
        <time>2015-03-07T15:38:39Z</time>
      </trkpt>
      <trkpt lat="47.16943" lon="-1.62143">
        <ele>-32.98</ele>
        <time>2015-03-07T15:38:44Z</time>
      </trkpt>
      <trkpt lat="47.16932" lon="-1.62168">
        <ele>-32.87</ele>
        <time>2015-03-07T15:38:49Z</time>
      </trkpt>
      <trkpt lat="47.1692" lon="-1.62191">
        <ele>-32.68</ele>
        <time>2015-03-07T15:38:54Z</time>
      </trkpt>
      <trkpt lat="47.16905" lon="-1.62214">
        <ele>-32.83</ele>
        <time>2015-03-07T15:38:59Z</time>
      </trkpt>
      <trkpt lat="47.16888" lon="-1.62235">
        <ele>-32.87</ele>
        <time>2015-03-07T15:39:04Z</time>
      </trkpt>
      <trkpt lat="47.16873" lon="-1.62254">
        <ele>-32.52</ele>
        <time>2015-03-07T15:39:09Z</time>
      </trkpt>
      <trkpt lat="47.16858" lon="-1.62274">
        <ele>-32.19</ele>
        <time>2015-03-07T15:39:14Z</time>
      </trkpt>
      <trkpt lat="47.16842" lon="-1.62292">
        <ele>-31.95</ele>
        <time>2015-03-07T15:39:19Z</time>
      </trkpt>
      <trkpt lat="47.16826" lon="-1.6231">
        <ele>-31.7</ele>
        <time>2015-03-07T15:39:24Z</time>
      </trkpt>
      <trkpt lat="47.16808" lon="-1.62324">
        <ele>-32.32</ele>
        <time>2015-03-07T15:39:29Z</time>
      </trkpt>
      <trkpt lat="47.16788" lon="-1.62335">
        <ele>-32.98</ele>
        <time>2015-03-07T15:39:34Z</time>
      </trkpt>
      <trkpt lat="47.1677" lon="-1.62345">
        <ele>-33.14</ele>
        <time>2015-03-07T15:39:38Z</time>
      </trkpt>
      <trkpt lat="47.16754" lon="-1.62357">
        <ele>-33.44</ele>
        <time>2015-03-07T15:39:42Z</time>
      </trkpt>
      <trkpt lat="47.16739" lon="-1.62374">
        <ele>-33.51</ele>
        <time>2015-03-07T15:39:46Z</time>
      </trkpt>
      <trkpt lat="47.1673" lon="-1.62402">
        <ele>-33.63</ele>
        <time>2015-03-07T15:39:51Z</time>
      </trkpt>
      <trkpt lat="47.16726" lon="-1.62431">
        <ele>-33.89</ele>
        <time>2015-03-07T15:39:56Z</time>
      </trkpt>
      <trkpt lat="47.16719" lon="-1.62462">
        <ele>-33.88</ele>
        <time>2015-03-07T15:40:01Z</time>
      </trkpt>
      <trkpt lat="47.16712" lon="-1.62493">
        <ele>-33.75</ele>
        <time>2015-03-07T15:40:06Z</time>
      </trkpt>
      <trkpt lat="47.16707" lon="-1.62522">
        <ele>-33.26</ele>
        <time>2015-03-07T15:40:11Z</time>
      </trkpt>
      <trkpt lat="47.16703" lon="-1.62551">
        <ele>-32.74</ele>
        <time>2015-03-07T15:40:16Z</time>
      </trkpt>
      <trkpt lat="47.16701" lon="-1.62579">
        <ele>-32.26</ele>
        <time>2015-03-07T15:40:21Z</time>
      </trkpt>
      <trkpt lat="47.167" lon="-1.62608">
        <ele>-31.86</ele>
        <time>2015-03-07T15:40:26Z</time>
      </trkpt>
      <trkpt lat="47.16701" lon="-1.62637">
        <ele>-31.64</ele>
        <time>2015-03-07T15:40:31Z</time>
      </trkpt>
      <trkpt lat="47.16706" lon="-1.62667">
        <ele>-31.46</ele>
        <time>2015-03-07T15:40:36Z</time>
      </trkpt>
      <trkpt lat="47.1672" lon="-1.62688">
        <ele>-30.85</ele>
        <time>2015-03-07T15:40:42Z</time>
      </trkpt>
      <trkpt lat="47.16739" lon="-1.62676">
        <ele>-30.78</ele>
        <time>2015-03-07T15:40:47Z</time>
      </trkpt>
      <trkpt lat="47.16757" lon="-1.6267">
        <ele>-31.1</ele>
        <time>2015-03-07T15:40:52Z</time>
      </trkpt>
      <trkpt lat="47.16776" lon="-1.62671">
        <ele>-31.78</ele>
        <time>2015-03-07T15:40:58Z</time>
      </trkpt>
      <trkpt lat="47.16769" lon="-1.62639">
        <ele>-32.47</ele>
        <time>2015-03-07T15:43:58Z</time>
      </trkpt>
    </trkseg>
  </trk>
</gpx>